<?xml version="1.0" encoding="UTF-8" standalone="no" ?>
<gpx xmlns="http://www.topografix.com/GPX/1/1" xmlns:xsi="http://www.w3.org/2001/XMLSchema-instance" xsi:schemaLocation="http://www.topografix.com/GPX/1/1 http://www.topografix.com/GPX/1/1/gpx.xsd" version="1.1" creator="VisuGPX - https://www.visugpx.com">
  <metadata>
    <name>L\\\'Ayré (Gare du funiculaire) au départ de \\\&quot;Chez Louisette\\\&quot;.</name>
    <desc><![CDATA[Première sortie 2013 

Départ à 12h30 (du parking d\\\'accès à \\\"Chez Louisette\\\") et petite sortie pour cause de lendemain de réveillon. Nous n\\\'irons pas au dessus de la gare du funiculaire car, une fois là haut, le temps se détériore. Cinq centimètres de poudreuse tombée dans la nuit feront que la descente sera superbe (attention aux cailloux dans le bas). Arrêt tarte aux myrtilles et café \\\"Chez Louisette\\\" puis retour à la voiture à 15h30. Très sympa.]]></desc>
  </metadata>
  <trk>
    <name><![CDATA[L\\\'Ayré (Gare du funiculaire) au départ de \\\"Chez Louisette\\\"._1]]></name>
    <trkseg>
      <trkpt lat="42.89558" lon="0.08283">
        <ele>1541</ele>
        <time>2013-01-01T11:21:16Z</time>
      </trkpt>
      <trkpt lat="42.89534" lon="0.08301">
        <ele>1545</ele>
        <time>2013-01-01T11:22:12Z</time>
      </trkpt>
      <trkpt lat="42.89532" lon="0.08302">
        <ele>1545</ele>
        <time>2013-01-01T11:22:14Z</time>
      </trkpt>
      <trkpt lat="42.89531" lon="0.08303">
        <ele>1545</ele>
        <time>2013-01-01T11:22:15Z</time>
      </trkpt>
      <trkpt lat="42.89529" lon="0.08305">
        <ele>1545</ele>
        <time>2013-01-01T11:22:17Z</time>
      </trkpt>
      <trkpt lat="42.89526" lon="0.08306">
        <ele>1545</ele>
        <time>2013-01-01T11:22:19Z</time>
      </trkpt>
      <trkpt lat="42.89525" lon="0.08307">
        <ele>1545</ele>
        <time>2013-01-01T11:22:21Z</time>
      </trkpt>
      <trkpt lat="42.89524" lon="0.08308">
        <ele>1545</ele>
        <time>2013-01-01T11:22:22Z</time>
      </trkpt>
      <trkpt lat="42.89522" lon="0.08309">
        <ele>1544</ele>
        <time>2013-01-01T11:22:24Z</time>
      </trkpt>
      <trkpt lat="42.8952" lon="0.0831">
        <ele>1543</ele>
        <time>2013-01-01T11:22:26Z</time>
      </trkpt>
      <trkpt lat="42.89519" lon="0.0831">
        <ele>1542</ele>
        <time>2013-01-01T11:22:28Z</time>
      </trkpt>
      <trkpt lat="42.89518" lon="0.08311">
        <ele>1541</ele>
        <time>2013-01-01T11:22:30Z</time>
      </trkpt>
      <trkpt lat="42.89516" lon="0.08312">
        <ele>1539</ele>
        <time>2013-01-01T11:22:32Z</time>
      </trkpt>
      <trkpt lat="42.89515" lon="0.08314">
        <ele>1537</ele>
        <time>2013-01-01T11:22:34Z</time>
      </trkpt>
      <trkpt lat="42.89514" lon="0.08315">
        <ele>1536</ele>
        <time>2013-01-01T11:22:36Z</time>
      </trkpt>
      <trkpt lat="42.89513" lon="0.08316">
        <ele>1534</ele>
        <time>2013-01-01T11:22:38Z</time>
      </trkpt>
      <trkpt lat="42.89511" lon="0.08317">
        <ele>1533</ele>
        <time>2013-01-01T11:22:40Z</time>
      </trkpt>
      <trkpt lat="42.8951" lon="0.08319">
        <ele>1532</ele>
        <time>2013-01-01T11:22:42Z</time>
      </trkpt>
      <trkpt lat="42.89508" lon="0.0832">
        <ele>1531</ele>
        <time>2013-01-01T11:22:44Z</time>
      </trkpt>
      <trkpt lat="42.89506" lon="0.08321">
        <ele>1530</ele>
        <time>2013-01-01T11:22:46Z</time>
      </trkpt>
      <trkpt lat="42.89504" lon="0.08323">
        <ele>1530</ele>
        <time>2013-01-01T11:22:48Z</time>
      </trkpt>
      <trkpt lat="42.89503" lon="0.08324">
        <ele>1530</ele>
        <time>2013-01-01T11:22:49Z</time>
      </trkpt>
      <trkpt lat="42.89501" lon="0.08325">
        <ele>1530</ele>
        <time>2013-01-01T11:22:50Z</time>
      </trkpt>
      <trkpt lat="42.895" lon="0.08326">
        <ele>1530</ele>
        <time>2013-01-01T11:22:51Z</time>
      </trkpt>
      <trkpt lat="42.89499" lon="0.08326">
        <ele>1530</ele>
        <time>2013-01-01T11:22:52Z</time>
      </trkpt>
      <trkpt lat="42.89498" lon="0.08327">
        <ele>1530</ele>
        <time>2013-01-01T11:22:53Z</time>
      </trkpt>
      <trkpt lat="42.89496" lon="0.08328">
        <ele>1530</ele>
        <time>2013-01-01T11:22:55Z</time>
      </trkpt>
      <trkpt lat="42.89494" lon="0.0833">
        <ele>1530</ele>
        <time>2013-01-01T11:22:57Z</time>
      </trkpt>
      <trkpt lat="42.89492" lon="0.08331">
        <ele>1530</ele>
        <time>2013-01-01T11:22:59Z</time>
      </trkpt>
      <trkpt lat="42.89491" lon="0.08332">
        <ele>1529</ele>
        <time>2013-01-01T11:23:01Z</time>
      </trkpt>
      <trkpt lat="42.89489" lon="0.08333">
        <ele>1529</ele>
        <time>2013-01-01T11:23:02Z</time>
      </trkpt>
      <trkpt lat="42.89487" lon="0.08334">
        <ele>1529</ele>
        <time>2013-01-01T11:23:04Z</time>
      </trkpt>
      <trkpt lat="42.89486" lon="0.08335">
        <ele>1529</ele>
        <time>2013-01-01T11:23:05Z</time>
      </trkpt>
      <trkpt lat="42.89484" lon="0.08336">
        <ele>1529</ele>
        <time>2013-01-01T11:23:07Z</time>
      </trkpt>
      <trkpt lat="42.89482" lon="0.08336">
        <ele>1528</ele>
        <time>2013-01-01T11:23:09Z</time>
      </trkpt>
      <trkpt lat="42.89481" lon="0.08336">
        <ele>1528</ele>
        <time>2013-01-01T11:23:11Z</time>
      </trkpt>
      <trkpt lat="42.89479" lon="0.08335">
        <ele>1527</ele>
        <time>2013-01-01T11:23:13Z</time>
      </trkpt>
      <trkpt lat="42.89478" lon="0.08334">
        <ele>1526</ele>
        <time>2013-01-01T11:23:15Z</time>
      </trkpt>
      <trkpt lat="42.89476" lon="0.08333">
        <ele>1526</ele>
        <time>2013-01-01T11:23:17Z</time>
      </trkpt>
      <trkpt lat="42.89475" lon="0.08331">
        <ele>1526</ele>
        <time>2013-01-01T11:23:19Z</time>
      </trkpt>
      <trkpt lat="42.89474" lon="0.08328">
        <ele>1525</ele>
        <time>2013-01-01T11:23:21Z</time>
      </trkpt>
      <trkpt lat="42.89474" lon="0.08325">
        <ele>1525</ele>
        <time>2013-01-01T11:23:23Z</time>
      </trkpt>
      <trkpt lat="42.89474" lon="0.08323">
        <ele>1525</ele>
        <time>2013-01-01T11:23:24Z</time>
      </trkpt>
      <trkpt lat="42.89474" lon="0.08321">
        <ele>1525</ele>
        <time>2013-01-01T11:23:25Z</time>
      </trkpt>
      <trkpt lat="42.89473" lon="0.08319">
        <ele>1525</ele>
        <time>2013-01-01T11:23:26Z</time>
      </trkpt>
      <trkpt lat="42.89473" lon="0.08318">
        <ele>1525</ele>
        <time>2013-01-01T11:23:27Z</time>
      </trkpt>
      <trkpt lat="42.89473" lon="0.08316">
        <ele>1525</ele>
        <time>2013-01-01T11:23:28Z</time>
      </trkpt>
      <trkpt lat="42.89473" lon="0.08314">
        <ele>1525</ele>
        <time>2013-01-01T11:23:29Z</time>
      </trkpt>
      <trkpt lat="42.89473" lon="0.08312">
        <ele>1525</ele>
        <time>2013-01-01T11:23:30Z</time>
      </trkpt>
      <trkpt lat="42.89473" lon="0.0831">
        <ele>1525</ele>
        <time>2013-01-01T11:23:31Z</time>
      </trkpt>
      <trkpt lat="42.89473" lon="0.08308">
        <ele>1525</ele>
        <time>2013-01-01T11:23:32Z</time>
      </trkpt>
      <trkpt lat="42.89473" lon="0.08306">
        <ele>1525</ele>
        <time>2013-01-01T11:23:34Z</time>
      </trkpt>
      <trkpt lat="42.89473" lon="0.08304">
        <ele>1526</ele>
        <time>2013-01-01T11:23:35Z</time>
      </trkpt>
      <trkpt lat="42.89472" lon="0.08302">
        <ele>1526</ele>
        <time>2013-01-01T11:23:36Z</time>
      </trkpt>
      <trkpt lat="42.89472" lon="0.08299">
        <ele>1526</ele>
        <time>2013-01-01T11:23:39Z</time>
      </trkpt>
      <trkpt lat="42.89472" lon="0.08298">
        <ele>1526</ele>
        <time>2013-01-01T11:23:40Z</time>
      </trkpt>
      <trkpt lat="42.89472" lon="0.08294">
        <ele>1526</ele>
        <time>2013-01-01T11:23:42Z</time>
      </trkpt>
      <trkpt lat="42.89472" lon="0.08292">
        <ele>1526</ele>
        <time>2013-01-01T11:23:43Z</time>
      </trkpt>
      <trkpt lat="42.89473" lon="0.0829">
        <ele>1526</ele>
        <time>2013-01-01T11:23:44Z</time>
      </trkpt>
      <trkpt lat="42.89473" lon="0.08288">
        <ele>1527</ele>
        <time>2013-01-01T11:23:45Z</time>
      </trkpt>
      <trkpt lat="42.89471" lon="0.08287">
        <ele>1527</ele>
        <time>2013-01-01T11:23:47Z</time>
      </trkpt>
      <trkpt lat="42.8947" lon="0.08286">
        <ele>1527</ele>
        <time>2013-01-01T11:23:49Z</time>
      </trkpt>
      <trkpt lat="42.89469" lon="0.08286">
        <ele>1527</ele>
        <time>2013-01-01T11:23:50Z</time>
      </trkpt>
      <trkpt lat="42.89467" lon="0.08285">
        <ele>1527</ele>
        <time>2013-01-01T11:23:52Z</time>
      </trkpt>
      <trkpt lat="42.89466" lon="0.08285">
        <ele>1527</ele>
        <time>2013-01-01T11:23:53Z</time>
      </trkpt>
      <trkpt lat="42.89464" lon="0.08285">
        <ele>1527</ele>
        <time>2013-01-01T11:23:54Z</time>
      </trkpt>
      <trkpt lat="42.89463" lon="0.08286">
        <ele>1527</ele>
        <time>2013-01-01T11:23:55Z</time>
      </trkpt>
      <trkpt lat="42.89462" lon="0.08286">
        <ele>1527</ele>
        <time>2013-01-01T11:23:56Z</time>
      </trkpt>
      <trkpt lat="42.8946" lon="0.08286">
        <ele>1526</ele>
        <time>2013-01-01T11:23:57Z</time>
      </trkpt>
      <trkpt lat="42.89459" lon="0.08286">
        <ele>1525</ele>
        <time>2013-01-01T11:23:58Z</time>
      </trkpt>
      <trkpt lat="42.89458" lon="0.08286">
        <ele>1524</ele>
        <time>2013-01-01T11:23:59Z</time>
      </trkpt>
      <trkpt lat="42.89457" lon="0.08285">
        <ele>1523</ele>
        <time>2013-01-01T11:24:00Z</time>
      </trkpt>
      <trkpt lat="42.89456" lon="0.08285">
        <ele>1522</ele>
        <time>2013-01-01T11:24:01Z</time>
      </trkpt>
      <trkpt lat="42.89455" lon="0.08285">
        <ele>1521</ele>
        <time>2013-01-01T11:24:02Z</time>
      </trkpt>
      <trkpt lat="42.89453" lon="0.08285">
        <ele>1521</ele>
        <time>2013-01-01T11:24:03Z</time>
      </trkpt>
      <trkpt lat="42.89452" lon="0.08285">
        <ele>1520</ele>
        <time>2013-01-01T11:24:04Z</time>
      </trkpt>
      <trkpt lat="42.8945" lon="0.08284">
        <ele>1519</ele>
        <time>2013-01-01T11:24:06Z</time>
      </trkpt>
      <trkpt lat="42.89449" lon="0.08284">
        <ele>1518</ele>
        <time>2013-01-01T11:24:07Z</time>
      </trkpt>
      <trkpt lat="42.89447" lon="0.08284">
        <ele>1517</ele>
        <time>2013-01-01T11:24:08Z</time>
      </trkpt>
      <trkpt lat="42.89446" lon="0.08284">
        <ele>1517</ele>
        <time>2013-01-01T11:24:09Z</time>
      </trkpt>
      <trkpt lat="42.89445" lon="0.08284">
        <ele>1517</ele>
        <time>2013-01-01T11:24:10Z</time>
      </trkpt>
      <trkpt lat="42.89444" lon="0.08283">
        <ele>1516</ele>
        <time>2013-01-01T11:24:11Z</time>
      </trkpt>
      <trkpt lat="42.89442" lon="0.08283">
        <ele>1516</ele>
        <time>2013-01-01T11:24:12Z</time>
      </trkpt>
      <trkpt lat="42.89441" lon="0.08283">
        <ele>1516</ele>
        <time>2013-01-01T11:24:13Z</time>
      </trkpt>
      <trkpt lat="42.89439" lon="0.08282">
        <ele>1516</ele>
        <time>2013-01-01T11:24:15Z</time>
      </trkpt>
      <trkpt lat="42.89437" lon="0.08281">
        <ele>1515</ele>
        <time>2013-01-01T11:24:17Z</time>
      </trkpt>
      <trkpt lat="42.89436" lon="0.08281">
        <ele>1515</ele>
        <time>2013-01-01T11:24:18Z</time>
      </trkpt>
      <trkpt lat="42.89434" lon="0.08281">
        <ele>1514</ele>
        <time>2013-01-01T11:24:20Z</time>
      </trkpt>
      <trkpt lat="42.89433" lon="0.08281">
        <ele>1514</ele>
        <time>2013-01-01T11:24:21Z</time>
      </trkpt>
      <trkpt lat="42.89431" lon="0.0828">
        <ele>1513</ele>
        <time>2013-01-01T11:24:23Z</time>
      </trkpt>
      <trkpt lat="42.8943" lon="0.0828">
        <ele>1513</ele>
        <time>2013-01-01T11:24:24Z</time>
      </trkpt>
      <trkpt lat="42.89429" lon="0.0828">
        <ele>1513</ele>
        <time>2013-01-01T11:24:25Z</time>
      </trkpt>
      <trkpt lat="42.89428" lon="0.0828">
        <ele>1512</ele>
        <time>2013-01-01T11:24:26Z</time>
      </trkpt>
      <trkpt lat="42.89426" lon="0.0828">
        <ele>1512</ele>
        <time>2013-01-01T11:24:27Z</time>
      </trkpt>
      <trkpt lat="42.89425" lon="0.0828">
        <ele>1512</ele>
        <time>2013-01-01T11:24:28Z</time>
      </trkpt>
      <trkpt lat="42.89424" lon="0.08279">
        <ele>1512</ele>
        <time>2013-01-01T11:24:29Z</time>
      </trkpt>
      <trkpt lat="42.89423" lon="0.08279">
        <ele>1512</ele>
        <time>2013-01-01T11:24:30Z</time>
      </trkpt>
      <trkpt lat="42.89421" lon="0.08279">
        <ele>1511</ele>
        <time>2013-01-01T11:24:31Z</time>
      </trkpt>
      <trkpt lat="42.8942" lon="0.08279">
        <ele>1511</ele>
        <time>2013-01-01T11:24:32Z</time>
      </trkpt>
      <trkpt lat="42.89419" lon="0.08278">
        <ele>1511</ele>
        <time>2013-01-01T11:24:33Z</time>
      </trkpt>
      <trkpt lat="42.89417" lon="0.08278">
        <ele>1511</ele>
        <time>2013-01-01T11:24:34Z</time>
      </trkpt>
      <trkpt lat="42.89416" lon="0.08277">
        <ele>1511</ele>
        <time>2013-01-01T11:24:35Z</time>
      </trkpt>
      <trkpt lat="42.89415" lon="0.08277">
        <ele>1510</ele>
        <time>2013-01-01T11:24:36Z</time>
      </trkpt>
      <trkpt lat="42.89413" lon="0.08277">
        <ele>1510</ele>
        <time>2013-01-01T11:24:37Z</time>
      </trkpt>
      <trkpt lat="42.89412" lon="0.08276">
        <ele>1510</ele>
        <time>2013-01-01T11:24:38Z</time>
      </trkpt>
      <trkpt lat="42.8941" lon="0.08275">
        <ele>1510</ele>
        <time>2013-01-01T11:24:39Z</time>
      </trkpt>
      <trkpt lat="42.89409" lon="0.08275">
        <ele>1510</ele>
        <time>2013-01-01T11:24:40Z</time>
      </trkpt>
      <trkpt lat="42.89407" lon="0.08275">
        <ele>1509</ele>
        <time>2013-01-01T11:24:42Z</time>
      </trkpt>
      <trkpt lat="42.89406" lon="0.08274">
        <ele>1509</ele>
        <time>2013-01-01T11:24:42Z</time>
      </trkpt>
      <trkpt lat="42.89405" lon="0.08274">
        <ele>1509</ele>
        <time>2013-01-01T11:24:43Z</time>
      </trkpt>
      <trkpt lat="42.89404" lon="0.08274">
        <ele>1509</ele>
        <time>2013-01-01T11:24:44Z</time>
      </trkpt>
      <trkpt lat="42.89402" lon="0.08273">
        <ele>1509</ele>
        <time>2013-01-01T11:24:45Z</time>
      </trkpt>
      <trkpt lat="42.89401" lon="0.08272">
        <ele>1509</ele>
        <time>2013-01-01T11:24:46Z</time>
      </trkpt>
      <trkpt lat="42.89399" lon="0.08271">
        <ele>1508</ele>
        <time>2013-01-01T11:24:48Z</time>
      </trkpt>
      <trkpt lat="42.89397" lon="0.08269">
        <ele>1508</ele>
        <time>2013-01-01T11:24:50Z</time>
      </trkpt>
      <trkpt lat="42.89396" lon="0.08266">
        <ele>1508</ele>
        <time>2013-01-01T11:24:52Z</time>
      </trkpt>
      <trkpt lat="42.89394" lon="0.08264">
        <ele>1507</ele>
        <time>2013-01-01T11:24:54Z</time>
      </trkpt>
      <trkpt lat="42.89393" lon="0.08262">
        <ele>1507</ele>
        <time>2013-01-01T11:24:56Z</time>
      </trkpt>
      <trkpt lat="42.89391" lon="0.08259">
        <ele>1506</ele>
        <time>2013-01-01T11:24:58Z</time>
      </trkpt>
      <trkpt lat="42.8939" lon="0.08257">
        <ele>1506</ele>
        <time>2013-01-01T11:25:00Z</time>
      </trkpt>
      <trkpt lat="42.89389" lon="0.08255">
        <ele>1506</ele>
        <time>2013-01-01T11:25:01Z</time>
      </trkpt>
      <trkpt lat="42.89389" lon="0.08253">
        <ele>1506</ele>
        <time>2013-01-01T11:25:02Z</time>
      </trkpt>
      <trkpt lat="42.89389" lon="0.08251">
        <ele>1506</ele>
        <time>2013-01-01T11:25:04Z</time>
      </trkpt>
      <trkpt lat="42.89389" lon="0.08249">
        <ele>1506</ele>
        <time>2013-01-01T11:25:05Z</time>
      </trkpt>
      <trkpt lat="42.89389" lon="0.08246">
        <ele>1506</ele>
        <time>2013-01-01T11:25:07Z</time>
      </trkpt>
      <trkpt lat="42.89389" lon="0.08245">
        <ele>1506</ele>
        <time>2013-01-01T11:25:08Z</time>
      </trkpt>
      <trkpt lat="42.8939" lon="0.08243">
        <ele>1506</ele>
        <time>2013-01-01T11:25:09Z</time>
      </trkpt>
      <trkpt lat="42.89391" lon="0.08241">
        <ele>1506</ele>
        <time>2013-01-01T11:25:10Z</time>
      </trkpt>
      <trkpt lat="42.89391" lon="0.08239">
        <ele>1506</ele>
        <time>2013-01-01T11:25:12Z</time>
      </trkpt>
      <trkpt lat="42.89393" lon="0.08236">
        <ele>1506</ele>
        <time>2013-01-01T11:25:14Z</time>
      </trkpt>
      <trkpt lat="42.89394" lon="0.08234">
        <ele>1506</ele>
        <time>2013-01-01T11:25:16Z</time>
      </trkpt>
      <trkpt lat="42.89395" lon="0.08232">
        <ele>1506</ele>
        <time>2013-01-01T11:25:18Z</time>
      </trkpt>
      <trkpt lat="42.89396" lon="0.0823">
        <ele>1506</ele>
        <time>2013-01-01T11:25:20Z</time>
      </trkpt>
      <trkpt lat="42.89398" lon="0.08228">
        <ele>1506</ele>
        <time>2013-01-01T11:25:22Z</time>
      </trkpt>
      <trkpt lat="42.89399" lon="0.08226">
        <ele>1506</ele>
        <time>2013-01-01T11:25:23Z</time>
      </trkpt>
      <trkpt lat="42.89399" lon="0.08225">
        <ele>1506</ele>
        <time>2013-01-01T11:25:24Z</time>
      </trkpt>
      <trkpt lat="42.894" lon="0.08223">
        <ele>1506</ele>
        <time>2013-01-01T11:25:25Z</time>
      </trkpt>
      <trkpt lat="42.89402" lon="0.08221">
        <ele>1506</ele>
        <time>2013-01-01T11:25:27Z</time>
      </trkpt>
      <trkpt lat="42.89403" lon="0.0822">
        <ele>1506</ele>
        <time>2013-01-01T11:25:28Z</time>
      </trkpt>
      <trkpt lat="42.89404" lon="0.08218">
        <ele>1506</ele>
        <time>2013-01-01T11:25:29Z</time>
      </trkpt>
      <trkpt lat="42.89405" lon="0.08217">
        <ele>1506</ele>
        <time>2013-01-01T11:25:30Z</time>
      </trkpt>
      <trkpt lat="42.89406" lon="0.08215">
        <ele>1506</ele>
        <time>2013-01-01T11:25:31Z</time>
      </trkpt>
      <trkpt lat="42.89407" lon="0.08213">
        <ele>1506</ele>
        <time>2013-01-01T11:25:32Z</time>
      </trkpt>
      <trkpt lat="42.89408" lon="0.08212">
        <ele>1506</ele>
        <time>2013-01-01T11:25:33Z</time>
      </trkpt>
      <trkpt lat="42.89409" lon="0.08209">
        <ele>1506</ele>
        <time>2013-01-01T11:25:35Z</time>
      </trkpt>
      <trkpt lat="42.8941" lon="0.08207">
        <ele>1506</ele>
        <time>2013-01-01T11:25:36Z</time>
      </trkpt>
      <trkpt lat="42.89411" lon="0.08205">
        <ele>1506</ele>
        <time>2013-01-01T11:25:38Z</time>
      </trkpt>
      <trkpt lat="42.89412" lon="0.08203">
        <ele>1506</ele>
        <time>2013-01-01T11:25:39Z</time>
      </trkpt>
      <trkpt lat="42.89413" lon="0.08201">
        <ele>1506</ele>
        <time>2013-01-01T11:25:41Z</time>
      </trkpt>
      <trkpt lat="42.89413" lon="0.08199">
        <ele>1506</ele>
        <time>2013-01-01T11:25:43Z</time>
      </trkpt>
      <trkpt lat="42.89414" lon="0.08197">
        <ele>1506</ele>
        <time>2013-01-01T11:25:45Z</time>
      </trkpt>
      <trkpt lat="42.89415" lon="0.08195">
        <ele>1506</ele>
        <time>2013-01-01T11:25:46Z</time>
      </trkpt>
      <trkpt lat="42.89415" lon="0.08193">
        <ele>1506</ele>
        <time>2013-01-01T11:25:48Z</time>
      </trkpt>
      <trkpt lat="42.89415" lon="0.08191">
        <ele>1506</ele>
        <time>2013-01-01T11:25:50Z</time>
      </trkpt>
      <trkpt lat="42.89416" lon="0.08189">
        <ele>1506</ele>
        <time>2013-01-01T11:25:52Z</time>
      </trkpt>
      <trkpt lat="42.89417" lon="0.08187">
        <ele>1506</ele>
        <time>2013-01-01T11:25:54Z</time>
      </trkpt>
      <trkpt lat="42.89418" lon="0.08185">
        <ele>1506</ele>
        <time>2013-01-01T11:25:56Z</time>
      </trkpt>
      <trkpt lat="42.89419" lon="0.08184">
        <ele>1506</ele>
        <time>2013-01-01T11:26:06Z</time>
      </trkpt>
      <trkpt lat="42.89418" lon="0.08182">
        <ele>1506</ele>
        <time>2013-01-01T11:26:09Z</time>
      </trkpt>
      <trkpt lat="42.89417" lon="0.0818">
        <ele>1506</ele>
        <time>2013-01-01T11:26:13Z</time>
      </trkpt>
      <trkpt lat="42.89416" lon="0.08178">
        <ele>1506</ele>
        <time>2013-01-01T11:26:15Z</time>
      </trkpt>
      <trkpt lat="42.89416" lon="0.08175">
        <ele>1506</ele>
        <time>2013-01-01T11:26:17Z</time>
      </trkpt>
      <trkpt lat="42.89417" lon="0.08173">
        <ele>1506</ele>
        <time>2013-01-01T11:26:19Z</time>
      </trkpt>
      <trkpt lat="42.89417" lon="0.08171">
        <ele>1506</ele>
        <time>2013-01-01T11:26:21Z</time>
      </trkpt>
      <trkpt lat="42.89417" lon="0.08169">
        <ele>1506</ele>
        <time>2013-01-01T11:26:22Z</time>
      </trkpt>
      <trkpt lat="42.89417" lon="0.08167">
        <ele>1506</ele>
        <time>2013-01-01T11:26:24Z</time>
      </trkpt>
      <trkpt lat="42.89417" lon="0.08165">
        <ele>1506</ele>
        <time>2013-01-01T11:26:25Z</time>
      </trkpt>
      <trkpt lat="42.89418" lon="0.08163">
        <ele>1506</ele>
        <time>2013-01-01T11:26:27Z</time>
      </trkpt>
      <trkpt lat="42.89418" lon="0.08161">
        <ele>1506</ele>
        <time>2013-01-01T11:26:29Z</time>
      </trkpt>
      <trkpt lat="42.89418" lon="0.08158">
        <ele>1506</ele>
        <time>2013-01-01T11:26:31Z</time>
      </trkpt>
      <trkpt lat="42.89417" lon="0.08156">
        <ele>1506</ele>
        <time>2013-01-01T11:26:32Z</time>
      </trkpt>
      <trkpt lat="42.89416" lon="0.08154">
        <ele>1506</ele>
        <time>2013-01-01T11:26:34Z</time>
      </trkpt>
      <trkpt lat="42.89416" lon="0.08152">
        <ele>1506</ele>
        <time>2013-01-01T11:26:35Z</time>
      </trkpt>
      <trkpt lat="42.89415" lon="0.08151">
        <ele>1506</ele>
        <time>2013-01-01T11:26:37Z</time>
      </trkpt>
      <trkpt lat="42.89413" lon="0.08149">
        <ele>1506</ele>
        <time>2013-01-01T11:26:39Z</time>
      </trkpt>
      <trkpt lat="42.89412" lon="0.08146">
        <ele>1506</ele>
        <time>2013-01-01T11:26:41Z</time>
      </trkpt>
      <trkpt lat="42.8941" lon="0.08144">
        <ele>1506</ele>
        <time>2013-01-01T11:26:43Z</time>
      </trkpt>
      <trkpt lat="42.8941" lon="0.08142">
        <ele>1506</ele>
        <time>2013-01-01T11:26:44Z</time>
      </trkpt>
      <trkpt lat="42.89409" lon="0.0814">
        <ele>1506</ele>
        <time>2013-01-01T11:26:46Z</time>
      </trkpt>
      <trkpt lat="42.89407" lon="0.08138">
        <ele>1506</ele>
        <time>2013-01-01T11:26:48Z</time>
      </trkpt>
      <trkpt lat="42.89407" lon="0.08137">
        <ele>1506</ele>
        <time>2013-01-01T11:26:49Z</time>
      </trkpt>
      <trkpt lat="42.89406" lon="0.08135">
        <ele>1506</ele>
        <time>2013-01-01T11:26:51Z</time>
      </trkpt>
      <trkpt lat="42.89405" lon="0.08133">
        <ele>1506</ele>
        <time>2013-01-01T11:26:53Z</time>
      </trkpt>
      <trkpt lat="42.89404" lon="0.08131">
        <ele>1506</ele>
        <time>2013-01-01T11:26:55Z</time>
      </trkpt>
      <trkpt lat="42.89404" lon="0.08129">
        <ele>1506</ele>
        <time>2013-01-01T11:26:57Z</time>
      </trkpt>
      <trkpt lat="42.89403" lon="0.08127">
        <ele>1506</ele>
        <time>2013-01-01T11:26:59Z</time>
      </trkpt>
      <trkpt lat="42.89402" lon="0.08124">
        <ele>1506</ele>
        <time>2013-01-01T11:27:01Z</time>
      </trkpt>
      <trkpt lat="42.89401" lon="0.08122">
        <ele>1506</ele>
        <time>2013-01-01T11:27:03Z</time>
      </trkpt>
      <trkpt lat="42.894" lon="0.0812">
        <ele>1506</ele>
        <time>2013-01-01T11:27:05Z</time>
      </trkpt>
      <trkpt lat="42.894" lon="0.08118">
        <ele>1506</ele>
        <time>2013-01-01T11:27:07Z</time>
      </trkpt>
      <trkpt lat="42.89399" lon="0.08116">
        <ele>1506</ele>
        <time>2013-01-01T11:27:09Z</time>
      </trkpt>
      <trkpt lat="42.89398" lon="0.08115">
        <ele>1506</ele>
        <time>2013-01-01T11:27:11Z</time>
      </trkpt>
      <trkpt lat="42.89398" lon="0.08113">
        <ele>1506</ele>
        <time>2013-01-01T11:27:13Z</time>
      </trkpt>
      <trkpt lat="42.89397" lon="0.08111">
        <ele>1506</ele>
        <time>2013-01-01T11:27:15Z</time>
      </trkpt>
      <trkpt lat="42.89396" lon="0.08108">
        <ele>1506</ele>
        <time>2013-01-01T11:27:17Z</time>
      </trkpt>
      <trkpt lat="42.89396" lon="0.08106">
        <ele>1506</ele>
        <time>2013-01-01T11:27:19Z</time>
      </trkpt>
      <trkpt lat="42.89395" lon="0.08104">
        <ele>1506</ele>
        <time>2013-01-01T11:27:21Z</time>
      </trkpt>
      <trkpt lat="42.89394" lon="0.08102">
        <ele>1506</ele>
        <time>2013-01-01T11:27:23Z</time>
      </trkpt>
      <trkpt lat="42.89394" lon="0.081">
        <ele>1506</ele>
        <time>2013-01-01T11:27:25Z</time>
      </trkpt>
      <trkpt lat="42.89393" lon="0.08099">
        <ele>1507</ele>
        <time>2013-01-01T11:27:27Z</time>
      </trkpt>
      <trkpt lat="42.89394" lon="0.08098">
        <ele>1509</ele>
        <time>2013-01-01T11:27:35Z</time>
      </trkpt>
      <trkpt lat="42.89392" lon="0.08097">
        <ele>1510</ele>
        <time>2013-01-01T11:28:10Z</time>
      </trkpt>
      <trkpt lat="42.89391" lon="0.08097">
        <ele>1510</ele>
        <time>2013-01-01T11:28:12Z</time>
      </trkpt>
      <trkpt lat="42.89389" lon="0.08096">
        <ele>1510</ele>
        <time>2013-01-01T11:28:14Z</time>
      </trkpt>
      <trkpt lat="42.89388" lon="0.08095">
        <ele>1510</ele>
        <time>2013-01-01T11:28:16Z</time>
      </trkpt>
      <trkpt lat="42.89386" lon="0.08094">
        <ele>1510</ele>
        <time>2013-01-01T11:28:18Z</time>
      </trkpt>
      <trkpt lat="42.89385" lon="0.08094">
        <ele>1511</ele>
        <time>2013-01-01T11:28:20Z</time>
      </trkpt>
      <trkpt lat="42.89383" lon="0.08093">
        <ele>1511</ele>
        <time>2013-01-01T11:28:22Z</time>
      </trkpt>
      <trkpt lat="42.89382" lon="0.08091">
        <ele>1512</ele>
        <time>2013-01-01T11:28:24Z</time>
      </trkpt>
      <trkpt lat="42.89381" lon="0.08091">
        <ele>1512</ele>
        <time>2013-01-01T11:28:26Z</time>
      </trkpt>
      <trkpt lat="42.89379" lon="0.0809">
        <ele>1512</ele>
        <time>2013-01-01T11:28:28Z</time>
      </trkpt>
      <trkpt lat="42.89378" lon="0.08089">
        <ele>1513</ele>
        <time>2013-01-01T11:28:30Z</time>
      </trkpt>
      <trkpt lat="42.89376" lon="0.08088">
        <ele>1513</ele>
        <time>2013-01-01T11:28:32Z</time>
      </trkpt>
      <trkpt lat="42.89374" lon="0.08087">
        <ele>1514</ele>
        <time>2013-01-01T11:28:34Z</time>
      </trkpt>
      <trkpt lat="42.89373" lon="0.08086">
        <ele>1514</ele>
        <time>2013-01-01T11:28:36Z</time>
      </trkpt>
      <trkpt lat="42.89371" lon="0.08085">
        <ele>1515</ele>
        <time>2013-01-01T11:28:38Z</time>
      </trkpt>
      <trkpt lat="42.89369" lon="0.08084">
        <ele>1515</ele>
        <time>2013-01-01T11:28:40Z</time>
      </trkpt>
      <trkpt lat="42.89368" lon="0.08083">
        <ele>1515</ele>
        <time>2013-01-01T11:28:42Z</time>
      </trkpt>
      <trkpt lat="42.89366" lon="0.08082">
        <ele>1515</ele>
        <time>2013-01-01T11:28:44Z</time>
      </trkpt>
      <trkpt lat="42.89365" lon="0.0808">
        <ele>1516</ele>
        <time>2013-01-01T11:28:46Z</time>
      </trkpt>
      <trkpt lat="42.89363" lon="0.08079">
        <ele>1516</ele>
        <time>2013-01-01T11:28:48Z</time>
      </trkpt>
      <trkpt lat="42.89362" lon="0.08078">
        <ele>1516</ele>
        <time>2013-01-01T11:28:50Z</time>
      </trkpt>
      <trkpt lat="42.89361" lon="0.08077">
        <ele>1516</ele>
        <time>2013-01-01T11:28:53Z</time>
      </trkpt>
      <trkpt lat="42.8936" lon="0.08077">
        <ele>1517</ele>
        <time>2013-01-01T11:29:04Z</time>
      </trkpt>
      <trkpt lat="42.89358" lon="0.08075">
        <ele>1520</ele>
        <time>2013-01-01T11:29:10Z</time>
      </trkpt>
      <trkpt lat="42.89357" lon="0.08074">
        <ele>1520</ele>
        <time>2013-01-01T11:29:12Z</time>
      </trkpt>
      <trkpt lat="42.89356" lon="0.08073">
        <ele>1520</ele>
        <time>2013-01-01T11:29:14Z</time>
      </trkpt>
      <trkpt lat="42.89355" lon="0.08071">
        <ele>1520</ele>
        <time>2013-01-01T11:29:16Z</time>
      </trkpt>
      <trkpt lat="42.89354" lon="0.0807">
        <ele>1520</ele>
        <time>2013-01-01T11:29:19Z</time>
      </trkpt>
      <trkpt lat="42.89353" lon="0.08068">
        <ele>1521</ele>
        <time>2013-01-01T11:29:22Z</time>
      </trkpt>
      <trkpt lat="42.89351" lon="0.08066">
        <ele>1521</ele>
        <time>2013-01-01T11:29:24Z</time>
      </trkpt>
      <trkpt lat="42.8935" lon="0.08064">
        <ele>1521</ele>
        <time>2013-01-01T11:29:27Z</time>
      </trkpt>
      <trkpt lat="42.89348" lon="0.08062">
        <ele>1521</ele>
        <time>2013-01-01T11:29:30Z</time>
      </trkpt>
      <trkpt lat="42.89347" lon="0.08061">
        <ele>1521</ele>
        <time>2013-01-01T11:29:33Z</time>
      </trkpt>
      <trkpt lat="42.89346" lon="0.08058">
        <ele>1522</ele>
        <time>2013-01-01T11:29:36Z</time>
      </trkpt>
      <trkpt lat="42.89344" lon="0.08056">
        <ele>1522</ele>
        <time>2013-01-01T11:29:39Z</time>
      </trkpt>
      <trkpt lat="42.89343" lon="0.08055">
        <ele>1523</ele>
        <time>2013-01-01T11:29:42Z</time>
      </trkpt>
      <trkpt lat="42.89341" lon="0.08054">
        <ele>1523</ele>
        <time>2013-01-01T11:29:44Z</time>
      </trkpt>
      <trkpt lat="42.8934" lon="0.08053">
        <ele>1523</ele>
        <time>2013-01-01T11:29:46Z</time>
      </trkpt>
      <trkpt lat="42.89339" lon="0.08051">
        <ele>1524</ele>
        <time>2013-01-01T11:29:48Z</time>
      </trkpt>
      <trkpt lat="42.89337" lon="0.0805">
        <ele>1524</ele>
        <time>2013-01-01T11:29:50Z</time>
      </trkpt>
      <trkpt lat="42.89336" lon="0.08049">
        <ele>1525</ele>
        <time>2013-01-01T11:29:52Z</time>
      </trkpt>
      <trkpt lat="42.89334" lon="0.08048">
        <ele>1526</ele>
        <time>2013-01-01T11:29:54Z</time>
      </trkpt>
      <trkpt lat="42.89333" lon="0.08047">
        <ele>1526</ele>
        <time>2013-01-01T11:29:56Z</time>
      </trkpt>
      <trkpt lat="42.89332" lon="0.08046">
        <ele>1527</ele>
        <time>2013-01-01T11:29:58Z</time>
      </trkpt>
      <trkpt lat="42.8933" lon="0.08045">
        <ele>1527</ele>
        <time>2013-01-01T11:30:00Z</time>
      </trkpt>
      <trkpt lat="42.89329" lon="0.08044">
        <ele>1528</ele>
        <time>2013-01-01T11:30:02Z</time>
      </trkpt>
      <trkpt lat="42.89328" lon="0.08043">
        <ele>1528</ele>
        <time>2013-01-01T11:30:04Z</time>
      </trkpt>
      <trkpt lat="42.89327" lon="0.08042">
        <ele>1528</ele>
        <time>2013-01-01T11:30:07Z</time>
      </trkpt>
      <trkpt lat="42.89325" lon="0.0804">
        <ele>1528</ele>
        <time>2013-01-01T11:30:09Z</time>
      </trkpt>
      <trkpt lat="42.89324" lon="0.08039">
        <ele>1528</ele>
        <time>2013-01-01T11:30:11Z</time>
      </trkpt>
      <trkpt lat="42.89323" lon="0.08038">
        <ele>1528</ele>
        <time>2013-01-01T11:30:13Z</time>
      </trkpt>
      <trkpt lat="42.89322" lon="0.08037">
        <ele>1528</ele>
        <time>2013-01-01T11:30:15Z</time>
      </trkpt>
      <trkpt lat="42.8932" lon="0.08036">
        <ele>1528</ele>
        <time>2013-01-01T11:30:17Z</time>
      </trkpt>
      <trkpt lat="42.8932" lon="0.08033">
        <ele>1528</ele>
        <time>2013-01-01T11:30:19Z</time>
      </trkpt>
      <trkpt lat="42.89319" lon="0.08032">
        <ele>1528</ele>
        <time>2013-01-01T11:30:21Z</time>
      </trkpt>
      <trkpt lat="42.89319" lon="0.08031">
        <ele>1529</ele>
        <time>2013-01-01T11:30:23Z</time>
      </trkpt>
      <trkpt lat="42.89318" lon="0.08028">
        <ele>1529</ele>
        <time>2013-01-01T11:30:26Z</time>
      </trkpt>
      <trkpt lat="42.89317" lon="0.08027">
        <ele>1532</ele>
        <time>2013-01-01T11:30:57Z</time>
      </trkpt>
      <trkpt lat="42.89315" lon="0.08026">
        <ele>1532</ele>
        <time>2013-01-01T11:31:12Z</time>
      </trkpt>
      <trkpt lat="42.89314" lon="0.08024">
        <ele>1532</ele>
        <time>2013-01-01T11:31:15Z</time>
      </trkpt>
      <trkpt lat="42.89313" lon="0.08022">
        <ele>1533</ele>
        <time>2013-01-01T11:31:18Z</time>
      </trkpt>
      <trkpt lat="42.89312" lon="0.08021">
        <ele>1534</ele>
        <time>2013-01-01T11:31:21Z</time>
      </trkpt>
      <trkpt lat="42.8931" lon="0.0802">
        <ele>1534</ele>
        <time>2013-01-01T11:31:23Z</time>
      </trkpt>
      <trkpt lat="42.89309" lon="0.08019">
        <ele>1534</ele>
        <time>2013-01-01T11:31:25Z</time>
      </trkpt>
      <trkpt lat="42.89308" lon="0.08017">
        <ele>1534</ele>
        <time>2013-01-01T11:31:27Z</time>
      </trkpt>
      <trkpt lat="42.89307" lon="0.08016">
        <ele>1535</ele>
        <time>2013-01-01T11:31:29Z</time>
      </trkpt>
      <trkpt lat="42.89306" lon="0.08015">
        <ele>1535</ele>
        <time>2013-01-01T11:31:31Z</time>
      </trkpt>
      <trkpt lat="42.89304" lon="0.08014">
        <ele>1535</ele>
        <time>2013-01-01T11:31:33Z</time>
      </trkpt>
      <trkpt lat="42.89303" lon="0.08013">
        <ele>1535</ele>
        <time>2013-01-01T11:31:35Z</time>
      </trkpt>
      <trkpt lat="42.89302" lon="0.08012">
        <ele>1536</ele>
        <time>2013-01-01T11:31:37Z</time>
      </trkpt>
      <trkpt lat="42.89301" lon="0.08011">
        <ele>1536</ele>
        <time>2013-01-01T11:31:39Z</time>
      </trkpt>
      <trkpt lat="42.893" lon="0.0801">
        <ele>1536</ele>
        <time>2013-01-01T11:31:41Z</time>
      </trkpt>
      <trkpt lat="42.89298" lon="0.0801">
        <ele>1536</ele>
        <time>2013-01-01T11:31:43Z</time>
      </trkpt>
      <trkpt lat="42.89297" lon="0.08011">
        <ele>1536</ele>
        <time>2013-01-01T11:31:45Z</time>
      </trkpt>
      <trkpt lat="42.89296" lon="0.08012">
        <ele>1536</ele>
        <time>2013-01-01T11:31:47Z</time>
      </trkpt>
      <trkpt lat="42.89295" lon="0.08013">
        <ele>1537</ele>
        <time>2013-01-01T11:31:49Z</time>
      </trkpt>
      <trkpt lat="42.89293" lon="0.08014">
        <ele>1537</ele>
        <time>2013-01-01T11:31:51Z</time>
      </trkpt>
      <trkpt lat="42.89292" lon="0.08015">
        <ele>1538</ele>
        <time>2013-01-01T11:31:53Z</time>
      </trkpt>
      <trkpt lat="42.89291" lon="0.08016">
        <ele>1538</ele>
        <time>2013-01-01T11:31:55Z</time>
      </trkpt>
      <trkpt lat="42.8929" lon="0.08018">
        <ele>1539</ele>
        <time>2013-01-01T11:31:57Z</time>
      </trkpt>
      <trkpt lat="42.89289" lon="0.08019">
        <ele>1540</ele>
        <time>2013-01-01T11:32:00Z</time>
      </trkpt>
      <trkpt lat="42.89288" lon="0.08021">
        <ele>1540</ele>
        <time>2013-01-01T11:32:02Z</time>
      </trkpt>
      <trkpt lat="42.89288" lon="0.08023">
        <ele>1540</ele>
        <time>2013-01-01T11:32:04Z</time>
      </trkpt>
      <trkpt lat="42.89287" lon="0.08024">
        <ele>1540</ele>
        <time>2013-01-01T11:32:06Z</time>
      </trkpt>
      <trkpt lat="42.89286" lon="0.08026">
        <ele>1541</ele>
        <time>2013-01-01T11:32:08Z</time>
      </trkpt>
      <trkpt lat="42.89286" lon="0.08027">
        <ele>1541</ele>
        <time>2013-01-01T11:32:10Z</time>
      </trkpt>
      <trkpt lat="42.89285" lon="0.08029">
        <ele>1541</ele>
        <time>2013-01-01T11:32:12Z</time>
      </trkpt>
      <trkpt lat="42.89284" lon="0.08032">
        <ele>1542</ele>
        <time>2013-01-01T11:32:14Z</time>
      </trkpt>
      <trkpt lat="42.89283" lon="0.08033">
        <ele>1542</ele>
        <time>2013-01-01T11:32:16Z</time>
      </trkpt>
      <trkpt lat="42.89282" lon="0.08034">
        <ele>1543</ele>
        <time>2013-01-01T11:32:20Z</time>
      </trkpt>
      <trkpt lat="42.89281" lon="0.08032">
        <ele>1544</ele>
        <time>2013-01-01T11:32:23Z</time>
      </trkpt>
      <trkpt lat="42.8928" lon="0.08031">
        <ele>1544</ele>
        <time>2013-01-01T11:32:25Z</time>
      </trkpt>
      <trkpt lat="42.8928" lon="0.08029">
        <ele>1545</ele>
        <time>2013-01-01T11:32:27Z</time>
      </trkpt>
      <trkpt lat="42.89279" lon="0.08028">
        <ele>1545</ele>
        <time>2013-01-01T11:32:29Z</time>
      </trkpt>
      <trkpt lat="42.8928" lon="0.08025">
        <ele>1545</ele>
        <time>2013-01-01T11:32:31Z</time>
      </trkpt>
      <trkpt lat="42.89279" lon="0.08023">
        <ele>1546</ele>
        <time>2013-01-01T11:32:33Z</time>
      </trkpt>
      <trkpt lat="42.89279" lon="0.08022">
        <ele>1546</ele>
        <time>2013-01-01T11:32:35Z</time>
      </trkpt>
      <trkpt lat="42.89278" lon="0.0802">
        <ele>1547</ele>
        <time>2013-01-01T11:32:37Z</time>
      </trkpt>
      <trkpt lat="42.89277" lon="0.08018">
        <ele>1547</ele>
        <time>2013-01-01T11:32:39Z</time>
      </trkpt>
      <trkpt lat="42.89277" lon="0.08016">
        <ele>1547</ele>
        <time>2013-01-01T11:32:41Z</time>
      </trkpt>
      <trkpt lat="42.89277" lon="0.08014">
        <ele>1547</ele>
        <time>2013-01-01T11:32:43Z</time>
      </trkpt>
      <trkpt lat="42.89276" lon="0.08014">
        <ele>1547</ele>
        <time>2013-01-01T11:32:48Z</time>
      </trkpt>
      <trkpt lat="42.89274" lon="0.08014">
        <ele>1547</ele>
        <time>2013-01-01T11:32:50Z</time>
      </trkpt>
      <trkpt lat="42.89273" lon="0.08014">
        <ele>1548</ele>
        <time>2013-01-01T11:32:52Z</time>
      </trkpt>
      <trkpt lat="42.89272" lon="0.08015">
        <ele>1552</ele>
        <time>2013-01-01T11:32:56Z</time>
      </trkpt>
      <trkpt lat="42.8927" lon="0.08017">
        <ele>1553</ele>
        <time>2013-01-01T11:32:59Z</time>
      </trkpt>
      <trkpt lat="42.89269" lon="0.08019">
        <ele>1553</ele>
        <time>2013-01-01T11:33:02Z</time>
      </trkpt>
      <trkpt lat="42.89267" lon="0.0802">
        <ele>1553</ele>
        <time>2013-01-01T11:33:05Z</time>
      </trkpt>
      <trkpt lat="42.89265" lon="0.08022">
        <ele>1553</ele>
        <time>2013-01-01T11:33:08Z</time>
      </trkpt>
      <trkpt lat="42.89264" lon="0.08023">
        <ele>1553</ele>
        <time>2013-01-01T11:33:11Z</time>
      </trkpt>
      <trkpt lat="42.89262" lon="0.08025">
        <ele>1553</ele>
        <time>2013-01-01T11:33:14Z</time>
      </trkpt>
      <trkpt lat="42.89261" lon="0.08027">
        <ele>1553</ele>
        <time>2013-01-01T11:33:17Z</time>
      </trkpt>
      <trkpt lat="42.89259" lon="0.08028">
        <ele>1553</ele>
        <time>2013-01-01T11:33:19Z</time>
      </trkpt>
      <trkpt lat="42.89258" lon="0.08029">
        <ele>1554</ele>
        <time>2013-01-01T11:33:22Z</time>
      </trkpt>
      <trkpt lat="42.89257" lon="0.08027">
        <ele>1555</ele>
        <time>2013-01-01T11:33:27Z</time>
      </trkpt>
      <trkpt lat="42.89257" lon="0.08025">
        <ele>1555</ele>
        <time>2013-01-01T11:33:30Z</time>
      </trkpt>
      <trkpt lat="42.89257" lon="0.08023">
        <ele>1555</ele>
        <time>2013-01-01T11:33:32Z</time>
      </trkpt>
      <trkpt lat="42.89257" lon="0.08021">
        <ele>1555</ele>
        <time>2013-01-01T11:33:35Z</time>
      </trkpt>
      <trkpt lat="42.89256" lon="0.0802">
        <ele>1555</ele>
        <time>2013-01-01T11:33:38Z</time>
      </trkpt>
      <trkpt lat="42.89255" lon="0.0802">
        <ele>1555</ele>
        <time>2013-01-01T11:33:42Z</time>
      </trkpt>
      <trkpt lat="42.89254" lon="0.08021">
        <ele>1555</ele>
        <time>2013-01-01T11:33:45Z</time>
      </trkpt>
      <trkpt lat="42.89252" lon="0.08022">
        <ele>1556</ele>
        <time>2013-01-01T11:33:47Z</time>
      </trkpt>
      <trkpt lat="42.89251" lon="0.08023">
        <ele>1557</ele>
        <time>2013-01-01T11:33:49Z</time>
      </trkpt>
      <trkpt lat="42.89249" lon="0.08024">
        <ele>1558</ele>
        <time>2013-01-01T11:33:52Z</time>
      </trkpt>
      <trkpt lat="42.89248" lon="0.08026">
        <ele>1560</ele>
        <time>2013-01-01T11:33:54Z</time>
      </trkpt>
      <trkpt lat="42.89246" lon="0.08027">
        <ele>1562</ele>
        <time>2013-01-01T11:33:57Z</time>
      </trkpt>
      <trkpt lat="42.89245" lon="0.08027">
        <ele>1563</ele>
        <time>2013-01-01T11:33:59Z</time>
      </trkpt>
      <trkpt lat="42.89244" lon="0.08029">
        <ele>1566</ele>
        <time>2013-01-01T11:34:03Z</time>
      </trkpt>
      <trkpt lat="42.89245" lon="0.08029">
        <ele>1567</ele>
        <time>2013-01-01T11:34:10Z</time>
      </trkpt>
      <trkpt lat="42.89246" lon="0.08027">
        <ele>1568</ele>
        <time>2013-01-01T11:34:16Z</time>
      </trkpt>
      <trkpt lat="42.89246" lon="0.08026">
        <ele>1568</ele>
        <time>2013-01-01T11:34:18Z</time>
      </trkpt>
      <trkpt lat="42.89246" lon="0.08024">
        <ele>1568</ele>
        <time>2013-01-01T11:34:27Z</time>
      </trkpt>
      <trkpt lat="42.89246" lon="0.08022">
        <ele>1568</ele>
        <time>2013-01-01T11:34:30Z</time>
      </trkpt>
      <trkpt lat="42.89246" lon="0.0802">
        <ele>1568</ele>
        <time>2013-01-01T11:34:32Z</time>
      </trkpt>
      <trkpt lat="42.89246" lon="0.08018">
        <ele>1568</ele>
        <time>2013-01-01T11:34:34Z</time>
      </trkpt>
      <trkpt lat="42.89246" lon="0.08016">
        <ele>1568</ele>
        <time>2013-01-01T11:34:36Z</time>
      </trkpt>
      <trkpt lat="42.89246" lon="0.08014">
        <ele>1568</ele>
        <time>2013-01-01T11:34:38Z</time>
      </trkpt>
      <trkpt lat="42.89247" lon="0.08012">
        <ele>1568</ele>
        <time>2013-01-01T11:34:40Z</time>
      </trkpt>
      <trkpt lat="42.89245" lon="0.08012">
        <ele>1568</ele>
        <time>2013-01-01T11:34:45Z</time>
      </trkpt>
      <trkpt lat="42.89244" lon="0.08012">
        <ele>1568</ele>
        <time>2013-01-01T11:34:47Z</time>
      </trkpt>
      <trkpt lat="42.89243" lon="0.08014">
        <ele>1568</ele>
        <time>2013-01-01T11:34:49Z</time>
      </trkpt>
      <trkpt lat="42.89241" lon="0.08015">
        <ele>1568</ele>
        <time>2013-01-01T11:34:52Z</time>
      </trkpt>
      <trkpt lat="42.8924" lon="0.08016">
        <ele>1568</ele>
        <time>2013-01-01T11:34:55Z</time>
      </trkpt>
      <trkpt lat="42.89238" lon="0.08017">
        <ele>1568</ele>
        <time>2013-01-01T11:34:58Z</time>
      </trkpt>
      <trkpt lat="42.89237" lon="0.08018">
        <ele>1568</ele>
        <time>2013-01-01T11:35:01Z</time>
      </trkpt>
      <trkpt lat="42.89236" lon="0.08019">
        <ele>1570</ele>
        <time>2013-01-01T11:35:04Z</time>
      </trkpt>
      <trkpt lat="42.89234" lon="0.0802">
        <ele>1571</ele>
        <time>2013-01-01T11:35:07Z</time>
      </trkpt>
      <trkpt lat="42.89233" lon="0.08021">
        <ele>1571</ele>
        <time>2013-01-01T11:35:09Z</time>
      </trkpt>
      <trkpt lat="42.89231" lon="0.08022">
        <ele>1572</ele>
        <time>2013-01-01T11:35:12Z</time>
      </trkpt>
      <trkpt lat="42.89232" lon="0.0802">
        <ele>1572</ele>
        <time>2013-01-01T11:35:21Z</time>
      </trkpt>
      <trkpt lat="42.89232" lon="0.08018">
        <ele>1572</ele>
        <time>2013-01-01T11:35:23Z</time>
      </trkpt>
      <trkpt lat="42.89231" lon="0.08016">
        <ele>1572</ele>
        <time>2013-01-01T11:35:25Z</time>
      </trkpt>
      <trkpt lat="42.89231" lon="0.08015">
        <ele>1572</ele>
        <time>2013-01-01T11:35:27Z</time>
      </trkpt>
      <trkpt lat="42.89231" lon="0.08014">
        <ele>1572</ele>
        <time>2013-01-01T11:35:29Z</time>
      </trkpt>
      <trkpt lat="42.89231" lon="0.08012">
        <ele>1572</ele>
        <time>2013-01-01T11:35:31Z</time>
      </trkpt>
      <trkpt lat="42.89231" lon="0.0801">
        <ele>1572</ele>
        <time>2013-01-01T11:35:33Z</time>
      </trkpt>
      <trkpt lat="42.89231" lon="0.08009">
        <ele>1572</ele>
        <time>2013-01-01T11:35:35Z</time>
      </trkpt>
      <trkpt lat="42.89232" lon="0.08007">
        <ele>1572</ele>
        <time>2013-01-01T11:35:37Z</time>
      </trkpt>
      <trkpt lat="42.89232" lon="0.08006">
        <ele>1572</ele>
        <time>2013-01-01T11:35:39Z</time>
      </trkpt>
      <trkpt lat="42.89231" lon="0.08004">
        <ele>1572</ele>
        <time>2013-01-01T11:35:41Z</time>
      </trkpt>
      <trkpt lat="42.89231" lon="0.08002">
        <ele>1572</ele>
        <time>2013-01-01T11:35:43Z</time>
      </trkpt>
      <trkpt lat="42.89231" lon="0.08001">
        <ele>1572</ele>
        <time>2013-01-01T11:35:45Z</time>
      </trkpt>
      <trkpt lat="42.89231" lon="0.07999">
        <ele>1572</ele>
        <time>2013-01-01T11:35:47Z</time>
      </trkpt>
      <trkpt lat="42.89231" lon="0.07997">
        <ele>1572</ele>
        <time>2013-01-01T11:35:49Z</time>
      </trkpt>
      <trkpt lat="42.89231" lon="0.07995">
        <ele>1572</ele>
        <time>2013-01-01T11:35:51Z</time>
      </trkpt>
      <trkpt lat="42.8923" lon="0.07994">
        <ele>1572</ele>
        <time>2013-01-01T11:35:53Z</time>
      </trkpt>
      <trkpt lat="42.89229" lon="0.07994">
        <ele>1572</ele>
        <time>2013-01-01T11:35:55Z</time>
      </trkpt>
      <trkpt lat="42.89228" lon="0.07994">
        <ele>1572</ele>
        <time>2013-01-01T11:35:57Z</time>
      </trkpt>
      <trkpt lat="42.89227" lon="0.07994">
        <ele>1572</ele>
        <time>2013-01-01T11:36:01Z</time>
      </trkpt>
      <trkpt lat="42.89225" lon="0.07993">
        <ele>1578</ele>
        <time>2013-01-01T11:36:09Z</time>
      </trkpt>
      <trkpt lat="42.89224" lon="0.07993">
        <ele>1581</ele>
        <time>2013-01-01T11:36:12Z</time>
      </trkpt>
      <trkpt lat="42.89222" lon="0.07992">
        <ele>1583</ele>
        <time>2013-01-01T11:36:14Z</time>
      </trkpt>
      <trkpt lat="42.8922" lon="0.07993">
        <ele>1584</ele>
        <time>2013-01-01T11:36:16Z</time>
      </trkpt>
      <trkpt lat="42.89219" lon="0.07994">
        <ele>1584</ele>
        <time>2013-01-01T11:36:18Z</time>
      </trkpt>
      <trkpt lat="42.89218" lon="0.07995">
        <ele>1585</ele>
        <time>2013-01-01T11:36:21Z</time>
      </trkpt>
      <trkpt lat="42.89216" lon="0.07996">
        <ele>1585</ele>
        <time>2013-01-01T11:36:24Z</time>
      </trkpt>
      <trkpt lat="42.89215" lon="0.07997">
        <ele>1586</ele>
        <time>2013-01-01T11:36:27Z</time>
      </trkpt>
      <trkpt lat="42.89214" lon="0.07998">
        <ele>1586</ele>
        <time>2013-01-01T11:36:30Z</time>
      </trkpt>
      <trkpt lat="42.89212" lon="0.07998">
        <ele>1587</ele>
        <time>2013-01-01T11:36:33Z</time>
      </trkpt>
      <trkpt lat="42.89211" lon="0.07996">
        <ele>1588</ele>
        <time>2013-01-01T11:36:43Z</time>
      </trkpt>
      <trkpt lat="42.89211" lon="0.07994">
        <ele>1588</ele>
        <time>2013-01-01T11:36:46Z</time>
      </trkpt>
      <trkpt lat="42.8921" lon="0.07993">
        <ele>1588</ele>
        <time>2013-01-01T11:36:50Z</time>
      </trkpt>
      <trkpt lat="42.89211" lon="0.07991">
        <ele>1588</ele>
        <time>2013-01-01T11:36:52Z</time>
      </trkpt>
      <trkpt lat="42.89211" lon="0.07989">
        <ele>1588</ele>
        <time>2013-01-01T11:36:55Z</time>
      </trkpt>
      <trkpt lat="42.8921" lon="0.07987">
        <ele>1588</ele>
        <time>2013-01-01T11:36:58Z</time>
      </trkpt>
      <trkpt lat="42.89209" lon="0.07986">
        <ele>1588</ele>
        <time>2013-01-01T11:37:01Z</time>
      </trkpt>
      <trkpt lat="42.89209" lon="0.07984">
        <ele>1588</ele>
        <time>2013-01-01T11:37:04Z</time>
      </trkpt>
      <trkpt lat="42.89209" lon="0.07983">
        <ele>1588</ele>
        <time>2013-01-01T11:37:06Z</time>
      </trkpt>
      <trkpt lat="42.89208" lon="0.07983">
        <ele>1588</ele>
        <time>2013-01-01T11:37:19Z</time>
      </trkpt>
      <trkpt lat="42.89207" lon="0.07985">
        <ele>1588</ele>
        <time>2013-01-01T11:37:21Z</time>
      </trkpt>
      <trkpt lat="42.89206" lon="0.07986">
        <ele>1588</ele>
        <time>2013-01-01T11:37:23Z</time>
      </trkpt>
      <trkpt lat="42.89204" lon="0.07986">
        <ele>1588</ele>
        <time>2013-01-01T11:37:26Z</time>
      </trkpt>
      <trkpt lat="42.89203" lon="0.07987">
        <ele>1589</ele>
        <time>2013-01-01T11:37:29Z</time>
      </trkpt>
      <trkpt lat="42.89202" lon="0.07988">
        <ele>1590</ele>
        <time>2013-01-01T11:37:31Z</time>
      </trkpt>
      <trkpt lat="42.89201" lon="0.0799">
        <ele>1591</ele>
        <time>2013-01-01T11:37:34Z</time>
      </trkpt>
      <trkpt lat="42.89201" lon="0.07989">
        <ele>1593</ele>
        <time>2013-01-01T11:37:42Z</time>
      </trkpt>
      <trkpt lat="42.89201" lon="0.07987">
        <ele>1593</ele>
        <time>2013-01-01T11:37:44Z</time>
      </trkpt>
      <trkpt lat="42.89201" lon="0.07985">
        <ele>1593</ele>
        <time>2013-01-01T11:37:46Z</time>
      </trkpt>
      <trkpt lat="42.89201" lon="0.07983">
        <ele>1593</ele>
        <time>2013-01-01T11:37:48Z</time>
      </trkpt>
      <trkpt lat="42.89201" lon="0.07982">
        <ele>1593</ele>
        <time>2013-01-01T11:37:50Z</time>
      </trkpt>
      <trkpt lat="42.89201" lon="0.0798">
        <ele>1593</ele>
        <time>2013-01-01T11:37:53Z</time>
      </trkpt>
      <trkpt lat="42.892" lon="0.07978">
        <ele>1593</ele>
        <time>2013-01-01T11:37:56Z</time>
      </trkpt>
      <trkpt lat="42.89199" lon="0.07976">
        <ele>1593</ele>
        <time>2013-01-01T11:37:59Z</time>
      </trkpt>
      <trkpt lat="42.89199" lon="0.07975">
        <ele>1593</ele>
        <time>2013-01-01T11:38:01Z</time>
      </trkpt>
      <trkpt lat="42.89199" lon="0.07973">
        <ele>1593</ele>
        <time>2013-01-01T11:38:03Z</time>
      </trkpt>
      <trkpt lat="42.89199" lon="0.07971">
        <ele>1593</ele>
        <time>2013-01-01T11:38:05Z</time>
      </trkpt>
      <trkpt lat="42.89199" lon="0.07969">
        <ele>1593</ele>
        <time>2013-01-01T11:38:07Z</time>
      </trkpt>
      <trkpt lat="42.89197" lon="0.0797">
        <ele>1593</ele>
        <time>2013-01-01T11:38:11Z</time>
      </trkpt>
      <trkpt lat="42.89196" lon="0.07972">
        <ele>1593</ele>
        <time>2013-01-01T11:38:13Z</time>
      </trkpt>
      <trkpt lat="42.89194" lon="0.07972">
        <ele>1593</ele>
        <time>2013-01-01T11:38:16Z</time>
      </trkpt>
      <trkpt lat="42.89193" lon="0.07973">
        <ele>1594</ele>
        <time>2013-01-01T11:38:19Z</time>
      </trkpt>
      <trkpt lat="42.89191" lon="0.07974">
        <ele>1595</ele>
        <time>2013-01-01T11:38:21Z</time>
      </trkpt>
      <trkpt lat="42.8919" lon="0.07975">
        <ele>1595</ele>
        <time>2013-01-01T11:38:25Z</time>
      </trkpt>
      <trkpt lat="42.89189" lon="0.07976">
        <ele>1595</ele>
        <time>2013-01-01T11:38:28Z</time>
      </trkpt>
      <trkpt lat="42.89188" lon="0.07977">
        <ele>1595</ele>
        <time>2013-01-01T11:38:31Z</time>
      </trkpt>
      <trkpt lat="42.89186" lon="0.07978">
        <ele>1596</ele>
        <time>2013-01-01T11:38:34Z</time>
      </trkpt>
      <trkpt lat="42.89185" lon="0.07979">
        <ele>1596</ele>
        <time>2013-01-01T11:38:36Z</time>
      </trkpt>
      <trkpt lat="42.89184" lon="0.0798">
        <ele>1596</ele>
        <time>2013-01-01T11:38:38Z</time>
      </trkpt>
      <trkpt lat="42.89183" lon="0.07979">
        <ele>1596</ele>
        <time>2013-01-01T11:39:01Z</time>
      </trkpt>
      <trkpt lat="42.89182" lon="0.07979">
        <ele>1596</ele>
        <time>2013-01-01T11:39:12Z</time>
      </trkpt>
      <trkpt lat="42.8918" lon="0.0798">
        <ele>1596</ele>
        <time>2013-01-01T11:39:15Z</time>
      </trkpt>
      <trkpt lat="42.89179" lon="0.07978">
        <ele>1596</ele>
        <time>2013-01-01T11:39:19Z</time>
      </trkpt>
      <trkpt lat="42.89179" lon="0.07977">
        <ele>1596</ele>
        <time>2013-01-01T11:39:21Z</time>
      </trkpt>
      <trkpt lat="42.89178" lon="0.07975">
        <ele>1596</ele>
        <time>2013-01-01T11:39:23Z</time>
      </trkpt>
      <trkpt lat="42.89178" lon="0.07974">
        <ele>1596</ele>
        <time>2013-01-01T11:39:25Z</time>
      </trkpt>
      <trkpt lat="42.89178" lon="0.07972">
        <ele>1596</ele>
        <time>2013-01-01T11:39:27Z</time>
      </trkpt>
      <trkpt lat="42.89177" lon="0.0797">
        <ele>1596</ele>
        <time>2013-01-01T11:39:29Z</time>
      </trkpt>
      <trkpt lat="42.89177" lon="0.07969">
        <ele>1596</ele>
        <time>2013-01-01T11:39:31Z</time>
      </trkpt>
      <trkpt lat="42.89177" lon="0.07967">
        <ele>1596</ele>
        <time>2013-01-01T11:39:33Z</time>
      </trkpt>
      <trkpt lat="42.89177" lon="0.07966">
        <ele>1596</ele>
        <time>2013-01-01T11:39:35Z</time>
      </trkpt>
      <trkpt lat="42.89177" lon="0.07964">
        <ele>1596</ele>
        <time>2013-01-01T11:39:37Z</time>
      </trkpt>
      <trkpt lat="42.89177" lon="0.07962">
        <ele>1596</ele>
        <time>2013-01-01T11:39:39Z</time>
      </trkpt>
      <trkpt lat="42.89177" lon="0.0796">
        <ele>1597</ele>
        <time>2013-01-01T11:39:41Z</time>
      </trkpt>
      <trkpt lat="42.89177" lon="0.07959">
        <ele>1597</ele>
        <time>2013-01-01T11:39:44Z</time>
      </trkpt>
      <trkpt lat="42.89177" lon="0.07957">
        <ele>1598</ele>
        <time>2013-01-01T11:39:48Z</time>
      </trkpt>
      <trkpt lat="42.89177" lon="0.07959">
        <ele>1598</ele>
        <time>2013-01-01T11:39:50Z</time>
      </trkpt>
      <trkpt lat="42.89176" lon="0.0796">
        <ele>1599</ele>
        <time>2013-01-01T11:39:52Z</time>
      </trkpt>
      <trkpt lat="42.89175" lon="0.07961">
        <ele>1599</ele>
        <time>2013-01-01T11:39:54Z</time>
      </trkpt>
      <trkpt lat="42.89173" lon="0.07963">
        <ele>1600</ele>
        <time>2013-01-01T11:39:57Z</time>
      </trkpt>
      <trkpt lat="42.89172" lon="0.07964">
        <ele>1601</ele>
        <time>2013-01-01T11:39:59Z</time>
      </trkpt>
      <trkpt lat="42.89171" lon="0.07965">
        <ele>1601</ele>
        <time>2013-01-01T11:40:01Z</time>
      </trkpt>
      <trkpt lat="42.8917" lon="0.07967">
        <ele>1601</ele>
        <time>2013-01-01T11:40:03Z</time>
      </trkpt>
      <trkpt lat="42.89168" lon="0.07969">
        <ele>1602</ele>
        <time>2013-01-01T11:40:06Z</time>
      </trkpt>
      <trkpt lat="42.89167" lon="0.0797">
        <ele>1602</ele>
        <time>2013-01-01T11:40:08Z</time>
      </trkpt>
      <trkpt lat="42.89166" lon="0.07972">
        <ele>1602</ele>
        <time>2013-01-01T11:40:11Z</time>
      </trkpt>
      <trkpt lat="42.89165" lon="0.07973">
        <ele>1603</ele>
        <time>2013-01-01T11:40:13Z</time>
      </trkpt>
      <trkpt lat="42.89164" lon="0.07975">
        <ele>1603</ele>
        <time>2013-01-01T11:40:17Z</time>
      </trkpt>
      <trkpt lat="42.89163" lon="0.07973">
        <ele>1603</ele>
        <time>2013-01-01T11:40:23Z</time>
      </trkpt>
      <trkpt lat="42.89162" lon="0.07972">
        <ele>1603</ele>
        <time>2013-01-01T11:40:25Z</time>
      </trkpt>
      <trkpt lat="42.89162" lon="0.0797">
        <ele>1603</ele>
        <time>2013-01-01T11:40:27Z</time>
      </trkpt>
      <trkpt lat="42.89162" lon="0.07969">
        <ele>1603</ele>
        <time>2013-01-01T11:40:29Z</time>
      </trkpt>
      <trkpt lat="42.89161" lon="0.07967">
        <ele>1603</ele>
        <time>2013-01-01T11:40:31Z</time>
      </trkpt>
      <trkpt lat="42.89161" lon="0.07965">
        <ele>1603</ele>
        <time>2013-01-01T11:40:33Z</time>
      </trkpt>
      <trkpt lat="42.89161" lon="0.07964">
        <ele>1603</ele>
        <time>2013-01-01T11:40:35Z</time>
      </trkpt>
      <trkpt lat="42.89161" lon="0.07962">
        <ele>1603</ele>
        <time>2013-01-01T11:40:37Z</time>
      </trkpt>
      <trkpt lat="42.89161" lon="0.0796">
        <ele>1603</ele>
        <time>2013-01-01T11:40:39Z</time>
      </trkpt>
      <trkpt lat="42.89161" lon="0.07958">
        <ele>1604</ele>
        <time>2013-01-01T11:40:41Z</time>
      </trkpt>
      <trkpt lat="42.8916" lon="0.07957">
        <ele>1604</ele>
        <time>2013-01-01T11:40:43Z</time>
      </trkpt>
      <trkpt lat="42.8916" lon="0.07954">
        <ele>1605</ele>
        <time>2013-01-01T11:40:46Z</time>
      </trkpt>
      <trkpt lat="42.8916" lon="0.07953">
        <ele>1605</ele>
        <time>2013-01-01T11:40:48Z</time>
      </trkpt>
      <trkpt lat="42.89159" lon="0.07951">
        <ele>1605</ele>
        <time>2013-01-01T11:40:50Z</time>
      </trkpt>
      <trkpt lat="42.89158" lon="0.07952">
        <ele>1606</ele>
        <time>2013-01-01T11:40:54Z</time>
      </trkpt>
      <trkpt lat="42.89156" lon="0.07954">
        <ele>1606</ele>
        <time>2013-01-01T11:40:57Z</time>
      </trkpt>
      <trkpt lat="42.89155" lon="0.07955">
        <ele>1606</ele>
        <time>2013-01-01T11:41:00Z</time>
      </trkpt>
      <trkpt lat="42.89154" lon="0.07958">
        <ele>1606</ele>
        <time>2013-01-01T11:41:03Z</time>
      </trkpt>
      <trkpt lat="42.89152" lon="0.07959">
        <ele>1607</ele>
        <time>2013-01-01T11:41:06Z</time>
      </trkpt>
      <trkpt lat="42.89151" lon="0.07961">
        <ele>1607</ele>
        <time>2013-01-01T11:41:13Z</time>
      </trkpt>
      <trkpt lat="42.8915" lon="0.07963">
        <ele>1607</ele>
        <time>2013-01-01T11:41:15Z</time>
      </trkpt>
      <trkpt lat="42.89149" lon="0.07965">
        <ele>1607</ele>
        <time>2013-01-01T11:41:17Z</time>
      </trkpt>
      <trkpt lat="42.89148" lon="0.07966">
        <ele>1608</ele>
        <time>2013-01-01T11:41:19Z</time>
      </trkpt>
      <trkpt lat="42.89147" lon="0.07968">
        <ele>1608</ele>
        <time>2013-01-01T11:41:21Z</time>
      </trkpt>
      <trkpt lat="42.89146" lon="0.07969">
        <ele>1608</ele>
        <time>2013-01-01T11:41:23Z</time>
      </trkpt>
      <trkpt lat="42.89145" lon="0.07971">
        <ele>1608</ele>
        <time>2013-01-01T11:41:25Z</time>
      </trkpt>
      <trkpt lat="42.89145" lon="0.07969">
        <ele>1609</ele>
        <time>2013-01-01T11:41:31Z</time>
      </trkpt>
      <trkpt lat="42.89145" lon="0.07967">
        <ele>1609</ele>
        <time>2013-01-01T11:41:34Z</time>
      </trkpt>
      <trkpt lat="42.89144" lon="0.07966">
        <ele>1609</ele>
        <time>2013-01-01T11:41:36Z</time>
      </trkpt>
      <trkpt lat="42.89144" lon="0.07964">
        <ele>1609</ele>
        <time>2013-01-01T11:41:38Z</time>
      </trkpt>
      <trkpt lat="42.89144" lon="0.07961">
        <ele>1609</ele>
        <time>2013-01-01T11:41:40Z</time>
      </trkpt>
      <trkpt lat="42.89143" lon="0.0796">
        <ele>1609</ele>
        <time>2013-01-01T11:41:43Z</time>
      </trkpt>
      <trkpt lat="42.89143" lon="0.07958">
        <ele>1610</ele>
        <time>2013-01-01T11:41:46Z</time>
      </trkpt>
      <trkpt lat="42.89143" lon="0.07957">
        <ele>1610</ele>
        <time>2013-01-01T11:41:48Z</time>
      </trkpt>
      <trkpt lat="42.89141" lon="0.07958">
        <ele>1610</ele>
        <time>2013-01-01T11:41:52Z</time>
      </trkpt>
      <trkpt lat="42.8914" lon="0.07959">
        <ele>1611</ele>
        <time>2013-01-01T11:41:55Z</time>
      </trkpt>
      <trkpt lat="42.89139" lon="0.07961">
        <ele>1612</ele>
        <time>2013-01-01T11:41:57Z</time>
      </trkpt>
      <trkpt lat="42.89138" lon="0.07963">
        <ele>1612</ele>
        <time>2013-01-01T11:41:59Z</time>
      </trkpt>
      <trkpt lat="42.89137" lon="0.07964">
        <ele>1612</ele>
        <time>2013-01-01T11:42:01Z</time>
      </trkpt>
      <trkpt lat="42.89136" lon="0.07966">
        <ele>1612</ele>
        <time>2013-01-01T11:42:03Z</time>
      </trkpt>
      <trkpt lat="42.89135" lon="0.07967">
        <ele>1613</ele>
        <time>2013-01-01T11:42:06Z</time>
      </trkpt>
      <trkpt lat="42.89134" lon="0.07969">
        <ele>1613</ele>
        <time>2013-01-01T11:42:09Z</time>
      </trkpt>
      <trkpt lat="42.89133" lon="0.07971">
        <ele>1613</ele>
        <time>2013-01-01T11:42:12Z</time>
      </trkpt>
      <trkpt lat="42.89131" lon="0.07973">
        <ele>1614</ele>
        <time>2013-01-01T11:42:15Z</time>
      </trkpt>
      <trkpt lat="42.8913" lon="0.07975">
        <ele>1615</ele>
        <time>2013-01-01T11:42:17Z</time>
      </trkpt>
      <trkpt lat="42.8913" lon="0.07976">
        <ele>1615</ele>
        <time>2013-01-01T11:42:19Z</time>
      </trkpt>
      <trkpt lat="42.89129" lon="0.07978">
        <ele>1616</ele>
        <time>2013-01-01T11:42:21Z</time>
      </trkpt>
      <trkpt lat="42.89128" lon="0.0798">
        <ele>1616</ele>
        <time>2013-01-01T11:42:23Z</time>
      </trkpt>
      <trkpt lat="42.89128" lon="0.07981">
        <ele>1617</ele>
        <time>2013-01-01T11:42:25Z</time>
      </trkpt>
      <trkpt lat="42.89127" lon="0.07979">
        <ele>1617</ele>
        <time>2013-01-01T11:42:32Z</time>
      </trkpt>
      <trkpt lat="42.89125" lon="0.07977">
        <ele>1617</ele>
        <time>2013-01-01T11:42:35Z</time>
      </trkpt>
      <trkpt lat="42.89125" lon="0.07975">
        <ele>1617</ele>
        <time>2013-01-01T11:42:37Z</time>
      </trkpt>
      <trkpt lat="42.89125" lon="0.07973">
        <ele>1620</ele>
        <time>2013-01-01T11:43:02Z</time>
      </trkpt>
      <trkpt lat="42.89125" lon="0.07972">
        <ele>1622</ele>
        <time>2013-01-01T11:43:06Z</time>
      </trkpt>
      <trkpt lat="42.89126" lon="0.07972">
        <ele>1623</ele>
        <time>2013-01-01T11:43:16Z</time>
      </trkpt>
      <trkpt lat="42.89125" lon="0.07973">
        <ele>1623</ele>
        <time>2013-01-01T11:43:20Z</time>
      </trkpt>
      <trkpt lat="42.89124" lon="0.07972">
        <ele>1623</ele>
        <time>2013-01-01T11:43:23Z</time>
      </trkpt>
      <trkpt lat="42.89123" lon="0.07972">
        <ele>1623</ele>
        <time>2013-01-01T11:43:32Z</time>
      </trkpt>
      <trkpt lat="42.89122" lon="0.0797">
        <ele>1623</ele>
        <time>2013-01-01T11:43:46Z</time>
      </trkpt>
      <trkpt lat="42.89122" lon="0.07968">
        <ele>1623</ele>
        <time>2013-01-01T11:43:48Z</time>
      </trkpt>
      <trkpt lat="42.89123" lon="0.07969">
        <ele>1624</ele>
        <time>2013-01-01T11:43:54Z</time>
      </trkpt>
      <trkpt lat="42.89123" lon="0.0797">
        <ele>1624</ele>
        <time>2013-01-01T11:43:56Z</time>
      </trkpt>
      <trkpt lat="42.89122" lon="0.0797">
        <ele>1624</ele>
        <time>2013-01-01T11:44:03Z</time>
      </trkpt>
      <trkpt lat="42.89123" lon="0.0797">
        <ele>1624</ele>
        <time>2013-01-01T11:44:13Z</time>
      </trkpt>
      <trkpt lat="42.89122" lon="0.0797">
        <ele>1624</ele>
        <time>2013-01-01T11:44:26Z</time>
      </trkpt>
      <trkpt lat="42.89122" lon="0.07969">
        <ele>1624</ele>
        <time>2013-01-01T11:44:31Z</time>
      </trkpt>
      <trkpt lat="42.89122" lon="0.07966">
        <ele>1624</ele>
        <time>2013-01-01T11:44:34Z</time>
      </trkpt>
      <trkpt lat="42.89123" lon="0.07968">
        <ele>1624</ele>
        <time>2013-01-01T11:44:38Z</time>
      </trkpt>
      <trkpt lat="42.89122" lon="0.0797">
        <ele>1624</ele>
        <time>2013-01-01T11:44:43Z</time>
      </trkpt>
      <trkpt lat="42.89122" lon="0.07972">
        <ele>1625</ele>
        <time>2013-01-01T11:44:50Z</time>
      </trkpt>
      <trkpt lat="42.89123" lon="0.07972">
        <ele>1625</ele>
        <time>2013-01-01T11:44:56Z</time>
      </trkpt>
      <trkpt lat="42.89123" lon="0.0797">
        <ele>1625</ele>
        <time>2013-01-01T11:45:04Z</time>
      </trkpt>
      <trkpt lat="42.89122" lon="0.07968">
        <ele>1625</ele>
        <time>2013-01-01T11:45:06Z</time>
      </trkpt>
      <trkpt lat="42.89121" lon="0.07966">
        <ele>1625</ele>
        <time>2013-01-01T11:45:09Z</time>
      </trkpt>
      <trkpt lat="42.8912" lon="0.07966">
        <ele>1625</ele>
        <time>2013-01-01T11:45:14Z</time>
      </trkpt>
      <trkpt lat="42.89119" lon="0.07968">
        <ele>1625</ele>
        <time>2013-01-01T11:45:18Z</time>
      </trkpt>
      <trkpt lat="42.89119" lon="0.07969">
        <ele>1625</ele>
        <time>2013-01-01T11:45:34Z</time>
      </trkpt>
      <trkpt lat="42.89119" lon="0.07971">
        <ele>1625</ele>
        <time>2013-01-01T11:45:36Z</time>
      </trkpt>
      <trkpt lat="42.89118" lon="0.07973">
        <ele>1625</ele>
        <time>2013-01-01T11:45:38Z</time>
      </trkpt>
      <trkpt lat="42.89118" lon="0.07974">
        <ele>1625</ele>
        <time>2013-01-01T11:45:40Z</time>
      </trkpt>
      <trkpt lat="42.89117" lon="0.07976">
        <ele>1625</ele>
        <time>2013-01-01T11:45:42Z</time>
      </trkpt>
      <trkpt lat="42.89116" lon="0.07978">
        <ele>1625</ele>
        <time>2013-01-01T11:45:45Z</time>
      </trkpt>
      <trkpt lat="42.89115" lon="0.0798">
        <ele>1625</ele>
        <time>2013-01-01T11:45:48Z</time>
      </trkpt>
      <trkpt lat="42.89115" lon="0.07978">
        <ele>1626</ele>
        <time>2013-01-01T11:45:52Z</time>
      </trkpt>
      <trkpt lat="42.89114" lon="0.07976">
        <ele>1627</ele>
        <time>2013-01-01T11:45:54Z</time>
      </trkpt>
      <trkpt lat="42.89113" lon="0.07975">
        <ele>1628</ele>
        <time>2013-01-01T11:45:58Z</time>
      </trkpt>
      <trkpt lat="42.89113" lon="0.07973">
        <ele>1628</ele>
        <time>2013-01-01T11:46:01Z</time>
      </trkpt>
      <trkpt lat="42.89114" lon="0.07971">
        <ele>1629</ele>
        <time>2013-01-01T11:46:03Z</time>
      </trkpt>
      <trkpt lat="42.89113" lon="0.07969">
        <ele>1630</ele>
        <time>2013-01-01T11:46:06Z</time>
      </trkpt>
      <trkpt lat="42.89111" lon="0.07969">
        <ele>1630</ele>
        <time>2013-01-01T11:46:11Z</time>
      </trkpt>
      <trkpt lat="42.89109" lon="0.07971">
        <ele>1630</ele>
        <time>2013-01-01T11:46:13Z</time>
      </trkpt>
      <trkpt lat="42.89108" lon="0.07972">
        <ele>1630</ele>
        <time>2013-01-01T11:46:16Z</time>
      </trkpt>
      <trkpt lat="42.89106" lon="0.07973">
        <ele>1631</ele>
        <time>2013-01-01T11:46:18Z</time>
      </trkpt>
      <trkpt lat="42.89105" lon="0.07974">
        <ele>1632</ele>
        <time>2013-01-01T11:46:20Z</time>
      </trkpt>
      <trkpt lat="42.89104" lon="0.07976">
        <ele>1633</ele>
        <time>2013-01-01T11:46:22Z</time>
      </trkpt>
      <trkpt lat="42.89103" lon="0.07977">
        <ele>1633</ele>
        <time>2013-01-01T11:46:24Z</time>
      </trkpt>
      <trkpt lat="42.89102" lon="0.07979">
        <ele>1634</ele>
        <time>2013-01-01T11:46:26Z</time>
      </trkpt>
      <trkpt lat="42.89102" lon="0.0798">
        <ele>1635</ele>
        <time>2013-01-01T11:46:28Z</time>
      </trkpt>
      <trkpt lat="42.89102" lon="0.07982">
        <ele>1637</ele>
        <time>2013-01-01T11:46:31Z</time>
      </trkpt>
      <trkpt lat="42.89101" lon="0.07981">
        <ele>1639</ele>
        <time>2013-01-01T11:46:37Z</time>
      </trkpt>
      <trkpt lat="42.891" lon="0.07979">
        <ele>1639</ele>
        <time>2013-01-01T11:46:40Z</time>
      </trkpt>
      <trkpt lat="42.89099" lon="0.07977">
        <ele>1639</ele>
        <time>2013-01-01T11:46:43Z</time>
      </trkpt>
      <trkpt lat="42.89098" lon="0.07976">
        <ele>1639</ele>
        <time>2013-01-01T11:46:46Z</time>
      </trkpt>
      <trkpt lat="42.89098" lon="0.07974">
        <ele>1639</ele>
        <time>2013-01-01T11:46:48Z</time>
      </trkpt>
      <trkpt lat="42.89097" lon="0.07973">
        <ele>1639</ele>
        <time>2013-01-01T11:46:50Z</time>
      </trkpt>
      <trkpt lat="42.89096" lon="0.07971">
        <ele>1639</ele>
        <time>2013-01-01T11:46:53Z</time>
      </trkpt>
      <trkpt lat="42.89094" lon="0.07972">
        <ele>1639</ele>
        <time>2013-01-01T11:46:55Z</time>
      </trkpt>
      <trkpt lat="42.89093" lon="0.07973">
        <ele>1639</ele>
        <time>2013-01-01T11:46:57Z</time>
      </trkpt>
      <trkpt lat="42.89092" lon="0.07974">
        <ele>1639</ele>
        <time>2013-01-01T11:46:59Z</time>
      </trkpt>
      <trkpt lat="42.8909" lon="0.07975">
        <ele>1639</ele>
        <time>2013-01-01T11:47:01Z</time>
      </trkpt>
      <trkpt lat="42.89089" lon="0.07976">
        <ele>1639</ele>
        <time>2013-01-01T11:47:03Z</time>
      </trkpt>
      <trkpt lat="42.89088" lon="0.07978">
        <ele>1639</ele>
        <time>2013-01-01T11:47:05Z</time>
      </trkpt>
      <trkpt lat="42.89086" lon="0.0798">
        <ele>1639</ele>
        <time>2013-01-01T11:47:07Z</time>
      </trkpt>
      <trkpt lat="42.89085" lon="0.07981">
        <ele>1640</ele>
        <time>2013-01-01T11:47:09Z</time>
      </trkpt>
      <trkpt lat="42.89083" lon="0.07983">
        <ele>1643</ele>
        <time>2013-01-01T11:47:12Z</time>
      </trkpt>
      <trkpt lat="42.89082" lon="0.07985">
        <ele>1646</ele>
        <time>2013-01-01T11:47:16Z</time>
      </trkpt>
      <trkpt lat="42.89082" lon="0.07987">
        <ele>1647</ele>
        <time>2013-01-01T11:47:19Z</time>
      </trkpt>
      <trkpt lat="42.89081" lon="0.07985">
        <ele>1648</ele>
        <time>2013-01-01T11:47:28Z</time>
      </trkpt>
      <trkpt lat="42.8908" lon="0.07983">
        <ele>1648</ele>
        <time>2013-01-01T11:47:30Z</time>
      </trkpt>
      <trkpt lat="42.8908" lon="0.07982">
        <ele>1648</ele>
        <time>2013-01-01T11:47:32Z</time>
      </trkpt>
      <trkpt lat="42.89079" lon="0.0798">
        <ele>1648</ele>
        <time>2013-01-01T11:47:35Z</time>
      </trkpt>
      <trkpt lat="42.89078" lon="0.07978">
        <ele>1648</ele>
        <time>2013-01-01T11:47:37Z</time>
      </trkpt>
      <trkpt lat="42.89077" lon="0.07977">
        <ele>1648</ele>
        <time>2013-01-01T11:47:40Z</time>
      </trkpt>
      <trkpt lat="42.89077" lon="0.07975">
        <ele>1648</ele>
        <time>2013-01-01T11:47:43Z</time>
      </trkpt>
      <trkpt lat="42.89075" lon="0.07976">
        <ele>1648</ele>
        <time>2013-01-01T11:47:46Z</time>
      </trkpt>
      <trkpt lat="42.89074" lon="0.07977">
        <ele>1648</ele>
        <time>2013-01-01T11:47:49Z</time>
      </trkpt>
      <trkpt lat="42.89073" lon="0.07978">
        <ele>1648</ele>
        <time>2013-01-01T11:47:50Z</time>
      </trkpt>
      <trkpt lat="42.89071" lon="0.0798">
        <ele>1648</ele>
        <time>2013-01-01T11:47:53Z</time>
      </trkpt>
      <trkpt lat="42.8907" lon="0.07981">
        <ele>1648</ele>
        <time>2013-01-01T11:47:56Z</time>
      </trkpt>
      <trkpt lat="42.89068" lon="0.07982">
        <ele>1648</ele>
        <time>2013-01-01T11:47:59Z</time>
      </trkpt>
      <trkpt lat="42.89066" lon="0.07984">
        <ele>1648</ele>
        <time>2013-01-01T11:48:02Z</time>
      </trkpt>
      <trkpt lat="42.89065" lon="0.07985">
        <ele>1648</ele>
        <time>2013-01-01T11:48:04Z</time>
      </trkpt>
      <trkpt lat="42.89064" lon="0.07986">
        <ele>1648</ele>
        <time>2013-01-01T11:48:06Z</time>
      </trkpt>
      <trkpt lat="42.89063" lon="0.07987">
        <ele>1648</ele>
        <time>2013-01-01T11:48:08Z</time>
      </trkpt>
      <trkpt lat="42.89061" lon="0.07987">
        <ele>1648</ele>
        <time>2013-01-01T11:48:10Z</time>
      </trkpt>
      <trkpt lat="42.89059" lon="0.07988">
        <ele>1648</ele>
        <time>2013-01-01T11:48:12Z</time>
      </trkpt>
      <trkpt lat="42.89058" lon="0.07988">
        <ele>1648</ele>
        <time>2013-01-01T11:48:14Z</time>
      </trkpt>
      <trkpt lat="42.89057" lon="0.07988">
        <ele>1648</ele>
        <time>2013-01-01T11:48:27Z</time>
      </trkpt>
      <trkpt lat="42.89056" lon="0.07989">
        <ele>1648</ele>
        <time>2013-01-01T11:48:29Z</time>
      </trkpt>
      <trkpt lat="42.89054" lon="0.0799">
        <ele>1648</ele>
        <time>2013-01-01T11:48:31Z</time>
      </trkpt>
      <trkpt lat="42.89053" lon="0.07991">
        <ele>1648</ele>
        <time>2013-01-01T11:48:33Z</time>
      </trkpt>
      <trkpt lat="42.89051" lon="0.07992">
        <ele>1648</ele>
        <time>2013-01-01T11:48:35Z</time>
      </trkpt>
      <trkpt lat="42.89049" lon="0.07993">
        <ele>1648</ele>
        <time>2013-01-01T11:48:37Z</time>
      </trkpt>
      <trkpt lat="42.89048" lon="0.07994">
        <ele>1648</ele>
        <time>2013-01-01T11:48:39Z</time>
      </trkpt>
      <trkpt lat="42.89046" lon="0.07995">
        <ele>1648</ele>
        <time>2013-01-01T11:48:41Z</time>
      </trkpt>
      <trkpt lat="42.89045" lon="0.07996">
        <ele>1648</ele>
        <time>2013-01-01T11:48:44Z</time>
      </trkpt>
      <trkpt lat="42.89044" lon="0.07997">
        <ele>1648</ele>
        <time>2013-01-01T11:48:46Z</time>
      </trkpt>
      <trkpt lat="42.89042" lon="0.07997">
        <ele>1648</ele>
        <time>2013-01-01T11:48:48Z</time>
      </trkpt>
      <trkpt lat="42.89041" lon="0.07998">
        <ele>1648</ele>
        <time>2013-01-01T11:48:50Z</time>
      </trkpt>
      <trkpt lat="42.8904" lon="0.07999">
        <ele>1648</ele>
        <time>2013-01-01T11:48:52Z</time>
      </trkpt>
      <trkpt lat="42.89038" lon="0.08">
        <ele>1648</ele>
        <time>2013-01-01T11:48:54Z</time>
      </trkpt>
      <trkpt lat="42.89036" lon="0.08001">
        <ele>1648</ele>
        <time>2013-01-01T11:48:56Z</time>
      </trkpt>
      <trkpt lat="42.89035" lon="0.08002">
        <ele>1648</ele>
        <time>2013-01-01T11:48:58Z</time>
      </trkpt>
      <trkpt lat="42.89033" lon="0.08003">
        <ele>1648</ele>
        <time>2013-01-01T11:49:00Z</time>
      </trkpt>
      <trkpt lat="42.89032" lon="0.08003">
        <ele>1648</ele>
        <time>2013-01-01T11:49:02Z</time>
      </trkpt>
      <trkpt lat="42.89029" lon="0.08003">
        <ele>1648</ele>
        <time>2013-01-01T11:49:04Z</time>
      </trkpt>
      <trkpt lat="42.89028" lon="0.08004">
        <ele>1648</ele>
        <time>2013-01-01T11:49:06Z</time>
      </trkpt>
      <trkpt lat="42.89027" lon="0.08005">
        <ele>1648</ele>
        <time>2013-01-01T11:49:08Z</time>
      </trkpt>
      <trkpt lat="42.89025" lon="0.08005">
        <ele>1648</ele>
        <time>2013-01-01T11:49:10Z</time>
      </trkpt>
      <trkpt lat="42.89024" lon="0.08006">
        <ele>1648</ele>
        <time>2013-01-01T11:49:12Z</time>
      </trkpt>
      <trkpt lat="42.89022" lon="0.08007">
        <ele>1648</ele>
        <time>2013-01-01T11:49:14Z</time>
      </trkpt>
      <trkpt lat="42.89021" lon="0.08008">
        <ele>1649</ele>
        <time>2013-01-01T11:49:16Z</time>
      </trkpt>
      <trkpt lat="42.89019" lon="0.08009">
        <ele>1649</ele>
        <time>2013-01-01T11:49:18Z</time>
      </trkpt>
      <trkpt lat="42.89018" lon="0.0801">
        <ele>1649</ele>
        <time>2013-01-01T11:49:20Z</time>
      </trkpt>
      <trkpt lat="42.89016" lon="0.0801">
        <ele>1649</ele>
        <time>2013-01-01T11:49:22Z</time>
      </trkpt>
      <trkpt lat="42.89015" lon="0.08011">
        <ele>1649</ele>
        <time>2013-01-01T11:49:24Z</time>
      </trkpt>
      <trkpt lat="42.89014" lon="0.08012">
        <ele>1650</ele>
        <time>2013-01-01T11:49:26Z</time>
      </trkpt>
      <trkpt lat="42.89012" lon="0.08012">
        <ele>1650</ele>
        <time>2013-01-01T11:49:28Z</time>
      </trkpt>
      <trkpt lat="42.89011" lon="0.08012">
        <ele>1650</ele>
        <time>2013-01-01T11:49:31Z</time>
      </trkpt>
      <trkpt lat="42.8901" lon="0.0801">
        <ele>1651</ele>
        <time>2013-01-01T11:49:33Z</time>
      </trkpt>
      <trkpt lat="42.89008" lon="0.08009">
        <ele>1651</ele>
        <time>2013-01-01T11:49:35Z</time>
      </trkpt>
      <trkpt lat="42.89007" lon="0.08008">
        <ele>1652</ele>
        <time>2013-01-01T11:49:38Z</time>
      </trkpt>
      <trkpt lat="42.89005" lon="0.08008">
        <ele>1653</ele>
        <time>2013-01-01T11:49:40Z</time>
      </trkpt>
      <trkpt lat="42.89004" lon="0.08008">
        <ele>1654</ele>
        <time>2013-01-01T11:49:41Z</time>
      </trkpt>
      <trkpt lat="42.89003" lon="0.08007">
        <ele>1655</ele>
        <time>2013-01-01T11:49:43Z</time>
      </trkpt>
      <trkpt lat="42.89001" lon="0.08008">
        <ele>1658</ele>
        <time>2013-01-01T11:49:47Z</time>
      </trkpt>
      <trkpt lat="42.89" lon="0.08009">
        <ele>1659</ele>
        <time>2013-01-01T11:49:49Z</time>
      </trkpt>
      <trkpt lat="42.88998" lon="0.08009">
        <ele>1659</ele>
        <time>2013-01-01T11:49:51Z</time>
      </trkpt>
      <trkpt lat="42.88997" lon="0.08008">
        <ele>1659</ele>
        <time>2013-01-01T11:49:53Z</time>
      </trkpt>
      <trkpt lat="42.88995" lon="0.08007">
        <ele>1659</ele>
        <time>2013-01-01T11:49:55Z</time>
      </trkpt>
      <trkpt lat="42.88993" lon="0.08007">
        <ele>1659</ele>
        <time>2013-01-01T11:49:57Z</time>
      </trkpt>
      <trkpt lat="42.88992" lon="0.08007">
        <ele>1659</ele>
        <time>2013-01-01T11:49:59Z</time>
      </trkpt>
      <trkpt lat="42.8899" lon="0.08008">
        <ele>1660</ele>
        <time>2013-01-01T11:50:01Z</time>
      </trkpt>
      <trkpt lat="42.88989" lon="0.08007">
        <ele>1660</ele>
        <time>2013-01-01T11:50:04Z</time>
      </trkpt>
      <trkpt lat="42.88988" lon="0.08006">
        <ele>1660</ele>
        <time>2013-01-01T11:50:07Z</time>
      </trkpt>
      <trkpt lat="42.88987" lon="0.08005">
        <ele>1660</ele>
        <time>2013-01-01T11:50:11Z</time>
      </trkpt>
      <trkpt lat="42.88986" lon="0.08004">
        <ele>1662</ele>
        <time>2013-01-01T11:50:14Z</time>
      </trkpt>
      <trkpt lat="42.88987" lon="0.08002">
        <ele>1663</ele>
        <time>2013-01-01T11:50:16Z</time>
      </trkpt>
      <trkpt lat="42.88987" lon="0.08">
        <ele>1663</ele>
        <time>2013-01-01T11:50:19Z</time>
      </trkpt>
      <trkpt lat="42.88987" lon="0.07999">
        <ele>1664</ele>
        <time>2013-01-01T11:50:21Z</time>
      </trkpt>
      <trkpt lat="42.88987" lon="0.07997">
        <ele>1666</ele>
        <time>2013-01-01T11:50:23Z</time>
      </trkpt>
      <trkpt lat="42.88985" lon="0.07997">
        <ele>1667</ele>
        <time>2013-01-01T11:50:24Z</time>
      </trkpt>
      <trkpt lat="42.88984" lon="0.07998">
        <ele>1668</ele>
        <time>2013-01-01T11:50:25Z</time>
      </trkpt>
      <trkpt lat="42.88983" lon="0.07998">
        <ele>1669</ele>
        <time>2013-01-01T11:50:27Z</time>
      </trkpt>
      <trkpt lat="42.88981" lon="0.07999">
        <ele>1670</ele>
        <time>2013-01-01T11:50:29Z</time>
      </trkpt>
      <trkpt lat="42.8898" lon="0.07999">
        <ele>1670</ele>
        <time>2013-01-01T11:50:31Z</time>
      </trkpt>
      <trkpt lat="42.88979" lon="0.07999">
        <ele>1670</ele>
        <time>2013-01-01T11:50:33Z</time>
      </trkpt>
      <trkpt lat="42.88977" lon="0.07999">
        <ele>1670</ele>
        <time>2013-01-01T11:50:35Z</time>
      </trkpt>
      <trkpt lat="42.88976" lon="0.07999">
        <ele>1670</ele>
        <time>2013-01-01T11:50:37Z</time>
      </trkpt>
      <trkpt lat="42.88975" lon="0.07998">
        <ele>1670</ele>
        <time>2013-01-01T11:50:41Z</time>
      </trkpt>
      <trkpt lat="42.88976" lon="0.07997">
        <ele>1670</ele>
        <time>2013-01-01T11:50:47Z</time>
      </trkpt>
      <trkpt lat="42.88977" lon="0.07994">
        <ele>1670</ele>
        <time>2013-01-01T11:50:51Z</time>
      </trkpt>
      <trkpt lat="42.88979" lon="0.07993">
        <ele>1670</ele>
        <time>2013-01-01T11:50:52Z</time>
      </trkpt>
      <trkpt lat="42.8898" lon="0.07992">
        <ele>1671</ele>
        <time>2013-01-01T11:50:54Z</time>
      </trkpt>
      <trkpt lat="42.88981" lon="0.0799">
        <ele>1672</ele>
        <time>2013-01-01T11:50:56Z</time>
      </trkpt>
      <trkpt lat="42.88982" lon="0.07989">
        <ele>1672</ele>
        <time>2013-01-01T11:50:58Z</time>
      </trkpt>
      <trkpt lat="42.88982" lon="0.07987">
        <ele>1672</ele>
        <time>2013-01-01T11:51:00Z</time>
      </trkpt>
      <trkpt lat="42.8898" lon="0.07987">
        <ele>1672</ele>
        <time>2013-01-01T11:51:02Z</time>
      </trkpt>
      <trkpt lat="42.88979" lon="0.07987">
        <ele>1672</ele>
        <time>2013-01-01T11:51:04Z</time>
      </trkpt>
      <trkpt lat="42.88977" lon="0.07987">
        <ele>1672</ele>
        <time>2013-01-01T11:51:06Z</time>
      </trkpt>
      <trkpt lat="42.88976" lon="0.07987">
        <ele>1672</ele>
        <time>2013-01-01T11:51:08Z</time>
      </trkpt>
      <trkpt lat="42.88975" lon="0.07987">
        <ele>1672</ele>
        <time>2013-01-01T11:51:10Z</time>
      </trkpt>
      <trkpt lat="42.88973" lon="0.07987">
        <ele>1672</ele>
        <time>2013-01-01T11:51:13Z</time>
      </trkpt>
      <trkpt lat="42.88972" lon="0.07988">
        <ele>1672</ele>
        <time>2013-01-01T11:51:14Z</time>
      </trkpt>
      <trkpt lat="42.88972" lon="0.07986">
        <ele>1672</ele>
        <time>2013-01-01T11:51:21Z</time>
      </trkpt>
      <trkpt lat="42.88973" lon="0.07984">
        <ele>1672</ele>
        <time>2013-01-01T11:51:22Z</time>
      </trkpt>
      <trkpt lat="42.88974" lon="0.07983">
        <ele>1672</ele>
        <time>2013-01-01T11:51:23Z</time>
      </trkpt>
      <trkpt lat="42.88975" lon="0.07981">
        <ele>1672</ele>
        <time>2013-01-01T11:51:24Z</time>
      </trkpt>
      <trkpt lat="42.88977" lon="0.0798">
        <ele>1672</ele>
        <time>2013-01-01T11:51:27Z</time>
      </trkpt>
      <trkpt lat="42.88979" lon="0.07978">
        <ele>1672</ele>
        <time>2013-01-01T11:51:29Z</time>
      </trkpt>
      <trkpt lat="42.88977" lon="0.07979">
        <ele>1675</ele>
        <time>2013-01-01T11:51:35Z</time>
      </trkpt>
      <trkpt lat="42.88976" lon="0.07979">
        <ele>1676</ele>
        <time>2013-01-01T11:51:37Z</time>
      </trkpt>
      <trkpt lat="42.88974" lon="0.07979">
        <ele>1677</ele>
        <time>2013-01-01T11:51:39Z</time>
      </trkpt>
      <trkpt lat="42.88972" lon="0.07978">
        <ele>1678</ele>
        <time>2013-01-01T11:51:41Z</time>
      </trkpt>
      <trkpt lat="42.88971" lon="0.07978">
        <ele>1679</ele>
        <time>2013-01-01T11:51:42Z</time>
      </trkpt>
      <trkpt lat="42.88969" lon="0.07978">
        <ele>1679</ele>
        <time>2013-01-01T11:51:45Z</time>
      </trkpt>
      <trkpt lat="42.88968" lon="0.07978">
        <ele>1679</ele>
        <time>2013-01-01T11:51:47Z</time>
      </trkpt>
      <trkpt lat="42.88966" lon="0.07977">
        <ele>1680</ele>
        <time>2013-01-01T11:51:49Z</time>
      </trkpt>
      <trkpt lat="42.88968" lon="0.07976">
        <ele>1680</ele>
        <time>2013-01-01T11:51:56Z</time>
      </trkpt>
      <trkpt lat="42.88969" lon="0.07975">
        <ele>1680</ele>
        <time>2013-01-01T11:51:58Z</time>
      </trkpt>
      <trkpt lat="42.88969" lon="0.07973">
        <ele>1680</ele>
        <time>2013-01-01T11:52:00Z</time>
      </trkpt>
      <trkpt lat="42.8897" lon="0.07971">
        <ele>1680</ele>
        <time>2013-01-01T11:52:02Z</time>
      </trkpt>
      <trkpt lat="42.88971" lon="0.07969">
        <ele>1680</ele>
        <time>2013-01-01T11:52:05Z</time>
      </trkpt>
      <trkpt lat="42.88971" lon="0.07968">
        <ele>1680</ele>
        <time>2013-01-01T11:52:08Z</time>
      </trkpt>
      <trkpt lat="42.88973" lon="0.07966">
        <ele>1680</ele>
        <time>2013-01-01T11:52:11Z</time>
      </trkpt>
      <trkpt lat="42.88974" lon="0.07965">
        <ele>1680</ele>
        <time>2013-01-01T11:52:13Z</time>
      </trkpt>
      <trkpt lat="42.88976" lon="0.07964">
        <ele>1680</ele>
        <time>2013-01-01T11:52:15Z</time>
      </trkpt>
      <trkpt lat="42.88977" lon="0.07962">
        <ele>1680</ele>
        <time>2013-01-01T11:52:18Z</time>
      </trkpt>
      <trkpt lat="42.88978" lon="0.0796">
        <ele>1680</ele>
        <time>2013-01-01T11:52:21Z</time>
      </trkpt>
      <trkpt lat="42.88979" lon="0.07959">
        <ele>1680</ele>
        <time>2013-01-01T11:52:23Z</time>
      </trkpt>
      <trkpt lat="42.8898" lon="0.07957">
        <ele>1680</ele>
        <time>2013-01-01T11:52:26Z</time>
      </trkpt>
      <trkpt lat="42.88982" lon="0.07955">
        <ele>1680</ele>
        <time>2013-01-01T11:52:29Z</time>
      </trkpt>
      <trkpt lat="42.88982" lon="0.07954">
        <ele>1680</ele>
        <time>2013-01-01T11:52:31Z</time>
      </trkpt>
      <trkpt lat="42.88983" lon="0.07952">
        <ele>1680</ele>
        <time>2013-01-01T11:52:33Z</time>
      </trkpt>
      <trkpt lat="42.88985" lon="0.0795">
        <ele>1680</ele>
        <time>2013-01-01T11:52:36Z</time>
      </trkpt>
      <trkpt lat="42.88985" lon="0.07948">
        <ele>1680</ele>
        <time>2013-01-01T11:52:38Z</time>
      </trkpt>
      <trkpt lat="42.88987" lon="0.07947">
        <ele>1680</ele>
        <time>2013-01-01T11:52:40Z</time>
      </trkpt>
      <trkpt lat="42.88987" lon="0.07945">
        <ele>1680</ele>
        <time>2013-01-01T11:52:42Z</time>
      </trkpt>
      <trkpt lat="42.88988" lon="0.07944">
        <ele>1680</ele>
        <time>2013-01-01T11:52:44Z</time>
      </trkpt>
      <trkpt lat="42.88989" lon="0.07942">
        <ele>1680</ele>
        <time>2013-01-01T11:52:46Z</time>
      </trkpt>
      <trkpt lat="42.8899" lon="0.07941">
        <ele>1680</ele>
        <time>2013-01-01T11:52:48Z</time>
      </trkpt>
      <trkpt lat="42.88992" lon="0.0794">
        <ele>1680</ele>
        <time>2013-01-01T11:52:50Z</time>
      </trkpt>
      <trkpt lat="42.88993" lon="0.07938">
        <ele>1680</ele>
        <time>2013-01-01T11:52:52Z</time>
      </trkpt>
      <trkpt lat="42.88995" lon="0.07937">
        <ele>1680</ele>
        <time>2013-01-01T11:52:55Z</time>
      </trkpt>
      <trkpt lat="42.88996" lon="0.07935">
        <ele>1680</ele>
        <time>2013-01-01T11:52:57Z</time>
      </trkpt>
      <trkpt lat="42.88997" lon="0.07933">
        <ele>1680</ele>
        <time>2013-01-01T11:52:59Z</time>
      </trkpt>
      <trkpt lat="42.88999" lon="0.07931">
        <ele>1681</ele>
        <time>2013-01-01T11:53:02Z</time>
      </trkpt>
      <trkpt lat="42.89" lon="0.07929">
        <ele>1681</ele>
        <time>2013-01-01T11:53:04Z</time>
      </trkpt>
      <trkpt lat="42.89002" lon="0.07927">
        <ele>1681</ele>
        <time>2013-01-01T11:53:07Z</time>
      </trkpt>
      <trkpt lat="42.89003" lon="0.07925">
        <ele>1682</ele>
        <time>2013-01-01T11:53:10Z</time>
      </trkpt>
      <trkpt lat="42.89004" lon="0.07923">
        <ele>1682</ele>
        <time>2013-01-01T11:53:12Z</time>
      </trkpt>
      <trkpt lat="42.89004" lon="0.07921">
        <ele>1682</ele>
        <time>2013-01-01T11:53:14Z</time>
      </trkpt>
      <trkpt lat="42.89005" lon="0.0792">
        <ele>1682</ele>
        <time>2013-01-01T11:53:17Z</time>
      </trkpt>
      <trkpt lat="42.89007" lon="0.07918">
        <ele>1682</ele>
        <time>2013-01-01T11:53:21Z</time>
      </trkpt>
      <trkpt lat="42.89008" lon="0.07917">
        <ele>1685</ele>
        <time>2013-01-01T11:53:26Z</time>
      </trkpt>
      <trkpt lat="42.8901" lon="0.07915">
        <ele>1685</ele>
        <time>2013-01-01T11:53:28Z</time>
      </trkpt>
      <trkpt lat="42.89011" lon="0.07913">
        <ele>1685</ele>
        <time>2013-01-01T11:53:30Z</time>
      </trkpt>
      <trkpt lat="42.89011" lon="0.0791">
        <ele>1686</ele>
        <time>2013-01-01T11:53:32Z</time>
      </trkpt>
      <trkpt lat="42.89012" lon="0.07908">
        <ele>1686</ele>
        <time>2013-01-01T11:53:35Z</time>
      </trkpt>
      <trkpt lat="42.89012" lon="0.07907">
        <ele>1686</ele>
        <time>2013-01-01T11:53:37Z</time>
      </trkpt>
      <trkpt lat="42.89011" lon="0.07905">
        <ele>1686</ele>
        <time>2013-01-01T11:53:40Z</time>
      </trkpt>
      <trkpt lat="42.89013" lon="0.07903">
        <ele>1686</ele>
        <time>2013-01-01T11:53:42Z</time>
      </trkpt>
      <trkpt lat="42.89013" lon="0.07901">
        <ele>1686</ele>
        <time>2013-01-01T11:53:43Z</time>
      </trkpt>
      <trkpt lat="42.89013" lon="0.07899">
        <ele>1687</ele>
        <time>2013-01-01T11:53:45Z</time>
      </trkpt>
      <trkpt lat="42.89014" lon="0.07897">
        <ele>1687</ele>
        <time>2013-01-01T11:53:47Z</time>
      </trkpt>
      <trkpt lat="42.89014" lon="0.07895">
        <ele>1687</ele>
        <time>2013-01-01T11:53:49Z</time>
      </trkpt>
      <trkpt lat="42.89014" lon="0.07893">
        <ele>1687</ele>
        <time>2013-01-01T11:53:50Z</time>
      </trkpt>
      <trkpt lat="42.89014" lon="0.07891">
        <ele>1687</ele>
        <time>2013-01-01T11:53:51Z</time>
      </trkpt>
      <trkpt lat="42.89016" lon="0.0789">
        <ele>1687</ele>
        <time>2013-01-01T11:53:53Z</time>
      </trkpt>
      <trkpt lat="42.89016" lon="0.07888">
        <ele>1687</ele>
        <time>2013-01-01T11:53:55Z</time>
      </trkpt>
      <trkpt lat="42.89016" lon="0.07886">
        <ele>1687</ele>
        <time>2013-01-01T11:53:57Z</time>
      </trkpt>
      <trkpt lat="42.89017" lon="0.07884">
        <ele>1687</ele>
        <time>2013-01-01T11:53:59Z</time>
      </trkpt>
      <trkpt lat="42.89018" lon="0.07883">
        <ele>1687</ele>
        <time>2013-01-01T11:54:03Z</time>
      </trkpt>
      <trkpt lat="42.89019" lon="0.07884">
        <ele>1687</ele>
        <time>2013-01-01T11:54:08Z</time>
      </trkpt>
      <trkpt lat="42.89021" lon="0.07884">
        <ele>1687</ele>
        <time>2013-01-01T11:54:13Z</time>
      </trkpt>
      <trkpt lat="42.89021" lon="0.07882">
        <ele>1687</ele>
        <time>2013-01-01T11:54:16Z</time>
      </trkpt>
      <trkpt lat="42.89022" lon="0.07879">
        <ele>1687</ele>
        <time>2013-01-01T11:54:18Z</time>
      </trkpt>
      <trkpt lat="42.89022" lon="0.07877">
        <ele>1687</ele>
        <time>2013-01-01T11:54:20Z</time>
      </trkpt>
      <trkpt lat="42.89022" lon="0.07875">
        <ele>1687</ele>
        <time>2013-01-01T11:54:22Z</time>
      </trkpt>
      <trkpt lat="42.89021" lon="0.07872">
        <ele>1687</ele>
        <time>2013-01-01T11:54:24Z</time>
      </trkpt>
      <trkpt lat="42.89022" lon="0.0787">
        <ele>1687</ele>
        <time>2013-01-01T11:54:26Z</time>
      </trkpt>
      <trkpt lat="42.89022" lon="0.07868">
        <ele>1687</ele>
        <time>2013-01-01T11:54:28Z</time>
      </trkpt>
      <trkpt lat="42.89022" lon="0.07866">
        <ele>1687</ele>
        <time>2013-01-01T11:54:29Z</time>
      </trkpt>
      <trkpt lat="42.89022" lon="0.07864">
        <ele>1687</ele>
        <time>2013-01-01T11:54:31Z</time>
      </trkpt>
      <trkpt lat="42.89022" lon="0.07863">
        <ele>1687</ele>
        <time>2013-01-01T11:54:33Z</time>
      </trkpt>
      <trkpt lat="42.89022" lon="0.07861">
        <ele>1687</ele>
        <time>2013-01-01T11:54:34Z</time>
      </trkpt>
      <trkpt lat="42.89022" lon="0.07859">
        <ele>1687</ele>
        <time>2013-01-01T11:54:36Z</time>
      </trkpt>
      <trkpt lat="42.89022" lon="0.07857">
        <ele>1687</ele>
        <time>2013-01-01T11:54:38Z</time>
      </trkpt>
      <trkpt lat="42.89022" lon="0.07855">
        <ele>1687</ele>
        <time>2013-01-01T11:54:40Z</time>
      </trkpt>
      <trkpt lat="42.89023" lon="0.07852">
        <ele>1687</ele>
        <time>2013-01-01T11:54:42Z</time>
      </trkpt>
      <trkpt lat="42.89024" lon="0.0785">
        <ele>1687</ele>
        <time>2013-01-01T11:54:44Z</time>
      </trkpt>
      <trkpt lat="42.89024" lon="0.07847">
        <ele>1687</ele>
        <time>2013-01-01T11:54:46Z</time>
      </trkpt>
      <trkpt lat="42.89024" lon="0.07845">
        <ele>1687</ele>
        <time>2013-01-01T11:54:48Z</time>
      </trkpt>
      <trkpt lat="42.89024" lon="0.07843">
        <ele>1687</ele>
        <time>2013-01-01T11:54:50Z</time>
      </trkpt>
      <trkpt lat="42.89025" lon="0.07842">
        <ele>1687</ele>
        <time>2013-01-01T11:54:52Z</time>
      </trkpt>
      <trkpt lat="42.89025" lon="0.07839">
        <ele>1688</ele>
        <time>2013-01-01T11:54:54Z</time>
      </trkpt>
      <trkpt lat="42.89026" lon="0.07837">
        <ele>1688</ele>
        <time>2013-01-01T11:54:56Z</time>
      </trkpt>
      <trkpt lat="42.89027" lon="0.07836">
        <ele>1688</ele>
        <time>2013-01-01T11:54:58Z</time>
      </trkpt>
      <trkpt lat="42.89027" lon="0.07833">
        <ele>1688</ele>
        <time>2013-01-01T11:55:01Z</time>
      </trkpt>
      <trkpt lat="42.89028" lon="0.07832">
        <ele>1688</ele>
        <time>2013-01-01T11:55:02Z</time>
      </trkpt>
      <trkpt lat="42.89029" lon="0.07829">
        <ele>1688</ele>
        <time>2013-01-01T11:55:04Z</time>
      </trkpt>
      <trkpt lat="42.89029" lon="0.07827">
        <ele>1688</ele>
        <time>2013-01-01T11:55:06Z</time>
      </trkpt>
      <trkpt lat="42.89028" lon="0.07825">
        <ele>1688</ele>
        <time>2013-01-01T11:55:08Z</time>
      </trkpt>
      <trkpt lat="42.89029" lon="0.07823">
        <ele>1688</ele>
        <time>2013-01-01T11:55:10Z</time>
      </trkpt>
      <trkpt lat="42.89029" lon="0.07822">
        <ele>1688</ele>
        <time>2013-01-01T11:55:11Z</time>
      </trkpt>
      <trkpt lat="42.89029" lon="0.0782">
        <ele>1688</ele>
        <time>2013-01-01T11:55:12Z</time>
      </trkpt>
      <trkpt lat="42.8903" lon="0.07817">
        <ele>1688</ele>
        <time>2013-01-01T11:55:14Z</time>
      </trkpt>
      <trkpt lat="42.8903" lon="0.07815">
        <ele>1688</ele>
        <time>2013-01-01T11:55:15Z</time>
      </trkpt>
      <trkpt lat="42.8903" lon="0.07812">
        <ele>1688</ele>
        <time>2013-01-01T11:55:17Z</time>
      </trkpt>
      <trkpt lat="42.8903" lon="0.0781">
        <ele>1688</ele>
        <time>2013-01-01T11:55:19Z</time>
      </trkpt>
      <trkpt lat="42.89031" lon="0.07809">
        <ele>1688</ele>
        <time>2013-01-01T11:55:21Z</time>
      </trkpt>
      <trkpt lat="42.89031" lon="0.07807">
        <ele>1688</ele>
        <time>2013-01-01T11:55:23Z</time>
      </trkpt>
      <trkpt lat="42.89032" lon="0.07806">
        <ele>1688</ele>
        <time>2013-01-01T11:55:25Z</time>
      </trkpt>
      <trkpt lat="42.89032" lon="0.07804">
        <ele>1689</ele>
        <time>2013-01-01T11:55:29Z</time>
      </trkpt>
      <trkpt lat="42.89033" lon="0.07803">
        <ele>1689</ele>
        <time>2013-01-01T11:55:33Z</time>
      </trkpt>
      <trkpt lat="42.89033" lon="0.07801">
        <ele>1690</ele>
        <time>2013-01-01T11:55:36Z</time>
      </trkpt>
      <trkpt lat="42.89033" lon="0.07799">
        <ele>1691</ele>
        <time>2013-01-01T11:55:39Z</time>
      </trkpt>
      <trkpt lat="42.89033" lon="0.07797">
        <ele>1691</ele>
        <time>2013-01-01T11:55:41Z</time>
      </trkpt>
      <trkpt lat="42.89032" lon="0.07795">
        <ele>1691</ele>
        <time>2013-01-01T11:55:44Z</time>
      </trkpt>
      <trkpt lat="42.89031" lon="0.07793">
        <ele>1692</ele>
        <time>2013-01-01T11:55:46Z</time>
      </trkpt>
      <trkpt lat="42.89031" lon="0.07791">
        <ele>1692</ele>
        <time>2013-01-01T11:55:48Z</time>
      </trkpt>
      <trkpt lat="42.89031" lon="0.07788">
        <ele>1692</ele>
        <time>2013-01-01T11:55:50Z</time>
      </trkpt>
      <trkpt lat="42.8903" lon="0.07786">
        <ele>1692</ele>
        <time>2013-01-01T11:55:52Z</time>
      </trkpt>
      <trkpt lat="42.8903" lon="0.07784">
        <ele>1692</ele>
        <time>2013-01-01T11:55:54Z</time>
      </trkpt>
      <trkpt lat="42.8903" lon="0.07781">
        <ele>1692</ele>
        <time>2013-01-01T11:55:56Z</time>
      </trkpt>
      <trkpt lat="42.8903" lon="0.0778">
        <ele>1692</ele>
        <time>2013-01-01T11:55:57Z</time>
      </trkpt>
      <trkpt lat="42.89029" lon="0.07778">
        <ele>1692</ele>
        <time>2013-01-01T11:55:59Z</time>
      </trkpt>
      <trkpt lat="42.8903" lon="0.07775">
        <ele>1692</ele>
        <time>2013-01-01T11:56:01Z</time>
      </trkpt>
      <trkpt lat="42.8903" lon="0.07773">
        <ele>1692</ele>
        <time>2013-01-01T11:56:03Z</time>
      </trkpt>
      <trkpt lat="42.89029" lon="0.07771">
        <ele>1692</ele>
        <time>2013-01-01T11:56:05Z</time>
      </trkpt>
      <trkpt lat="42.89028" lon="0.0777">
        <ele>1692</ele>
        <time>2013-01-01T11:56:06Z</time>
      </trkpt>
      <trkpt lat="42.89027" lon="0.07768">
        <ele>1692</ele>
        <time>2013-01-01T11:56:08Z</time>
      </trkpt>
      <trkpt lat="42.89026" lon="0.07767">
        <ele>1692</ele>
        <time>2013-01-01T11:56:10Z</time>
      </trkpt>
      <trkpt lat="42.89025" lon="0.07766">
        <ele>1692</ele>
        <time>2013-01-01T11:56:12Z</time>
      </trkpt>
      <trkpt lat="42.89024" lon="0.07767">
        <ele>1692</ele>
        <time>2013-01-01T11:56:14Z</time>
      </trkpt>
      <trkpt lat="42.89022" lon="0.07768">
        <ele>1692</ele>
        <time>2013-01-01T11:56:16Z</time>
      </trkpt>
      <trkpt lat="42.89022" lon="0.0777">
        <ele>1692</ele>
        <time>2013-01-01T11:56:18Z</time>
      </trkpt>
      <trkpt lat="42.89022" lon="0.07772">
        <ele>1692</ele>
        <time>2013-01-01T11:56:21Z</time>
      </trkpt>
      <trkpt lat="42.89022" lon="0.07774">
        <ele>1692</ele>
        <time>2013-01-01T11:56:23Z</time>
      </trkpt>
      <trkpt lat="42.89022" lon="0.07775">
        <ele>1692</ele>
        <time>2013-01-01T11:56:24Z</time>
      </trkpt>
      <trkpt lat="42.89022" lon="0.07777">
        <ele>1692</ele>
        <time>2013-01-01T11:56:27Z</time>
      </trkpt>
      <trkpt lat="42.89022" lon="0.07781">
        <ele>1692</ele>
        <time>2013-01-01T11:56:29Z</time>
      </trkpt>
      <trkpt lat="42.89022" lon="0.07783">
        <ele>1692</ele>
        <time>2013-01-01T11:56:30Z</time>
      </trkpt>
      <trkpt lat="42.89021" lon="0.07784">
        <ele>1692</ele>
        <time>2013-01-01T11:56:31Z</time>
      </trkpt>
      <trkpt lat="42.89022" lon="0.07786">
        <ele>1692</ele>
        <time>2013-01-01T11:56:33Z</time>
      </trkpt>
      <trkpt lat="42.89022" lon="0.07788">
        <ele>1692</ele>
        <time>2013-01-01T11:56:35Z</time>
      </trkpt>
      <trkpt lat="42.89022" lon="0.0779">
        <ele>1693</ele>
        <time>2013-01-01T11:56:36Z</time>
      </trkpt>
      <trkpt lat="42.89021" lon="0.07792">
        <ele>1693</ele>
        <time>2013-01-01T11:56:38Z</time>
      </trkpt>
      <trkpt lat="42.89021" lon="0.07795">
        <ele>1693</ele>
        <time>2013-01-01T11:56:40Z</time>
      </trkpt>
      <trkpt lat="42.89021" lon="0.07796">
        <ele>1693</ele>
        <time>2013-01-01T11:56:41Z</time>
      </trkpt>
      <trkpt lat="42.8902" lon="0.07798">
        <ele>1694</ele>
        <time>2013-01-01T11:56:43Z</time>
      </trkpt>
      <trkpt lat="42.89019" lon="0.078">
        <ele>1694</ele>
        <time>2013-01-01T11:56:45Z</time>
      </trkpt>
      <trkpt lat="42.89019" lon="0.07802">
        <ele>1694</ele>
        <time>2013-01-01T11:56:46Z</time>
      </trkpt>
      <trkpt lat="42.89018" lon="0.07804">
        <ele>1694</ele>
        <time>2013-01-01T11:56:48Z</time>
      </trkpt>
      <trkpt lat="42.89017" lon="0.07806">
        <ele>1695</ele>
        <time>2013-01-01T11:56:50Z</time>
      </trkpt>
      <trkpt lat="42.89016" lon="0.07808">
        <ele>1695</ele>
        <time>2013-01-01T11:56:52Z</time>
      </trkpt>
      <trkpt lat="42.89016" lon="0.0781">
        <ele>1695</ele>
        <time>2013-01-01T11:56:54Z</time>
      </trkpt>
      <trkpt lat="42.89016" lon="0.07812">
        <ele>1695</ele>
        <time>2013-01-01T11:56:56Z</time>
      </trkpt>
      <trkpt lat="42.89014" lon="0.07814">
        <ele>1696</ele>
        <time>2013-01-01T11:56:58Z</time>
      </trkpt>
      <trkpt lat="42.89014" lon="0.07816">
        <ele>1696</ele>
        <time>2013-01-01T11:57:00Z</time>
      </trkpt>
      <trkpt lat="42.89013" lon="0.07818">
        <ele>1697</ele>
        <time>2013-01-01T11:57:02Z</time>
      </trkpt>
      <trkpt lat="42.89013" lon="0.07819">
        <ele>1697</ele>
        <time>2013-01-01T11:57:04Z</time>
      </trkpt>
      <trkpt lat="42.89012" lon="0.07821">
        <ele>1697</ele>
        <time>2013-01-01T11:57:06Z</time>
      </trkpt>
      <trkpt lat="42.89011" lon="0.07824">
        <ele>1697</ele>
        <time>2013-01-01T11:57:08Z</time>
      </trkpt>
      <trkpt lat="42.89011" lon="0.07825">
        <ele>1697</ele>
        <time>2013-01-01T11:57:09Z</time>
      </trkpt>
      <trkpt lat="42.8901" lon="0.07828">
        <ele>1697</ele>
        <time>2013-01-01T11:57:11Z</time>
      </trkpt>
      <trkpt lat="42.89009" lon="0.07829">
        <ele>1697</ele>
        <time>2013-01-01T11:57:13Z</time>
      </trkpt>
      <trkpt lat="42.89007" lon="0.07831">
        <ele>1697</ele>
        <time>2013-01-01T11:57:16Z</time>
      </trkpt>
      <trkpt lat="42.89006" lon="0.07833">
        <ele>1697</ele>
        <time>2013-01-01T11:57:18Z</time>
      </trkpt>
      <trkpt lat="42.89005" lon="0.07834">
        <ele>1697</ele>
        <time>2013-01-01T11:57:20Z</time>
      </trkpt>
      <trkpt lat="42.89004" lon="0.07836">
        <ele>1697</ele>
        <time>2013-01-01T11:57:22Z</time>
      </trkpt>
      <trkpt lat="42.89004" lon="0.07838">
        <ele>1697</ele>
        <time>2013-01-01T11:57:24Z</time>
      </trkpt>
      <trkpt lat="42.89002" lon="0.0784">
        <ele>1697</ele>
        <time>2013-01-01T11:57:27Z</time>
      </trkpt>
      <trkpt lat="42.89001" lon="0.07841">
        <ele>1698</ele>
        <time>2013-01-01T11:57:30Z</time>
      </trkpt>
      <trkpt lat="42.88999" lon="0.07841">
        <ele>1699</ele>
        <time>2013-01-01T11:57:33Z</time>
      </trkpt>
      <trkpt lat="42.88998" lon="0.07842">
        <ele>1700</ele>
        <time>2013-01-01T11:57:36Z</time>
      </trkpt>
      <trkpt lat="42.88996" lon="0.07843">
        <ele>1700</ele>
        <time>2013-01-01T11:57:39Z</time>
      </trkpt>
      <trkpt lat="42.88994" lon="0.07844">
        <ele>1701</ele>
        <time>2013-01-01T11:57:42Z</time>
      </trkpt>
      <trkpt lat="42.88992" lon="0.07844">
        <ele>1701</ele>
        <time>2013-01-01T11:57:44Z</time>
      </trkpt>
      <trkpt lat="42.88992" lon="0.07842">
        <ele>1702</ele>
        <time>2013-01-01T11:57:51Z</time>
      </trkpt>
      <trkpt lat="42.88991" lon="0.07841">
        <ele>1702</ele>
        <time>2013-01-01T11:57:53Z</time>
      </trkpt>
      <trkpt lat="42.8899" lon="0.07839">
        <ele>1702</ele>
        <time>2013-01-01T11:57:55Z</time>
      </trkpt>
      <trkpt lat="42.88991" lon="0.07837">
        <ele>1703</ele>
        <time>2013-01-01T11:57:57Z</time>
      </trkpt>
      <trkpt lat="42.88991" lon="0.07835">
        <ele>1703</ele>
        <time>2013-01-01T11:57:59Z</time>
      </trkpt>
      <trkpt lat="42.88992" lon="0.07833">
        <ele>1703</ele>
        <time>2013-01-01T11:58:01Z</time>
      </trkpt>
      <trkpt lat="42.88992" lon="0.07832">
        <ele>1703</ele>
        <time>2013-01-01T11:58:03Z</time>
      </trkpt>
      <trkpt lat="42.88992" lon="0.0783">
        <ele>1703</ele>
        <time>2013-01-01T11:58:05Z</time>
      </trkpt>
      <trkpt lat="42.88992" lon="0.07829">
        <ele>1703</ele>
        <time>2013-01-01T11:58:07Z</time>
      </trkpt>
      <trkpt lat="42.88992" lon="0.07827">
        <ele>1704</ele>
        <time>2013-01-01T11:58:09Z</time>
      </trkpt>
      <trkpt lat="42.88992" lon="0.07825">
        <ele>1704</ele>
        <time>2013-01-01T11:58:11Z</time>
      </trkpt>
      <trkpt lat="42.88993" lon="0.07823">
        <ele>1704</ele>
        <time>2013-01-01T11:58:13Z</time>
      </trkpt>
      <trkpt lat="42.88993" lon="0.07821">
        <ele>1704</ele>
        <time>2013-01-01T11:58:15Z</time>
      </trkpt>
      <trkpt lat="42.88993" lon="0.07819">
        <ele>1705</ele>
        <time>2013-01-01T11:58:17Z</time>
      </trkpt>
      <trkpt lat="42.88992" lon="0.07818">
        <ele>1705</ele>
        <time>2013-01-01T11:58:19Z</time>
      </trkpt>
      <trkpt lat="42.88991" lon="0.07818">
        <ele>1706</ele>
        <time>2013-01-01T11:58:23Z</time>
      </trkpt>
      <trkpt lat="42.8899" lon="0.07818">
        <ele>1707</ele>
        <time>2013-01-01T11:58:27Z</time>
      </trkpt>
      <trkpt lat="42.88988" lon="0.07817">
        <ele>1709</ele>
        <time>2013-01-01T11:58:36Z</time>
      </trkpt>
      <trkpt lat="42.88987" lon="0.07817">
        <ele>1709</ele>
        <time>2013-01-01T11:58:38Z</time>
      </trkpt>
      <trkpt lat="42.88985" lon="0.07818">
        <ele>1712</ele>
        <time>2013-01-01T11:58:41Z</time>
      </trkpt>
      <trkpt lat="42.88984" lon="0.07818">
        <ele>1714</ele>
        <time>2013-01-01T11:58:43Z</time>
      </trkpt>
      <trkpt lat="42.88983" lon="0.07819">
        <ele>1714</ele>
        <time>2013-01-01T11:58:45Z</time>
      </trkpt>
      <trkpt lat="42.88982" lon="0.07819">
        <ele>1714</ele>
        <time>2013-01-01T11:58:47Z</time>
      </trkpt>
      <trkpt lat="42.8898" lon="0.0782">
        <ele>1715</ele>
        <time>2013-01-01T11:58:49Z</time>
      </trkpt>
      <trkpt lat="42.88979" lon="0.0782">
        <ele>1715</ele>
        <time>2013-01-01T11:58:50Z</time>
      </trkpt>
      <trkpt lat="42.88978" lon="0.0782">
        <ele>1716</ele>
        <time>2013-01-01T11:58:52Z</time>
      </trkpt>
      <trkpt lat="42.88978" lon="0.07818">
        <ele>1716</ele>
        <time>2013-01-01T11:58:55Z</time>
      </trkpt>
      <trkpt lat="42.88979" lon="0.07816">
        <ele>1716</ele>
        <time>2013-01-01T11:58:57Z</time>
      </trkpt>
      <trkpt lat="42.88979" lon="0.07814">
        <ele>1716</ele>
        <time>2013-01-01T11:58:59Z</time>
      </trkpt>
      <trkpt lat="42.88979" lon="0.07813">
        <ele>1716</ele>
        <time>2013-01-01T11:59:01Z</time>
      </trkpt>
      <trkpt lat="42.88979" lon="0.07811">
        <ele>1716</ele>
        <time>2013-01-01T11:59:03Z</time>
      </trkpt>
      <trkpt lat="42.88978" lon="0.07809">
        <ele>1716</ele>
        <time>2013-01-01T11:59:05Z</time>
      </trkpt>
      <trkpt lat="42.88979" lon="0.07807">
        <ele>1716</ele>
        <time>2013-01-01T11:59:07Z</time>
      </trkpt>
      <trkpt lat="42.88978" lon="0.07805">
        <ele>1716</ele>
        <time>2013-01-01T11:59:09Z</time>
      </trkpt>
      <trkpt lat="42.88978" lon="0.07803">
        <ele>1716</ele>
        <time>2013-01-01T11:59:11Z</time>
      </trkpt>
      <trkpt lat="42.88977" lon="0.07801">
        <ele>1716</ele>
        <time>2013-01-01T11:59:13Z</time>
      </trkpt>
      <trkpt lat="42.88977" lon="0.07799">
        <ele>1716</ele>
        <time>2013-01-01T11:59:15Z</time>
      </trkpt>
      <trkpt lat="42.88976" lon="0.07797">
        <ele>1716</ele>
        <time>2013-01-01T11:59:17Z</time>
      </trkpt>
      <trkpt lat="42.88976" lon="0.07795">
        <ele>1716</ele>
        <time>2013-01-01T11:59:19Z</time>
      </trkpt>
      <trkpt lat="42.88975" lon="0.07794">
        <ele>1716</ele>
        <time>2013-01-01T11:59:21Z</time>
      </trkpt>
      <trkpt lat="42.88973" lon="0.07792">
        <ele>1716</ele>
        <time>2013-01-01T11:59:24Z</time>
      </trkpt>
      <trkpt lat="42.88972" lon="0.07792">
        <ele>1716</ele>
        <time>2013-01-01T11:59:26Z</time>
      </trkpt>
      <trkpt lat="42.8897" lon="0.07793">
        <ele>1716</ele>
        <time>2013-01-01T11:59:28Z</time>
      </trkpt>
      <trkpt lat="42.88969" lon="0.07794">
        <ele>1716</ele>
        <time>2013-01-01T11:59:30Z</time>
      </trkpt>
      <trkpt lat="42.88968" lon="0.07794">
        <ele>1716</ele>
        <time>2013-01-01T11:59:32Z</time>
      </trkpt>
      <trkpt lat="42.88966" lon="0.07796">
        <ele>1716</ele>
        <time>2013-01-01T11:59:35Z</time>
      </trkpt>
      <trkpt lat="42.88965" lon="0.07796">
        <ele>1716</ele>
        <time>2013-01-01T11:59:37Z</time>
      </trkpt>
      <trkpt lat="42.88964" lon="0.07797">
        <ele>1716</ele>
        <time>2013-01-01T11:59:40Z</time>
      </trkpt>
      <trkpt lat="42.88962" lon="0.07797">
        <ele>1716</ele>
        <time>2013-01-01T11:59:52Z</time>
      </trkpt>
      <trkpt lat="42.88961" lon="0.07798">
        <ele>1717</ele>
        <time>2013-01-01T11:59:54Z</time>
      </trkpt>
      <trkpt lat="42.8896" lon="0.07799">
        <ele>1717</ele>
        <time>2013-01-01T11:59:56Z</time>
      </trkpt>
      <trkpt lat="42.88958" lon="0.07798">
        <ele>1718</ele>
        <time>2013-01-01T11:59:58Z</time>
      </trkpt>
      <trkpt lat="42.88957" lon="0.07796">
        <ele>1718</ele>
        <time>2013-01-01T12:00:01Z</time>
      </trkpt>
      <trkpt lat="42.88956" lon="0.07794">
        <ele>1719</ele>
        <time>2013-01-01T12:00:03Z</time>
      </trkpt>
      <trkpt lat="42.88955" lon="0.07792">
        <ele>1719</ele>
        <time>2013-01-01T12:00:05Z</time>
      </trkpt>
      <trkpt lat="42.88954" lon="0.07791">
        <ele>1719</ele>
        <time>2013-01-01T12:00:07Z</time>
      </trkpt>
      <trkpt lat="42.88953" lon="0.0779">
        <ele>1719</ele>
        <time>2013-01-01T12:00:09Z</time>
      </trkpt>
      <trkpt lat="42.88953" lon="0.07788">
        <ele>1719</ele>
        <time>2013-01-01T12:00:11Z</time>
      </trkpt>
      <trkpt lat="42.88952" lon="0.07786">
        <ele>1720</ele>
        <time>2013-01-01T12:00:13Z</time>
      </trkpt>
      <trkpt lat="42.88952" lon="0.07785">
        <ele>1720</ele>
        <time>2013-01-01T12:00:18Z</time>
      </trkpt>
      <trkpt lat="42.88952" lon="0.07783">
        <ele>1720</ele>
        <time>2013-01-01T12:00:20Z</time>
      </trkpt>
      <trkpt lat="42.88951" lon="0.07781">
        <ele>1721</ele>
        <time>2013-01-01T12:00:22Z</time>
      </trkpt>
      <trkpt lat="42.8895" lon="0.07779">
        <ele>1721</ele>
        <time>2013-01-01T12:00:24Z</time>
      </trkpt>
      <trkpt lat="42.88949" lon="0.07778">
        <ele>1721</ele>
        <time>2013-01-01T12:00:26Z</time>
      </trkpt>
      <trkpt lat="42.88948" lon="0.07776">
        <ele>1721</ele>
        <time>2013-01-01T12:00:28Z</time>
      </trkpt>
      <trkpt lat="42.88948" lon="0.07774">
        <ele>1721</ele>
        <time>2013-01-01T12:00:30Z</time>
      </trkpt>
      <trkpt lat="42.88946" lon="0.07774">
        <ele>1721</ele>
        <time>2013-01-01T12:00:32Z</time>
      </trkpt>
      <trkpt lat="42.88945" lon="0.07774">
        <ele>1722</ele>
        <time>2013-01-01T12:00:34Z</time>
      </trkpt>
      <trkpt lat="42.88943" lon="0.07775">
        <ele>1722</ele>
        <time>2013-01-01T12:00:36Z</time>
      </trkpt>
      <trkpt lat="42.88942" lon="0.07776">
        <ele>1722</ele>
        <time>2013-01-01T12:00:38Z</time>
      </trkpt>
      <trkpt lat="42.8894" lon="0.07777">
        <ele>1722</ele>
        <time>2013-01-01T12:00:40Z</time>
      </trkpt>
      <trkpt lat="42.88939" lon="0.07778">
        <ele>1722</ele>
        <time>2013-01-01T12:00:42Z</time>
      </trkpt>
      <trkpt lat="42.88938" lon="0.07779">
        <ele>1722</ele>
        <time>2013-01-01T12:00:44Z</time>
      </trkpt>
      <trkpt lat="42.88937" lon="0.0778">
        <ele>1723</ele>
        <time>2013-01-01T12:00:46Z</time>
      </trkpt>
      <trkpt lat="42.88935" lon="0.07781">
        <ele>1723</ele>
        <time>2013-01-01T12:00:48Z</time>
      </trkpt>
      <trkpt lat="42.88934" lon="0.07782">
        <ele>1723</ele>
        <time>2013-01-01T12:00:50Z</time>
      </trkpt>
      <trkpt lat="42.88933" lon="0.07783">
        <ele>1723</ele>
        <time>2013-01-01T12:00:52Z</time>
      </trkpt>
      <trkpt lat="42.88932" lon="0.07784">
        <ele>1724</ele>
        <time>2013-01-01T12:00:54Z</time>
      </trkpt>
      <trkpt lat="42.88931" lon="0.07785">
        <ele>1724</ele>
        <time>2013-01-01T12:00:56Z</time>
      </trkpt>
      <trkpt lat="42.88929" lon="0.07787">
        <ele>1724</ele>
        <time>2013-01-01T12:00:59Z</time>
      </trkpt>
      <trkpt lat="42.88927" lon="0.07788">
        <ele>1724</ele>
        <time>2013-01-01T12:01:01Z</time>
      </trkpt>
      <trkpt lat="42.88926" lon="0.07788">
        <ele>1724</ele>
        <time>2013-01-01T12:01:03Z</time>
      </trkpt>
      <trkpt lat="42.88925" lon="0.07786">
        <ele>1725</ele>
        <time>2013-01-01T12:01:06Z</time>
      </trkpt>
      <trkpt lat="42.88924" lon="0.07784">
        <ele>1725</ele>
        <time>2013-01-01T12:01:08Z</time>
      </trkpt>
      <trkpt lat="42.88924" lon="0.07783">
        <ele>1725</ele>
        <time>2013-01-01T12:01:10Z</time>
      </trkpt>
      <trkpt lat="42.88923" lon="0.07781">
        <ele>1725</ele>
        <time>2013-01-01T12:01:12Z</time>
      </trkpt>
      <trkpt lat="42.88922" lon="0.07779">
        <ele>1725</ele>
        <time>2013-01-01T12:01:14Z</time>
      </trkpt>
      <trkpt lat="42.88922" lon="0.07778">
        <ele>1725</ele>
        <time>2013-01-01T12:01:16Z</time>
      </trkpt>
      <trkpt lat="42.88921" lon="0.07776">
        <ele>1725</ele>
        <time>2013-01-01T12:01:18Z</time>
      </trkpt>
      <trkpt lat="42.88921" lon="0.07774">
        <ele>1725</ele>
        <time>2013-01-01T12:01:20Z</time>
      </trkpt>
      <trkpt lat="42.88921" lon="0.07773">
        <ele>1726</ele>
        <time>2013-01-01T12:01:22Z</time>
      </trkpt>
      <trkpt lat="42.8892" lon="0.07771">
        <ele>1726</ele>
        <time>2013-01-01T12:01:24Z</time>
      </trkpt>
      <trkpt lat="42.8892" lon="0.07769">
        <ele>1726</ele>
        <time>2013-01-01T12:01:26Z</time>
      </trkpt>
      <trkpt lat="42.8892" lon="0.07768">
        <ele>1727</ele>
        <time>2013-01-01T12:01:28Z</time>
      </trkpt>
      <trkpt lat="42.88918" lon="0.07768">
        <ele>1727</ele>
        <time>2013-01-01T12:01:30Z</time>
      </trkpt>
      <trkpt lat="42.88917" lon="0.0777">
        <ele>1728</ele>
        <time>2013-01-01T12:01:32Z</time>
      </trkpt>
      <trkpt lat="42.88915" lon="0.07771">
        <ele>1729</ele>
        <time>2013-01-01T12:01:34Z</time>
      </trkpt>
      <trkpt lat="42.88913" lon="0.07772">
        <ele>1730</ele>
        <time>2013-01-01T12:01:36Z</time>
      </trkpt>
      <trkpt lat="42.88912" lon="0.07773">
        <ele>1731</ele>
        <time>2013-01-01T12:01:39Z</time>
      </trkpt>
      <trkpt lat="42.88911" lon="0.07775">
        <ele>1731</ele>
        <time>2013-01-01T12:01:42Z</time>
      </trkpt>
      <trkpt lat="42.88909" lon="0.07775">
        <ele>1731</ele>
        <time>2013-01-01T12:01:44Z</time>
      </trkpt>
      <trkpt lat="42.88908" lon="0.07776">
        <ele>1731</ele>
        <time>2013-01-01T12:01:46Z</time>
      </trkpt>
      <trkpt lat="42.88907" lon="0.07778">
        <ele>1731</ele>
        <time>2013-01-01T12:01:48Z</time>
      </trkpt>
      <trkpt lat="42.88906" lon="0.07779">
        <ele>1731</ele>
        <time>2013-01-01T12:01:50Z</time>
      </trkpt>
      <trkpt lat="42.88905" lon="0.07779">
        <ele>1731</ele>
        <time>2013-01-01T12:01:53Z</time>
      </trkpt>
      <trkpt lat="42.88904" lon="0.07777">
        <ele>1731</ele>
        <time>2013-01-01T12:01:56Z</time>
      </trkpt>
      <trkpt lat="42.88903" lon="0.07774">
        <ele>1731</ele>
        <time>2013-01-01T12:01:59Z</time>
      </trkpt>
      <trkpt lat="42.88903" lon="0.07773">
        <ele>1731</ele>
        <time>2013-01-01T12:02:01Z</time>
      </trkpt>
      <trkpt lat="42.88902" lon="0.07771">
        <ele>1731</ele>
        <time>2013-01-01T12:02:03Z</time>
      </trkpt>
      <trkpt lat="42.88901" lon="0.0777">
        <ele>1731</ele>
        <time>2013-01-01T12:02:05Z</time>
      </trkpt>
      <trkpt lat="42.88901" lon="0.07768">
        <ele>1731</ele>
        <time>2013-01-01T12:02:07Z</time>
      </trkpt>
      <trkpt lat="42.889" lon="0.07767">
        <ele>1731</ele>
        <time>2013-01-01T12:02:09Z</time>
      </trkpt>
      <trkpt lat="42.88899" lon="0.07765">
        <ele>1731</ele>
        <time>2013-01-01T12:02:11Z</time>
      </trkpt>
      <trkpt lat="42.88899" lon="0.07764">
        <ele>1731</ele>
        <time>2013-01-01T12:02:13Z</time>
      </trkpt>
      <trkpt lat="42.88898" lon="0.07762">
        <ele>1731</ele>
        <time>2013-01-01T12:02:15Z</time>
      </trkpt>
      <trkpt lat="42.88898" lon="0.07761">
        <ele>1731</ele>
        <time>2013-01-01T12:02:17Z</time>
      </trkpt>
      <trkpt lat="42.88896" lon="0.07761">
        <ele>1731</ele>
        <time>2013-01-01T12:02:20Z</time>
      </trkpt>
      <trkpt lat="42.88895" lon="0.07762">
        <ele>1732</ele>
        <time>2013-01-01T12:02:22Z</time>
      </trkpt>
      <trkpt lat="42.88894" lon="0.07763">
        <ele>1732</ele>
        <time>2013-01-01T12:02:24Z</time>
      </trkpt>
      <trkpt lat="42.88892" lon="0.07763">
        <ele>1733</ele>
        <time>2013-01-01T12:02:26Z</time>
      </trkpt>
      <trkpt lat="42.88891" lon="0.07764">
        <ele>1735</ele>
        <time>2013-01-01T12:02:44Z</time>
      </trkpt>
      <trkpt lat="42.8889" lon="0.07765">
        <ele>1735</ele>
        <time>2013-01-01T12:02:46Z</time>
      </trkpt>
      <trkpt lat="42.88888" lon="0.07766">
        <ele>1735</ele>
        <time>2013-01-01T12:02:48Z</time>
      </trkpt>
      <trkpt lat="42.88887" lon="0.07767">
        <ele>1736</ele>
        <time>2013-01-01T12:02:50Z</time>
      </trkpt>
      <trkpt lat="42.88885" lon="0.07767">
        <ele>1737</ele>
        <time>2013-01-01T12:02:52Z</time>
      </trkpt>
      <trkpt lat="42.88883" lon="0.07769">
        <ele>1737</ele>
        <time>2013-01-01T12:02:54Z</time>
      </trkpt>
      <trkpt lat="42.88882" lon="0.07771">
        <ele>1738</ele>
        <time>2013-01-01T12:02:57Z</time>
      </trkpt>
      <trkpt lat="42.88884" lon="0.07769">
        <ele>1738</ele>
        <time>2013-01-01T12:03:03Z</time>
      </trkpt>
      <trkpt lat="42.88884" lon="0.07767">
        <ele>1738</ele>
        <time>2013-01-01T12:03:05Z</time>
      </trkpt>
      <trkpt lat="42.88884" lon="0.07765">
        <ele>1738</ele>
        <time>2013-01-01T12:03:07Z</time>
      </trkpt>
      <trkpt lat="42.88883" lon="0.07763">
        <ele>1738</ele>
        <time>2013-01-01T12:03:09Z</time>
      </trkpt>
      <trkpt lat="42.88882" lon="0.07761">
        <ele>1738</ele>
        <time>2013-01-01T12:03:11Z</time>
      </trkpt>
      <trkpt lat="42.88882" lon="0.0776">
        <ele>1738</ele>
        <time>2013-01-01T12:03:13Z</time>
      </trkpt>
      <trkpt lat="42.88881" lon="0.07758">
        <ele>1738</ele>
        <time>2013-01-01T12:03:15Z</time>
      </trkpt>
      <trkpt lat="42.8888" lon="0.07759">
        <ele>1738</ele>
        <time>2013-01-01T12:03:17Z</time>
      </trkpt>
      <trkpt lat="42.88878" lon="0.0776">
        <ele>1738</ele>
        <time>2013-01-01T12:03:19Z</time>
      </trkpt>
      <trkpt lat="42.88876" lon="0.07761">
        <ele>1738</ele>
        <time>2013-01-01T12:03:21Z</time>
      </trkpt>
      <trkpt lat="42.88874" lon="0.07762">
        <ele>1738</ele>
        <time>2013-01-01T12:03:23Z</time>
      </trkpt>
      <trkpt lat="42.88873" lon="0.07762">
        <ele>1738</ele>
        <time>2013-01-01T12:03:25Z</time>
      </trkpt>
      <trkpt lat="42.88871" lon="0.07763">
        <ele>1738</ele>
        <time>2013-01-01T12:03:27Z</time>
      </trkpt>
      <trkpt lat="42.88869" lon="0.07764">
        <ele>1739</ele>
        <time>2013-01-01T12:03:29Z</time>
      </trkpt>
      <trkpt lat="42.88868" lon="0.07765">
        <ele>1739</ele>
        <time>2013-01-01T12:03:31Z</time>
      </trkpt>
      <trkpt lat="42.88869" lon="0.07763">
        <ele>1740</ele>
        <time>2013-01-01T12:03:35Z</time>
      </trkpt>
      <trkpt lat="42.88869" lon="0.07762">
        <ele>1740</ele>
        <time>2013-01-01T12:03:37Z</time>
      </trkpt>
      <trkpt lat="42.88869" lon="0.0776">
        <ele>1740</ele>
        <time>2013-01-01T12:03:40Z</time>
      </trkpt>
      <trkpt lat="42.8887" lon="0.07761">
        <ele>1740</ele>
        <time>2013-01-01T12:03:52Z</time>
      </trkpt>
      <trkpt lat="42.88871" lon="0.07759">
        <ele>1740</ele>
        <time>2013-01-01T12:04:06Z</time>
      </trkpt>
      <trkpt lat="42.88871" lon="0.07757">
        <ele>1740</ele>
        <time>2013-01-01T12:04:08Z</time>
      </trkpt>
      <trkpt lat="42.88871" lon="0.07755">
        <ele>1741</ele>
        <time>2013-01-01T12:04:11Z</time>
      </trkpt>
      <trkpt lat="42.88871" lon="0.07754">
        <ele>1741</ele>
        <time>2013-01-01T12:04:12Z</time>
      </trkpt>
      <trkpt lat="42.88871" lon="0.07752">
        <ele>1741</ele>
        <time>2013-01-01T12:04:13Z</time>
      </trkpt>
      <trkpt lat="42.88871" lon="0.07751">
        <ele>1741</ele>
        <time>2013-01-01T12:04:15Z</time>
      </trkpt>
      <trkpt lat="42.88869" lon="0.07751">
        <ele>1741</ele>
        <time>2013-01-01T12:04:17Z</time>
      </trkpt>
      <trkpt lat="42.88867" lon="0.07752">
        <ele>1741</ele>
        <time>2013-01-01T12:04:19Z</time>
      </trkpt>
      <trkpt lat="42.88866" lon="0.07754">
        <ele>1741</ele>
        <time>2013-01-01T12:04:21Z</time>
      </trkpt>
      <trkpt lat="42.88865" lon="0.07754">
        <ele>1741</ele>
        <time>2013-01-01T12:04:23Z</time>
      </trkpt>
      <trkpt lat="42.88863" lon="0.07755">
        <ele>1741</ele>
        <time>2013-01-01T12:04:25Z</time>
      </trkpt>
      <trkpt lat="42.88861" lon="0.07756">
        <ele>1741</ele>
        <time>2013-01-01T12:04:27Z</time>
      </trkpt>
      <trkpt lat="42.8886" lon="0.07756">
        <ele>1742</ele>
        <time>2013-01-01T12:04:29Z</time>
      </trkpt>
      <trkpt lat="42.88859" lon="0.07757">
        <ele>1742</ele>
        <time>2013-01-01T12:04:31Z</time>
      </trkpt>
      <trkpt lat="42.88858" lon="0.07756">
        <ele>1743</ele>
        <time>2013-01-01T12:04:35Z</time>
      </trkpt>
      <trkpt lat="42.88858" lon="0.07754">
        <ele>1743</ele>
        <time>2013-01-01T12:04:38Z</time>
      </trkpt>
      <trkpt lat="42.88858" lon="0.07752">
        <ele>1743</ele>
        <time>2013-01-01T12:04:40Z</time>
      </trkpt>
      <trkpt lat="42.88858" lon="0.0775">
        <ele>1743</ele>
        <time>2013-01-01T12:04:43Z</time>
      </trkpt>
      <trkpt lat="42.88858" lon="0.07749">
        <ele>1743</ele>
        <time>2013-01-01T12:04:45Z</time>
      </trkpt>
      <trkpt lat="42.88858" lon="0.07747">
        <ele>1744</ele>
        <time>2013-01-01T12:04:47Z</time>
      </trkpt>
      <trkpt lat="42.88858" lon="0.07745">
        <ele>1744</ele>
        <time>2013-01-01T12:04:49Z</time>
      </trkpt>
      <trkpt lat="42.88858" lon="0.07743">
        <ele>1745</ele>
        <time>2013-01-01T12:04:51Z</time>
      </trkpt>
      <trkpt lat="42.88857" lon="0.07741">
        <ele>1745</ele>
        <time>2013-01-01T12:04:53Z</time>
      </trkpt>
      <trkpt lat="42.88857" lon="0.07739">
        <ele>1745</ele>
        <time>2013-01-01T12:04:55Z</time>
      </trkpt>
      <trkpt lat="42.88855" lon="0.07738">
        <ele>1745</ele>
        <time>2013-01-01T12:04:58Z</time>
      </trkpt>
      <trkpt lat="42.88854" lon="0.0774">
        <ele>1745</ele>
        <time>2013-01-01T12:05:00Z</time>
      </trkpt>
      <trkpt lat="42.88852" lon="0.07741">
        <ele>1745</ele>
        <time>2013-01-01T12:05:02Z</time>
      </trkpt>
      <trkpt lat="42.88851" lon="0.07743">
        <ele>1746</ele>
        <time>2013-01-01T12:05:04Z</time>
      </trkpt>
      <trkpt lat="42.8885" lon="0.07744">
        <ele>1746</ele>
        <time>2013-01-01T12:05:19Z</time>
      </trkpt>
      <trkpt lat="42.88849" lon="0.07745">
        <ele>1746</ele>
        <time>2013-01-01T12:05:21Z</time>
      </trkpt>
      <trkpt lat="42.88847" lon="0.07747">
        <ele>1746</ele>
        <time>2013-01-01T12:05:24Z</time>
      </trkpt>
      <trkpt lat="42.88846" lon="0.07749">
        <ele>1746</ele>
        <time>2013-01-01T12:05:26Z</time>
      </trkpt>
      <trkpt lat="42.88844" lon="0.0775">
        <ele>1746</ele>
        <time>2013-01-01T12:05:28Z</time>
      </trkpt>
      <trkpt lat="42.88842" lon="0.07752">
        <ele>1746</ele>
        <time>2013-01-01T12:05:30Z</time>
      </trkpt>
      <trkpt lat="42.88841" lon="0.07753">
        <ele>1746</ele>
        <time>2013-01-01T12:05:32Z</time>
      </trkpt>
      <trkpt lat="42.8884" lon="0.07753">
        <ele>1747</ele>
        <time>2013-01-01T12:05:34Z</time>
      </trkpt>
      <trkpt lat="42.88839" lon="0.07751">
        <ele>1748</ele>
        <time>2013-01-01T12:05:37Z</time>
      </trkpt>
      <trkpt lat="42.88838" lon="0.07749">
        <ele>1748</ele>
        <time>2013-01-01T12:05:39Z</time>
      </trkpt>
      <trkpt lat="42.88838" lon="0.07747">
        <ele>1748</ele>
        <time>2013-01-01T12:05:41Z</time>
      </trkpt>
      <trkpt lat="42.88837" lon="0.07745">
        <ele>1749</ele>
        <time>2013-01-01T12:05:43Z</time>
      </trkpt>
      <trkpt lat="42.88836" lon="0.07744">
        <ele>1749</ele>
        <time>2013-01-01T12:05:45Z</time>
      </trkpt>
      <trkpt lat="42.88835" lon="0.07742">
        <ele>1750</ele>
        <time>2013-01-01T12:05:47Z</time>
      </trkpt>
      <trkpt lat="42.88834" lon="0.0774">
        <ele>1750</ele>
        <time>2013-01-01T12:05:49Z</time>
      </trkpt>
      <trkpt lat="42.88834" lon="0.07739">
        <ele>1751</ele>
        <time>2013-01-01T12:05:51Z</time>
      </trkpt>
      <trkpt lat="42.88833" lon="0.07737">
        <ele>1751</ele>
        <time>2013-01-01T12:05:53Z</time>
      </trkpt>
      <trkpt lat="42.88832" lon="0.07735">
        <ele>1751</ele>
        <time>2013-01-01T12:05:55Z</time>
      </trkpt>
      <trkpt lat="42.88831" lon="0.07734">
        <ele>1753</ele>
        <time>2013-01-01T12:06:12Z</time>
      </trkpt>
      <trkpt lat="42.8883" lon="0.07733">
        <ele>1753</ele>
        <time>2013-01-01T12:06:30Z</time>
      </trkpt>
      <trkpt lat="42.88831" lon="0.07734">
        <ele>1753</ele>
        <time>2013-01-01T12:07:34Z</time>
      </trkpt>
      <trkpt lat="42.8883" lon="0.07734">
        <ele>1753</ele>
        <time>2013-01-01T12:08:11Z</time>
      </trkpt>
      <trkpt lat="42.88829" lon="0.07733">
        <ele>1753</ele>
        <time>2013-01-01T12:08:32Z</time>
      </trkpt>
      <trkpt lat="42.88828" lon="0.07731">
        <ele>1753</ele>
        <time>2013-01-01T12:08:35Z</time>
      </trkpt>
      <trkpt lat="42.88826" lon="0.07729">
        <ele>1753</ele>
        <time>2013-01-01T12:08:37Z</time>
      </trkpt>
      <trkpt lat="42.88825" lon="0.07728">
        <ele>1753</ele>
        <time>2013-01-01T12:08:39Z</time>
      </trkpt>
      <trkpt lat="42.88824" lon="0.07727">
        <ele>1753</ele>
        <time>2013-01-01T12:08:41Z</time>
      </trkpt>
      <trkpt lat="42.88822" lon="0.07727">
        <ele>1753</ele>
        <time>2013-01-01T12:08:43Z</time>
      </trkpt>
      <trkpt lat="42.88821" lon="0.07728">
        <ele>1753</ele>
        <time>2013-01-01T12:08:45Z</time>
      </trkpt>
      <trkpt lat="42.88819" lon="0.07728">
        <ele>1753</ele>
        <time>2013-01-01T12:08:47Z</time>
      </trkpt>
      <trkpt lat="42.88817" lon="0.07728">
        <ele>1753</ele>
        <time>2013-01-01T12:08:49Z</time>
      </trkpt>
      <trkpt lat="42.88815" lon="0.07729">
        <ele>1753</ele>
        <time>2013-01-01T12:08:51Z</time>
      </trkpt>
      <trkpt lat="42.88813" lon="0.0773">
        <ele>1754</ele>
        <time>2013-01-01T12:08:53Z</time>
      </trkpt>
      <trkpt lat="42.88812" lon="0.0773">
        <ele>1754</ele>
        <time>2013-01-01T12:08:55Z</time>
      </trkpt>
      <trkpt lat="42.8881" lon="0.07731">
        <ele>1754</ele>
        <time>2013-01-01T12:08:57Z</time>
      </trkpt>
      <trkpt lat="42.88808" lon="0.07731">
        <ele>1754</ele>
        <time>2013-01-01T12:08:59Z</time>
      </trkpt>
      <trkpt lat="42.88807" lon="0.07732">
        <ele>1755</ele>
        <time>2013-01-01T12:09:01Z</time>
      </trkpt>
      <trkpt lat="42.88805" lon="0.07732">
        <ele>1755</ele>
        <time>2013-01-01T12:09:03Z</time>
      </trkpt>
      <trkpt lat="42.88804" lon="0.07733">
        <ele>1755</ele>
        <time>2013-01-01T12:09:05Z</time>
      </trkpt>
      <trkpt lat="42.88802" lon="0.07734">
        <ele>1756</ele>
        <time>2013-01-01T12:09:07Z</time>
      </trkpt>
      <trkpt lat="42.88801" lon="0.07734">
        <ele>1756</ele>
        <time>2013-01-01T12:09:09Z</time>
      </trkpt>
      <trkpt lat="42.88799" lon="0.07734">
        <ele>1756</ele>
        <time>2013-01-01T12:09:11Z</time>
      </trkpt>
      <trkpt lat="42.88797" lon="0.07735">
        <ele>1757</ele>
        <time>2013-01-01T12:09:13Z</time>
      </trkpt>
      <trkpt lat="42.88796" lon="0.07735">
        <ele>1757</ele>
        <time>2013-01-01T12:09:15Z</time>
      </trkpt>
      <trkpt lat="42.88794" lon="0.07735">
        <ele>1757</ele>
        <time>2013-01-01T12:09:17Z</time>
      </trkpt>
      <trkpt lat="42.88793" lon="0.07735">
        <ele>1757</ele>
        <time>2013-01-01T12:09:19Z</time>
      </trkpt>
      <trkpt lat="42.88792" lon="0.07736">
        <ele>1757</ele>
        <time>2013-01-01T12:09:21Z</time>
      </trkpt>
      <trkpt lat="42.8879" lon="0.07737">
        <ele>1758</ele>
        <time>2013-01-01T12:09:24Z</time>
      </trkpt>
      <trkpt lat="42.88788" lon="0.07737">
        <ele>1758</ele>
        <time>2013-01-01T12:09:26Z</time>
      </trkpt>
      <trkpt lat="42.88787" lon="0.07738">
        <ele>1758</ele>
        <time>2013-01-01T12:09:28Z</time>
      </trkpt>
      <trkpt lat="42.88786" lon="0.07739">
        <ele>1759</ele>
        <time>2013-01-01T12:09:30Z</time>
      </trkpt>
      <trkpt lat="42.88784" lon="0.07739">
        <ele>1759</ele>
        <time>2013-01-01T12:09:32Z</time>
      </trkpt>
      <trkpt lat="42.88782" lon="0.07739">
        <ele>1759</ele>
        <time>2013-01-01T12:09:34Z</time>
      </trkpt>
      <trkpt lat="42.8878" lon="0.0774">
        <ele>1760</ele>
        <time>2013-01-01T12:09:36Z</time>
      </trkpt>
      <trkpt lat="42.88779" lon="0.0774">
        <ele>1760</ele>
        <time>2013-01-01T12:09:38Z</time>
      </trkpt>
      <trkpt lat="42.88778" lon="0.07741">
        <ele>1760</ele>
        <time>2013-01-01T12:09:40Z</time>
      </trkpt>
      <trkpt lat="42.88776" lon="0.07741">
        <ele>1761</ele>
        <time>2013-01-01T12:09:42Z</time>
      </trkpt>
      <trkpt lat="42.88775" lon="0.07741">
        <ele>1761</ele>
        <time>2013-01-01T12:09:43Z</time>
      </trkpt>
      <trkpt lat="42.88773" lon="0.07741">
        <ele>1761</ele>
        <time>2013-01-01T12:09:45Z</time>
      </trkpt>
      <trkpt lat="42.88772" lon="0.07741">
        <ele>1761</ele>
        <time>2013-01-01T12:09:47Z</time>
      </trkpt>
      <trkpt lat="42.88771" lon="0.07742">
        <ele>1762</ele>
        <time>2013-01-01T12:09:49Z</time>
      </trkpt>
      <trkpt lat="42.88769" lon="0.07743">
        <ele>1762</ele>
        <time>2013-01-01T12:09:51Z</time>
      </trkpt>
      <trkpt lat="42.88768" lon="0.07743">
        <ele>1763</ele>
        <time>2013-01-01T12:09:53Z</time>
      </trkpt>
      <trkpt lat="42.88767" lon="0.07744">
        <ele>1763</ele>
        <time>2013-01-01T12:09:55Z</time>
      </trkpt>
      <trkpt lat="42.88765" lon="0.07744">
        <ele>1764</ele>
        <time>2013-01-01T12:09:57Z</time>
      </trkpt>
      <trkpt lat="42.88764" lon="0.07745">
        <ele>1764</ele>
        <time>2013-01-01T12:09:59Z</time>
      </trkpt>
      <trkpt lat="42.88763" lon="0.07746">
        <ele>1764</ele>
        <time>2013-01-01T12:10:01Z</time>
      </trkpt>
      <trkpt lat="42.88761" lon="0.07747">
        <ele>1765</ele>
        <time>2013-01-01T12:10:03Z</time>
      </trkpt>
      <trkpt lat="42.8876" lon="0.07748">
        <ele>1765</ele>
        <time>2013-01-01T12:10:05Z</time>
      </trkpt>
      <trkpt lat="42.88759" lon="0.07748">
        <ele>1765</ele>
        <time>2013-01-01T12:10:07Z</time>
      </trkpt>
      <trkpt lat="42.88757" lon="0.07749">
        <ele>1765</ele>
        <time>2013-01-01T12:10:09Z</time>
      </trkpt>
      <trkpt lat="42.88756" lon="0.0775">
        <ele>1766</ele>
        <time>2013-01-01T12:10:11Z</time>
      </trkpt>
      <trkpt lat="42.88755" lon="0.0775">
        <ele>1766</ele>
        <time>2013-01-01T12:10:13Z</time>
      </trkpt>
      <trkpt lat="42.88753" lon="0.07751">
        <ele>1766</ele>
        <time>2013-01-01T12:10:15Z</time>
      </trkpt>
      <trkpt lat="42.88752" lon="0.07752">
        <ele>1766</ele>
        <time>2013-01-01T12:10:17Z</time>
      </trkpt>
      <trkpt lat="42.8875" lon="0.07753">
        <ele>1767</ele>
        <time>2013-01-01T12:10:20Z</time>
      </trkpt>
      <trkpt lat="42.88749" lon="0.07753">
        <ele>1767</ele>
        <time>2013-01-01T12:10:22Z</time>
      </trkpt>
      <trkpt lat="42.88748" lon="0.07754">
        <ele>1767</ele>
        <time>2013-01-01T12:10:24Z</time>
      </trkpt>
      <trkpt lat="42.88747" lon="0.07755">
        <ele>1768</ele>
        <time>2013-01-01T12:10:26Z</time>
      </trkpt>
      <trkpt lat="42.88745" lon="0.07755">
        <ele>1768</ele>
        <time>2013-01-01T12:10:29Z</time>
      </trkpt>
      <trkpt lat="42.88745" lon="0.07753">
        <ele>1768</ele>
        <time>2013-01-01T12:10:32Z</time>
      </trkpt>
      <trkpt lat="42.88745" lon="0.07751">
        <ele>1768</ele>
        <time>2013-01-01T12:10:34Z</time>
      </trkpt>
      <trkpt lat="42.88745" lon="0.0775">
        <ele>1769</ele>
        <time>2013-01-01T12:10:36Z</time>
      </trkpt>
      <trkpt lat="42.88745" lon="0.07748">
        <ele>1769</ele>
        <time>2013-01-01T12:10:38Z</time>
      </trkpt>
      <trkpt lat="42.88745" lon="0.07746">
        <ele>1769</ele>
        <time>2013-01-01T12:10:40Z</time>
      </trkpt>
      <trkpt lat="42.88744" lon="0.07745">
        <ele>1769</ele>
        <time>2013-01-01T12:10:42Z</time>
      </trkpt>
      <trkpt lat="42.88744" lon="0.07743">
        <ele>1770</ele>
        <time>2013-01-01T12:10:45Z</time>
      </trkpt>
      <trkpt lat="42.88744" lon="0.07741">
        <ele>1770</ele>
        <time>2013-01-01T12:10:47Z</time>
      </trkpt>
      <trkpt lat="42.88743" lon="0.0774">
        <ele>1770</ele>
        <time>2013-01-01T12:10:49Z</time>
      </trkpt>
      <trkpt lat="42.88741" lon="0.0774">
        <ele>1770</ele>
        <time>2013-01-01T12:10:52Z</time>
      </trkpt>
      <trkpt lat="42.8874" lon="0.07741">
        <ele>1770</ele>
        <time>2013-01-01T12:10:55Z</time>
      </trkpt>
      <trkpt lat="42.88739" lon="0.07742">
        <ele>1770</ele>
        <time>2013-01-01T12:10:57Z</time>
      </trkpt>
      <trkpt lat="42.88737" lon="0.07743">
        <ele>1770</ele>
        <time>2013-01-01T12:11:00Z</time>
      </trkpt>
      <trkpt lat="42.88736" lon="0.07744">
        <ele>1771</ele>
        <time>2013-01-01T12:11:02Z</time>
      </trkpt>
      <trkpt lat="42.88735" lon="0.07744">
        <ele>1772</ele>
        <time>2013-01-01T12:11:04Z</time>
      </trkpt>
      <trkpt lat="42.88734" lon="0.07744">
        <ele>1772</ele>
        <time>2013-01-01T12:11:06Z</time>
      </trkpt>
      <trkpt lat="42.88733" lon="0.07745">
        <ele>1773</ele>
        <time>2013-01-01T12:11:08Z</time>
      </trkpt>
      <trkpt lat="42.88731" lon="0.07745">
        <ele>1773</ele>
        <time>2013-01-01T12:11:10Z</time>
      </trkpt>
      <trkpt lat="42.8873" lon="0.07746">
        <ele>1774</ele>
        <time>2013-01-01T12:11:13Z</time>
      </trkpt>
      <trkpt lat="42.88728" lon="0.07747">
        <ele>1774</ele>
        <time>2013-01-01T12:11:16Z</time>
      </trkpt>
      <trkpt lat="42.88727" lon="0.07748">
        <ele>1775</ele>
        <time>2013-01-01T12:11:19Z</time>
      </trkpt>
      <trkpt lat="42.88728" lon="0.07746">
        <ele>1776</ele>
        <time>2013-01-01T12:11:27Z</time>
      </trkpt>
      <trkpt lat="42.88727" lon="0.07744">
        <ele>1776</ele>
        <time>2013-01-01T12:11:29Z</time>
      </trkpt>
      <trkpt lat="42.88727" lon="0.07743">
        <ele>1776</ele>
        <time>2013-01-01T12:11:31Z</time>
      </trkpt>
      <trkpt lat="42.88727" lon="0.07741">
        <ele>1776</ele>
        <time>2013-01-01T12:11:34Z</time>
      </trkpt>
      <trkpt lat="42.88727" lon="0.07739">
        <ele>1776</ele>
        <time>2013-01-01T12:11:36Z</time>
      </trkpt>
      <trkpt lat="42.88727" lon="0.07738">
        <ele>1777</ele>
        <time>2013-01-01T12:11:38Z</time>
      </trkpt>
      <trkpt lat="42.88728" lon="0.07736">
        <ele>1777</ele>
        <time>2013-01-01T12:11:41Z</time>
      </trkpt>
      <trkpt lat="42.88728" lon="0.07734">
        <ele>1777</ele>
        <time>2013-01-01T12:11:43Z</time>
      </trkpt>
      <trkpt lat="42.88727" lon="0.07733">
        <ele>1777</ele>
        <time>2013-01-01T12:11:46Z</time>
      </trkpt>
      <trkpt lat="42.88726" lon="0.07734">
        <ele>1777</ele>
        <time>2013-01-01T12:11:50Z</time>
      </trkpt>
      <trkpt lat="42.88725" lon="0.07735">
        <ele>1777</ele>
        <time>2013-01-01T12:11:52Z</time>
      </trkpt>
      <trkpt lat="42.88723" lon="0.07735">
        <ele>1777</ele>
        <time>2013-01-01T12:11:54Z</time>
      </trkpt>
      <trkpt lat="42.88722" lon="0.07736">
        <ele>1778</ele>
        <time>2013-01-01T12:11:56Z</time>
      </trkpt>
      <trkpt lat="42.88721" lon="0.07737">
        <ele>1778</ele>
        <time>2013-01-01T12:11:58Z</time>
      </trkpt>
      <trkpt lat="42.88719" lon="0.07738">
        <ele>1778</ele>
        <time>2013-01-01T12:12:01Z</time>
      </trkpt>
      <trkpt lat="42.88718" lon="0.07739">
        <ele>1779</ele>
        <time>2013-01-01T12:12:04Z</time>
      </trkpt>
      <trkpt lat="42.88717" lon="0.0774">
        <ele>1779</ele>
        <time>2013-01-01T12:12:06Z</time>
      </trkpt>
      <trkpt lat="42.88716" lon="0.07738">
        <ele>1780</ele>
        <time>2013-01-01T12:12:17Z</time>
      </trkpt>
      <trkpt lat="42.88715" lon="0.07737">
        <ele>1780</ele>
        <time>2013-01-01T12:12:23Z</time>
      </trkpt>
      <trkpt lat="42.88716" lon="0.07735">
        <ele>1780</ele>
        <time>2013-01-01T12:12:31Z</time>
      </trkpt>
      <trkpt lat="42.88716" lon="0.07733">
        <ele>1780</ele>
        <time>2013-01-01T12:12:34Z</time>
      </trkpt>
      <trkpt lat="42.88716" lon="0.07732">
        <ele>1780</ele>
        <time>2013-01-01T12:12:37Z</time>
      </trkpt>
      <trkpt lat="42.88716" lon="0.0773">
        <ele>1780</ele>
        <time>2013-01-01T12:12:40Z</time>
      </trkpt>
      <trkpt lat="42.88714" lon="0.07732">
        <ele>1780</ele>
        <time>2013-01-01T12:12:46Z</time>
      </trkpt>
      <trkpt lat="42.88713" lon="0.07733">
        <ele>1780</ele>
        <time>2013-01-01T12:12:48Z</time>
      </trkpt>
      <trkpt lat="42.88712" lon="0.07734">
        <ele>1781</ele>
        <time>2013-01-01T12:12:51Z</time>
      </trkpt>
      <trkpt lat="42.8871" lon="0.07735">
        <ele>1781</ele>
        <time>2013-01-01T12:12:54Z</time>
      </trkpt>
      <trkpt lat="42.8871" lon="0.07737">
        <ele>1782</ele>
        <time>2013-01-01T12:13:04Z</time>
      </trkpt>
      <trkpt lat="42.8871" lon="0.07735">
        <ele>1783</ele>
        <time>2013-01-01T12:13:11Z</time>
      </trkpt>
      <trkpt lat="42.8871" lon="0.07733">
        <ele>1783</ele>
        <time>2013-01-01T12:13:13Z</time>
      </trkpt>
      <trkpt lat="42.8871" lon="0.07731">
        <ele>1783</ele>
        <time>2013-01-01T12:13:15Z</time>
      </trkpt>
      <trkpt lat="42.8871" lon="0.07729">
        <ele>1783</ele>
        <time>2013-01-01T12:13:17Z</time>
      </trkpt>
      <trkpt lat="42.88711" lon="0.07728">
        <ele>1783</ele>
        <time>2013-01-01T12:13:19Z</time>
      </trkpt>
      <trkpt lat="42.88712" lon="0.07726">
        <ele>1784</ele>
        <time>2013-01-01T12:13:21Z</time>
      </trkpt>
      <trkpt lat="42.88711" lon="0.07726">
        <ele>1786</ele>
        <time>2013-01-01T12:13:28Z</time>
      </trkpt>
      <trkpt lat="42.8871" lon="0.07728">
        <ele>1788</ele>
        <time>2013-01-01T12:13:39Z</time>
      </trkpt>
      <trkpt lat="42.88708" lon="0.07728">
        <ele>1790</ele>
        <time>2013-01-01T12:13:45Z</time>
      </trkpt>
      <trkpt lat="42.88707" lon="0.07729">
        <ele>1790</ele>
        <time>2013-01-01T12:13:47Z</time>
      </trkpt>
      <trkpt lat="42.88706" lon="0.07729">
        <ele>1791</ele>
        <time>2013-01-01T12:13:50Z</time>
      </trkpt>
      <trkpt lat="42.88704" lon="0.07731">
        <ele>1791</ele>
        <time>2013-01-01T12:13:53Z</time>
      </trkpt>
      <trkpt lat="42.88703" lon="0.07731">
        <ele>1791</ele>
        <time>2013-01-01T12:13:55Z</time>
      </trkpt>
      <trkpt lat="42.88702" lon="0.07733">
        <ele>1791</ele>
        <time>2013-01-01T12:13:58Z</time>
      </trkpt>
      <trkpt lat="42.887" lon="0.07734">
        <ele>1791</ele>
        <time>2013-01-01T12:14:00Z</time>
      </trkpt>
      <trkpt lat="42.88699" lon="0.07735">
        <ele>1791</ele>
        <time>2013-01-01T12:14:02Z</time>
      </trkpt>
      <trkpt lat="42.88698" lon="0.07733">
        <ele>1791</ele>
        <time>2013-01-01T12:14:09Z</time>
      </trkpt>
      <trkpt lat="42.88698" lon="0.0773">
        <ele>1791</ele>
        <time>2013-01-01T12:14:11Z</time>
      </trkpt>
      <trkpt lat="42.88698" lon="0.07729">
        <ele>1791</ele>
        <time>2013-01-01T12:14:13Z</time>
      </trkpt>
      <trkpt lat="42.88697" lon="0.0773">
        <ele>1791</ele>
        <time>2013-01-01T12:14:25Z</time>
      </trkpt>
      <trkpt lat="42.88696" lon="0.07731">
        <ele>1792</ele>
        <time>2013-01-01T12:14:28Z</time>
      </trkpt>
      <trkpt lat="42.88694" lon="0.07732">
        <ele>1792</ele>
        <time>2013-01-01T12:14:31Z</time>
      </trkpt>
      <trkpt lat="42.88693" lon="0.07732">
        <ele>1793</ele>
        <time>2013-01-01T12:14:34Z</time>
      </trkpt>
      <trkpt lat="42.88691" lon="0.07734">
        <ele>1793</ele>
        <time>2013-01-01T12:14:37Z</time>
      </trkpt>
      <trkpt lat="42.8869" lon="0.07735">
        <ele>1794</ele>
        <time>2013-01-01T12:14:40Z</time>
      </trkpt>
      <trkpt lat="42.8869" lon="0.07733">
        <ele>1795</ele>
        <time>2013-01-01T12:15:00Z</time>
      </trkpt>
      <trkpt lat="42.8869" lon="0.07732">
        <ele>1795</ele>
        <time>2013-01-01T12:15:02Z</time>
      </trkpt>
      <trkpt lat="42.8869" lon="0.0773">
        <ele>1795</ele>
        <time>2013-01-01T12:15:04Z</time>
      </trkpt>
      <trkpt lat="42.88691" lon="0.07729">
        <ele>1795</ele>
        <time>2013-01-01T12:15:06Z</time>
      </trkpt>
      <trkpt lat="42.88692" lon="0.07727">
        <ele>1796</ele>
        <time>2013-01-01T12:15:10Z</time>
      </trkpt>
      <trkpt lat="42.88693" lon="0.07726">
        <ele>1796</ele>
        <time>2013-01-01T12:15:13Z</time>
      </trkpt>
      <trkpt lat="42.88694" lon="0.07724">
        <ele>1797</ele>
        <time>2013-01-01T12:15:16Z</time>
      </trkpt>
      <trkpt lat="42.88694" lon="0.07722">
        <ele>1797</ele>
        <time>2013-01-01T12:15:18Z</time>
      </trkpt>
      <trkpt lat="42.88694" lon="0.07721">
        <ele>1797</ele>
        <time>2013-01-01T12:15:20Z</time>
      </trkpt>
      <trkpt lat="42.88694" lon="0.07719">
        <ele>1797</ele>
        <time>2013-01-01T12:15:22Z</time>
      </trkpt>
      <trkpt lat="42.88692" lon="0.0772">
        <ele>1797</ele>
        <time>2013-01-01T12:15:32Z</time>
      </trkpt>
      <trkpt lat="42.88691" lon="0.07721">
        <ele>1797</ele>
        <time>2013-01-01T12:15:34Z</time>
      </trkpt>
      <trkpt lat="42.8869" lon="0.07723">
        <ele>1798</ele>
        <time>2013-01-01T12:15:37Z</time>
      </trkpt>
      <trkpt lat="42.88688" lon="0.07724">
        <ele>1798</ele>
        <time>2013-01-01T12:15:40Z</time>
      </trkpt>
      <trkpt lat="42.88687" lon="0.07726">
        <ele>1799</ele>
        <time>2013-01-01T12:15:42Z</time>
      </trkpt>
      <trkpt lat="42.88686" lon="0.07727">
        <ele>1799</ele>
        <time>2013-01-01T12:15:45Z</time>
      </trkpt>
      <trkpt lat="42.88685" lon="0.07726">
        <ele>1801</ele>
        <time>2013-01-01T12:16:09Z</time>
      </trkpt>
      <trkpt lat="42.88685" lon="0.07724">
        <ele>1801</ele>
        <time>2013-01-01T12:16:14Z</time>
      </trkpt>
      <trkpt lat="42.88685" lon="0.07723">
        <ele>1802</ele>
        <time>2013-01-01T12:16:17Z</time>
      </trkpt>
      <trkpt lat="42.88685" lon="0.07721">
        <ele>1802</ele>
        <time>2013-01-01T12:16:18Z</time>
      </trkpt>
      <trkpt lat="42.88685" lon="0.07719">
        <ele>1802</ele>
        <time>2013-01-01T12:16:20Z</time>
      </trkpt>
      <trkpt lat="42.88686" lon="0.07717">
        <ele>1802</ele>
        <time>2013-01-01T12:16:22Z</time>
      </trkpt>
      <trkpt lat="42.88686" lon="0.07716">
        <ele>1802</ele>
        <time>2013-01-01T12:16:24Z</time>
      </trkpt>
      <trkpt lat="42.88686" lon="0.07713">
        <ele>1803</ele>
        <time>2013-01-01T12:16:27Z</time>
      </trkpt>
      <trkpt lat="42.88686" lon="0.07711">
        <ele>1803</ele>
        <time>2013-01-01T12:16:30Z</time>
      </trkpt>
      <trkpt lat="42.88686" lon="0.0771">
        <ele>1803</ele>
        <time>2013-01-01T12:16:33Z</time>
      </trkpt>
      <trkpt lat="42.88684" lon="0.07709">
        <ele>1804</ele>
        <time>2013-01-01T12:16:36Z</time>
      </trkpt>
      <trkpt lat="42.88683" lon="0.0771">
        <ele>1806</ele>
        <time>2013-01-01T12:16:51Z</time>
      </trkpt>
      <trkpt lat="42.88681" lon="0.0771">
        <ele>1806</ele>
        <time>2013-01-01T12:16:54Z</time>
      </trkpt>
      <trkpt lat="42.8868" lon="0.07711">
        <ele>1807</ele>
        <time>2013-01-01T12:16:56Z</time>
      </trkpt>
      <trkpt lat="42.88679" lon="0.07712">
        <ele>1807</ele>
        <time>2013-01-01T12:16:59Z</time>
      </trkpt>
      <trkpt lat="42.88677" lon="0.07713">
        <ele>1808</ele>
        <time>2013-01-01T12:17:02Z</time>
      </trkpt>
      <trkpt lat="42.88676" lon="0.07713">
        <ele>1808</ele>
        <time>2013-01-01T12:17:05Z</time>
      </trkpt>
      <trkpt lat="42.88676" lon="0.07716">
        <ele>1809</ele>
        <time>2013-01-01T12:17:09Z</time>
      </trkpt>
      <trkpt lat="42.88674" lon="0.07717">
        <ele>1809</ele>
        <time>2013-01-01T12:17:12Z</time>
      </trkpt>
      <trkpt lat="42.88673" lon="0.07718">
        <ele>1810</ele>
        <time>2013-01-01T12:17:15Z</time>
      </trkpt>
      <trkpt lat="42.88672" lon="0.0772">
        <ele>1810</ele>
        <time>2013-01-01T12:17:20Z</time>
      </trkpt>
      <trkpt lat="42.88671" lon="0.07722">
        <ele>1810</ele>
        <time>2013-01-01T12:17:23Z</time>
      </trkpt>
      <trkpt lat="42.8867" lon="0.07723">
        <ele>1810</ele>
        <time>2013-01-01T12:17:27Z</time>
      </trkpt>
      <trkpt lat="42.88668" lon="0.07723">
        <ele>1811</ele>
        <time>2013-01-01T12:17:32Z</time>
      </trkpt>
      <trkpt lat="42.88667" lon="0.07723">
        <ele>1811</ele>
        <time>2013-01-01T12:17:34Z</time>
      </trkpt>
      <trkpt lat="42.88665" lon="0.07723">
        <ele>1811</ele>
        <time>2013-01-01T12:17:37Z</time>
      </trkpt>
      <trkpt lat="42.88664" lon="0.07723">
        <ele>1812</ele>
        <time>2013-01-01T12:17:39Z</time>
      </trkpt>
      <trkpt lat="42.88663" lon="0.07724">
        <ele>1812</ele>
        <time>2013-01-01T12:17:41Z</time>
      </trkpt>
      <trkpt lat="42.88662" lon="0.07724">
        <ele>1812</ele>
        <time>2013-01-01T12:17:43Z</time>
      </trkpt>
      <trkpt lat="42.8866" lon="0.07725">
        <ele>1813</ele>
        <time>2013-01-01T12:17:45Z</time>
      </trkpt>
      <trkpt lat="42.88659" lon="0.07725">
        <ele>1813</ele>
        <time>2013-01-01T12:17:48Z</time>
      </trkpt>
      <trkpt lat="42.88657" lon="0.07724">
        <ele>1813</ele>
        <time>2013-01-01T12:17:52Z</time>
      </trkpt>
      <trkpt lat="42.88657" lon="0.07722">
        <ele>1814</ele>
        <time>2013-01-01T12:18:06Z</time>
      </trkpt>
      <trkpt lat="42.88657" lon="0.0772">
        <ele>1814</ele>
        <time>2013-01-01T12:18:08Z</time>
      </trkpt>
      <trkpt lat="42.88658" lon="0.07718">
        <ele>1814</ele>
        <time>2013-01-01T12:18:11Z</time>
      </trkpt>
      <trkpt lat="42.88658" lon="0.07717">
        <ele>1815</ele>
        <time>2013-01-01T12:18:13Z</time>
      </trkpt>
      <trkpt lat="42.8866" lon="0.07715">
        <ele>1816</ele>
        <time>2013-01-01T12:18:16Z</time>
      </trkpt>
      <trkpt lat="42.88658" lon="0.07714">
        <ele>1816</ele>
        <time>2013-01-01T12:18:19Z</time>
      </trkpt>
      <trkpt lat="42.88657" lon="0.07715">
        <ele>1817</ele>
        <time>2013-01-01T12:18:24Z</time>
      </trkpt>
      <trkpt lat="42.88655" lon="0.07716">
        <ele>1817</ele>
        <time>2013-01-01T12:18:27Z</time>
      </trkpt>
      <trkpt lat="42.88654" lon="0.07716">
        <ele>1817</ele>
        <time>2013-01-01T12:18:29Z</time>
      </trkpt>
      <trkpt lat="42.88653" lon="0.07716">
        <ele>1817</ele>
        <time>2013-01-01T12:18:32Z</time>
      </trkpt>
      <trkpt lat="42.88652" lon="0.07715">
        <ele>1817</ele>
        <time>2013-01-01T12:18:36Z</time>
      </trkpt>
      <trkpt lat="42.8865" lon="0.07713">
        <ele>1818</ele>
        <time>2013-01-01T12:18:40Z</time>
      </trkpt>
      <trkpt lat="42.8865" lon="0.07712">
        <ele>1818</ele>
        <time>2013-01-01T12:18:43Z</time>
      </trkpt>
      <trkpt lat="42.88651" lon="0.0771">
        <ele>1819</ele>
        <time>2013-01-01T12:18:45Z</time>
      </trkpt>
      <trkpt lat="42.88652" lon="0.07709">
        <ele>1820</ele>
        <time>2013-01-01T12:18:48Z</time>
      </trkpt>
      <trkpt lat="42.88653" lon="0.07707">
        <ele>1820</ele>
        <time>2013-01-01T12:18:50Z</time>
      </trkpt>
      <trkpt lat="42.88653" lon="0.07705">
        <ele>1821</ele>
        <time>2013-01-01T12:18:52Z</time>
      </trkpt>
      <trkpt lat="42.88653" lon="0.07704">
        <ele>1821</ele>
        <time>2013-01-01T12:18:54Z</time>
      </trkpt>
      <trkpt lat="42.88652" lon="0.07702">
        <ele>1821</ele>
        <time>2013-01-01T12:19:27Z</time>
      </trkpt>
      <trkpt lat="42.88652" lon="0.07701">
        <ele>1821</ele>
        <time>2013-01-01T12:19:29Z</time>
      </trkpt>
      <trkpt lat="42.88651" lon="0.07699">
        <ele>1821</ele>
        <time>2013-01-01T12:19:31Z</time>
      </trkpt>
      <trkpt lat="42.88651" lon="0.07697">
        <ele>1821</ele>
        <time>2013-01-01T12:19:33Z</time>
      </trkpt>
      <trkpt lat="42.8865" lon="0.07695">
        <ele>1821</ele>
        <time>2013-01-01T12:19:35Z</time>
      </trkpt>
      <trkpt lat="42.8865" lon="0.07694">
        <ele>1821</ele>
        <time>2013-01-01T12:19:38Z</time>
      </trkpt>
      <trkpt lat="42.88649" lon="0.07692">
        <ele>1822</ele>
        <time>2013-01-01T12:19:41Z</time>
      </trkpt>
      <trkpt lat="42.88649" lon="0.0769">
        <ele>1822</ele>
        <time>2013-01-01T12:19:43Z</time>
      </trkpt>
      <trkpt lat="42.88649" lon="0.07688">
        <ele>1822</ele>
        <time>2013-01-01T12:19:46Z</time>
      </trkpt>
      <trkpt lat="42.8865" lon="0.07686">
        <ele>1823</ele>
        <time>2013-01-01T12:19:49Z</time>
      </trkpt>
      <trkpt lat="42.88652" lon="0.07685">
        <ele>1824</ele>
        <time>2013-01-01T12:19:51Z</time>
      </trkpt>
      <trkpt lat="42.88653" lon="0.07684">
        <ele>1825</ele>
        <time>2013-01-01T12:19:53Z</time>
      </trkpt>
      <trkpt lat="42.88654" lon="0.07684">
        <ele>1826</ele>
        <time>2013-01-01T12:19:55Z</time>
      </trkpt>
      <trkpt lat="42.88655" lon="0.07683">
        <ele>1826</ele>
        <time>2013-01-01T12:19:57Z</time>
      </trkpt>
      <trkpt lat="42.88657" lon="0.07683">
        <ele>1826</ele>
        <time>2013-01-01T12:20:00Z</time>
      </trkpt>
      <trkpt lat="42.88659" lon="0.07682">
        <ele>1827</ele>
        <time>2013-01-01T12:20:02Z</time>
      </trkpt>
      <trkpt lat="42.8866" lon="0.07681">
        <ele>1827</ele>
        <time>2013-01-01T12:20:05Z</time>
      </trkpt>
      <trkpt lat="42.88661" lon="0.0768">
        <ele>1828</ele>
        <time>2013-01-01T12:20:07Z</time>
      </trkpt>
      <trkpt lat="42.88662" lon="0.07678">
        <ele>1829</ele>
        <time>2013-01-01T12:20:10Z</time>
      </trkpt>
      <trkpt lat="42.88663" lon="0.07677">
        <ele>1829</ele>
        <time>2013-01-01T12:20:12Z</time>
      </trkpt>
      <trkpt lat="42.88662" lon="0.07675">
        <ele>1830</ele>
        <time>2013-01-01T12:20:16Z</time>
      </trkpt>
      <trkpt lat="42.88661" lon="0.07673">
        <ele>1830</ele>
        <time>2013-01-01T12:20:18Z</time>
      </trkpt>
      <trkpt lat="42.8866" lon="0.07671">
        <ele>1830</ele>
        <time>2013-01-01T12:20:20Z</time>
      </trkpt>
      <trkpt lat="42.88661" lon="0.0767">
        <ele>1830</ele>
        <time>2013-01-01T12:20:24Z</time>
      </trkpt>
      <trkpt lat="42.88662" lon="0.0767">
        <ele>1830</ele>
        <time>2013-01-01T12:20:26Z</time>
      </trkpt>
      <trkpt lat="42.88663" lon="0.07668">
        <ele>1831</ele>
        <time>2013-01-01T12:20:29Z</time>
      </trkpt>
      <trkpt lat="42.88665" lon="0.07668">
        <ele>1831</ele>
        <time>2013-01-01T12:20:31Z</time>
      </trkpt>
      <trkpt lat="42.88666" lon="0.07667">
        <ele>1832</ele>
        <time>2013-01-01T12:20:33Z</time>
      </trkpt>
      <trkpt lat="42.88667" lon="0.07665">
        <ele>1833</ele>
        <time>2013-01-01T12:20:35Z</time>
      </trkpt>
      <trkpt lat="42.88666" lon="0.07663">
        <ele>1833</ele>
        <time>2013-01-01T12:20:37Z</time>
      </trkpt>
      <trkpt lat="42.88666" lon="0.07661">
        <ele>1834</ele>
        <time>2013-01-01T12:20:39Z</time>
      </trkpt>
      <trkpt lat="42.88665" lon="0.0766">
        <ele>1834</ele>
        <time>2013-01-01T12:20:41Z</time>
      </trkpt>
      <trkpt lat="42.88665" lon="0.07658">
        <ele>1834</ele>
        <time>2013-01-01T12:20:43Z</time>
      </trkpt>
      <trkpt lat="42.88665" lon="0.07656">
        <ele>1834</ele>
        <time>2013-01-01T12:20:45Z</time>
      </trkpt>
      <trkpt lat="42.88664" lon="0.07654">
        <ele>1834</ele>
        <time>2013-01-01T12:20:47Z</time>
      </trkpt>
      <trkpt lat="42.88664" lon="0.07653">
        <ele>1834</ele>
        <time>2013-01-01T12:20:49Z</time>
      </trkpt>
      <trkpt lat="42.88664" lon="0.07651">
        <ele>1835</ele>
        <time>2013-01-01T12:20:51Z</time>
      </trkpt>
      <trkpt lat="42.88663" lon="0.0765">
        <ele>1835</ele>
        <time>2013-01-01T12:20:53Z</time>
      </trkpt>
      <trkpt lat="42.88664" lon="0.07648">
        <ele>1835</ele>
        <time>2013-01-01T12:20:56Z</time>
      </trkpt>
      <trkpt lat="42.88665" lon="0.07647">
        <ele>1835</ele>
        <time>2013-01-01T12:20:59Z</time>
      </trkpt>
      <trkpt lat="42.88666" lon="0.07646">
        <ele>1835</ele>
        <time>2013-01-01T12:21:01Z</time>
      </trkpt>
      <trkpt lat="42.88667" lon="0.07645">
        <ele>1835</ele>
        <time>2013-01-01T12:21:03Z</time>
      </trkpt>
      <trkpt lat="42.88668" lon="0.07645">
        <ele>1835</ele>
        <time>2013-01-01T12:21:05Z</time>
      </trkpt>
      <trkpt lat="42.8867" lon="0.07644">
        <ele>1836</ele>
        <time>2013-01-01T12:21:07Z</time>
      </trkpt>
      <trkpt lat="42.88671" lon="0.07643">
        <ele>1837</ele>
        <time>2013-01-01T12:21:09Z</time>
      </trkpt>
      <trkpt lat="42.88672" lon="0.07642">
        <ele>1838</ele>
        <time>2013-01-01T12:21:11Z</time>
      </trkpt>
      <trkpt lat="42.88672" lon="0.0764">
        <ele>1839</ele>
        <time>2013-01-01T12:21:14Z</time>
      </trkpt>
      <trkpt lat="42.88672" lon="0.07638">
        <ele>1839</ele>
        <time>2013-01-01T12:21:16Z</time>
      </trkpt>
      <trkpt lat="42.88672" lon="0.07637">
        <ele>1839</ele>
        <time>2013-01-01T12:21:18Z</time>
      </trkpt>
      <trkpt lat="42.88671" lon="0.07635">
        <ele>1839</ele>
        <time>2013-01-01T12:21:20Z</time>
      </trkpt>
      <trkpt lat="42.88671" lon="0.07633">
        <ele>1840</ele>
        <time>2013-01-01T12:21:22Z</time>
      </trkpt>
      <trkpt lat="42.88671" lon="0.07632">
        <ele>1840</ele>
        <time>2013-01-01T12:21:24Z</time>
      </trkpt>
      <trkpt lat="42.88671" lon="0.0763">
        <ele>1840</ele>
        <time>2013-01-01T12:21:26Z</time>
      </trkpt>
      <trkpt lat="42.8867" lon="0.07628">
        <ele>1840</ele>
        <time>2013-01-01T12:21:28Z</time>
      </trkpt>
      <trkpt lat="42.8867" lon="0.07627">
        <ele>1841</ele>
        <time>2013-01-01T12:21:30Z</time>
      </trkpt>
      <trkpt lat="42.8867" lon="0.07625">
        <ele>1841</ele>
        <time>2013-01-01T12:21:32Z</time>
      </trkpt>
      <trkpt lat="42.8867" lon="0.07624">
        <ele>1841</ele>
        <time>2013-01-01T12:21:34Z</time>
      </trkpt>
      <trkpt lat="42.8867" lon="0.07622">
        <ele>1841</ele>
        <time>2013-01-01T12:21:37Z</time>
      </trkpt>
      <trkpt lat="42.88671" lon="0.07621">
        <ele>1841</ele>
        <time>2013-01-01T12:21:39Z</time>
      </trkpt>
      <trkpt lat="42.88673" lon="0.0762">
        <ele>1841</ele>
        <time>2013-01-01T12:21:41Z</time>
      </trkpt>
      <trkpt lat="42.88674" lon="0.07619">
        <ele>1841</ele>
        <time>2013-01-01T12:21:44Z</time>
      </trkpt>
      <trkpt lat="42.88676" lon="0.07618">
        <ele>1841</ele>
        <time>2013-01-01T12:21:47Z</time>
      </trkpt>
      <trkpt lat="42.88677" lon="0.07617">
        <ele>1841</ele>
        <time>2013-01-01T12:21:49Z</time>
      </trkpt>
      <trkpt lat="42.88679" lon="0.07617">
        <ele>1842</ele>
        <time>2013-01-01T12:21:51Z</time>
      </trkpt>
      <trkpt lat="42.8868" lon="0.07616">
        <ele>1842</ele>
        <time>2013-01-01T12:21:53Z</time>
      </trkpt>
      <trkpt lat="42.88681" lon="0.07614">
        <ele>1843</ele>
        <time>2013-01-01T12:21:55Z</time>
      </trkpt>
      <trkpt lat="42.8868" lon="0.07612">
        <ele>1843</ele>
        <time>2013-01-01T12:21:57Z</time>
      </trkpt>
      <trkpt lat="42.8868" lon="0.0761">
        <ele>1844</ele>
        <time>2013-01-01T12:21:59Z</time>
      </trkpt>
      <trkpt lat="42.88679" lon="0.07609">
        <ele>1844</ele>
        <time>2013-01-01T12:22:01Z</time>
      </trkpt>
      <trkpt lat="42.88678" lon="0.07608">
        <ele>1844</ele>
        <time>2013-01-01T12:22:18Z</time>
      </trkpt>
      <trkpt lat="42.88677" lon="0.07606">
        <ele>1844</ele>
        <time>2013-01-01T12:22:22Z</time>
      </trkpt>
      <trkpt lat="42.88676" lon="0.07604">
        <ele>1844</ele>
        <time>2013-01-01T12:22:24Z</time>
      </trkpt>
      <trkpt lat="42.88676" lon="0.07602">
        <ele>1844</ele>
        <time>2013-01-01T12:22:25Z</time>
      </trkpt>
      <trkpt lat="42.88675" lon="0.07601">
        <ele>1844</ele>
        <time>2013-01-01T12:22:27Z</time>
      </trkpt>
      <trkpt lat="42.88675" lon="0.07599">
        <ele>1845</ele>
        <time>2013-01-01T12:22:29Z</time>
      </trkpt>
      <trkpt lat="42.88676" lon="0.07597">
        <ele>1845</ele>
        <time>2013-01-01T12:22:31Z</time>
      </trkpt>
      <trkpt lat="42.88677" lon="0.07595">
        <ele>1845</ele>
        <time>2013-01-01T12:22:33Z</time>
      </trkpt>
      <trkpt lat="42.88678" lon="0.07593">
        <ele>1846</ele>
        <time>2013-01-01T12:22:35Z</time>
      </trkpt>
      <trkpt lat="42.88679" lon="0.07591">
        <ele>1847</ele>
        <time>2013-01-01T12:22:37Z</time>
      </trkpt>
      <trkpt lat="42.8868" lon="0.0759">
        <ele>1848</ele>
        <time>2013-01-01T12:22:39Z</time>
      </trkpt>
      <trkpt lat="42.88682" lon="0.0759">
        <ele>1849</ele>
        <time>2013-01-01T12:22:48Z</time>
      </trkpt>
      <trkpt lat="42.88683" lon="0.07589">
        <ele>1849</ele>
        <time>2013-01-01T12:22:53Z</time>
      </trkpt>
      <trkpt lat="42.88684" lon="0.07587">
        <ele>1849</ele>
        <time>2013-01-01T12:22:55Z</time>
      </trkpt>
      <trkpt lat="42.88685" lon="0.07586">
        <ele>1849</ele>
        <time>2013-01-01T12:22:57Z</time>
      </trkpt>
      <trkpt lat="42.88686" lon="0.07583">
        <ele>1849</ele>
        <time>2013-01-01T12:22:59Z</time>
      </trkpt>
      <trkpt lat="42.88686" lon="0.07581">
        <ele>1849</ele>
        <time>2013-01-01T12:23:01Z</time>
      </trkpt>
      <trkpt lat="42.88686" lon="0.07579">
        <ele>1849</ele>
        <time>2013-01-01T12:23:03Z</time>
      </trkpt>
      <trkpt lat="42.88688" lon="0.07578">
        <ele>1849</ele>
        <time>2013-01-01T12:23:05Z</time>
      </trkpt>
      <trkpt lat="42.88689" lon="0.07576">
        <ele>1849</ele>
        <time>2013-01-01T12:23:07Z</time>
      </trkpt>
      <trkpt lat="42.8869" lon="0.07574">
        <ele>1849</ele>
        <time>2013-01-01T12:23:09Z</time>
      </trkpt>
      <trkpt lat="42.88691" lon="0.07572">
        <ele>1849</ele>
        <time>2013-01-01T12:23:11Z</time>
      </trkpt>
      <trkpt lat="42.88691" lon="0.0757">
        <ele>1849</ele>
        <time>2013-01-01T12:23:12Z</time>
      </trkpt>
      <trkpt lat="42.88691" lon="0.07568">
        <ele>1849</ele>
        <time>2013-01-01T12:23:14Z</time>
      </trkpt>
      <trkpt lat="42.88692" lon="0.07566">
        <ele>1849</ele>
        <time>2013-01-01T12:23:16Z</time>
      </trkpt>
      <trkpt lat="42.88693" lon="0.07564">
        <ele>1849</ele>
        <time>2013-01-01T12:23:18Z</time>
      </trkpt>
      <trkpt lat="42.88693" lon="0.07562">
        <ele>1849</ele>
        <time>2013-01-01T12:23:20Z</time>
      </trkpt>
      <trkpt lat="42.88692" lon="0.0756">
        <ele>1852</ele>
        <time>2013-01-01T12:23:28Z</time>
      </trkpt>
      <trkpt lat="42.88693" lon="0.07562">
        <ele>1854</ele>
        <time>2013-01-01T12:23:34Z</time>
      </trkpt>
      <trkpt lat="42.88693" lon="0.07564">
        <ele>1854</ele>
        <time>2013-01-01T12:23:38Z</time>
      </trkpt>
      <trkpt lat="42.88694" lon="0.07565">
        <ele>1854</ele>
        <time>2013-01-01T12:23:41Z</time>
      </trkpt>
      <trkpt lat="42.88694" lon="0.07567">
        <ele>1854</ele>
        <time>2013-01-01T12:23:46Z</time>
      </trkpt>
      <trkpt lat="42.88693" lon="0.07567">
        <ele>1854</ele>
        <time>2013-01-01T12:23:55Z</time>
      </trkpt>
      <trkpt lat="42.88693" lon="0.07569">
        <ele>1854</ele>
        <time>2013-01-01T12:24:10Z</time>
      </trkpt>
      <trkpt lat="42.88691" lon="0.07569">
        <ele>1853</ele>
        <time>2013-01-01T12:24:16Z</time>
      </trkpt>
      <trkpt lat="42.8869" lon="0.07568">
        <ele>1853</ele>
        <time>2013-01-01T12:24:19Z</time>
      </trkpt>
      <trkpt lat="42.88689" lon="0.07566">
        <ele>1853</ele>
        <time>2013-01-01T12:24:23Z</time>
      </trkpt>
      <trkpt lat="42.88688" lon="0.07566">
        <ele>1853</ele>
        <time>2013-01-01T12:24:26Z</time>
      </trkpt>
      <trkpt lat="42.88689" lon="0.07565">
        <ele>1856</ele>
        <time>2013-01-01T12:24:44Z</time>
      </trkpt>
      <trkpt lat="42.88691" lon="0.07565">
        <ele>1856</ele>
        <time>2013-01-01T12:24:46Z</time>
      </trkpt>
      <trkpt lat="42.88692" lon="0.07564">
        <ele>1856</ele>
        <time>2013-01-01T12:24:51Z</time>
      </trkpt>
      <trkpt lat="42.88694" lon="0.07564">
        <ele>1856</ele>
        <time>2013-01-01T12:24:55Z</time>
      </trkpt>
      <trkpt lat="42.88695" lon="0.07565">
        <ele>1856</ele>
        <time>2013-01-01T12:24:57Z</time>
      </trkpt>
      <trkpt lat="42.88696" lon="0.07563">
        <ele>1856</ele>
        <time>2013-01-01T12:25:15Z</time>
      </trkpt>
      <trkpt lat="42.88696" lon="0.07562">
        <ele>1855</ele>
        <time>2013-01-01T12:25:27Z</time>
      </trkpt>
      <trkpt lat="42.88694" lon="0.07562">
        <ele>1854</ele>
        <time>2013-01-01T12:26:17Z</time>
      </trkpt>
      <trkpt lat="42.88694" lon="0.07564">
        <ele>1854</ele>
        <time>2013-01-01T12:26:45Z</time>
      </trkpt>
      <trkpt lat="42.88693" lon="0.07564">
        <ele>1854</ele>
        <time>2013-01-01T12:26:54Z</time>
      </trkpt>
      <trkpt lat="42.88692" lon="0.07564">
        <ele>1854</ele>
        <time>2013-01-01T12:27:19Z</time>
      </trkpt>
      <trkpt lat="42.88692" lon="0.07563">
        <ele>1852</ele>
        <time>2013-01-01T12:27:35Z</time>
      </trkpt>
      <trkpt lat="42.88693" lon="0.07562">
        <ele>1852</ele>
        <time>2013-01-01T12:27:43Z</time>
      </trkpt>
      <trkpt lat="42.88694" lon="0.07562">
        <ele>1852</ele>
        <time>2013-01-01T12:28:04Z</time>
      </trkpt>
      <trkpt lat="42.88696" lon="0.07562">
        <ele>1852</ele>
        <time>2013-01-01T12:28:06Z</time>
      </trkpt>
      <trkpt lat="42.88697" lon="0.07562">
        <ele>1852</ele>
        <time>2013-01-01T12:28:09Z</time>
      </trkpt>
      <trkpt lat="42.88697" lon="0.0756">
        <ele>1852</ele>
        <time>2013-01-01T12:28:59Z</time>
      </trkpt>
      <trkpt lat="42.88695" lon="0.0756">
        <ele>1852</ele>
        <time>2013-01-01T12:29:37Z</time>
      </trkpt>
      <trkpt lat="42.88697" lon="0.07562">
        <ele>1852</ele>
        <time>2013-01-01T12:29:55Z</time>
      </trkpt>
      <trkpt lat="42.88696" lon="0.07563">
        <ele>1852</ele>
        <time>2013-01-01T12:30:06Z</time>
      </trkpt>
      <trkpt lat="42.88695" lon="0.07563">
        <ele>1852</ele>
        <time>2013-01-01T12:30:14Z</time>
      </trkpt>
      <trkpt lat="42.88696" lon="0.07563">
        <ele>1852</ele>
        <time>2013-01-01T12:30:27Z</time>
      </trkpt>
      <trkpt lat="42.88695" lon="0.07562">
        <ele>1852</ele>
        <time>2013-01-01T12:30:30Z</time>
      </trkpt>
      <trkpt lat="42.88694" lon="0.0756">
        <ele>1852</ele>
        <time>2013-01-01T12:30:48Z</time>
      </trkpt>
      <trkpt lat="42.88694" lon="0.07557">
        <ele>1852</ele>
        <time>2013-01-01T12:30:51Z</time>
      </trkpt>
      <trkpt lat="42.88693" lon="0.07556">
        <ele>1852</ele>
        <time>2013-01-01T12:30:53Z</time>
      </trkpt>
      <trkpt lat="42.88691" lon="0.07555">
        <ele>1852</ele>
        <time>2013-01-01T12:30:55Z</time>
      </trkpt>
      <trkpt lat="42.88689" lon="0.07555">
        <ele>1852</ele>
        <time>2013-01-01T12:30:57Z</time>
      </trkpt>
      <trkpt lat="42.88687" lon="0.07555">
        <ele>1852</ele>
        <time>2013-01-01T12:30:59Z</time>
      </trkpt>
      <trkpt lat="42.88686" lon="0.07556">
        <ele>1852</ele>
        <time>2013-01-01T12:31:01Z</time>
      </trkpt>
      <trkpt lat="42.88684" lon="0.07556">
        <ele>1852</ele>
        <time>2013-01-01T12:31:03Z</time>
      </trkpt>
      <trkpt lat="42.88683" lon="0.07557">
        <ele>1852</ele>
        <time>2013-01-01T12:31:05Z</time>
      </trkpt>
      <trkpt lat="42.88681" lon="0.07557">
        <ele>1852</ele>
        <time>2013-01-01T12:31:08Z</time>
      </trkpt>
      <trkpt lat="42.8868" lon="0.07555">
        <ele>1852</ele>
        <time>2013-01-01T12:31:13Z</time>
      </trkpt>
      <trkpt lat="42.8868" lon="0.07553">
        <ele>1852</ele>
        <time>2013-01-01T12:31:15Z</time>
      </trkpt>
      <trkpt lat="42.88679" lon="0.07552">
        <ele>1852</ele>
        <time>2013-01-01T12:31:17Z</time>
      </trkpt>
      <trkpt lat="42.88679" lon="0.0755">
        <ele>1852</ele>
        <time>2013-01-01T12:31:20Z</time>
      </trkpt>
      <trkpt lat="42.88679" lon="0.07548">
        <ele>1853</ele>
        <time>2013-01-01T12:31:23Z</time>
      </trkpt>
      <trkpt lat="42.88679" lon="0.07546">
        <ele>1853</ele>
        <time>2013-01-01T12:31:30Z</time>
      </trkpt>
      <trkpt lat="42.88679" lon="0.07544">
        <ele>1853</ele>
        <time>2013-01-01T12:31:34Z</time>
      </trkpt>
      <trkpt lat="42.88678" lon="0.07542">
        <ele>1853</ele>
        <time>2013-01-01T12:31:36Z</time>
      </trkpt>
      <trkpt lat="42.88678" lon="0.0754">
        <ele>1853</ele>
        <time>2013-01-01T12:31:38Z</time>
      </trkpt>
      <trkpt lat="42.88677" lon="0.07538">
        <ele>1853</ele>
        <time>2013-01-01T12:31:40Z</time>
      </trkpt>
      <trkpt lat="42.88675" lon="0.07537">
        <ele>1854</ele>
        <time>2013-01-01T12:31:43Z</time>
      </trkpt>
      <trkpt lat="42.88674" lon="0.07537">
        <ele>1854</ele>
        <time>2013-01-01T12:31:46Z</time>
      </trkpt>
      <trkpt lat="42.88672" lon="0.07537">
        <ele>1855</ele>
        <time>2013-01-01T12:31:49Z</time>
      </trkpt>
      <trkpt lat="42.88671" lon="0.07537">
        <ele>1856</ele>
        <time>2013-01-01T12:31:51Z</time>
      </trkpt>
      <trkpt lat="42.88669" lon="0.07537">
        <ele>1856</ele>
        <time>2013-01-01T12:31:54Z</time>
      </trkpt>
      <trkpt lat="42.88668" lon="0.07537">
        <ele>1857</ele>
        <time>2013-01-01T12:31:57Z</time>
      </trkpt>
      <trkpt lat="42.88666" lon="0.07537">
        <ele>1858</ele>
        <time>2013-01-01T12:32:00Z</time>
      </trkpt>
      <trkpt lat="42.88665" lon="0.07537">
        <ele>1858</ele>
        <time>2013-01-01T12:32:02Z</time>
      </trkpt>
      <trkpt lat="42.88663" lon="0.07538">
        <ele>1859</ele>
        <time>2013-01-01T12:32:05Z</time>
      </trkpt>
      <trkpt lat="42.88662" lon="0.07538">
        <ele>1859</ele>
        <time>2013-01-01T12:32:07Z</time>
      </trkpt>
      <trkpt lat="42.88661" lon="0.07537">
        <ele>1859</ele>
        <time>2013-01-01T12:32:09Z</time>
      </trkpt>
      <trkpt lat="42.8866" lon="0.07536">
        <ele>1860</ele>
        <time>2013-01-01T12:32:11Z</time>
      </trkpt>
      <trkpt lat="42.8866" lon="0.07534">
        <ele>1860</ele>
        <time>2013-01-01T12:32:13Z</time>
      </trkpt>
      <trkpt lat="42.8866" lon="0.07532">
        <ele>1860</ele>
        <time>2013-01-01T12:32:15Z</time>
      </trkpt>
      <trkpt lat="42.88659" lon="0.0753">
        <ele>1860</ele>
        <time>2013-01-01T12:32:17Z</time>
      </trkpt>
      <trkpt lat="42.88659" lon="0.07528">
        <ele>1860</ele>
        <time>2013-01-01T12:32:18Z</time>
      </trkpt>
      <trkpt lat="42.88659" lon="0.07526">
        <ele>1860</ele>
        <time>2013-01-01T12:32:20Z</time>
      </trkpt>
      <trkpt lat="42.88658" lon="0.07525">
        <ele>1860</ele>
        <time>2013-01-01T12:32:22Z</time>
      </trkpt>
      <trkpt lat="42.88658" lon="0.07523">
        <ele>1861</ele>
        <time>2013-01-01T12:32:24Z</time>
      </trkpt>
      <trkpt lat="42.88657" lon="0.07521">
        <ele>1861</ele>
        <time>2013-01-01T12:32:26Z</time>
      </trkpt>
      <trkpt lat="42.88657" lon="0.07519">
        <ele>1861</ele>
        <time>2013-01-01T12:32:28Z</time>
      </trkpt>
      <trkpt lat="42.88656" lon="0.07517">
        <ele>1861</ele>
        <time>2013-01-01T12:32:30Z</time>
      </trkpt>
      <trkpt lat="42.88656" lon="0.07514">
        <ele>1861</ele>
        <time>2013-01-01T12:32:33Z</time>
      </trkpt>
      <trkpt lat="42.88655" lon="0.07513">
        <ele>1861</ele>
        <time>2013-01-01T12:32:35Z</time>
      </trkpt>
      <trkpt lat="42.88656" lon="0.07511">
        <ele>1862</ele>
        <time>2013-01-01T12:32:37Z</time>
      </trkpt>
      <trkpt lat="42.88656" lon="0.07509">
        <ele>1862</ele>
        <time>2013-01-01T12:32:39Z</time>
      </trkpt>
      <trkpt lat="42.88656" lon="0.07507">
        <ele>1862</ele>
        <time>2013-01-01T12:32:41Z</time>
      </trkpt>
      <trkpt lat="42.88657" lon="0.07505">
        <ele>1862</ele>
        <time>2013-01-01T12:32:43Z</time>
      </trkpt>
      <trkpt lat="42.88657" lon="0.07503">
        <ele>1863</ele>
        <time>2013-01-01T12:32:45Z</time>
      </trkpt>
      <trkpt lat="42.88656" lon="0.07501">
        <ele>1863</ele>
        <time>2013-01-01T12:32:47Z</time>
      </trkpt>
      <trkpt lat="42.88655" lon="0.075">
        <ele>1864</ele>
        <time>2013-01-01T12:32:51Z</time>
      </trkpt>
      <trkpt lat="42.88654" lon="0.07498">
        <ele>1865</ele>
        <time>2013-01-01T12:32:54Z</time>
      </trkpt>
      <trkpt lat="42.88652" lon="0.07497">
        <ele>1865</ele>
        <time>2013-01-01T12:32:57Z</time>
      </trkpt>
      <trkpt lat="42.88651" lon="0.07495">
        <ele>1865</ele>
        <time>2013-01-01T12:33:00Z</time>
      </trkpt>
      <trkpt lat="42.8865" lon="0.07493">
        <ele>1865</ele>
        <time>2013-01-01T12:33:02Z</time>
      </trkpt>
      <trkpt lat="42.8865" lon="0.07491">
        <ele>1865</ele>
        <time>2013-01-01T12:33:04Z</time>
      </trkpt>
      <trkpt lat="42.8865" lon="0.07489">
        <ele>1866</ele>
        <time>2013-01-01T12:33:06Z</time>
      </trkpt>
      <trkpt lat="42.88651" lon="0.07487">
        <ele>1866</ele>
        <time>2013-01-01T12:33:09Z</time>
      </trkpt>
      <trkpt lat="42.88651" lon="0.07485">
        <ele>1867</ele>
        <time>2013-01-01T12:33:11Z</time>
      </trkpt>
      <trkpt lat="42.8865" lon="0.07484">
        <ele>1867</ele>
        <time>2013-01-01T12:33:13Z</time>
      </trkpt>
      <trkpt lat="42.88651" lon="0.07481">
        <ele>1867</ele>
        <time>2013-01-01T12:33:16Z</time>
      </trkpt>
      <trkpt lat="42.88651" lon="0.0748">
        <ele>1867</ele>
        <time>2013-01-01T12:33:18Z</time>
      </trkpt>
      <trkpt lat="42.88649" lon="0.07478">
        <ele>1868</ele>
        <time>2013-01-01T12:33:21Z</time>
      </trkpt>
      <trkpt lat="42.88648" lon="0.07478">
        <ele>1869</ele>
        <time>2013-01-01T12:33:23Z</time>
      </trkpt>
      <trkpt lat="42.88647" lon="0.07477">
        <ele>1869</ele>
        <time>2013-01-01T12:33:26Z</time>
      </trkpt>
      <trkpt lat="42.88646" lon="0.07477">
        <ele>1869</ele>
        <time>2013-01-01T12:33:29Z</time>
      </trkpt>
      <trkpt lat="42.88644" lon="0.07476">
        <ele>1869</ele>
        <time>2013-01-01T12:33:31Z</time>
      </trkpt>
      <trkpt lat="42.88643" lon="0.07475">
        <ele>1869</ele>
        <time>2013-01-01T12:33:35Z</time>
      </trkpt>
      <trkpt lat="42.88643" lon="0.07473">
        <ele>1869</ele>
        <time>2013-01-01T12:33:37Z</time>
      </trkpt>
      <trkpt lat="42.88644" lon="0.07471">
        <ele>1870</ele>
        <time>2013-01-01T12:33:40Z</time>
      </trkpt>
      <trkpt lat="42.88645" lon="0.07469">
        <ele>1870</ele>
        <time>2013-01-01T12:33:42Z</time>
      </trkpt>
      <trkpt lat="42.88645" lon="0.07468">
        <ele>1870</ele>
        <time>2013-01-01T12:33:44Z</time>
      </trkpt>
      <trkpt lat="42.88645" lon="0.07466">
        <ele>1870</ele>
        <time>2013-01-01T12:33:46Z</time>
      </trkpt>
      <trkpt lat="42.88645" lon="0.07464">
        <ele>1871</ele>
        <time>2013-01-01T12:33:48Z</time>
      </trkpt>
      <trkpt lat="42.88644" lon="0.07462">
        <ele>1872</ele>
        <time>2013-01-01T12:33:52Z</time>
      </trkpt>
      <trkpt lat="42.88643" lon="0.07461">
        <ele>1872</ele>
        <time>2013-01-01T12:33:54Z</time>
      </trkpt>
      <trkpt lat="42.88641" lon="0.07461">
        <ele>1872</ele>
        <time>2013-01-01T12:33:56Z</time>
      </trkpt>
      <trkpt lat="42.8864" lon="0.0746">
        <ele>1872</ele>
        <time>2013-01-01T12:33:58Z</time>
      </trkpt>
      <trkpt lat="42.88639" lon="0.0746">
        <ele>1872</ele>
        <time>2013-01-01T12:34:00Z</time>
      </trkpt>
      <trkpt lat="42.88638" lon="0.07458">
        <ele>1872</ele>
        <time>2013-01-01T12:34:02Z</time>
      </trkpt>
      <trkpt lat="42.88638" lon="0.07456">
        <ele>1872</ele>
        <time>2013-01-01T12:34:05Z</time>
      </trkpt>
      <trkpt lat="42.88638" lon="0.07454">
        <ele>1873</ele>
        <time>2013-01-01T12:34:07Z</time>
      </trkpt>
      <trkpt lat="42.88637" lon="0.07452">
        <ele>1874</ele>
        <time>2013-01-01T12:34:09Z</time>
      </trkpt>
      <trkpt lat="42.88636" lon="0.0745">
        <ele>1874</ele>
        <time>2013-01-01T12:34:11Z</time>
      </trkpt>
      <trkpt lat="42.88635" lon="0.07448">
        <ele>1874</ele>
        <time>2013-01-01T12:34:14Z</time>
      </trkpt>
      <trkpt lat="42.88635" lon="0.07446">
        <ele>1876</ele>
        <time>2013-01-01T12:34:30Z</time>
      </trkpt>
      <trkpt lat="42.88634" lon="0.07446">
        <ele>1877</ele>
        <time>2013-01-01T12:34:46Z</time>
      </trkpt>
      <trkpt lat="42.88634" lon="0.07444">
        <ele>1877</ele>
        <time>2013-01-01T12:35:01Z</time>
      </trkpt>
      <trkpt lat="42.88634" lon="0.07442">
        <ele>1877</ele>
        <time>2013-01-01T12:35:22Z</time>
      </trkpt>
      <trkpt lat="42.88633" lon="0.07441">
        <ele>1877</ele>
        <time>2013-01-01T12:35:28Z</time>
      </trkpt>
      <trkpt lat="42.88631" lon="0.0744">
        <ele>1877</ele>
        <time>2013-01-01T12:35:30Z</time>
      </trkpt>
      <trkpt lat="42.8863" lon="0.07439">
        <ele>1878</ele>
        <time>2013-01-01T12:35:33Z</time>
      </trkpt>
      <trkpt lat="42.88629" lon="0.07438">
        <ele>1878</ele>
        <time>2013-01-01T12:35:36Z</time>
      </trkpt>
      <trkpt lat="42.88628" lon="0.07436">
        <ele>1878</ele>
        <time>2013-01-01T12:35:39Z</time>
      </trkpt>
      <trkpt lat="42.88627" lon="0.07434">
        <ele>1879</ele>
        <time>2013-01-01T12:35:41Z</time>
      </trkpt>
      <trkpt lat="42.88625" lon="0.07431">
        <ele>1879</ele>
        <time>2013-01-01T12:35:43Z</time>
      </trkpt>
      <trkpt lat="42.88624" lon="0.0743">
        <ele>1880</ele>
        <time>2013-01-01T12:35:45Z</time>
      </trkpt>
      <trkpt lat="42.88623" lon="0.07428">
        <ele>1880</ele>
        <time>2013-01-01T12:35:47Z</time>
      </trkpt>
      <trkpt lat="42.88621" lon="0.07426">
        <ele>1880</ele>
        <time>2013-01-01T12:35:49Z</time>
      </trkpt>
      <trkpt lat="42.8862" lon="0.07425">
        <ele>1880</ele>
        <time>2013-01-01T12:35:52Z</time>
      </trkpt>
      <trkpt lat="42.88619" lon="0.07424">
        <ele>1880</ele>
        <time>2013-01-01T12:35:55Z</time>
      </trkpt>
      <trkpt lat="42.88618" lon="0.07423">
        <ele>1880</ele>
        <time>2013-01-01T12:35:58Z</time>
      </trkpt>
      <trkpt lat="42.88617" lon="0.07421">
        <ele>1880</ele>
        <time>2013-01-01T12:36:01Z</time>
      </trkpt>
      <trkpt lat="42.88615" lon="0.0742">
        <ele>1880</ele>
        <time>2013-01-01T12:36:04Z</time>
      </trkpt>
      <trkpt lat="42.88614" lon="0.07418">
        <ele>1880</ele>
        <time>2013-01-01T12:36:06Z</time>
      </trkpt>
      <trkpt lat="42.88613" lon="0.07417">
        <ele>1880</ele>
        <time>2013-01-01T12:36:13Z</time>
      </trkpt>
      <trkpt lat="42.88612" lon="0.07415">
        <ele>1880</ele>
        <time>2013-01-01T12:36:19Z</time>
      </trkpt>
      <trkpt lat="42.88611" lon="0.07414">
        <ele>1880</ele>
        <time>2013-01-01T12:36:22Z</time>
      </trkpt>
      <trkpt lat="42.88609" lon="0.07412">
        <ele>1880</ele>
        <time>2013-01-01T12:36:25Z</time>
      </trkpt>
      <trkpt lat="42.88608" lon="0.07411">
        <ele>1880</ele>
        <time>2013-01-01T12:36:27Z</time>
      </trkpt>
      <trkpt lat="42.88607" lon="0.07409">
        <ele>1880</ele>
        <time>2013-01-01T12:36:29Z</time>
      </trkpt>
      <trkpt lat="42.88605" lon="0.07407">
        <ele>1880</ele>
        <time>2013-01-01T12:36:31Z</time>
      </trkpt>
      <trkpt lat="42.88604" lon="0.07406">
        <ele>1880</ele>
        <time>2013-01-01T12:36:33Z</time>
      </trkpt>
      <trkpt lat="42.88603" lon="0.07405">
        <ele>1881</ele>
        <time>2013-01-01T12:36:36Z</time>
      </trkpt>
      <trkpt lat="42.88601" lon="0.07404">
        <ele>1882</ele>
        <time>2013-01-01T12:36:38Z</time>
      </trkpt>
      <trkpt lat="42.886" lon="0.07403">
        <ele>1882</ele>
        <time>2013-01-01T12:36:40Z</time>
      </trkpt>
      <trkpt lat="42.88599" lon="0.07402">
        <ele>1882</ele>
        <time>2013-01-01T12:36:43Z</time>
      </trkpt>
      <trkpt lat="42.88597" lon="0.07401">
        <ele>1882</ele>
        <time>2013-01-01T12:36:45Z</time>
      </trkpt>
      <trkpt lat="42.88596" lon="0.07399">
        <ele>1882</ele>
        <time>2013-01-01T12:36:48Z</time>
      </trkpt>
      <trkpt lat="42.88594" lon="0.07399">
        <ele>1885</ele>
        <time>2013-01-01T12:37:22Z</time>
      </trkpt>
      <trkpt lat="42.88593" lon="0.07397">
        <ele>1885</ele>
        <time>2013-01-01T12:37:24Z</time>
      </trkpt>
      <trkpt lat="42.88592" lon="0.07395">
        <ele>1886</ele>
        <time>2013-01-01T12:37:26Z</time>
      </trkpt>
      <trkpt lat="42.8859" lon="0.07394">
        <ele>1887</ele>
        <time>2013-01-01T12:37:29Z</time>
      </trkpt>
      <trkpt lat="42.88589" lon="0.07392">
        <ele>1887</ele>
        <time>2013-01-01T12:37:31Z</time>
      </trkpt>
      <trkpt lat="42.88587" lon="0.0739">
        <ele>1887</ele>
        <time>2013-01-01T12:37:33Z</time>
      </trkpt>
      <trkpt lat="42.88586" lon="0.07389">
        <ele>1888</ele>
        <time>2013-01-01T12:37:36Z</time>
      </trkpt>
      <trkpt lat="42.88584" lon="0.07387">
        <ele>1888</ele>
        <time>2013-01-01T12:37:38Z</time>
      </trkpt>
      <trkpt lat="42.88583" lon="0.07386">
        <ele>1889</ele>
        <time>2013-01-01T12:37:40Z</time>
      </trkpt>
      <trkpt lat="42.88582" lon="0.07384">
        <ele>1890</ele>
        <time>2013-01-01T12:37:42Z</time>
      </trkpt>
      <trkpt lat="42.8858" lon="0.07383">
        <ele>1891</ele>
        <time>2013-01-01T12:37:45Z</time>
      </trkpt>
      <trkpt lat="42.88579" lon="0.07382">
        <ele>1891</ele>
        <time>2013-01-01T12:37:47Z</time>
      </trkpt>
      <trkpt lat="42.88578" lon="0.07381">
        <ele>1892</ele>
        <time>2013-01-01T12:37:50Z</time>
      </trkpt>
      <trkpt lat="42.88577" lon="0.07381">
        <ele>1893</ele>
        <time>2013-01-01T12:37:54Z</time>
      </trkpt>
      <trkpt lat="42.88575" lon="0.0738">
        <ele>1893</ele>
        <time>2013-01-01T12:37:56Z</time>
      </trkpt>
      <trkpt lat="42.88574" lon="0.07378">
        <ele>1893</ele>
        <time>2013-01-01T12:37:59Z</time>
      </trkpt>
      <trkpt lat="42.88572" lon="0.07378">
        <ele>1893</ele>
        <time>2013-01-01T12:38:01Z</time>
      </trkpt>
      <trkpt lat="42.88571" lon="0.07377">
        <ele>1893</ele>
        <time>2013-01-01T12:38:03Z</time>
      </trkpt>
      <trkpt lat="42.8857" lon="0.07376">
        <ele>1893</ele>
        <time>2013-01-01T12:38:06Z</time>
      </trkpt>
      <trkpt lat="42.8857" lon="0.07374">
        <ele>1895</ele>
        <time>2013-01-01T12:38:18Z</time>
      </trkpt>
      <trkpt lat="42.88569" lon="0.07373">
        <ele>1896</ele>
        <time>2013-01-01T12:38:21Z</time>
      </trkpt>
      <trkpt lat="42.88568" lon="0.07372">
        <ele>1896</ele>
        <time>2013-01-01T12:38:23Z</time>
      </trkpt>
      <trkpt lat="42.88567" lon="0.0737">
        <ele>1896</ele>
        <time>2013-01-01T12:38:25Z</time>
      </trkpt>
      <trkpt lat="42.88565" lon="0.07369">
        <ele>1896</ele>
        <time>2013-01-01T12:38:27Z</time>
      </trkpt>
      <trkpt lat="42.88564" lon="0.07368">
        <ele>1896</ele>
        <time>2013-01-01T12:38:29Z</time>
      </trkpt>
      <trkpt lat="42.88563" lon="0.07367">
        <ele>1896</ele>
        <time>2013-01-01T12:38:31Z</time>
      </trkpt>
      <trkpt lat="42.88561" lon="0.07366">
        <ele>1896</ele>
        <time>2013-01-01T12:38:33Z</time>
      </trkpt>
      <trkpt lat="42.8856" lon="0.07366">
        <ele>1896</ele>
        <time>2013-01-01T12:38:35Z</time>
      </trkpt>
      <trkpt lat="42.88559" lon="0.07365">
        <ele>1896</ele>
        <time>2013-01-01T12:38:37Z</time>
      </trkpt>
      <trkpt lat="42.88557" lon="0.07364">
        <ele>1896</ele>
        <time>2013-01-01T12:38:39Z</time>
      </trkpt>
      <trkpt lat="42.88556" lon="0.07363">
        <ele>1896</ele>
        <time>2013-01-01T12:38:41Z</time>
      </trkpt>
      <trkpt lat="42.88555" lon="0.07362">
        <ele>1896</ele>
        <time>2013-01-01T12:38:43Z</time>
      </trkpt>
      <trkpt lat="42.88553" lon="0.0736">
        <ele>1896</ele>
        <time>2013-01-01T12:38:45Z</time>
      </trkpt>
      <trkpt lat="42.88551" lon="0.07359">
        <ele>1897</ele>
        <time>2013-01-01T12:38:48Z</time>
      </trkpt>
      <trkpt lat="42.8855" lon="0.07358">
        <ele>1897</ele>
        <time>2013-01-01T12:38:50Z</time>
      </trkpt>
      <trkpt lat="42.88548" lon="0.07357">
        <ele>1898</ele>
        <time>2013-01-01T12:38:53Z</time>
      </trkpt>
      <trkpt lat="42.88547" lon="0.07355">
        <ele>1898</ele>
        <time>2013-01-01T12:38:55Z</time>
      </trkpt>
      <trkpt lat="42.88546" lon="0.07354">
        <ele>1898</ele>
        <time>2013-01-01T12:38:57Z</time>
      </trkpt>
      <trkpt lat="42.88545" lon="0.07353">
        <ele>1898</ele>
        <time>2013-01-01T12:38:59Z</time>
      </trkpt>
      <trkpt lat="42.88544" lon="0.07352">
        <ele>1898</ele>
        <time>2013-01-01T12:39:01Z</time>
      </trkpt>
      <trkpt lat="42.88543" lon="0.07351">
        <ele>1898</ele>
        <time>2013-01-01T12:39:03Z</time>
      </trkpt>
      <trkpt lat="42.88541" lon="0.0735">
        <ele>1898</ele>
        <time>2013-01-01T12:39:06Z</time>
      </trkpt>
      <trkpt lat="42.8854" lon="0.07349">
        <ele>1899</ele>
        <time>2013-01-01T12:39:08Z</time>
      </trkpt>
      <trkpt lat="42.88538" lon="0.07347">
        <ele>1899</ele>
        <time>2013-01-01T12:39:10Z</time>
      </trkpt>
      <trkpt lat="42.88537" lon="0.07347">
        <ele>1900</ele>
        <time>2013-01-01T12:39:12Z</time>
      </trkpt>
      <trkpt lat="42.88536" lon="0.07346">
        <ele>1901</ele>
        <time>2013-01-01T12:39:14Z</time>
      </trkpt>
      <trkpt lat="42.88535" lon="0.07345">
        <ele>1901</ele>
        <time>2013-01-01T12:39:16Z</time>
      </trkpt>
      <trkpt lat="42.88533" lon="0.07344">
        <ele>1901</ele>
        <time>2013-01-01T12:39:18Z</time>
      </trkpt>
      <trkpt lat="42.88533" lon="0.07342">
        <ele>1904</ele>
        <time>2013-01-01T12:39:23Z</time>
      </trkpt>
      <trkpt lat="42.88531" lon="0.07341">
        <ele>1905</ele>
        <time>2013-01-01T12:39:31Z</time>
      </trkpt>
      <trkpt lat="42.88531" lon="0.07339">
        <ele>1906</ele>
        <time>2013-01-01T12:39:33Z</time>
      </trkpt>
      <trkpt lat="42.88529" lon="0.07338">
        <ele>1907</ele>
        <time>2013-01-01T12:39:35Z</time>
      </trkpt>
      <trkpt lat="42.88528" lon="0.07337">
        <ele>1907</ele>
        <time>2013-01-01T12:39:37Z</time>
      </trkpt>
      <trkpt lat="42.88527" lon="0.07336">
        <ele>1908</ele>
        <time>2013-01-01T12:39:39Z</time>
      </trkpt>
      <trkpt lat="42.88526" lon="0.07335">
        <ele>1909</ele>
        <time>2013-01-01T12:39:42Z</time>
      </trkpt>
      <trkpt lat="42.88525" lon="0.07334">
        <ele>1909</ele>
        <time>2013-01-01T12:39:44Z</time>
      </trkpt>
      <trkpt lat="42.88523" lon="0.07334">
        <ele>1909</ele>
        <time>2013-01-01T12:39:47Z</time>
      </trkpt>
      <trkpt lat="42.88522" lon="0.07333">
        <ele>1909</ele>
        <time>2013-01-01T12:39:49Z</time>
      </trkpt>
      <trkpt lat="42.88521" lon="0.07332">
        <ele>1909</ele>
        <time>2013-01-01T12:39:51Z</time>
      </trkpt>
      <trkpt lat="42.8852" lon="0.07332">
        <ele>1909</ele>
        <time>2013-01-01T12:39:57Z</time>
      </trkpt>
      <trkpt lat="42.88518" lon="0.0733">
        <ele>1910</ele>
        <time>2013-01-01T12:39:59Z</time>
      </trkpt>
      <trkpt lat="42.88517" lon="0.07329">
        <ele>1910</ele>
        <time>2013-01-01T12:40:01Z</time>
      </trkpt>
      <trkpt lat="42.88515" lon="0.07328">
        <ele>1910</ele>
        <time>2013-01-01T12:40:03Z</time>
      </trkpt>
      <trkpt lat="42.88514" lon="0.07327">
        <ele>1910</ele>
        <time>2013-01-01T12:40:05Z</time>
      </trkpt>
      <trkpt lat="42.88512" lon="0.07327">
        <ele>1910</ele>
        <time>2013-01-01T12:40:07Z</time>
      </trkpt>
      <trkpt lat="42.88511" lon="0.07326">
        <ele>1911</ele>
        <time>2013-01-01T12:40:09Z</time>
      </trkpt>
      <trkpt lat="42.88509" lon="0.07325">
        <ele>1911</ele>
        <time>2013-01-01T12:40:11Z</time>
      </trkpt>
      <trkpt lat="42.88508" lon="0.07324">
        <ele>1911</ele>
        <time>2013-01-01T12:40:13Z</time>
      </trkpt>
      <trkpt lat="42.88507" lon="0.07324">
        <ele>1911</ele>
        <time>2013-01-01T12:40:15Z</time>
      </trkpt>
      <trkpt lat="42.88506" lon="0.07323">
        <ele>1911</ele>
        <time>2013-01-01T12:40:17Z</time>
      </trkpt>
      <trkpt lat="42.88504" lon="0.07324">
        <ele>1915</ele>
        <time>2013-01-01T12:40:53Z</time>
      </trkpt>
      <trkpt lat="42.88503" lon="0.07323">
        <ele>1915</ele>
        <time>2013-01-01T12:40:55Z</time>
      </trkpt>
      <trkpt lat="42.88501" lon="0.07322">
        <ele>1915</ele>
        <time>2013-01-01T12:40:57Z</time>
      </trkpt>
      <trkpt lat="42.885" lon="0.07322">
        <ele>1915</ele>
        <time>2013-01-01T12:40:59Z</time>
      </trkpt>
      <trkpt lat="42.88499" lon="0.07321">
        <ele>1915</ele>
        <time>2013-01-01T12:41:01Z</time>
      </trkpt>
      <trkpt lat="42.88497" lon="0.0732">
        <ele>1915</ele>
        <time>2013-01-01T12:41:03Z</time>
      </trkpt>
      <trkpt lat="42.88496" lon="0.0732">
        <ele>1915</ele>
        <time>2013-01-01T12:41:05Z</time>
      </trkpt>
      <trkpt lat="42.88494" lon="0.07319">
        <ele>1915</ele>
        <time>2013-01-01T12:41:07Z</time>
      </trkpt>
      <trkpt lat="42.88493" lon="0.07319">
        <ele>1915</ele>
        <time>2013-01-01T12:41:09Z</time>
      </trkpt>
      <trkpt lat="42.88491" lon="0.07318">
        <ele>1915</ele>
        <time>2013-01-01T12:41:11Z</time>
      </trkpt>
      <trkpt lat="42.8849" lon="0.07318">
        <ele>1915</ele>
        <time>2013-01-01T12:41:13Z</time>
      </trkpt>
      <trkpt lat="42.88489" lon="0.07318">
        <ele>1916</ele>
        <time>2013-01-01T12:41:15Z</time>
      </trkpt>
      <trkpt lat="42.88487" lon="0.07318">
        <ele>1916</ele>
        <time>2013-01-01T12:41:18Z</time>
      </trkpt>
      <trkpt lat="42.88485" lon="0.07317">
        <ele>1916</ele>
        <time>2013-01-01T12:41:20Z</time>
      </trkpt>
      <trkpt lat="42.88484" lon="0.07317">
        <ele>1916</ele>
        <time>2013-01-01T12:41:22Z</time>
      </trkpt>
      <trkpt lat="42.88482" lon="0.07316">
        <ele>1916</ele>
        <time>2013-01-01T12:41:24Z</time>
      </trkpt>
      <trkpt lat="42.88481" lon="0.07316">
        <ele>1916</ele>
        <time>2013-01-01T12:41:26Z</time>
      </trkpt>
      <trkpt lat="42.88479" lon="0.07316">
        <ele>1916</ele>
        <time>2013-01-01T12:41:28Z</time>
      </trkpt>
      <trkpt lat="42.88477" lon="0.07315">
        <ele>1916</ele>
        <time>2013-01-01T12:41:30Z</time>
      </trkpt>
      <trkpt lat="42.88475" lon="0.07314">
        <ele>1917</ele>
        <time>2013-01-01T12:41:32Z</time>
      </trkpt>
      <trkpt lat="42.88474" lon="0.07313">
        <ele>1919</ele>
        <time>2013-01-01T12:41:34Z</time>
      </trkpt>
      <trkpt lat="42.88473" lon="0.07313">
        <ele>1919</ele>
        <time>2013-01-01T12:41:36Z</time>
      </trkpt>
      <trkpt lat="42.88472" lon="0.07314">
        <ele>1920</ele>
        <time>2013-01-01T12:41:38Z</time>
      </trkpt>
      <trkpt lat="42.8847" lon="0.07314">
        <ele>1920</ele>
        <time>2013-01-01T12:41:40Z</time>
      </trkpt>
      <trkpt lat="42.88469" lon="0.07314">
        <ele>1920</ele>
        <time>2013-01-01T12:41:42Z</time>
      </trkpt>
      <trkpt lat="42.88467" lon="0.07314">
        <ele>1920</ele>
        <time>2013-01-01T12:41:44Z</time>
      </trkpt>
      <trkpt lat="42.88466" lon="0.07314">
        <ele>1920</ele>
        <time>2013-01-01T12:41:46Z</time>
      </trkpt>
      <trkpt lat="42.88464" lon="0.07313">
        <ele>1920</ele>
        <time>2013-01-01T12:41:48Z</time>
      </trkpt>
      <trkpt lat="42.88463" lon="0.07312">
        <ele>1920</ele>
        <time>2013-01-01T12:41:49Z</time>
      </trkpt>
      <trkpt lat="42.88462" lon="0.07312">
        <ele>1920</ele>
        <time>2013-01-01T12:41:51Z</time>
      </trkpt>
      <trkpt lat="42.88461" lon="0.07313">
        <ele>1920</ele>
        <time>2013-01-01T12:41:53Z</time>
      </trkpt>
      <trkpt lat="42.88459" lon="0.07311">
        <ele>1920</ele>
        <time>2013-01-01T12:41:55Z</time>
      </trkpt>
      <trkpt lat="42.88457" lon="0.0731">
        <ele>1921</ele>
        <time>2013-01-01T12:41:57Z</time>
      </trkpt>
      <trkpt lat="42.88457" lon="0.07311">
        <ele>1922</ele>
        <time>2013-01-01T12:42:01Z</time>
      </trkpt>
      <trkpt lat="42.88455" lon="0.0731">
        <ele>1922</ele>
        <time>2013-01-01T12:42:13Z</time>
      </trkpt>
      <trkpt lat="42.88454" lon="0.07309">
        <ele>1922</ele>
        <time>2013-01-01T12:42:15Z</time>
      </trkpt>
      <trkpt lat="42.88452" lon="0.07307">
        <ele>1922</ele>
        <time>2013-01-01T12:42:16Z</time>
      </trkpt>
      <trkpt lat="42.8845" lon="0.07306">
        <ele>1923</ele>
        <time>2013-01-01T12:42:19Z</time>
      </trkpt>
      <trkpt lat="42.88449" lon="0.07305">
        <ele>1924</ele>
        <time>2013-01-01T12:42:20Z</time>
      </trkpt>
      <trkpt lat="42.88448" lon="0.07305">
        <ele>1925</ele>
        <time>2013-01-01T12:42:22Z</time>
      </trkpt>
      <trkpt lat="42.88446" lon="0.07305">
        <ele>1925</ele>
        <time>2013-01-01T12:42:24Z</time>
      </trkpt>
      <trkpt lat="42.88445" lon="0.07307">
        <ele>1926</ele>
        <time>2013-01-01T12:42:26Z</time>
      </trkpt>
      <trkpt lat="42.88444" lon="0.07308">
        <ele>1926</ele>
        <time>2013-01-01T12:42:29Z</time>
      </trkpt>
      <trkpt lat="42.88443" lon="0.0731">
        <ele>1926</ele>
        <time>2013-01-01T12:42:32Z</time>
      </trkpt>
      <trkpt lat="42.88441" lon="0.0731">
        <ele>1926</ele>
        <time>2013-01-01T12:42:35Z</time>
      </trkpt>
      <trkpt lat="42.88439" lon="0.0731">
        <ele>1926</ele>
        <time>2013-01-01T12:42:38Z</time>
      </trkpt>
      <trkpt lat="42.88438" lon="0.07309">
        <ele>1927</ele>
        <time>2013-01-01T12:42:40Z</time>
      </trkpt>
      <trkpt lat="42.88437" lon="0.07308">
        <ele>1928</ele>
        <time>2013-01-01T12:42:42Z</time>
      </trkpt>
      <trkpt lat="42.88435" lon="0.07308">
        <ele>1930</ele>
        <time>2013-01-01T12:42:45Z</time>
      </trkpt>
      <trkpt lat="42.88434" lon="0.07309">
        <ele>1930</ele>
        <time>2013-01-01T12:42:48Z</time>
      </trkpt>
      <trkpt lat="42.88433" lon="0.07311">
        <ele>1930</ele>
        <time>2013-01-01T12:42:50Z</time>
      </trkpt>
      <trkpt lat="42.88432" lon="0.07312">
        <ele>1930</ele>
        <time>2013-01-01T12:42:53Z</time>
      </trkpt>
      <trkpt lat="42.8843" lon="0.07314">
        <ele>1930</ele>
        <time>2013-01-01T12:42:56Z</time>
      </trkpt>
      <trkpt lat="42.88429" lon="0.07315">
        <ele>1930</ele>
        <time>2013-01-01T12:42:59Z</time>
      </trkpt>
      <trkpt lat="42.88428" lon="0.07315">
        <ele>1930</ele>
        <time>2013-01-01T12:43:01Z</time>
      </trkpt>
      <trkpt lat="42.88427" lon="0.07316">
        <ele>1930</ele>
        <time>2013-01-01T12:43:04Z</time>
      </trkpt>
      <trkpt lat="42.88425" lon="0.07316">
        <ele>1930</ele>
        <time>2013-01-01T12:43:07Z</time>
      </trkpt>
      <trkpt lat="42.88424" lon="0.07316">
        <ele>1930</ele>
        <time>2013-01-01T12:43:10Z</time>
      </trkpt>
      <trkpt lat="42.88422" lon="0.07316">
        <ele>1931</ele>
        <time>2013-01-01T12:43:13Z</time>
      </trkpt>
      <trkpt lat="42.88421" lon="0.07316">
        <ele>1932</ele>
        <time>2013-01-01T12:43:16Z</time>
      </trkpt>
      <trkpt lat="42.88422" lon="0.07317">
        <ele>1932</ele>
        <time>2013-01-01T12:43:18Z</time>
      </trkpt>
      <trkpt lat="42.8842" lon="0.07318">
        <ele>1932</ele>
        <time>2013-01-01T12:43:49Z</time>
      </trkpt>
      <trkpt lat="42.88419" lon="0.07318">
        <ele>1932</ele>
        <time>2013-01-01T12:43:52Z</time>
      </trkpt>
      <trkpt lat="42.88418" lon="0.07317">
        <ele>1932</ele>
        <time>2013-01-01T12:43:54Z</time>
      </trkpt>
      <trkpt lat="42.88416" lon="0.07317">
        <ele>1934</ele>
        <time>2013-01-01T12:43:57Z</time>
      </trkpt>
      <trkpt lat="42.88415" lon="0.07316">
        <ele>1934</ele>
        <time>2013-01-01T12:43:59Z</time>
      </trkpt>
      <trkpt lat="42.88414" lon="0.07316">
        <ele>1935</ele>
        <time>2013-01-01T12:44:02Z</time>
      </trkpt>
      <trkpt lat="42.88412" lon="0.07316">
        <ele>1936</ele>
        <time>2013-01-01T12:44:05Z</time>
      </trkpt>
      <trkpt lat="42.88411" lon="0.07316">
        <ele>1937</ele>
        <time>2013-01-01T12:44:08Z</time>
      </trkpt>
      <trkpt lat="42.88409" lon="0.07316">
        <ele>1938</ele>
        <time>2013-01-01T12:44:11Z</time>
      </trkpt>
      <trkpt lat="42.88408" lon="0.07316">
        <ele>1938</ele>
        <time>2013-01-01T12:44:13Z</time>
      </trkpt>
      <trkpt lat="42.88406" lon="0.07316">
        <ele>1939</ele>
        <time>2013-01-01T12:44:16Z</time>
      </trkpt>
      <trkpt lat="42.88405" lon="0.07316">
        <ele>1939</ele>
        <time>2013-01-01T12:44:19Z</time>
      </trkpt>
      <trkpt lat="42.88404" lon="0.07315">
        <ele>1939</ele>
        <time>2013-01-01T12:44:21Z</time>
      </trkpt>
      <trkpt lat="42.88403" lon="0.07315">
        <ele>1939</ele>
        <time>2013-01-01T12:44:23Z</time>
      </trkpt>
      <trkpt lat="42.88401" lon="0.07314">
        <ele>1939</ele>
        <time>2013-01-01T12:44:25Z</time>
      </trkpt>
      <trkpt lat="42.884" lon="0.07314">
        <ele>1939</ele>
        <time>2013-01-01T12:44:27Z</time>
      </trkpt>
      <trkpt lat="42.88399" lon="0.07313">
        <ele>1939</ele>
        <time>2013-01-01T12:44:29Z</time>
      </trkpt>
      <trkpt lat="42.88398" lon="0.07313">
        <ele>1939</ele>
        <time>2013-01-01T12:44:31Z</time>
      </trkpt>
      <trkpt lat="42.88396" lon="0.07313">
        <ele>1939</ele>
        <time>2013-01-01T12:44:33Z</time>
      </trkpt>
      <trkpt lat="42.88395" lon="0.07312">
        <ele>1940</ele>
        <time>2013-01-01T12:44:35Z</time>
      </trkpt>
      <trkpt lat="42.88394" lon="0.07311">
        <ele>1940</ele>
        <time>2013-01-01T12:44:36Z</time>
      </trkpt>
      <trkpt lat="42.88392" lon="0.07311">
        <ele>1940</ele>
        <time>2013-01-01T12:44:38Z</time>
      </trkpt>
      <trkpt lat="42.88391" lon="0.07311">
        <ele>1941</ele>
        <time>2013-01-01T12:44:40Z</time>
      </trkpt>
      <trkpt lat="42.8839" lon="0.0731">
        <ele>1941</ele>
        <time>2013-01-01T12:44:45Z</time>
      </trkpt>
      <trkpt lat="42.88388" lon="0.07309">
        <ele>1942</ele>
        <time>2013-01-01T12:44:47Z</time>
      </trkpt>
      <trkpt lat="42.88387" lon="0.07309">
        <ele>1942</ele>
        <time>2013-01-01T12:44:49Z</time>
      </trkpt>
      <trkpt lat="42.88385" lon="0.07309">
        <ele>1942</ele>
        <time>2013-01-01T12:44:51Z</time>
      </trkpt>
      <trkpt lat="42.88384" lon="0.07309">
        <ele>1942</ele>
        <time>2013-01-01T12:45:08Z</time>
      </trkpt>
      <trkpt lat="42.88382" lon="0.07308">
        <ele>1942</ele>
        <time>2013-01-01T12:45:10Z</time>
      </trkpt>
      <trkpt lat="42.8838" lon="0.07308">
        <ele>1942</ele>
        <time>2013-01-01T12:45:12Z</time>
      </trkpt>
      <trkpt lat="42.88379" lon="0.07308">
        <ele>1942</ele>
        <time>2013-01-01T12:45:14Z</time>
      </trkpt>
      <trkpt lat="42.88378" lon="0.07306">
        <ele>1942</ele>
        <time>2013-01-01T12:45:20Z</time>
      </trkpt>
      <trkpt lat="42.88377" lon="0.07305">
        <ele>1942</ele>
        <time>2013-01-01T12:45:44Z</time>
      </trkpt>
      <trkpt lat="42.88376" lon="0.07303">
        <ele>1942</ele>
        <time>2013-01-01T12:45:48Z</time>
      </trkpt>
      <trkpt lat="42.88374" lon="0.07303">
        <ele>1942</ele>
        <time>2013-01-01T12:45:50Z</time>
      </trkpt>
      <trkpt lat="42.88373" lon="0.07302">
        <ele>1942</ele>
        <time>2013-01-01T12:45:52Z</time>
      </trkpt>
      <trkpt lat="42.88372" lon="0.07302">
        <ele>1942</ele>
        <time>2013-01-01T12:45:54Z</time>
      </trkpt>
      <trkpt lat="42.8837" lon="0.07302">
        <ele>1942</ele>
        <time>2013-01-01T12:45:56Z</time>
      </trkpt>
      <trkpt lat="42.88369" lon="0.07301">
        <ele>1942</ele>
        <time>2013-01-01T12:45:58Z</time>
      </trkpt>
      <trkpt lat="42.88367" lon="0.07301">
        <ele>1942</ele>
        <time>2013-01-01T12:46:00Z</time>
      </trkpt>
      <trkpt lat="42.88365" lon="0.07301">
        <ele>1942</ele>
        <time>2013-01-01T12:46:02Z</time>
      </trkpt>
      <trkpt lat="42.88364" lon="0.07301">
        <ele>1942</ele>
        <time>2013-01-01T12:46:04Z</time>
      </trkpt>
      <trkpt lat="42.88362" lon="0.07301">
        <ele>1942</ele>
        <time>2013-01-01T12:46:06Z</time>
      </trkpt>
      <trkpt lat="42.88361" lon="0.073">
        <ele>1942</ele>
        <time>2013-01-01T12:46:08Z</time>
      </trkpt>
      <trkpt lat="42.88359" lon="0.073">
        <ele>1942</ele>
        <time>2013-01-01T12:46:10Z</time>
      </trkpt>
      <trkpt lat="42.88357" lon="0.073">
        <ele>1942</ele>
        <time>2013-01-01T12:46:12Z</time>
      </trkpt>
      <trkpt lat="42.88356" lon="0.07299">
        <ele>1942</ele>
        <time>2013-01-01T12:46:14Z</time>
      </trkpt>
      <trkpt lat="42.88355" lon="0.07299">
        <ele>1942</ele>
        <time>2013-01-01T12:46:15Z</time>
      </trkpt>
      <trkpt lat="42.88353" lon="0.07298">
        <ele>1942</ele>
        <time>2013-01-01T12:46:17Z</time>
      </trkpt>
      <trkpt lat="42.88351" lon="0.07298">
        <ele>1943</ele>
        <time>2013-01-01T12:46:19Z</time>
      </trkpt>
      <trkpt lat="42.8835" lon="0.07298">
        <ele>1943</ele>
        <time>2013-01-01T12:46:21Z</time>
      </trkpt>
      <trkpt lat="42.88348" lon="0.07297">
        <ele>1943</ele>
        <time>2013-01-01T12:46:23Z</time>
      </trkpt>
      <trkpt lat="42.88346" lon="0.07297">
        <ele>1943</ele>
        <time>2013-01-01T12:46:25Z</time>
      </trkpt>
      <trkpt lat="42.88345" lon="0.07297">
        <ele>1943</ele>
        <time>2013-01-01T12:46:27Z</time>
      </trkpt>
      <trkpt lat="42.88343" lon="0.07296">
        <ele>1944</ele>
        <time>2013-01-01T12:46:29Z</time>
      </trkpt>
      <trkpt lat="42.88341" lon="0.07296">
        <ele>1944</ele>
        <time>2013-01-01T12:46:31Z</time>
      </trkpt>
      <trkpt lat="42.8834" lon="0.07296">
        <ele>1944</ele>
        <time>2013-01-01T12:46:33Z</time>
      </trkpt>
      <trkpt lat="42.88338" lon="0.07295">
        <ele>1944</ele>
        <time>2013-01-01T12:46:35Z</time>
      </trkpt>
      <trkpt lat="42.88336" lon="0.07295">
        <ele>1945</ele>
        <time>2013-01-01T12:46:37Z</time>
      </trkpt>
      <trkpt lat="42.88335" lon="0.07295">
        <ele>1945</ele>
        <time>2013-01-01T12:46:39Z</time>
      </trkpt>
      <trkpt lat="42.88333" lon="0.07294">
        <ele>1945</ele>
        <time>2013-01-01T12:46:41Z</time>
      </trkpt>
      <trkpt lat="42.88332" lon="0.07294">
        <ele>1946</ele>
        <time>2013-01-01T12:46:43Z</time>
      </trkpt>
      <trkpt lat="42.8833" lon="0.07292">
        <ele>1946</ele>
        <time>2013-01-01T12:46:45Z</time>
      </trkpt>
      <trkpt lat="42.88329" lon="0.07292">
        <ele>1947</ele>
        <time>2013-01-01T12:46:47Z</time>
      </trkpt>
      <trkpt lat="42.88327" lon="0.07291">
        <ele>1948</ele>
        <time>2013-01-01T12:46:49Z</time>
      </trkpt>
      <trkpt lat="42.88326" lon="0.0729">
        <ele>1948</ele>
        <time>2013-01-01T12:46:51Z</time>
      </trkpt>
      <trkpt lat="42.88325" lon="0.07289">
        <ele>1949</ele>
        <time>2013-01-01T12:46:53Z</time>
      </trkpt>
      <trkpt lat="42.88324" lon="0.07288">
        <ele>1949</ele>
        <time>2013-01-01T12:46:55Z</time>
      </trkpt>
      <trkpt lat="42.88322" lon="0.07288">
        <ele>1949</ele>
        <time>2013-01-01T12:46:57Z</time>
      </trkpt>
      <trkpt lat="42.88321" lon="0.07286">
        <ele>1950</ele>
        <time>2013-01-01T12:46:59Z</time>
      </trkpt>
      <trkpt lat="42.88319" lon="0.07286">
        <ele>1950</ele>
        <time>2013-01-01T12:47:01Z</time>
      </trkpt>
      <trkpt lat="42.88318" lon="0.07285">
        <ele>1951</ele>
        <time>2013-01-01T12:47:03Z</time>
      </trkpt>
      <trkpt lat="42.88317" lon="0.07284">
        <ele>1952</ele>
        <time>2013-01-01T12:47:05Z</time>
      </trkpt>
      <trkpt lat="42.88316" lon="0.07283">
        <ele>1952</ele>
        <time>2013-01-01T12:47:07Z</time>
      </trkpt>
      <trkpt lat="42.88315" lon="0.07283">
        <ele>1953</ele>
        <time>2013-01-01T12:47:09Z</time>
      </trkpt>
      <trkpt lat="42.88313" lon="0.07283">
        <ele>1955</ele>
        <time>2013-01-01T12:47:28Z</time>
      </trkpt>
      <trkpt lat="42.88312" lon="0.07282">
        <ele>1955</ele>
        <time>2013-01-01T12:47:30Z</time>
      </trkpt>
      <trkpt lat="42.88311" lon="0.07282">
        <ele>1955</ele>
        <time>2013-01-01T12:47:32Z</time>
      </trkpt>
      <trkpt lat="42.88309" lon="0.07281">
        <ele>1955</ele>
        <time>2013-01-01T12:47:34Z</time>
      </trkpt>
      <trkpt lat="42.88308" lon="0.0728">
        <ele>1955</ele>
        <time>2013-01-01T12:47:37Z</time>
      </trkpt>
      <trkpt lat="42.88307" lon="0.0728">
        <ele>1955</ele>
        <time>2013-01-01T12:47:39Z</time>
      </trkpt>
      <trkpt lat="42.88306" lon="0.07279">
        <ele>1955</ele>
        <time>2013-01-01T12:47:41Z</time>
      </trkpt>
      <trkpt lat="42.88304" lon="0.07278">
        <ele>1955</ele>
        <time>2013-01-01T12:47:43Z</time>
      </trkpt>
      <trkpt lat="42.88303" lon="0.07278">
        <ele>1955</ele>
        <time>2013-01-01T12:47:45Z</time>
      </trkpt>
      <trkpt lat="42.88301" lon="0.07277">
        <ele>1955</ele>
        <time>2013-01-01T12:47:47Z</time>
      </trkpt>
      <trkpt lat="42.883" lon="0.07277">
        <ele>1955</ele>
        <time>2013-01-01T12:47:50Z</time>
      </trkpt>
      <trkpt lat="42.88298" lon="0.07276">
        <ele>1955</ele>
        <time>2013-01-01T12:47:53Z</time>
      </trkpt>
      <trkpt lat="42.88297" lon="0.07275">
        <ele>1955</ele>
        <time>2013-01-01T12:47:56Z</time>
      </trkpt>
      <trkpt lat="42.88295" lon="0.07275">
        <ele>1955</ele>
        <time>2013-01-01T12:47:59Z</time>
      </trkpt>
      <trkpt lat="42.88294" lon="0.07274">
        <ele>1955</ele>
        <time>2013-01-01T12:48:02Z</time>
      </trkpt>
      <trkpt lat="42.88292" lon="0.07273">
        <ele>1955</ele>
        <time>2013-01-01T12:48:04Z</time>
      </trkpt>
      <trkpt lat="42.88291" lon="0.07273">
        <ele>1955</ele>
        <time>2013-01-01T12:48:07Z</time>
      </trkpt>
      <trkpt lat="42.8829" lon="0.07275">
        <ele>1956</ele>
        <time>2013-01-01T12:48:11Z</time>
      </trkpt>
      <trkpt lat="42.8829" lon="0.07276">
        <ele>1962</ele>
        <time>2013-01-01T12:49:03Z</time>
      </trkpt>
      <trkpt lat="42.8829" lon="0.07278">
        <ele>1962</ele>
        <time>2013-01-01T12:49:05Z</time>
      </trkpt>
      <trkpt lat="42.8829" lon="0.07279">
        <ele>1962</ele>
        <time>2013-01-01T12:49:07Z</time>
      </trkpt>
      <trkpt lat="42.88289" lon="0.07281">
        <ele>1962</ele>
        <time>2013-01-01T12:49:09Z</time>
      </trkpt>
      <trkpt lat="42.88289" lon="0.07283">
        <ele>1962</ele>
        <time>2013-01-01T12:49:11Z</time>
      </trkpt>
      <trkpt lat="42.88289" lon="0.07284">
        <ele>1962</ele>
        <time>2013-01-01T12:49:13Z</time>
      </trkpt>
      <trkpt lat="42.88288" lon="0.07286">
        <ele>1962</ele>
        <time>2013-01-01T12:49:15Z</time>
      </trkpt>
      <trkpt lat="42.88288" lon="0.07287">
        <ele>1962</ele>
        <time>2013-01-01T12:49:17Z</time>
      </trkpt>
      <trkpt lat="42.88288" lon="0.07289">
        <ele>1962</ele>
        <time>2013-01-01T12:49:20Z</time>
      </trkpt>
      <trkpt lat="42.88288" lon="0.07291">
        <ele>1962</ele>
        <time>2013-01-01T12:49:22Z</time>
      </trkpt>
      <trkpt lat="42.88288" lon="0.07293">
        <ele>1962</ele>
        <time>2013-01-01T12:49:24Z</time>
      </trkpt>
      <trkpt lat="42.88288" lon="0.07294">
        <ele>1962</ele>
        <time>2013-01-01T12:49:26Z</time>
      </trkpt>
      <trkpt lat="42.88288" lon="0.07295">
        <ele>1963</ele>
        <time>2013-01-01T12:49:28Z</time>
      </trkpt>
      <trkpt lat="42.88288" lon="0.07297">
        <ele>1963</ele>
        <time>2013-01-01T12:49:30Z</time>
      </trkpt>
      <trkpt lat="42.88288" lon="0.07299">
        <ele>1963</ele>
        <time>2013-01-01T12:49:32Z</time>
      </trkpt>
      <trkpt lat="42.88288" lon="0.073">
        <ele>1964</ele>
        <time>2013-01-01T12:49:34Z</time>
      </trkpt>
      <trkpt lat="42.88288" lon="0.07302">
        <ele>1964</ele>
        <time>2013-01-01T12:49:36Z</time>
      </trkpt>
      <trkpt lat="42.88288" lon="0.07304">
        <ele>1965</ele>
        <time>2013-01-01T12:49:38Z</time>
      </trkpt>
      <trkpt lat="42.88288" lon="0.07305">
        <ele>1965</ele>
        <time>2013-01-01T12:49:40Z</time>
      </trkpt>
      <trkpt lat="42.88288" lon="0.07307">
        <ele>1965</ele>
        <time>2013-01-01T12:49:42Z</time>
      </trkpt>
      <trkpt lat="42.88287" lon="0.07309">
        <ele>1965</ele>
        <time>2013-01-01T12:49:44Z</time>
      </trkpt>
      <trkpt lat="42.88287" lon="0.07311">
        <ele>1965</ele>
        <time>2013-01-01T12:49:46Z</time>
      </trkpt>
      <trkpt lat="42.88287" lon="0.07312">
        <ele>1965</ele>
        <time>2013-01-01T12:49:48Z</time>
      </trkpt>
      <trkpt lat="42.88288" lon="0.07314">
        <ele>1965</ele>
        <time>2013-01-01T12:49:50Z</time>
      </trkpt>
      <trkpt lat="42.88288" lon="0.07316">
        <ele>1966</ele>
        <time>2013-01-01T12:49:52Z</time>
      </trkpt>
      <trkpt lat="42.88288" lon="0.07318">
        <ele>1966</ele>
        <time>2013-01-01T12:49:54Z</time>
      </trkpt>
      <trkpt lat="42.88288" lon="0.07319">
        <ele>1966</ele>
        <time>2013-01-01T12:49:56Z</time>
      </trkpt>
      <trkpt lat="42.88288" lon="0.07321">
        <ele>1967</ele>
        <time>2013-01-01T12:49:58Z</time>
      </trkpt>
      <trkpt lat="42.88289" lon="0.07323">
        <ele>1967</ele>
        <time>2013-01-01T12:50:00Z</time>
      </trkpt>
      <trkpt lat="42.88289" lon="0.07325">
        <ele>1967</ele>
        <time>2013-01-01T12:50:02Z</time>
      </trkpt>
      <trkpt lat="42.88289" lon="0.07327">
        <ele>1967</ele>
        <time>2013-01-01T12:50:04Z</time>
      </trkpt>
      <trkpt lat="42.88289" lon="0.07328">
        <ele>1968</ele>
        <time>2013-01-01T12:50:06Z</time>
      </trkpt>
      <trkpt lat="42.88289" lon="0.07331">
        <ele>1968</ele>
        <time>2013-01-01T12:50:08Z</time>
      </trkpt>
      <trkpt lat="42.88289" lon="0.07333">
        <ele>1968</ele>
        <time>2013-01-01T12:50:10Z</time>
      </trkpt>
      <trkpt lat="42.8829" lon="0.07334">
        <ele>1969</ele>
        <time>2013-01-01T12:50:12Z</time>
      </trkpt>
      <trkpt lat="42.8829" lon="0.07336">
        <ele>1969</ele>
        <time>2013-01-01T12:50:14Z</time>
      </trkpt>
      <trkpt lat="42.8829" lon="0.07338">
        <ele>1969</ele>
        <time>2013-01-01T12:50:16Z</time>
      </trkpt>
      <trkpt lat="42.88291" lon="0.07339">
        <ele>1970</ele>
        <time>2013-01-01T12:50:18Z</time>
      </trkpt>
      <trkpt lat="42.88291" lon="0.07341">
        <ele>1970</ele>
        <time>2013-01-01T12:50:20Z</time>
      </trkpt>
      <trkpt lat="42.88291" lon="0.07343">
        <ele>1971</ele>
        <time>2013-01-01T12:50:22Z</time>
      </trkpt>
      <trkpt lat="42.88292" lon="0.07345">
        <ele>1971</ele>
        <time>2013-01-01T12:50:25Z</time>
      </trkpt>
      <trkpt lat="42.88293" lon="0.07345">
        <ele>1972</ele>
        <time>2013-01-01T12:50:50Z</time>
      </trkpt>
      <trkpt lat="42.88293" lon="0.07346">
        <ele>1972</ele>
        <time>2013-01-01T12:50:52Z</time>
      </trkpt>
      <trkpt lat="42.88294" lon="0.07349">
        <ele>1972</ele>
        <time>2013-01-01T12:50:54Z</time>
      </trkpt>
      <trkpt lat="42.88295" lon="0.07351">
        <ele>1972</ele>
        <time>2013-01-01T12:50:56Z</time>
      </trkpt>
      <trkpt lat="42.88295" lon="0.07352">
        <ele>1972</ele>
        <time>2013-01-01T12:50:58Z</time>
      </trkpt>
      <trkpt lat="42.88296" lon="0.07354">
        <ele>1972</ele>
        <time>2013-01-01T12:51:00Z</time>
      </trkpt>
      <trkpt lat="42.88297" lon="0.07356">
        <ele>1973</ele>
        <time>2013-01-01T12:51:02Z</time>
      </trkpt>
      <trkpt lat="42.88297" lon="0.07358">
        <ele>1973</ele>
        <time>2013-01-01T12:51:04Z</time>
      </trkpt>
      <trkpt lat="42.88297" lon="0.0736">
        <ele>1975</ele>
        <time>2013-01-01T12:51:06Z</time>
      </trkpt>
      <trkpt lat="42.88298" lon="0.07362">
        <ele>1976</ele>
        <time>2013-01-01T12:51:08Z</time>
      </trkpt>
      <trkpt lat="42.88299" lon="0.07364">
        <ele>1977</ele>
        <time>2013-01-01T12:51:10Z</time>
      </trkpt>
      <trkpt lat="42.883" lon="0.07366">
        <ele>1979</ele>
        <time>2013-01-01T12:51:13Z</time>
      </trkpt>
      <trkpt lat="42.88301" lon="0.07368">
        <ele>1980</ele>
        <time>2013-01-01T12:51:15Z</time>
      </trkpt>
      <trkpt lat="42.88303" lon="0.0737">
        <ele>1981</ele>
        <time>2013-01-01T12:51:18Z</time>
      </trkpt>
      <trkpt lat="42.88304" lon="0.07371">
        <ele>1981</ele>
        <time>2013-01-01T12:51:20Z</time>
      </trkpt>
      <trkpt lat="42.88305" lon="0.07373">
        <ele>1981</ele>
        <time>2013-01-01T12:51:22Z</time>
      </trkpt>
      <trkpt lat="42.88306" lon="0.07374">
        <ele>1982</ele>
        <time>2013-01-01T12:51:24Z</time>
      </trkpt>
      <trkpt lat="42.88307" lon="0.07376">
        <ele>1982</ele>
        <time>2013-01-01T12:51:26Z</time>
      </trkpt>
      <trkpt lat="42.88308" lon="0.07377">
        <ele>1982</ele>
        <time>2013-01-01T12:51:28Z</time>
      </trkpt>
      <trkpt lat="42.8831" lon="0.07378">
        <ele>1983</ele>
        <time>2013-01-01T12:51:30Z</time>
      </trkpt>
      <trkpt lat="42.88311" lon="0.07379">
        <ele>1983</ele>
        <time>2013-01-01T12:51:32Z</time>
      </trkpt>
      <trkpt lat="42.88312" lon="0.0738">
        <ele>1983</ele>
        <time>2013-01-01T12:51:34Z</time>
      </trkpt>
      <trkpt lat="42.88314" lon="0.07381">
        <ele>1984</ele>
        <time>2013-01-01T12:51:36Z</time>
      </trkpt>
      <trkpt lat="42.88315" lon="0.07382">
        <ele>1984</ele>
        <time>2013-01-01T12:51:38Z</time>
      </trkpt>
      <trkpt lat="42.88316" lon="0.07383">
        <ele>1985</ele>
        <time>2013-01-01T12:51:40Z</time>
      </trkpt>
      <trkpt lat="42.88318" lon="0.07384">
        <ele>1986</ele>
        <time>2013-01-01T12:51:42Z</time>
      </trkpt>
      <trkpt lat="42.88319" lon="0.07385">
        <ele>1986</ele>
        <time>2013-01-01T12:51:44Z</time>
      </trkpt>
      <trkpt lat="42.8832" lon="0.07387">
        <ele>1987</ele>
        <time>2013-01-01T12:51:46Z</time>
      </trkpt>
      <trkpt lat="42.88322" lon="0.07388">
        <ele>1987</ele>
        <time>2013-01-01T12:51:48Z</time>
      </trkpt>
      <trkpt lat="42.88323" lon="0.07389">
        <ele>1987</ele>
        <time>2013-01-01T12:51:50Z</time>
      </trkpt>
      <trkpt lat="42.88324" lon="0.07391">
        <ele>1988</ele>
        <time>2013-01-01T12:51:52Z</time>
      </trkpt>
      <trkpt lat="42.88325" lon="0.07393">
        <ele>1988</ele>
        <time>2013-01-01T12:51:54Z</time>
      </trkpt>
      <trkpt lat="42.88326" lon="0.07394">
        <ele>1989</ele>
        <time>2013-01-01T12:51:56Z</time>
      </trkpt>
      <trkpt lat="42.88328" lon="0.07395">
        <ele>1989</ele>
        <time>2013-01-01T12:51:58Z</time>
      </trkpt>
      <trkpt lat="42.88329" lon="0.07396">
        <ele>1989</ele>
        <time>2013-01-01T12:52:00Z</time>
      </trkpt>
      <trkpt lat="42.8833" lon="0.07398">
        <ele>1990</ele>
        <time>2013-01-01T12:52:02Z</time>
      </trkpt>
      <trkpt lat="42.88332" lon="0.07399">
        <ele>1990</ele>
        <time>2013-01-01T12:52:04Z</time>
      </trkpt>
      <trkpt lat="42.88333" lon="0.074">
        <ele>1990</ele>
        <time>2013-01-01T12:52:06Z</time>
      </trkpt>
      <trkpt lat="42.88334" lon="0.07401">
        <ele>1990</ele>
        <time>2013-01-01T12:52:08Z</time>
      </trkpt>
      <trkpt lat="42.88335" lon="0.07402">
        <ele>1991</ele>
        <time>2013-01-01T12:52:18Z</time>
      </trkpt>
      <trkpt lat="42.88337" lon="0.07403">
        <ele>1991</ele>
        <time>2013-01-01T12:52:27Z</time>
      </trkpt>
      <trkpt lat="42.88338" lon="0.07404">
        <ele>1991</ele>
        <time>2013-01-01T12:52:29Z</time>
      </trkpt>
      <trkpt lat="42.8834" lon="0.07406">
        <ele>1991</ele>
        <time>2013-01-01T12:52:31Z</time>
      </trkpt>
      <trkpt lat="42.88341" lon="0.07407">
        <ele>1991</ele>
        <time>2013-01-01T12:52:33Z</time>
      </trkpt>
      <trkpt lat="42.88342" lon="0.07408">
        <ele>1991</ele>
        <time>2013-01-01T12:52:35Z</time>
      </trkpt>
      <trkpt lat="42.88343" lon="0.07409">
        <ele>1991</ele>
        <time>2013-01-01T12:52:37Z</time>
      </trkpt>
      <trkpt lat="42.88345" lon="0.07411">
        <ele>1991</ele>
        <time>2013-01-01T12:52:39Z</time>
      </trkpt>
      <trkpt lat="42.88346" lon="0.07412">
        <ele>1991</ele>
        <time>2013-01-01T12:52:41Z</time>
      </trkpt>
      <trkpt lat="42.88347" lon="0.07414">
        <ele>1991</ele>
        <time>2013-01-01T12:52:43Z</time>
      </trkpt>
      <trkpt lat="42.88348" lon="0.07416">
        <ele>1991</ele>
        <time>2013-01-01T12:52:45Z</time>
      </trkpt>
      <trkpt lat="42.88349" lon="0.07417">
        <ele>1991</ele>
        <time>2013-01-01T12:52:47Z</time>
      </trkpt>
      <trkpt lat="42.8835" lon="0.07418">
        <ele>1991</ele>
        <time>2013-01-01T12:52:49Z</time>
      </trkpt>
      <trkpt lat="42.88351" lon="0.07419">
        <ele>1991</ele>
        <time>2013-01-01T12:52:51Z</time>
      </trkpt>
      <trkpt lat="42.88353" lon="0.07421">
        <ele>1991</ele>
        <time>2013-01-01T12:52:53Z</time>
      </trkpt>
      <trkpt lat="42.88354" lon="0.07423">
        <ele>1991</ele>
        <time>2013-01-01T12:52:55Z</time>
      </trkpt>
      <trkpt lat="42.88355" lon="0.07424">
        <ele>1991</ele>
        <time>2013-01-01T12:52:57Z</time>
      </trkpt>
      <trkpt lat="42.88356" lon="0.07426">
        <ele>1992</ele>
        <time>2013-01-01T12:52:59Z</time>
      </trkpt>
      <trkpt lat="42.88357" lon="0.07427">
        <ele>1992</ele>
        <time>2013-01-01T12:53:01Z</time>
      </trkpt>
      <trkpt lat="42.88359" lon="0.07429">
        <ele>1992</ele>
        <time>2013-01-01T12:53:03Z</time>
      </trkpt>
      <trkpt lat="42.8836" lon="0.0743">
        <ele>1992</ele>
        <time>2013-01-01T12:53:05Z</time>
      </trkpt>
      <trkpt lat="42.88361" lon="0.07432">
        <ele>1992</ele>
        <time>2013-01-01T12:53:07Z</time>
      </trkpt>
      <trkpt lat="42.88362" lon="0.07434">
        <ele>1992</ele>
        <time>2013-01-01T12:53:09Z</time>
      </trkpt>
      <trkpt lat="42.88363" lon="0.07435">
        <ele>1992</ele>
        <time>2013-01-01T12:53:11Z</time>
      </trkpt>
      <trkpt lat="42.88364" lon="0.07437">
        <ele>1992</ele>
        <time>2013-01-01T12:53:13Z</time>
      </trkpt>
      <trkpt lat="42.88366" lon="0.07438">
        <ele>1993</ele>
        <time>2013-01-01T12:53:29Z</time>
      </trkpt>
      <trkpt lat="42.88367" lon="0.0744">
        <ele>1993</ele>
        <time>2013-01-01T12:53:31Z</time>
      </trkpt>
      <trkpt lat="42.88368" lon="0.07441">
        <ele>1993</ele>
        <time>2013-01-01T12:53:33Z</time>
      </trkpt>
      <trkpt lat="42.8837" lon="0.07442">
        <ele>1993</ele>
        <time>2013-01-01T12:53:35Z</time>
      </trkpt>
      <trkpt lat="42.88371" lon="0.07443">
        <ele>1993</ele>
        <time>2013-01-01T12:53:37Z</time>
      </trkpt>
      <trkpt lat="42.88372" lon="0.07445">
        <ele>1993</ele>
        <time>2013-01-01T12:53:39Z</time>
      </trkpt>
      <trkpt lat="42.88374" lon="0.07446">
        <ele>1993</ele>
        <time>2013-01-01T12:53:41Z</time>
      </trkpt>
      <trkpt lat="42.88376" lon="0.07447">
        <ele>1993</ele>
        <time>2013-01-01T12:53:43Z</time>
      </trkpt>
      <trkpt lat="42.88377" lon="0.07448">
        <ele>1993</ele>
        <time>2013-01-01T12:53:45Z</time>
      </trkpt>
      <trkpt lat="42.88378" lon="0.0745">
        <ele>1993</ele>
        <time>2013-01-01T12:53:47Z</time>
      </trkpt>
      <trkpt lat="42.8838" lon="0.07451">
        <ele>1993</ele>
        <time>2013-01-01T12:53:49Z</time>
      </trkpt>
      <trkpt lat="42.8838" lon="0.07452">
        <ele>1993</ele>
        <time>2013-01-01T12:53:51Z</time>
      </trkpt>
      <trkpt lat="42.88382" lon="0.07454">
        <ele>1993</ele>
        <time>2013-01-01T12:53:53Z</time>
      </trkpt>
      <trkpt lat="42.88383" lon="0.07455">
        <ele>1994</ele>
        <time>2013-01-01T12:53:55Z</time>
      </trkpt>
      <trkpt lat="42.88385" lon="0.07457">
        <ele>1994</ele>
        <time>2013-01-01T12:53:57Z</time>
      </trkpt>
      <trkpt lat="42.88386" lon="0.07459">
        <ele>1995</ele>
        <time>2013-01-01T12:53:59Z</time>
      </trkpt>
      <trkpt lat="42.88387" lon="0.07461">
        <ele>1995</ele>
        <time>2013-01-01T12:54:01Z</time>
      </trkpt>
      <trkpt lat="42.88388" lon="0.07462">
        <ele>1996</ele>
        <time>2013-01-01T12:54:03Z</time>
      </trkpt>
      <trkpt lat="42.8839" lon="0.07464">
        <ele>1996</ele>
        <time>2013-01-01T12:54:05Z</time>
      </trkpt>
      <trkpt lat="42.88391" lon="0.07465">
        <ele>1997</ele>
        <time>2013-01-01T12:54:07Z</time>
      </trkpt>
      <trkpt lat="42.88393" lon="0.07466">
        <ele>1997</ele>
        <time>2013-01-01T12:54:09Z</time>
      </trkpt>
      <trkpt lat="42.88394" lon="0.07466">
        <ele>1997</ele>
        <time>2013-01-01T12:54:11Z</time>
      </trkpt>
      <trkpt lat="42.88395" lon="0.07467">
        <ele>1997</ele>
        <time>2013-01-01T12:54:15Z</time>
      </trkpt>
      <trkpt lat="42.88396" lon="0.07468">
        <ele>1997</ele>
        <time>2013-01-01T12:54:17Z</time>
      </trkpt>
      <trkpt lat="42.88396" lon="0.07467">
        <ele>1998</ele>
        <time>2013-01-01T12:54:25Z</time>
      </trkpt>
      <trkpt lat="42.88396" lon="0.07468">
        <ele>1998</ele>
        <time>2013-01-01T12:54:29Z</time>
      </trkpt>
      <trkpt lat="42.88395" lon="0.0747">
        <ele>1999</ele>
        <time>2013-01-01T12:54:32Z</time>
      </trkpt>
      <trkpt lat="42.88394" lon="0.07468">
        <ele>2003</ele>
        <time>2013-01-01T12:54:50Z</time>
      </trkpt>
      <trkpt lat="42.88393" lon="0.07469">
        <ele>2003</ele>
        <time>2013-01-01T12:54:53Z</time>
      </trkpt>
      <trkpt lat="42.88394" lon="0.07468">
        <ele>2002</ele>
        <time>2013-01-01T12:54:58Z</time>
      </trkpt>
      <trkpt lat="42.88396" lon="0.07467">
        <ele>2002</ele>
        <time>2013-01-01T12:55:00Z</time>
      </trkpt>
      <trkpt lat="42.88397" lon="0.07467">
        <ele>2002</ele>
        <time>2013-01-01T12:55:01Z</time>
      </trkpt>
      <trkpt lat="42.88398" lon="0.07466">
        <ele>2002</ele>
        <time>2013-01-01T12:55:02Z</time>
      </trkpt>
      <trkpt lat="42.88399" lon="0.07467">
        <ele>2002</ele>
        <time>2013-01-01T12:55:03Z</time>
      </trkpt>
      <trkpt lat="42.88401" lon="0.07467">
        <ele>2002</ele>
        <time>2013-01-01T12:55:04Z</time>
      </trkpt>
      <trkpt lat="42.88402" lon="0.07467">
        <ele>2002</ele>
        <time>2013-01-01T12:55:05Z</time>
      </trkpt>
      <trkpt lat="42.88403" lon="0.07467">
        <ele>2002</ele>
        <time>2013-01-01T12:55:06Z</time>
      </trkpt>
      <trkpt lat="42.88404" lon="0.07466">
        <ele>2002</ele>
        <time>2013-01-01T12:55:08Z</time>
      </trkpt>
      <trkpt lat="42.88406" lon="0.07465">
        <ele>2002</ele>
        <time>2013-01-01T12:55:11Z</time>
      </trkpt>
      <trkpt lat="42.88407" lon="0.07465">
        <ele>2002</ele>
        <time>2013-01-01T12:55:13Z</time>
      </trkpt>
      <trkpt lat="42.88409" lon="0.07465">
        <ele>2002</ele>
        <time>2013-01-01T12:55:14Z</time>
      </trkpt>
      <trkpt lat="42.8841" lon="0.07466">
        <ele>2002</ele>
        <time>2013-01-01T12:55:15Z</time>
      </trkpt>
      <trkpt lat="42.88412" lon="0.07466">
        <ele>2002</ele>
        <time>2013-01-01T12:55:17Z</time>
      </trkpt>
      <trkpt lat="42.88413" lon="0.07465">
        <ele>2002</ele>
        <time>2013-01-01T12:55:18Z</time>
      </trkpt>
      <trkpt lat="42.88415" lon="0.07466">
        <ele>2002</ele>
        <time>2013-01-01T12:55:20Z</time>
      </trkpt>
      <trkpt lat="42.88417" lon="0.07465">
        <ele>2002</ele>
        <time>2013-01-01T12:55:21Z</time>
      </trkpt>
      <trkpt lat="42.88419" lon="0.07465">
        <ele>2002</ele>
        <time>2013-01-01T12:55:23Z</time>
      </trkpt>
      <trkpt lat="42.88418" lon="0.07462">
        <ele>2003</ele>
        <time>2013-01-01T12:55:27Z</time>
      </trkpt>
      <trkpt lat="42.88416" lon="0.07459">
        <ele>2004</ele>
        <time>2013-01-01T12:55:28Z</time>
      </trkpt>
      <trkpt lat="42.88413" lon="0.07459">
        <ele>2005</ele>
        <time>2013-01-01T12:55:29Z</time>
      </trkpt>
      <trkpt lat="42.88413" lon="0.07455">
        <ele>2006</ele>
        <time>2013-01-01T12:55:30Z</time>
      </trkpt>
      <trkpt lat="42.88412" lon="0.0745">
        <ele>2007</ele>
        <time>2013-01-01T12:55:31Z</time>
      </trkpt>
      <trkpt lat="42.88411" lon="0.07447">
        <ele>2008</ele>
        <time>2013-01-01T12:55:33Z</time>
      </trkpt>
      <trkpt lat="42.88411" lon="0.07443">
        <ele>2011</ele>
        <time>2013-01-01T12:55:38Z</time>
      </trkpt>
      <trkpt lat="42.88412" lon="0.07442">
        <ele>2012</ele>
        <time>2013-01-01T12:55:39Z</time>
      </trkpt>
      <trkpt lat="42.8841" lon="0.07442">
        <ele>2014</ele>
        <time>2013-01-01T12:55:41Z</time>
      </trkpt>
      <trkpt lat="42.88409" lon="0.07443">
        <ele>2015</ele>
        <time>2013-01-01T12:55:42Z</time>
      </trkpt>
      <trkpt lat="42.88414" lon="0.07445">
        <ele>2015</ele>
        <time>2013-01-01T12:55:45Z</time>
      </trkpt>
      <trkpt lat="42.88419" lon="0.07446">
        <ele>2016</ele>
        <time>2013-01-01T12:55:46Z</time>
      </trkpt>
      <trkpt lat="42.88424" lon="0.07446">
        <ele>2017</ele>
        <time>2013-01-01T12:55:47Z</time>
      </trkpt>
      <trkpt lat="42.88426" lon="0.07448">
        <ele>2018</ele>
        <time>2013-01-01T12:55:48Z</time>
      </trkpt>
      <trkpt lat="42.88427" lon="0.0745">
        <ele>2019</ele>
        <time>2013-01-01T12:55:49Z</time>
      </trkpt>
      <trkpt lat="42.88424" lon="0.07449">
        <ele>2020</ele>
        <time>2013-01-01T12:55:50Z</time>
      </trkpt>
      <trkpt lat="42.88422" lon="0.07447">
        <ele>2021</ele>
        <time>2013-01-01T12:55:51Z</time>
      </trkpt>
      <trkpt lat="42.88421" lon="0.07446">
        <ele>2022</ele>
        <time>2013-01-01T12:55:52Z</time>
      </trkpt>
      <trkpt lat="42.88421" lon="0.07444">
        <ele>2023</ele>
        <time>2013-01-01T12:55:54Z</time>
      </trkpt>
      <trkpt lat="42.88423" lon="0.07443">
        <ele>2023</ele>
        <time>2013-01-01T12:55:58Z</time>
      </trkpt>
      <trkpt lat="42.88424" lon="0.07444">
        <ele>2023</ele>
        <time>2013-01-01T12:56:00Z</time>
      </trkpt>
      <trkpt lat="42.88428" lon="0.07444">
        <ele>2023</ele>
        <time>2013-01-01T12:56:03Z</time>
      </trkpt>
      <trkpt lat="42.8843" lon="0.07445">
        <ele>2023</ele>
        <time>2013-01-01T12:56:04Z</time>
      </trkpt>
      <trkpt lat="42.88432" lon="0.07447">
        <ele>2023</ele>
        <time>2013-01-01T12:56:05Z</time>
      </trkpt>
      <trkpt lat="42.8843" lon="0.07446">
        <ele>2023</ele>
        <time>2013-01-01T12:56:07Z</time>
      </trkpt>
      <trkpt lat="42.88428" lon="0.07446">
        <ele>2023</ele>
        <time>2013-01-01T12:56:08Z</time>
      </trkpt>
      <trkpt lat="42.88429" lon="0.07447">
        <ele>2023</ele>
        <time>2013-01-01T12:56:10Z</time>
      </trkpt>
      <trkpt lat="42.8843" lon="0.07451">
        <ele>2023</ele>
        <time>2013-01-01T12:56:15Z</time>
      </trkpt>
      <trkpt lat="42.88432" lon="0.07452">
        <ele>2023</ele>
        <time>2013-01-01T12:56:17Z</time>
      </trkpt>
      <trkpt lat="42.88429" lon="0.07449">
        <ele>2023</ele>
        <time>2013-01-01T12:56:18Z</time>
      </trkpt>
      <trkpt lat="42.88427" lon="0.07451">
        <ele>2023</ele>
        <time>2013-01-01T12:56:20Z</time>
      </trkpt>
      <trkpt lat="42.88425" lon="0.07452">
        <ele>2023</ele>
        <time>2013-01-01T12:56:21Z</time>
      </trkpt>
      <trkpt lat="42.88425" lon="0.07454">
        <ele>2023</ele>
        <time>2013-01-01T12:56:22Z</time>
      </trkpt>
      <trkpt lat="42.88427" lon="0.07456">
        <ele>2022</ele>
        <time>2013-01-01T12:56:23Z</time>
      </trkpt>
      <trkpt lat="42.8843" lon="0.07458">
        <ele>2021</ele>
        <time>2013-01-01T12:56:24Z</time>
      </trkpt>
      <trkpt lat="42.88433" lon="0.07459">
        <ele>2019</ele>
        <time>2013-01-01T12:56:26Z</time>
      </trkpt>
      <trkpt lat="42.88434" lon="0.07459">
        <ele>2018</ele>
        <time>2013-01-01T12:56:27Z</time>
      </trkpt>
      <trkpt lat="42.88436" lon="0.0746">
        <ele>2018</ele>
        <time>2013-01-01T12:56:28Z</time>
      </trkpt>
      <trkpt lat="42.88437" lon="0.0746">
        <ele>2018</ele>
        <time>2013-01-01T12:56:29Z</time>
      </trkpt>
      <trkpt lat="42.88436" lon="0.07461">
        <ele>2018</ele>
        <time>2013-01-01T12:56:30Z</time>
      </trkpt>
      <trkpt lat="42.88434" lon="0.07459">
        <ele>2017</ele>
        <time>2013-01-01T12:56:35Z</time>
      </trkpt>
      <trkpt lat="42.88432" lon="0.07458">
        <ele>2017</ele>
        <time>2013-01-01T12:56:37Z</time>
      </trkpt>
      <trkpt lat="42.8843" lon="0.07454">
        <ele>2017</ele>
        <time>2013-01-01T12:56:39Z</time>
      </trkpt>
      <trkpt lat="42.88426" lon="0.07452">
        <ele>2018</ele>
        <time>2013-01-01T12:56:41Z</time>
      </trkpt>
      <trkpt lat="42.88422" lon="0.0745">
        <ele>2018</ele>
        <time>2013-01-01T12:56:42Z</time>
      </trkpt>
      <trkpt lat="42.88419" lon="0.07447">
        <ele>2018</ele>
        <time>2013-01-01T12:56:43Z</time>
      </trkpt>
      <trkpt lat="42.88416" lon="0.07444">
        <ele>2018</ele>
        <time>2013-01-01T12:56:44Z</time>
      </trkpt>
      <trkpt lat="42.88414" lon="0.07444">
        <ele>2019</ele>
        <time>2013-01-01T12:56:45Z</time>
      </trkpt>
      <trkpt lat="42.88412" lon="0.07442">
        <ele>2019</ele>
        <time>2013-01-01T12:56:46Z</time>
      </trkpt>
      <trkpt lat="42.88409" lon="0.0744">
        <ele>2019</ele>
        <time>2013-01-01T12:56:48Z</time>
      </trkpt>
      <trkpt lat="42.88408" lon="0.07439">
        <ele>2019</ele>
        <time>2013-01-01T12:56:49Z</time>
      </trkpt>
      <trkpt lat="42.88406" lon="0.07437">
        <ele>2019</ele>
        <time>2013-01-01T12:56:50Z</time>
      </trkpt>
      <trkpt lat="42.88404" lon="0.07435">
        <ele>2019</ele>
        <time>2013-01-01T12:56:51Z</time>
      </trkpt>
      <trkpt lat="42.88402" lon="0.07434">
        <ele>2019</ele>
        <time>2013-01-01T12:56:52Z</time>
      </trkpt>
      <trkpt lat="42.88401" lon="0.07433">
        <ele>2019</ele>
        <time>2013-01-01T12:56:53Z</time>
      </trkpt>
      <trkpt lat="42.884" lon="0.07431">
        <ele>2019</ele>
        <time>2013-01-01T12:56:54Z</time>
      </trkpt>
      <trkpt lat="42.88398" lon="0.07428">
        <ele>2019</ele>
        <time>2013-01-01T12:56:55Z</time>
      </trkpt>
      <trkpt lat="42.88396" lon="0.07426">
        <ele>2019</ele>
        <time>2013-01-01T12:56:57Z</time>
      </trkpt>
      <trkpt lat="42.88395" lon="0.07424">
        <ele>2019</ele>
        <time>2013-01-01T12:56:58Z</time>
      </trkpt>
      <trkpt lat="42.88395" lon="0.07427">
        <ele>2019</ele>
        <time>2013-01-01T12:57:02Z</time>
      </trkpt>
      <trkpt lat="42.88398" lon="0.07429">
        <ele>2019</ele>
        <time>2013-01-01T12:57:03Z</time>
      </trkpt>
      <trkpt lat="42.88399" lon="0.07432">
        <ele>2019</ele>
        <time>2013-01-01T12:57:04Z</time>
      </trkpt>
      <trkpt lat="42.88398" lon="0.0743">
        <ele>2019</ele>
        <time>2013-01-01T12:57:12Z</time>
      </trkpt>
      <trkpt lat="42.88399" lon="0.07432">
        <ele>2019</ele>
        <time>2013-01-01T12:57:14Z</time>
      </trkpt>
      <trkpt lat="42.88397" lon="0.0743">
        <ele>2019</ele>
        <time>2013-01-01T12:57:18Z</time>
      </trkpt>
      <trkpt lat="42.884" lon="0.07434">
        <ele>2019</ele>
        <time>2013-01-01T12:57:21Z</time>
      </trkpt>
      <trkpt lat="42.88402" lon="0.07436">
        <ele>2019</ele>
        <time>2013-01-01T12:57:22Z</time>
      </trkpt>
      <trkpt lat="42.88404" lon="0.07442">
        <ele>2018</ele>
        <time>2013-01-01T12:57:25Z</time>
      </trkpt>
      <trkpt lat="42.88405" lon="0.07443">
        <ele>2017</ele>
        <time>2013-01-01T12:57:26Z</time>
      </trkpt>
      <trkpt lat="42.88406" lon="0.07445">
        <ele>2016</ele>
        <time>2013-01-01T12:57:27Z</time>
      </trkpt>
      <trkpt lat="42.88407" lon="0.07447">
        <ele>2014</ele>
        <time>2013-01-01T12:57:29Z</time>
      </trkpt>
      <trkpt lat="42.88409" lon="0.07448">
        <ele>2013</ele>
        <time>2013-01-01T12:57:30Z</time>
      </trkpt>
      <trkpt lat="42.88409" lon="0.0745">
        <ele>2010</ele>
        <time>2013-01-01T12:57:33Z</time>
      </trkpt>
      <trkpt lat="42.88411" lon="0.07452">
        <ele>2005</ele>
        <time>2013-01-01T12:57:38Z</time>
      </trkpt>
      <trkpt lat="42.88412" lon="0.07457">
        <ele>2004</ele>
        <time>2013-01-01T12:57:39Z</time>
      </trkpt>
      <trkpt lat="42.88414" lon="0.07461">
        <ele>2003</ele>
        <time>2013-01-01T12:57:40Z</time>
      </trkpt>
      <trkpt lat="42.88416" lon="0.07464">
        <ele>2002</ele>
        <time>2013-01-01T12:57:41Z</time>
      </trkpt>
      <trkpt lat="42.88418" lon="0.07467">
        <ele>2000</ele>
        <time>2013-01-01T12:57:45Z</time>
      </trkpt>
      <trkpt lat="42.88418" lon="0.07473">
        <ele>2000</ele>
        <time>2013-01-01T12:57:46Z</time>
      </trkpt>
      <trkpt lat="42.88419" lon="0.07476">
        <ele>1999</ele>
        <time>2013-01-01T12:57:47Z</time>
      </trkpt>
      <trkpt lat="42.88419" lon="0.07478">
        <ele>1998</ele>
        <time>2013-01-01T12:57:48Z</time>
      </trkpt>
      <trkpt lat="42.8842" lon="0.07481">
        <ele>1996</ele>
        <time>2013-01-01T12:57:50Z</time>
      </trkpt>
      <trkpt lat="42.88422" lon="0.07482">
        <ele>1994</ele>
        <time>2013-01-01T12:57:52Z</time>
      </trkpt>
      <trkpt lat="42.88422" lon="0.07485">
        <ele>1993</ele>
        <time>2013-01-01T12:57:53Z</time>
      </trkpt>
      <trkpt lat="42.88423" lon="0.07489">
        <ele>1987</ele>
        <time>2013-01-01T12:58:01Z</time>
      </trkpt>
      <trkpt lat="42.88422" lon="0.0749">
        <ele>1987</ele>
        <time>2013-01-01T12:58:04Z</time>
      </trkpt>
      <trkpt lat="42.8842" lon="0.07485">
        <ele>1987</ele>
        <time>2013-01-01T12:58:05Z</time>
      </trkpt>
      <trkpt lat="42.8842" lon="0.07483">
        <ele>1987</ele>
        <time>2013-01-01T12:58:06Z</time>
      </trkpt>
      <trkpt lat="42.88419" lon="0.07481">
        <ele>1987</ele>
        <time>2013-01-01T12:58:08Z</time>
      </trkpt>
      <trkpt lat="42.88419" lon="0.0748">
        <ele>1989</ele>
        <time>2013-01-01T12:58:10Z</time>
      </trkpt>
      <trkpt lat="42.88419" lon="0.07481">
        <ele>1991</ele>
        <time>2013-01-01T12:58:13Z</time>
      </trkpt>
      <trkpt lat="42.88421" lon="0.07485">
        <ele>1991</ele>
        <time>2013-01-01T12:58:17Z</time>
      </trkpt>
      <trkpt lat="42.8842" lon="0.07486">
        <ele>1991</ele>
        <time>2013-01-01T12:58:20Z</time>
      </trkpt>
      <trkpt lat="42.8842" lon="0.07491">
        <ele>1989</ele>
        <time>2013-01-01T12:58:24Z</time>
      </trkpt>
      <trkpt lat="42.88421" lon="0.07494">
        <ele>1988</ele>
        <time>2013-01-01T12:58:25Z</time>
      </trkpt>
      <trkpt lat="42.88422" lon="0.07496">
        <ele>1986</ele>
        <time>2013-01-01T12:58:27Z</time>
      </trkpt>
      <trkpt lat="42.88423" lon="0.07497">
        <ele>1985</ele>
        <time>2013-01-01T12:58:28Z</time>
      </trkpt>
      <trkpt lat="42.88424" lon="0.07499">
        <ele>1984</ele>
        <time>2013-01-01T12:58:29Z</time>
      </trkpt>
      <trkpt lat="42.88423" lon="0.07497">
        <ele>1983</ele>
        <time>2013-01-01T12:58:31Z</time>
      </trkpt>
      <trkpt lat="42.88422" lon="0.07495">
        <ele>1982</ele>
        <time>2013-01-01T12:58:32Z</time>
      </trkpt>
      <trkpt lat="42.88421" lon="0.07492">
        <ele>1981</ele>
        <time>2013-01-01T12:58:33Z</time>
      </trkpt>
      <trkpt lat="42.8842" lon="0.07491">
        <ele>1981</ele>
        <time>2013-01-01T12:58:36Z</time>
      </trkpt>
      <trkpt lat="42.8842" lon="0.07489">
        <ele>1981</ele>
        <time>2013-01-01T12:58:44Z</time>
      </trkpt>
      <trkpt lat="42.8842" lon="0.07485">
        <ele>1983</ele>
        <time>2013-01-01T12:58:50Z</time>
      </trkpt>
      <trkpt lat="42.8842" lon="0.07483">
        <ele>1985</ele>
        <time>2013-01-01T12:58:54Z</time>
      </trkpt>
      <trkpt lat="42.88419" lon="0.07481">
        <ele>1987</ele>
        <time>2013-01-01T12:58:57Z</time>
      </trkpt>
      <trkpt lat="42.88418" lon="0.07478">
        <ele>1988</ele>
        <time>2013-01-01T12:58:58Z</time>
      </trkpt>
      <trkpt lat="42.88417" lon="0.07475">
        <ele>1990</ele>
        <time>2013-01-01T12:59:00Z</time>
      </trkpt>
      <trkpt lat="42.88419" lon="0.07479">
        <ele>1992</ele>
        <time>2013-01-01T12:59:03Z</time>
      </trkpt>
      <trkpt lat="42.8842" lon="0.07481">
        <ele>1993</ele>
        <time>2013-01-01T12:59:07Z</time>
      </trkpt>
      <trkpt lat="42.8842" lon="0.07483">
        <ele>1993</ele>
        <time>2013-01-01T12:59:08Z</time>
      </trkpt>
      <trkpt lat="42.88421" lon="0.07486">
        <ele>1993</ele>
        <time>2013-01-01T12:59:10Z</time>
      </trkpt>
      <trkpt lat="42.88422" lon="0.07489">
        <ele>1993</ele>
        <time>2013-01-01T12:59:11Z</time>
      </trkpt>
      <trkpt lat="42.88422" lon="0.07491">
        <ele>1993</ele>
        <time>2013-01-01T12:59:12Z</time>
      </trkpt>
      <trkpt lat="42.88422" lon="0.07489">
        <ele>1990</ele>
        <time>2013-01-01T12:59:17Z</time>
      </trkpt>
      <trkpt lat="42.88422" lon="0.07487">
        <ele>1989</ele>
        <time>2013-01-01T12:59:18Z</time>
      </trkpt>
      <trkpt lat="42.88423" lon="0.07489">
        <ele>1988</ele>
        <time>2013-01-01T12:59:19Z</time>
      </trkpt>
      <trkpt lat="42.88425" lon="0.07492">
        <ele>1986</ele>
        <time>2013-01-01T12:59:21Z</time>
      </trkpt>
      <trkpt lat="42.88426" lon="0.07495">
        <ele>1985</ele>
        <time>2013-01-01T12:59:22Z</time>
      </trkpt>
      <trkpt lat="42.88426" lon="0.07493">
        <ele>1984</ele>
        <time>2013-01-01T12:59:25Z</time>
      </trkpt>
      <trkpt lat="42.88427" lon="0.07491">
        <ele>1980</ele>
        <time>2013-01-01T12:59:27Z</time>
      </trkpt>
      <trkpt lat="42.88428" lon="0.07492">
        <ele>1976</ele>
        <time>2013-01-01T12:59:30Z</time>
      </trkpt>
      <trkpt lat="42.88427" lon="0.0749">
        <ele>1973</ele>
        <time>2013-01-01T12:59:32Z</time>
      </trkpt>
      <trkpt lat="42.88427" lon="0.07487">
        <ele>1971</ele>
        <time>2013-01-01T12:59:34Z</time>
      </trkpt>
      <trkpt lat="42.88428" lon="0.07485">
        <ele>1967</ele>
        <time>2013-01-01T12:59:39Z</time>
      </trkpt>
      <trkpt lat="42.88427" lon="0.07483">
        <ele>1966</ele>
        <time>2013-01-01T12:59:41Z</time>
      </trkpt>
      <trkpt lat="42.88427" lon="0.0748">
        <ele>1966</ele>
        <time>2013-01-01T12:59:44Z</time>
      </trkpt>
      <trkpt lat="42.88427" lon="0.07477">
        <ele>1966</ele>
        <time>2013-01-01T12:59:47Z</time>
      </trkpt>
      <trkpt lat="42.88426" lon="0.07474">
        <ele>1967</ele>
        <time>2013-01-01T12:59:49Z</time>
      </trkpt>
      <trkpt lat="42.88425" lon="0.07472">
        <ele>1969</ele>
        <time>2013-01-01T12:59:51Z</time>
      </trkpt>
      <trkpt lat="42.88426" lon="0.07475">
        <ele>1974</ele>
        <time>2013-01-01T12:59:54Z</time>
      </trkpt>
      <trkpt lat="42.88426" lon="0.07478">
        <ele>1975</ele>
        <time>2013-01-01T12:59:57Z</time>
      </trkpt>
      <trkpt lat="42.88424" lon="0.07477">
        <ele>1977</ele>
        <time>2013-01-01T12:59:59Z</time>
      </trkpt>
      <trkpt lat="42.88422" lon="0.07476">
        <ele>1979</ele>
        <time>2013-01-01T13:00:01Z</time>
      </trkpt>
      <trkpt lat="42.88421" lon="0.07478">
        <ele>1980</ele>
        <time>2013-01-01T13:00:02Z</time>
      </trkpt>
      <trkpt lat="42.88422" lon="0.07476">
        <ele>1984</ele>
        <time>2013-01-01T13:00:07Z</time>
      </trkpt>
      <trkpt lat="42.88421" lon="0.07473">
        <ele>1984</ele>
        <time>2013-01-01T13:00:10Z</time>
      </trkpt>
      <trkpt lat="42.8842" lon="0.07472">
        <ele>1984</ele>
        <time>2013-01-01T13:00:11Z</time>
      </trkpt>
      <trkpt lat="42.88419" lon="0.07473">
        <ele>1984</ele>
        <time>2013-01-01T13:00:13Z</time>
      </trkpt>
      <trkpt lat="42.88418" lon="0.07472">
        <ele>1984</ele>
        <time>2013-01-01T13:00:14Z</time>
      </trkpt>
      <trkpt lat="42.88416" lon="0.07471">
        <ele>1984</ele>
        <time>2013-01-01T13:00:16Z</time>
      </trkpt>
      <trkpt lat="42.88415" lon="0.0747">
        <ele>1985</ele>
        <time>2013-01-01T13:00:17Z</time>
      </trkpt>
      <trkpt lat="42.88414" lon="0.07468">
        <ele>1986</ele>
        <time>2013-01-01T13:00:19Z</time>
      </trkpt>
      <trkpt lat="42.88417" lon="0.07499">
        <ele>1986</ele>
        <time>2013-01-01T13:00:32Z</time>
      </trkpt>
      <trkpt lat="42.88417" lon="0.07501">
        <ele>1985</ele>
        <time>2013-01-01T13:00:33Z</time>
      </trkpt>
      <trkpt lat="42.88417" lon="0.07502">
        <ele>1983</ele>
        <time>2013-01-01T13:00:35Z</time>
      </trkpt>
      <trkpt lat="42.88417" lon="0.07501">
        <ele>1981</ele>
        <time>2013-01-01T13:00:36Z</time>
      </trkpt>
      <trkpt lat="42.88416" lon="0.07502">
        <ele>1979</ele>
        <time>2013-01-01T13:00:37Z</time>
      </trkpt>
      <trkpt lat="42.88417" lon="0.07506">
        <ele>1977</ele>
        <time>2013-01-01T13:00:38Z</time>
      </trkpt>
      <trkpt lat="42.88417" lon="0.07507">
        <ele>1976</ele>
        <time>2013-01-01T13:00:39Z</time>
      </trkpt>
      <trkpt lat="42.88417" lon="0.07506">
        <ele>1975</ele>
        <time>2013-01-01T13:00:40Z</time>
      </trkpt>
      <trkpt lat="42.88417" lon="0.07503">
        <ele>1974</ele>
        <time>2013-01-01T13:00:41Z</time>
      </trkpt>
      <trkpt lat="42.88416" lon="0.07499">
        <ele>1972</ele>
        <time>2013-01-01T13:00:43Z</time>
      </trkpt>
      <trkpt lat="42.88416" lon="0.07494">
        <ele>1972</ele>
        <time>2013-01-01T13:00:44Z</time>
      </trkpt>
      <trkpt lat="42.88415" lon="0.07491">
        <ele>1972</ele>
        <time>2013-01-01T13:00:45Z</time>
      </trkpt>
      <trkpt lat="42.88414" lon="0.07487">
        <ele>1973</ele>
        <time>2013-01-01T13:00:46Z</time>
      </trkpt>
      <trkpt lat="42.88414" lon="0.07484">
        <ele>1975</ele>
        <time>2013-01-01T13:00:48Z</time>
      </trkpt>
      <trkpt lat="42.88413" lon="0.0748">
        <ele>1977</ele>
        <time>2013-01-01T13:00:50Z</time>
      </trkpt>
      <trkpt lat="42.88414" lon="0.07479">
        <ele>1980</ele>
        <time>2013-01-01T13:00:58Z</time>
      </trkpt>
      <trkpt lat="42.88413" lon="0.07475">
        <ele>1980</ele>
        <time>2013-01-01T13:00:59Z</time>
      </trkpt>
      <trkpt lat="42.88411" lon="0.07471">
        <ele>1979</ele>
        <time>2013-01-01T13:01:00Z</time>
      </trkpt>
      <trkpt lat="42.88413" lon="0.07476">
        <ele>1979</ele>
        <time>2013-01-01T13:01:01Z</time>
      </trkpt>
      <trkpt lat="42.88415" lon="0.07479">
        <ele>1978</ele>
        <time>2013-01-01T13:01:02Z</time>
      </trkpt>
      <trkpt lat="42.88416" lon="0.07481">
        <ele>1977</ele>
        <time>2013-01-01T13:01:03Z</time>
      </trkpt>
      <trkpt lat="42.88416" lon="0.07478">
        <ele>1976</ele>
        <time>2013-01-01T13:01:05Z</time>
      </trkpt>
      <trkpt lat="42.88415" lon="0.07475">
        <ele>1976</ele>
        <time>2013-01-01T13:01:06Z</time>
      </trkpt>
      <trkpt lat="42.88416" lon="0.07473">
        <ele>1976</ele>
        <time>2013-01-01T13:01:09Z</time>
      </trkpt>
      <trkpt lat="42.88417" lon="0.07474">
        <ele>1976</ele>
        <time>2013-01-01T13:01:12Z</time>
      </trkpt>
      <trkpt lat="42.88418" lon="0.07475">
        <ele>1977</ele>
        <time>2013-01-01T13:01:15Z</time>
      </trkpt>
      <trkpt lat="42.88416" lon="0.07472">
        <ele>1978</ele>
        <time>2013-01-01T13:01:16Z</time>
      </trkpt>
      <trkpt lat="42.88418" lon="0.07479">
        <ele>1982</ele>
        <time>2013-01-01T13:01:19Z</time>
      </trkpt>
      <trkpt lat="42.8842" lon="0.07484">
        <ele>1984</ele>
        <time>2013-01-01T13:01:20Z</time>
      </trkpt>
      <trkpt lat="42.8842" lon="0.07486">
        <ele>1986</ele>
        <time>2013-01-01T13:01:21Z</time>
      </trkpt>
      <trkpt lat="42.88419" lon="0.07484">
        <ele>1989</ele>
        <time>2013-01-01T13:01:24Z</time>
      </trkpt>
      <trkpt lat="42.88418" lon="0.07484">
        <ele>1993</ele>
        <time>2013-01-01T13:01:30Z</time>
      </trkpt>
      <trkpt lat="42.88417" lon="0.07481">
        <ele>1994</ele>
        <time>2013-01-01T13:01:32Z</time>
      </trkpt>
      <trkpt lat="42.88417" lon="0.0748">
        <ele>1995</ele>
        <time>2013-01-01T13:01:33Z</time>
      </trkpt>
      <trkpt lat="42.88416" lon="0.07478">
        <ele>1997</ele>
        <time>2013-01-01T13:01:35Z</time>
      </trkpt>
      <trkpt lat="42.88417" lon="0.07481">
        <ele>1997</ele>
        <time>2013-01-01T13:01:37Z</time>
      </trkpt>
      <trkpt lat="42.88416" lon="0.07479">
        <ele>1997</ele>
        <time>2013-01-01T13:01:39Z</time>
      </trkpt>
      <trkpt lat="42.88416" lon="0.07478">
        <ele>1997</ele>
        <time>2013-01-01T13:01:40Z</time>
      </trkpt>
      <trkpt lat="42.88416" lon="0.07476">
        <ele>1997</ele>
        <time>2013-01-01T13:01:41Z</time>
      </trkpt>
      <trkpt lat="42.88415" lon="0.07475">
        <ele>1997</ele>
        <time>2013-01-01T13:01:42Z</time>
      </trkpt>
      <trkpt lat="42.88415" lon="0.07473">
        <ele>1997</ele>
        <time>2013-01-01T13:01:44Z</time>
      </trkpt>
      <trkpt lat="42.88415" lon="0.07475">
        <ele>1997</ele>
        <time>2013-01-01T13:01:45Z</time>
      </trkpt>
      <trkpt lat="42.88414" lon="0.07474">
        <ele>1997</ele>
        <time>2013-01-01T13:01:47Z</time>
      </trkpt>
      <trkpt lat="42.88415" lon="0.07476">
        <ele>1999</ele>
        <time>2013-01-01T13:01:50Z</time>
      </trkpt>
      <trkpt lat="42.88416" lon="0.07478">
        <ele>1999</ele>
        <time>2013-01-01T13:01:53Z</time>
      </trkpt>
      <trkpt lat="42.88416" lon="0.07475">
        <ele>1999</ele>
        <time>2013-01-01T13:01:58Z</time>
      </trkpt>
      <trkpt lat="42.88417" lon="0.07476">
        <ele>1999</ele>
        <time>2013-01-01T13:02:00Z</time>
      </trkpt>
      <trkpt lat="42.88417" lon="0.07479">
        <ele>1999</ele>
        <time>2013-01-01T13:02:01Z</time>
      </trkpt>
      <trkpt lat="42.88418" lon="0.07481">
        <ele>1999</ele>
        <time>2013-01-01T13:02:06Z</time>
      </trkpt>
      <trkpt lat="42.88418" lon="0.07484">
        <ele>1999</ele>
        <time>2013-01-01T13:02:11Z</time>
      </trkpt>
      <trkpt lat="42.88418" lon="0.07486">
        <ele>2000</ele>
        <time>2013-01-01T13:02:15Z</time>
      </trkpt>
      <trkpt lat="42.88418" lon="0.07484">
        <ele>2001</ele>
        <time>2013-01-01T13:02:17Z</time>
      </trkpt>
      <trkpt lat="42.88417" lon="0.07482">
        <ele>2002</ele>
        <time>2013-01-01T13:02:20Z</time>
      </trkpt>
      <trkpt lat="42.88416" lon="0.0748">
        <ele>2002</ele>
        <time>2013-01-01T13:02:21Z</time>
      </trkpt>
      <trkpt lat="42.88416" lon="0.07478">
        <ele>2002</ele>
        <time>2013-01-01T13:02:28Z</time>
      </trkpt>
      <trkpt lat="42.88414" lon="0.07474">
        <ele>2002</ele>
        <time>2013-01-01T13:02:31Z</time>
      </trkpt>
      <trkpt lat="42.88413" lon="0.0747">
        <ele>2003</ele>
        <time>2013-01-01T13:02:32Z</time>
      </trkpt>
      <trkpt lat="42.88412" lon="0.07465">
        <ele>2003</ele>
        <time>2013-01-01T13:02:33Z</time>
      </trkpt>
      <trkpt lat="42.88411" lon="0.07463">
        <ele>2003</ele>
        <time>2013-01-01T13:02:34Z</time>
      </trkpt>
      <trkpt lat="42.88411" lon="0.07461">
        <ele>2003</ele>
        <time>2013-01-01T13:02:35Z</time>
      </trkpt>
      <trkpt lat="42.8841" lon="0.07459">
        <ele>2003</ele>
        <time>2013-01-01T13:02:36Z</time>
      </trkpt>
      <trkpt lat="42.88409" lon="0.07457">
        <ele>2003</ele>
        <time>2013-01-01T13:02:37Z</time>
      </trkpt>
      <trkpt lat="42.88408" lon="0.07454">
        <ele>2006</ele>
        <time>2013-01-01T13:02:43Z</time>
      </trkpt>
      <trkpt lat="42.88409" lon="0.07459">
        <ele>2006</ele>
        <time>2013-01-01T13:02:45Z</time>
      </trkpt>
      <trkpt lat="42.88412" lon="0.07464">
        <ele>2006</ele>
        <time>2013-01-01T13:02:50Z</time>
      </trkpt>
      <trkpt lat="42.88414" lon="0.07458">
        <ele>2006</ele>
        <time>2013-01-01T13:02:52Z</time>
      </trkpt>
      <trkpt lat="42.88415" lon="0.0746">
        <ele>2006</ele>
        <time>2013-01-01T13:02:53Z</time>
      </trkpt>
      <trkpt lat="42.88416" lon="0.07463">
        <ele>2006</ele>
        <time>2013-01-01T13:02:54Z</time>
      </trkpt>
      <trkpt lat="42.88415" lon="0.07468">
        <ele>2006</ele>
        <time>2013-01-01T13:02:55Z</time>
      </trkpt>
      <trkpt lat="42.88416" lon="0.07474">
        <ele>2005</ele>
        <time>2013-01-01T13:03:00Z</time>
      </trkpt>
      <trkpt lat="42.88416" lon="0.07477">
        <ele>2004</ele>
        <time>2013-01-01T13:03:01Z</time>
      </trkpt>
      <trkpt lat="42.88416" lon="0.0748">
        <ele>2003</ele>
        <time>2013-01-01T13:03:02Z</time>
      </trkpt>
      <trkpt lat="42.88414" lon="0.07491">
        <ele>2001</ele>
        <time>2013-01-01T13:03:08Z</time>
      </trkpt>
      <trkpt lat="42.88416" lon="0.07493">
        <ele>1999</ele>
        <time>2013-01-01T13:03:09Z</time>
      </trkpt>
      <trkpt lat="42.88417" lon="0.07497">
        <ele>1997</ele>
        <time>2013-01-01T13:03:10Z</time>
      </trkpt>
      <trkpt lat="42.88423" lon="0.07479">
        <ele>1995</ele>
        <time>2013-01-01T13:03:22Z</time>
      </trkpt>
      <trkpt lat="42.88423" lon="0.07475">
        <ele>1991</ele>
        <time>2013-01-01T13:03:26Z</time>
      </trkpt>
      <trkpt lat="42.88422" lon="0.07477">
        <ele>1990</ele>
        <time>2013-01-01T13:03:27Z</time>
      </trkpt>
      <trkpt lat="42.88421" lon="0.07475">
        <ele>1989</ele>
        <time>2013-01-01T13:03:28Z</time>
      </trkpt>
      <trkpt lat="42.88422" lon="0.07483">
        <ele>1988</ele>
        <time>2013-01-01T13:03:35Z</time>
      </trkpt>
      <trkpt lat="42.88422" lon="0.07482">
        <ele>1988</ele>
        <time>2013-01-01T13:03:36Z</time>
      </trkpt>
      <trkpt lat="42.88422" lon="0.0748">
        <ele>1988</ele>
        <time>2013-01-01T13:03:38Z</time>
      </trkpt>
      <trkpt lat="42.88419" lon="0.07478">
        <ele>1988</ele>
        <time>2013-01-01T13:03:39Z</time>
      </trkpt>
      <trkpt lat="42.88419" lon="0.07479">
        <ele>1989</ele>
        <time>2013-01-01T13:03:40Z</time>
      </trkpt>
      <trkpt lat="42.88419" lon="0.07481">
        <ele>1991</ele>
        <time>2013-01-01T13:03:42Z</time>
      </trkpt>
      <trkpt lat="42.88418" lon="0.07479">
        <ele>1993</ele>
        <time>2013-01-01T13:03:44Z</time>
      </trkpt>
      <trkpt lat="42.88418" lon="0.07477">
        <ele>1994</ele>
        <time>2013-01-01T13:03:45Z</time>
      </trkpt>
      <trkpt lat="42.88417" lon="0.07475">
        <ele>1995</ele>
        <time>2013-01-01T13:03:46Z</time>
      </trkpt>
      <trkpt lat="42.88417" lon="0.07473">
        <ele>1996</ele>
        <time>2013-01-01T13:03:47Z</time>
      </trkpt>
      <trkpt lat="42.88415" lon="0.0747">
        <ele>1998</ele>
        <time>2013-01-01T13:03:49Z</time>
      </trkpt>
      <trkpt lat="42.88414" lon="0.07466">
        <ele>1999</ele>
        <time>2013-01-01T13:03:53Z</time>
      </trkpt>
      <trkpt lat="42.88414" lon="0.07467">
        <ele>2000</ele>
        <time>2013-01-01T13:03:54Z</time>
      </trkpt>
      <trkpt lat="42.88416" lon="0.07467">
        <ele>2002</ele>
        <time>2013-01-01T13:03:57Z</time>
      </trkpt>
      <trkpt lat="42.88416" lon="0.07469">
        <ele>2002</ele>
        <time>2013-01-01T13:04:01Z</time>
      </trkpt>
      <trkpt lat="42.88416" lon="0.07471">
        <ele>2002</ele>
        <time>2013-01-01T13:04:03Z</time>
      </trkpt>
      <trkpt lat="42.88417" lon="0.0747">
        <ele>2000</ele>
        <time>2013-01-01T13:04:06Z</time>
      </trkpt>
      <trkpt lat="42.88416" lon="0.07468">
        <ele>1996</ele>
        <time>2013-01-01T13:04:10Z</time>
      </trkpt>
      <trkpt lat="42.88415" lon="0.07464">
        <ele>1994</ele>
        <time>2013-01-01T13:04:12Z</time>
      </trkpt>
      <trkpt lat="42.88413" lon="0.07459">
        <ele>1994</ele>
        <time>2013-01-01T13:04:13Z</time>
      </trkpt>
      <trkpt lat="42.88414" lon="0.07464">
        <ele>1994</ele>
        <time>2013-01-01T13:04:17Z</time>
      </trkpt>
      <trkpt lat="42.88415" lon="0.07467">
        <ele>1994</ele>
        <time>2013-01-01T13:04:18Z</time>
      </trkpt>
      <trkpt lat="42.88416" lon="0.0747">
        <ele>1994</ele>
        <time>2013-01-01T13:04:19Z</time>
      </trkpt>
      <trkpt lat="42.88417" lon="0.07471">
        <ele>1994</ele>
        <time>2013-01-01T13:04:22Z</time>
      </trkpt>
      <trkpt lat="42.88418" lon="0.07473">
        <ele>1994</ele>
        <time>2013-01-01T13:04:24Z</time>
      </trkpt>
      <trkpt lat="42.88419" lon="0.07477">
        <ele>1994</ele>
        <time>2013-01-01T13:04:25Z</time>
      </trkpt>
      <trkpt lat="42.88419" lon="0.07479">
        <ele>1994</ele>
        <time>2013-01-01T13:04:27Z</time>
      </trkpt>
      <trkpt lat="42.8842" lon="0.0748">
        <ele>1994</ele>
        <time>2013-01-01T13:04:28Z</time>
      </trkpt>
      <trkpt lat="42.88421" lon="0.07481">
        <ele>1993</ele>
        <time>2013-01-01T13:04:31Z</time>
      </trkpt>
      <trkpt lat="42.88425" lon="0.07485">
        <ele>1993</ele>
        <time>2013-01-01T13:04:37Z</time>
      </trkpt>
      <trkpt lat="42.88424" lon="0.07482">
        <ele>1993</ele>
        <time>2013-01-01T13:04:38Z</time>
      </trkpt>
      <trkpt lat="42.88425" lon="0.07485">
        <ele>1993</ele>
        <time>2013-01-01T13:04:39Z</time>
      </trkpt>
      <trkpt lat="42.88424" lon="0.07486">
        <ele>1993</ele>
        <time>2013-01-01T13:04:43Z</time>
      </trkpt>
      <trkpt lat="42.88422" lon="0.07482">
        <ele>1993</ele>
        <time>2013-01-01T13:04:45Z</time>
      </trkpt>
      <trkpt lat="42.88421" lon="0.0748">
        <ele>1993</ele>
        <time>2013-01-01T13:04:47Z</time>
      </trkpt>
      <trkpt lat="42.88421" lon="0.07478">
        <ele>1993</ele>
        <time>2013-01-01T13:04:52Z</time>
      </trkpt>
      <trkpt lat="42.88419" lon="0.07473">
        <ele>1992</ele>
        <time>2013-01-01T13:04:56Z</time>
      </trkpt>
      <trkpt lat="42.88417" lon="0.07468">
        <ele>1992</ele>
        <time>2013-01-01T13:04:58Z</time>
      </trkpt>
      <trkpt lat="42.88417" lon="0.07466">
        <ele>1992</ele>
        <time>2013-01-01T13:04:59Z</time>
      </trkpt>
      <trkpt lat="42.88416" lon="0.07464">
        <ele>1992</ele>
        <time>2013-01-01T13:05:00Z</time>
      </trkpt>
      <trkpt lat="42.88414" lon="0.0746">
        <ele>1993</ele>
        <time>2013-01-01T13:05:03Z</time>
      </trkpt>
      <trkpt lat="42.88413" lon="0.07463">
        <ele>1994</ele>
        <time>2013-01-01T13:05:10Z</time>
      </trkpt>
      <trkpt lat="42.88412" lon="0.07461">
        <ele>1994</ele>
        <time>2013-01-01T13:05:11Z</time>
      </trkpt>
      <trkpt lat="42.88412" lon="0.07459">
        <ele>1994</ele>
        <time>2013-01-01T13:05:12Z</time>
      </trkpt>
      <trkpt lat="42.88412" lon="0.07457">
        <ele>1994</ele>
        <time>2013-01-01T13:05:13Z</time>
      </trkpt>
      <trkpt lat="42.88411" lon="0.07454">
        <ele>1994</ele>
        <time>2013-01-01T13:05:14Z</time>
      </trkpt>
      <trkpt lat="42.88411" lon="0.07451">
        <ele>1994</ele>
        <time>2013-01-01T13:05:15Z</time>
      </trkpt>
      <trkpt lat="42.88411" lon="0.07449">
        <ele>1994</ele>
        <time>2013-01-01T13:05:16Z</time>
      </trkpt>
      <trkpt lat="42.88411" lon="0.07446">
        <ele>1993</ele>
        <time>2013-01-01T13:05:18Z</time>
      </trkpt>
      <trkpt lat="42.8841" lon="0.07444">
        <ele>1992</ele>
        <time>2013-01-01T13:05:19Z</time>
      </trkpt>
      <trkpt lat="42.88409" lon="0.07441">
        <ele>1991</ele>
        <time>2013-01-01T13:05:21Z</time>
      </trkpt>
      <trkpt lat="42.88412" lon="0.07449">
        <ele>1989</ele>
        <time>2013-01-01T13:05:23Z</time>
      </trkpt>
      <trkpt lat="42.88415" lon="0.07456">
        <ele>1987</ele>
        <time>2013-01-01T13:05:26Z</time>
      </trkpt>
      <trkpt lat="42.88417" lon="0.07462">
        <ele>1985</ele>
        <time>2013-01-01T13:05:27Z</time>
      </trkpt>
      <trkpt lat="42.88417" lon="0.07464">
        <ele>1982</ele>
        <time>2013-01-01T13:05:29Z</time>
      </trkpt>
      <trkpt lat="42.88416" lon="0.07463">
        <ele>1978</ele>
        <time>2013-01-01T13:05:36Z</time>
      </trkpt>
      <trkpt lat="42.88416" lon="0.07464">
        <ele>1977</ele>
        <time>2013-01-01T13:05:37Z</time>
      </trkpt>
      <trkpt lat="42.88415" lon="0.07461">
        <ele>1976</ele>
        <time>2013-01-01T13:05:40Z</time>
      </trkpt>
      <trkpt lat="42.88415" lon="0.07463">
        <ele>1976</ele>
        <time>2013-01-01T13:05:41Z</time>
      </trkpt>
      <trkpt lat="42.88416" lon="0.07464">
        <ele>1976</ele>
        <time>2013-01-01T13:05:48Z</time>
      </trkpt>
      <trkpt lat="42.88417" lon="0.07466">
        <ele>1978</ele>
        <time>2013-01-01T13:05:52Z</time>
      </trkpt>
      <trkpt lat="42.88416" lon="0.07464">
        <ele>1979</ele>
        <time>2013-01-01T13:05:53Z</time>
      </trkpt>
      <trkpt lat="42.88416" lon="0.07466">
        <ele>1980</ele>
        <time>2013-01-01T13:05:55Z</time>
      </trkpt>
      <trkpt lat="42.88416" lon="0.07464">
        <ele>1981</ele>
        <time>2013-01-01T13:05:58Z</time>
      </trkpt>
      <trkpt lat="42.88416" lon="0.07467">
        <ele>1983</ele>
        <time>2013-01-01T13:06:02Z</time>
      </trkpt>
      <trkpt lat="42.88417" lon="0.07468">
        <ele>1984</ele>
        <time>2013-01-01T13:06:05Z</time>
      </trkpt>
      <trkpt lat="42.88417" lon="0.0747">
        <ele>1984</ele>
        <time>2013-01-01T13:06:07Z</time>
      </trkpt>
      <trkpt lat="42.88417" lon="0.07468">
        <ele>1985</ele>
        <time>2013-01-01T13:06:17Z</time>
      </trkpt>
      <trkpt lat="42.88418" lon="0.0747">
        <ele>1986</ele>
        <time>2013-01-01T13:06:19Z</time>
      </trkpt>
      <trkpt lat="42.88419" lon="0.07473">
        <ele>1986</ele>
        <time>2013-01-01T13:06:20Z</time>
      </trkpt>
      <trkpt lat="42.8842" lon="0.07476">
        <ele>1986</ele>
        <time>2013-01-01T13:06:21Z</time>
      </trkpt>
      <trkpt lat="42.8842" lon="0.07478">
        <ele>1986</ele>
        <time>2013-01-01T13:06:23Z</time>
      </trkpt>
      <trkpt lat="42.88419" lon="0.07475">
        <ele>1986</ele>
        <time>2013-01-01T13:06:25Z</time>
      </trkpt>
      <trkpt lat="42.88418" lon="0.07473">
        <ele>1987</ele>
        <time>2013-01-01T13:06:27Z</time>
      </trkpt>
      <trkpt lat="42.88418" lon="0.07471">
        <ele>1988</ele>
        <time>2013-01-01T13:06:28Z</time>
      </trkpt>
      <trkpt lat="42.88418" lon="0.07473">
        <ele>1988</ele>
        <time>2013-01-01T13:06:29Z</time>
      </trkpt>
      <trkpt lat="42.88419" lon="0.07475">
        <ele>1989</ele>
        <time>2013-01-01T13:06:33Z</time>
      </trkpt>
      <trkpt lat="42.88418" lon="0.07473">
        <ele>1989</ele>
        <time>2013-01-01T13:06:35Z</time>
      </trkpt>
      <trkpt lat="42.88417" lon="0.07472">
        <ele>1990</ele>
        <time>2013-01-01T13:06:36Z</time>
      </trkpt>
      <trkpt lat="42.88416" lon="0.07468">
        <ele>1991</ele>
        <time>2013-01-01T13:06:39Z</time>
      </trkpt>
      <trkpt lat="42.88416" lon="0.07466">
        <ele>1991</ele>
        <time>2013-01-01T13:06:40Z</time>
      </trkpt>
      <trkpt lat="42.88417" lon="0.0747">
        <ele>1991</ele>
        <time>2013-01-01T13:06:46Z</time>
      </trkpt>
      <trkpt lat="42.88417" lon="0.07472">
        <ele>1991</ele>
        <time>2013-01-01T13:06:48Z</time>
      </trkpt>
      <trkpt lat="42.88416" lon="0.0747">
        <ele>1991</ele>
        <time>2013-01-01T13:06:53Z</time>
      </trkpt>
      <trkpt lat="42.88416" lon="0.07468">
        <ele>1992</ele>
        <time>2013-01-01T13:06:54Z</time>
      </trkpt>
      <trkpt lat="42.88415" lon="0.07467">
        <ele>1992</ele>
        <time>2013-01-01T13:06:55Z</time>
      </trkpt>
      <trkpt lat="42.88416" lon="0.07468">
        <ele>1992</ele>
        <time>2013-01-01T13:06:56Z</time>
      </trkpt>
      <trkpt lat="42.88416" lon="0.07472">
        <ele>1992</ele>
        <time>2013-01-01T13:06:58Z</time>
      </trkpt>
      <trkpt lat="42.88417" lon="0.07474">
        <ele>1992</ele>
        <time>2013-01-01T13:06:59Z</time>
      </trkpt>
      <trkpt lat="42.88417" lon="0.07475">
        <ele>1992</ele>
        <time>2013-01-01T13:07:01Z</time>
      </trkpt>
      <trkpt lat="42.88418" lon="0.07477">
        <ele>1992</ele>
        <time>2013-01-01T13:07:05Z</time>
      </trkpt>
      <trkpt lat="42.88418" lon="0.0748">
        <ele>1990</ele>
        <time>2013-01-01T13:07:08Z</time>
      </trkpt>
      <trkpt lat="42.88418" lon="0.07485">
        <ele>1988</ele>
        <time>2013-01-01T13:07:18Z</time>
      </trkpt>
      <trkpt lat="42.88419" lon="0.07488">
        <ele>1988</ele>
        <time>2013-01-01T13:07:19Z</time>
      </trkpt>
      <trkpt lat="42.88417" lon="0.07483">
        <ele>1988</ele>
        <time>2013-01-01T13:07:21Z</time>
      </trkpt>
      <trkpt lat="42.88416" lon="0.0748">
        <ele>1988</ele>
        <time>2013-01-01T13:07:22Z</time>
      </trkpt>
      <trkpt lat="42.88416" lon="0.07479">
        <ele>1988</ele>
        <time>2013-01-01T13:07:23Z</time>
      </trkpt>
      <trkpt lat="42.88403" lon="0.07444">
        <ele>1988</ele>
        <time>2013-01-01T13:07:42Z</time>
      </trkpt>
      <trkpt lat="42.88403" lon="0.0744">
        <ele>1988</ele>
        <time>2013-01-01T13:07:43Z</time>
      </trkpt>
      <trkpt lat="42.88404" lon="0.07445">
        <ele>1987</ele>
        <time>2013-01-01T13:07:44Z</time>
      </trkpt>
      <trkpt lat="42.88403" lon="0.07439">
        <ele>1986</ele>
        <time>2013-01-01T13:07:45Z</time>
      </trkpt>
      <trkpt lat="42.88404" lon="0.07443">
        <ele>1983</ele>
        <time>2013-01-01T13:07:48Z</time>
      </trkpt>
      <trkpt lat="42.88407" lon="0.07446">
        <ele>1981</ele>
        <time>2013-01-01T13:07:53Z</time>
      </trkpt>
      <trkpt lat="42.88407" lon="0.07452">
        <ele>1980</ele>
        <time>2013-01-01T13:07:56Z</time>
      </trkpt>
      <trkpt lat="42.88407" lon="0.0745">
        <ele>1978</ele>
        <time>2013-01-01T13:07:58Z</time>
      </trkpt>
      <trkpt lat="42.88407" lon="0.07447">
        <ele>1976</ele>
        <time>2013-01-01T13:08:01Z</time>
      </trkpt>
      <trkpt lat="42.88407" lon="0.07448">
        <ele>1975</ele>
        <time>2013-01-01T13:08:02Z</time>
      </trkpt>
      <trkpt lat="42.88408" lon="0.0745">
        <ele>1973</ele>
        <time>2013-01-01T13:08:04Z</time>
      </trkpt>
      <trkpt lat="42.88408" lon="0.07453">
        <ele>1971</ele>
        <time>2013-01-01T13:08:06Z</time>
      </trkpt>
      <trkpt lat="42.8841" lon="0.07456">
        <ele>1968</ele>
        <time>2013-01-01T13:08:11Z</time>
      </trkpt>
      <trkpt lat="42.8841" lon="0.07458">
        <ele>1968</ele>
        <time>2013-01-01T13:08:13Z</time>
      </trkpt>
      <trkpt lat="42.8841" lon="0.07456">
        <ele>1968</ele>
        <time>2013-01-01T13:08:19Z</time>
      </trkpt>
      <trkpt lat="42.88409" lon="0.07453">
        <ele>1977</ele>
        <time>2013-01-01T13:08:29Z</time>
      </trkpt>
      <trkpt lat="42.88409" lon="0.07455">
        <ele>1979</ele>
        <time>2013-01-01T13:08:31Z</time>
      </trkpt>
      <trkpt lat="42.8841" lon="0.07457">
        <ele>1980</ele>
        <time>2013-01-01T13:08:32Z</time>
      </trkpt>
      <trkpt lat="42.88411" lon="0.0746">
        <ele>1981</ele>
        <time>2013-01-01T13:08:37Z</time>
      </trkpt>
      <trkpt lat="42.88411" lon="0.07462">
        <ele>1981</ele>
        <time>2013-01-01T13:08:38Z</time>
      </trkpt>
      <trkpt lat="42.88411" lon="0.07464">
        <ele>1981</ele>
        <time>2013-01-01T13:08:39Z</time>
      </trkpt>
      <trkpt lat="42.88412" lon="0.07467">
        <ele>1981</ele>
        <time>2013-01-01T13:08:40Z</time>
      </trkpt>
      <trkpt lat="42.88413" lon="0.07469">
        <ele>1981</ele>
        <time>2013-01-01T13:08:41Z</time>
      </trkpt>
      <trkpt lat="42.88413" lon="0.07471">
        <ele>1981</ele>
        <time>2013-01-01T13:08:42Z</time>
      </trkpt>
      <trkpt lat="42.88413" lon="0.07469">
        <ele>1979</ele>
        <time>2013-01-01T13:08:45Z</time>
      </trkpt>
      <trkpt lat="42.88413" lon="0.07467">
        <ele>1979</ele>
        <time>2013-01-01T13:08:47Z</time>
      </trkpt>
      <trkpt lat="42.88414" lon="0.07469">
        <ele>1979</ele>
        <time>2013-01-01T13:08:50Z</time>
      </trkpt>
      <trkpt lat="42.88412" lon="0.07469">
        <ele>1979</ele>
        <time>2013-01-01T13:08:53Z</time>
      </trkpt>
      <trkpt lat="42.8841" lon="0.07467">
        <ele>1980</ele>
        <time>2013-01-01T13:08:59Z</time>
      </trkpt>
      <trkpt lat="42.8841" lon="0.07469">
        <ele>1981</ele>
        <time>2013-01-01T13:09:02Z</time>
      </trkpt>
      <trkpt lat="42.88411" lon="0.0747">
        <ele>1983</ele>
        <time>2013-01-01T13:09:04Z</time>
      </trkpt>
      <trkpt lat="42.88411" lon="0.07472">
        <ele>1984</ele>
        <time>2013-01-01T13:09:05Z</time>
      </trkpt>
      <trkpt lat="42.88412" lon="0.0747">
        <ele>1986</ele>
        <time>2013-01-01T13:09:10Z</time>
      </trkpt>
      <trkpt lat="42.88412" lon="0.07467">
        <ele>1986</ele>
        <time>2013-01-01T13:09:11Z</time>
      </trkpt>
      <trkpt lat="42.88411" lon="0.07464">
        <ele>1986</ele>
        <time>2013-01-01T13:09:12Z</time>
      </trkpt>
      <trkpt lat="42.8841" lon="0.07462">
        <ele>1986</ele>
        <time>2013-01-01T13:09:14Z</time>
      </trkpt>
      <trkpt lat="42.8841" lon="0.07461">
        <ele>1986</ele>
        <time>2013-01-01T13:09:15Z</time>
      </trkpt>
      <trkpt lat="42.88409" lon="0.07459">
        <ele>1986</ele>
        <time>2013-01-01T13:09:17Z</time>
      </trkpt>
      <trkpt lat="42.88409" lon="0.07457">
        <ele>1986</ele>
        <time>2013-01-01T13:09:19Z</time>
      </trkpt>
      <trkpt lat="42.88409" lon="0.07456">
        <ele>1986</ele>
        <time>2013-01-01T13:09:20Z</time>
      </trkpt>
      <trkpt lat="42.8841" lon="0.07456">
        <ele>1991</ele>
        <time>2013-01-01T13:09:28Z</time>
      </trkpt>
      <trkpt lat="42.8841" lon="0.07454">
        <ele>1995</ele>
        <time>2013-01-01T13:09:34Z</time>
      </trkpt>
      <trkpt lat="42.88409" lon="0.07454">
        <ele>1995</ele>
        <time>2013-01-01T13:09:36Z</time>
      </trkpt>
      <trkpt lat="42.88408" lon="0.07452">
        <ele>1995</ele>
        <time>2013-01-01T13:09:39Z</time>
      </trkpt>
      <trkpt lat="42.88408" lon="0.07454">
        <ele>1997</ele>
        <time>2013-01-01T13:09:45Z</time>
      </trkpt>
      <trkpt lat="42.88408" lon="0.07456">
        <ele>1998</ele>
        <time>2013-01-01T13:09:46Z</time>
      </trkpt>
      <trkpt lat="42.88408" lon="0.07457">
        <ele>1998</ele>
        <time>2013-01-01T13:09:49Z</time>
      </trkpt>
      <trkpt lat="42.88406" lon="0.07457">
        <ele>1998</ele>
        <time>2013-01-01T13:09:55Z</time>
      </trkpt>
      <trkpt lat="42.88405" lon="0.07459">
        <ele>1998</ele>
        <time>2013-01-01T13:09:57Z</time>
      </trkpt>
      <trkpt lat="42.88404" lon="0.07461">
        <ele>1998</ele>
        <time>2013-01-01T13:09:59Z</time>
      </trkpt>
      <trkpt lat="42.88403" lon="0.07459">
        <ele>2005</ele>
        <time>2013-01-01T13:10:09Z</time>
      </trkpt>
      <trkpt lat="42.88403" lon="0.07458">
        <ele>2006</ele>
        <time>2013-01-01T13:10:10Z</time>
      </trkpt>
      <trkpt lat="42.88403" lon="0.07456">
        <ele>2007</ele>
        <time>2013-01-01T13:10:11Z</time>
      </trkpt>
      <trkpt lat="42.88403" lon="0.07454">
        <ele>2009</ele>
        <time>2013-01-01T13:10:13Z</time>
      </trkpt>
      <trkpt lat="42.88403" lon="0.07453">
        <ele>2012</ele>
        <time>2013-01-01T13:10:16Z</time>
      </trkpt>
      <trkpt lat="42.88404" lon="0.07452">
        <ele>2015</ele>
        <time>2013-01-01T13:10:19Z</time>
      </trkpt>
      <trkpt lat="42.88405" lon="0.07451">
        <ele>2017</ele>
        <time>2013-01-01T13:10:22Z</time>
      </trkpt>
      <trkpt lat="42.88405" lon="0.07449">
        <ele>2018</ele>
        <time>2013-01-01T13:10:23Z</time>
      </trkpt>
      <trkpt lat="42.88404" lon="0.07451">
        <ele>2020</ele>
        <time>2013-01-01T13:10:27Z</time>
      </trkpt>
      <trkpt lat="42.88403" lon="0.07454">
        <ele>2020</ele>
        <time>2013-01-01T13:10:29Z</time>
      </trkpt>
      <trkpt lat="42.88403" lon="0.07457">
        <ele>2020</ele>
        <time>2013-01-01T13:10:31Z</time>
      </trkpt>
      <trkpt lat="42.88401" lon="0.07455">
        <ele>2020</ele>
        <time>2013-01-01T13:10:34Z</time>
      </trkpt>
      <trkpt lat="42.88401" lon="0.07453">
        <ele>2020</ele>
        <time>2013-01-01T13:10:36Z</time>
      </trkpt>
      <trkpt lat="42.88402" lon="0.07452">
        <ele>2020</ele>
        <time>2013-01-01T13:10:38Z</time>
      </trkpt>
      <trkpt lat="42.88403" lon="0.07451">
        <ele>2019</ele>
        <time>2013-01-01T13:10:41Z</time>
      </trkpt>
      <trkpt lat="42.88403" lon="0.07449">
        <ele>2018</ele>
        <time>2013-01-01T13:10:43Z</time>
      </trkpt>
      <trkpt lat="42.88404" lon="0.07448">
        <ele>2016</ele>
        <time>2013-01-01T13:10:45Z</time>
      </trkpt>
      <trkpt lat="42.88405" lon="0.07446">
        <ele>2015</ele>
        <time>2013-01-01T13:10:48Z</time>
      </trkpt>
      <trkpt lat="42.88403" lon="0.07444">
        <ele>2015</ele>
        <time>2013-01-01T13:10:51Z</time>
      </trkpt>
      <trkpt lat="42.88404" lon="0.07448">
        <ele>2015</ele>
        <time>2013-01-01T13:10:57Z</time>
      </trkpt>
      <trkpt lat="42.88405" lon="0.07451">
        <ele>2015</ele>
        <time>2013-01-01T13:10:58Z</time>
      </trkpt>
      <trkpt lat="42.88405" lon="0.07452">
        <ele>2015</ele>
        <time>2013-01-01T13:10:59Z</time>
      </trkpt>
      <trkpt lat="42.88405" lon="0.07451">
        <ele>2015</ele>
        <time>2013-01-01T13:11:01Z</time>
      </trkpt>
      <trkpt lat="42.88406" lon="0.07451">
        <ele>2015</ele>
        <time>2013-01-01T13:11:09Z</time>
      </trkpt>
      <trkpt lat="42.88407" lon="0.07453">
        <ele>2015</ele>
        <time>2013-01-01T13:11:13Z</time>
      </trkpt>
      <trkpt lat="42.88407" lon="0.07456">
        <ele>2015</ele>
        <time>2013-01-01T13:11:15Z</time>
      </trkpt>
      <trkpt lat="42.88407" lon="0.07458">
        <ele>2015</ele>
        <time>2013-01-01T13:11:17Z</time>
      </trkpt>
      <trkpt lat="42.88407" lon="0.07461">
        <ele>2013</ele>
        <time>2013-01-01T13:11:19Z</time>
      </trkpt>
      <trkpt lat="42.88408" lon="0.07462">
        <ele>2013</ele>
        <time>2013-01-01T13:11:20Z</time>
      </trkpt>
      <trkpt lat="42.88408" lon="0.07464">
        <ele>2012</ele>
        <time>2013-01-01T13:11:21Z</time>
      </trkpt>
      <trkpt lat="42.88406" lon="0.07465">
        <ele>2009</ele>
        <time>2013-01-01T13:11:28Z</time>
      </trkpt>
      <trkpt lat="42.88405" lon="0.07465">
        <ele>2009</ele>
        <time>2013-01-01T13:11:30Z</time>
      </trkpt>
      <trkpt lat="42.88404" lon="0.07463">
        <ele>2009</ele>
        <time>2013-01-01T13:11:31Z</time>
      </trkpt>
      <trkpt lat="42.88403" lon="0.07462">
        <ele>2009</ele>
        <time>2013-01-01T13:11:33Z</time>
      </trkpt>
      <trkpt lat="42.88404" lon="0.07459">
        <ele>2009</ele>
        <time>2013-01-01T13:11:34Z</time>
      </trkpt>
      <trkpt lat="42.88404" lon="0.07457">
        <ele>2009</ele>
        <time>2013-01-01T13:11:35Z</time>
      </trkpt>
      <trkpt lat="42.88405" lon="0.07455">
        <ele>2013</ele>
        <time>2013-01-01T13:11:39Z</time>
      </trkpt>
      <trkpt lat="42.88406" lon="0.07453">
        <ele>2015</ele>
        <time>2013-01-01T13:11:43Z</time>
      </trkpt>
      <trkpt lat="42.88406" lon="0.07451">
        <ele>2016</ele>
        <time>2013-01-01T13:11:46Z</time>
      </trkpt>
      <trkpt lat="42.88406" lon="0.0745">
        <ele>2018</ele>
        <time>2013-01-01T13:11:50Z</time>
      </trkpt>
      <trkpt lat="42.88407" lon="0.07448">
        <ele>2019</ele>
        <time>2013-01-01T13:11:55Z</time>
      </trkpt>
      <trkpt lat="42.88406" lon="0.07446">
        <ele>2021</ele>
        <time>2013-01-01T13:11:58Z</time>
      </trkpt>
      <trkpt lat="42.88407" lon="0.07444">
        <ele>2025</ele>
        <time>2013-01-01T13:12:03Z</time>
      </trkpt>
      <trkpt lat="42.88406" lon="0.07442">
        <ele>2027</ele>
        <time>2013-01-01T13:12:07Z</time>
      </trkpt>
      <trkpt lat="42.88405" lon="0.0744">
        <ele>2028</ele>
        <time>2013-01-01T13:12:09Z</time>
      </trkpt>
      <trkpt lat="42.88406" lon="0.07438">
        <ele>2029</ele>
        <time>2013-01-01T13:12:16Z</time>
      </trkpt>
      <trkpt lat="42.88405" lon="0.0744">
        <ele>2024</ele>
        <time>2013-01-01T13:12:23Z</time>
      </trkpt>
      <trkpt lat="42.88406" lon="0.07443">
        <ele>2020</ele>
        <time>2013-01-01T13:12:27Z</time>
      </trkpt>
      <trkpt lat="42.88406" lon="0.07444">
        <ele>2020</ele>
        <time>2013-01-01T13:12:29Z</time>
      </trkpt>
      <trkpt lat="42.88407" lon="0.07446">
        <ele>2020</ele>
        <time>2013-01-01T13:12:30Z</time>
      </trkpt>
      <trkpt lat="42.88407" lon="0.07448">
        <ele>2019</ele>
        <time>2013-01-01T13:12:31Z</time>
      </trkpt>
      <trkpt lat="42.88408" lon="0.0745">
        <ele>2018</ele>
        <time>2013-01-01T13:12:32Z</time>
      </trkpt>
      <trkpt lat="42.88408" lon="0.07451">
        <ele>2017</ele>
        <time>2013-01-01T13:12:33Z</time>
      </trkpt>
      <trkpt lat="42.88408" lon="0.07453">
        <ele>2016</ele>
        <time>2013-01-01T13:12:34Z</time>
      </trkpt>
      <trkpt lat="42.88409" lon="0.07455">
        <ele>2015</ele>
        <time>2013-01-01T13:12:35Z</time>
      </trkpt>
      <trkpt lat="42.88408" lon="0.07454">
        <ele>2012</ele>
        <time>2013-01-01T13:12:38Z</time>
      </trkpt>
      <trkpt lat="42.88408" lon="0.07456">
        <ele>2009</ele>
        <time>2013-01-01T13:12:40Z</time>
      </trkpt>
      <trkpt lat="42.88407" lon="0.07454">
        <ele>2005</ele>
        <time>2013-01-01T13:12:42Z</time>
      </trkpt>
      <trkpt lat="42.88406" lon="0.07452">
        <ele>2003</ele>
        <time>2013-01-01T13:12:44Z</time>
      </trkpt>
      <trkpt lat="42.88406" lon="0.07449">
        <ele>2001</ele>
        <time>2013-01-01T13:12:47Z</time>
      </trkpt>
      <trkpt lat="42.88408" lon="0.07451">
        <ele>1997</ele>
        <time>2013-01-01T13:12:51Z</time>
      </trkpt>
      <trkpt lat="42.88409" lon="0.07453">
        <ele>1995</ele>
        <time>2013-01-01T13:12:53Z</time>
      </trkpt>
      <trkpt lat="42.88409" lon="0.07454">
        <ele>1994</ele>
        <time>2013-01-01T13:12:54Z</time>
      </trkpt>
      <trkpt lat="42.88408" lon="0.07456">
        <ele>1993</ele>
        <time>2013-01-01T13:12:57Z</time>
      </trkpt>
      <trkpt lat="42.88408" lon="0.07459">
        <ele>1993</ele>
        <time>2013-01-01T13:12:59Z</time>
      </trkpt>
      <trkpt lat="42.8841" lon="0.0746">
        <ele>1993</ele>
        <time>2013-01-01T13:13:01Z</time>
      </trkpt>
      <trkpt lat="42.88411" lon="0.07458">
        <ele>1993</ele>
        <time>2013-01-01T13:13:03Z</time>
      </trkpt>
      <trkpt lat="42.88411" lon="0.07457">
        <ele>1991</ele>
        <time>2013-01-01T13:13:09Z</time>
      </trkpt>
      <trkpt lat="42.88411" lon="0.07458">
        <ele>1991</ele>
        <time>2013-01-01T13:13:11Z</time>
      </trkpt>
      <trkpt lat="42.88411" lon="0.0746">
        <ele>1991</ele>
        <time>2013-01-01T13:13:12Z</time>
      </trkpt>
      <trkpt lat="42.88409" lon="0.07465">
        <ele>1991</ele>
        <time>2013-01-01T13:13:13Z</time>
      </trkpt>
      <trkpt lat="42.8841" lon="0.07464">
        <ele>1991</ele>
        <time>2013-01-01T13:13:14Z</time>
      </trkpt>
      <trkpt lat="42.88412" lon="0.07464">
        <ele>1991</ele>
        <time>2013-01-01T13:13:16Z</time>
      </trkpt>
      <trkpt lat="42.88414" lon="0.07467">
        <ele>1993</ele>
        <time>2013-01-01T13:13:18Z</time>
      </trkpt>
      <trkpt lat="42.88415" lon="0.07469">
        <ele>1994</ele>
        <time>2013-01-01T13:13:20Z</time>
      </trkpt>
      <trkpt lat="42.88414" lon="0.07469">
        <ele>1995</ele>
        <time>2013-01-01T13:13:22Z</time>
      </trkpt>
      <trkpt lat="42.88413" lon="0.07468">
        <ele>1995</ele>
        <time>2013-01-01T13:13:29Z</time>
      </trkpt>
      <trkpt lat="42.88412" lon="0.07465">
        <ele>1997</ele>
        <time>2013-01-01T13:13:35Z</time>
      </trkpt>
      <trkpt lat="42.88412" lon="0.07467">
        <ele>2000</ele>
        <time>2013-01-01T13:13:38Z</time>
      </trkpt>
      <trkpt lat="42.88411" lon="0.07466">
        <ele>2004</ele>
        <time>2013-01-01T13:13:42Z</time>
      </trkpt>
      <trkpt lat="42.88411" lon="0.07468">
        <ele>2005</ele>
        <time>2013-01-01T13:13:44Z</time>
      </trkpt>
      <trkpt lat="42.88411" lon="0.07466">
        <ele>2006</ele>
        <time>2013-01-01T13:13:48Z</time>
      </trkpt>
      <trkpt lat="42.8841" lon="0.07463">
        <ele>2008</ele>
        <time>2013-01-01T13:13:53Z</time>
      </trkpt>
      <trkpt lat="42.88411" lon="0.07463">
        <ele>2008</ele>
        <time>2013-01-01T13:13:55Z</time>
      </trkpt>
      <trkpt lat="42.88413" lon="0.07467">
        <ele>2008</ele>
        <time>2013-01-01T13:13:57Z</time>
      </trkpt>
      <trkpt lat="42.88415" lon="0.07469">
        <ele>2008</ele>
        <time>2013-01-01T13:13:58Z</time>
      </trkpt>
      <trkpt lat="42.88416" lon="0.07469">
        <ele>2008</ele>
        <time>2013-01-01T13:14:01Z</time>
      </trkpt>
      <trkpt lat="42.88414" lon="0.07466">
        <ele>2008</ele>
        <time>2013-01-01T13:14:05Z</time>
      </trkpt>
      <trkpt lat="42.88414" lon="0.07464">
        <ele>2008</ele>
        <time>2013-01-01T13:14:07Z</time>
      </trkpt>
      <trkpt lat="42.88413" lon="0.07462">
        <ele>2008</ele>
        <time>2013-01-01T13:14:08Z</time>
      </trkpt>
      <trkpt lat="42.88412" lon="0.07459">
        <ele>2006</ele>
        <time>2013-01-01T13:14:16Z</time>
      </trkpt>
      <trkpt lat="42.88412" lon="0.07457">
        <ele>2006</ele>
        <time>2013-01-01T13:14:18Z</time>
      </trkpt>
      <trkpt lat="42.88412" lon="0.07456">
        <ele>2008</ele>
        <time>2013-01-01T13:14:20Z</time>
      </trkpt>
      <trkpt lat="42.8841" lon="0.07453">
        <ele>2008</ele>
        <time>2013-01-01T13:14:23Z</time>
      </trkpt>
      <trkpt lat="42.88408" lon="0.07453">
        <ele>2008</ele>
        <time>2013-01-01T13:14:25Z</time>
      </trkpt>
      <trkpt lat="42.88407" lon="0.07451">
        <ele>2008</ele>
        <time>2013-01-01T13:14:28Z</time>
      </trkpt>
      <trkpt lat="42.88407" lon="0.07449">
        <ele>2007</ele>
        <time>2013-01-01T13:14:30Z</time>
      </trkpt>
      <trkpt lat="42.88406" lon="0.07446">
        <ele>2006</ele>
        <time>2013-01-01T13:14:34Z</time>
      </trkpt>
      <trkpt lat="42.88405" lon="0.07446">
        <ele>2004</ele>
        <time>2013-01-01T13:14:38Z</time>
      </trkpt>
      <trkpt lat="42.88406" lon="0.07448">
        <ele>2003</ele>
        <time>2013-01-01T13:14:40Z</time>
      </trkpt>
      <trkpt lat="42.88405" lon="0.0745">
        <ele>2003</ele>
        <time>2013-01-01T13:14:44Z</time>
      </trkpt>
      <trkpt lat="42.88404" lon="0.07447">
        <ele>2003</ele>
        <time>2013-01-01T13:14:50Z</time>
      </trkpt>
      <trkpt lat="42.88403" lon="0.07445">
        <ele>2003</ele>
        <time>2013-01-01T13:14:52Z</time>
      </trkpt>
      <trkpt lat="42.88401" lon="0.07443">
        <ele>2003</ele>
        <time>2013-01-01T13:14:54Z</time>
      </trkpt>
      <trkpt lat="42.884" lon="0.07442">
        <ele>2003</ele>
        <time>2013-01-01T13:14:56Z</time>
      </trkpt>
      <trkpt lat="42.884" lon="0.0744">
        <ele>2003</ele>
        <time>2013-01-01T13:14:57Z</time>
      </trkpt>
      <trkpt lat="42.884" lon="0.07442">
        <ele>2003</ele>
        <time>2013-01-01T13:15:00Z</time>
      </trkpt>
      <trkpt lat="42.884" lon="0.07445">
        <ele>2003</ele>
        <time>2013-01-01T13:15:01Z</time>
      </trkpt>
      <trkpt lat="42.884" lon="0.07447">
        <ele>2003</ele>
        <time>2013-01-01T13:15:02Z</time>
      </trkpt>
      <trkpt lat="42.88399" lon="0.0745">
        <ele>2003</ele>
        <time>2013-01-01T13:15:04Z</time>
      </trkpt>
      <trkpt lat="42.884" lon="0.07452">
        <ele>2003</ele>
        <time>2013-01-01T13:15:06Z</time>
      </trkpt>
      <trkpt lat="42.884" lon="0.07453">
        <ele>2003</ele>
        <time>2013-01-01T13:15:07Z</time>
      </trkpt>
      <trkpt lat="42.884" lon="0.07456">
        <ele>2002</ele>
        <time>2013-01-01T13:15:09Z</time>
      </trkpt>
      <trkpt lat="42.88401" lon="0.07458">
        <ele>1999</ele>
        <time>2013-01-01T13:15:12Z</time>
      </trkpt>
      <trkpt lat="42.88402" lon="0.07457">
        <ele>1991</ele>
        <time>2013-01-01T13:15:18Z</time>
      </trkpt>
      <trkpt lat="42.88401" lon="0.07455">
        <ele>1990</ele>
        <time>2013-01-01T13:15:20Z</time>
      </trkpt>
      <trkpt lat="42.88401" lon="0.07452">
        <ele>1990</ele>
        <time>2013-01-01T13:15:21Z</time>
      </trkpt>
      <trkpt lat="42.88401" lon="0.0745">
        <ele>1989</ele>
        <time>2013-01-01T13:15:23Z</time>
      </trkpt>
      <trkpt lat="42.88402" lon="0.07452">
        <ele>1987</ele>
        <time>2013-01-01T13:15:27Z</time>
      </trkpt>
      <trkpt lat="42.88403" lon="0.07454">
        <ele>1985</ele>
        <time>2013-01-01T13:15:30Z</time>
      </trkpt>
      <trkpt lat="42.88404" lon="0.07456">
        <ele>1985</ele>
        <time>2013-01-01T13:15:33Z</time>
      </trkpt>
      <trkpt lat="42.88406" lon="0.07457">
        <ele>1985</ele>
        <time>2013-01-01T13:15:38Z</time>
      </trkpt>
      <trkpt lat="42.88406" lon="0.07455">
        <ele>1985</ele>
        <time>2013-01-01T13:15:41Z</time>
      </trkpt>
      <trkpt lat="42.88406" lon="0.07452">
        <ele>1985</ele>
        <time>2013-01-01T13:15:43Z</time>
      </trkpt>
      <trkpt lat="42.88405" lon="0.0745">
        <ele>1986</ele>
        <time>2013-01-01T13:15:44Z</time>
      </trkpt>
      <trkpt lat="42.88403" lon="0.07448">
        <ele>1987</ele>
        <time>2013-01-01T13:15:45Z</time>
      </trkpt>
      <trkpt lat="42.88403" lon="0.07446">
        <ele>1987</ele>
        <time>2013-01-01T13:15:49Z</time>
      </trkpt>
      <trkpt lat="42.88403" lon="0.07444">
        <ele>1986</ele>
        <time>2013-01-01T13:15:57Z</time>
      </trkpt>
      <trkpt lat="42.88403" lon="0.07442">
        <ele>1986</ele>
        <time>2013-01-01T13:15:59Z</time>
      </trkpt>
      <trkpt lat="42.88403" lon="0.07444">
        <ele>1986</ele>
        <time>2013-01-01T13:16:03Z</time>
      </trkpt>
      <trkpt lat="42.88403" lon="0.07445">
        <ele>1987</ele>
        <time>2013-01-01T13:16:07Z</time>
      </trkpt>
      <trkpt lat="42.88404" lon="0.07447">
        <ele>1987</ele>
        <time>2013-01-01T13:16:09Z</time>
      </trkpt>
      <trkpt lat="42.88406" lon="0.07449">
        <ele>1987</ele>
        <time>2013-01-01T13:16:14Z</time>
      </trkpt>
      <trkpt lat="42.88405" lon="0.07446">
        <ele>1987</ele>
        <time>2013-01-01T13:16:16Z</time>
      </trkpt>
      <trkpt lat="42.88403" lon="0.07446">
        <ele>1987</ele>
        <time>2013-01-01T13:16:23Z</time>
      </trkpt>
      <trkpt lat="42.88404" lon="0.07448">
        <ele>1987</ele>
        <time>2013-01-01T13:16:26Z</time>
      </trkpt>
      <trkpt lat="42.88404" lon="0.07446">
        <ele>1983</ele>
        <time>2013-01-01T13:16:40Z</time>
      </trkpt>
      <trkpt lat="42.88405" lon="0.07444">
        <ele>1983</ele>
        <time>2013-01-01T13:16:43Z</time>
      </trkpt>
      <trkpt lat="42.88405" lon="0.07442">
        <ele>1984</ele>
        <time>2013-01-01T13:16:47Z</time>
      </trkpt>
      <trkpt lat="42.88406" lon="0.07444">
        <ele>1986</ele>
        <time>2013-01-01T13:16:50Z</time>
      </trkpt>
      <trkpt lat="42.88406" lon="0.07442">
        <ele>1988</ele>
        <time>2013-01-01T13:16:56Z</time>
      </trkpt>
      <trkpt lat="42.88407" lon="0.07445">
        <ele>1988</ele>
        <time>2013-01-01T13:16:58Z</time>
      </trkpt>
      <trkpt lat="42.88407" lon="0.0745">
        <ele>1988</ele>
        <time>2013-01-01T13:17:04Z</time>
      </trkpt>
      <trkpt lat="42.88407" lon="0.07452">
        <ele>1988</ele>
        <time>2013-01-01T13:17:06Z</time>
      </trkpt>
      <trkpt lat="42.88408" lon="0.07454">
        <ele>1987</ele>
        <time>2013-01-01T13:17:09Z</time>
      </trkpt>
      <trkpt lat="42.88408" lon="0.07456">
        <ele>1986</ele>
        <time>2013-01-01T13:17:10Z</time>
      </trkpt>
      <trkpt lat="42.88409" lon="0.07458">
        <ele>1985</ele>
        <time>2013-01-01T13:17:12Z</time>
      </trkpt>
      <trkpt lat="42.88407" lon="0.07456">
        <ele>1985</ele>
        <time>2013-01-01T13:17:14Z</time>
      </trkpt>
      <trkpt lat="42.88408" lon="0.07459">
        <ele>1984</ele>
        <time>2013-01-01T13:17:16Z</time>
      </trkpt>
      <trkpt lat="42.88408" lon="0.07461">
        <ele>1983</ele>
        <time>2013-01-01T13:17:17Z</time>
      </trkpt>
      <trkpt lat="42.8841" lon="0.07462">
        <ele>1983</ele>
        <time>2013-01-01T13:17:21Z</time>
      </trkpt>
      <trkpt lat="42.88411" lon="0.07464">
        <ele>1983</ele>
        <time>2013-01-01T13:17:22Z</time>
      </trkpt>
      <trkpt lat="42.88411" lon="0.07465">
        <ele>1984</ele>
        <time>2013-01-01T13:17:24Z</time>
      </trkpt>
      <trkpt lat="42.88412" lon="0.07467">
        <ele>1985</ele>
        <time>2013-01-01T13:17:27Z</time>
      </trkpt>
      <trkpt lat="42.88411" lon="0.07464">
        <ele>1985</ele>
        <time>2013-01-01T13:17:29Z</time>
      </trkpt>
      <trkpt lat="42.88411" lon="0.07462">
        <ele>1985</ele>
        <time>2013-01-01T13:17:32Z</time>
      </trkpt>
      <trkpt lat="42.8841" lon="0.07463">
        <ele>1985</ele>
        <time>2013-01-01T13:17:37Z</time>
      </trkpt>
      <trkpt lat="42.8841" lon="0.07462">
        <ele>1985</ele>
        <time>2013-01-01T13:17:43Z</time>
      </trkpt>
      <trkpt lat="42.88409" lon="0.07459">
        <ele>1985</ele>
        <time>2013-01-01T13:17:46Z</time>
      </trkpt>
      <trkpt lat="42.88408" lon="0.07457">
        <ele>1985</ele>
        <time>2013-01-01T13:17:47Z</time>
      </trkpt>
      <trkpt lat="42.88408" lon="0.07456">
        <ele>1985</ele>
        <time>2013-01-01T13:17:48Z</time>
      </trkpt>
      <trkpt lat="42.88407" lon="0.07453">
        <ele>1985</ele>
        <time>2013-01-01T13:17:49Z</time>
      </trkpt>
      <trkpt lat="42.88407" lon="0.0745">
        <ele>1985</ele>
        <time>2013-01-01T13:17:51Z</time>
      </trkpt>
      <trkpt lat="42.88406" lon="0.0745">
        <ele>1985</ele>
        <time>2013-01-01T13:17:53Z</time>
      </trkpt>
      <trkpt lat="42.88405" lon="0.07448">
        <ele>1985</ele>
        <time>2013-01-01T13:17:55Z</time>
      </trkpt>
      <trkpt lat="42.88405" lon="0.07446">
        <ele>1985</ele>
        <time>2013-01-01T13:17:56Z</time>
      </trkpt>
      <trkpt lat="42.88404" lon="0.07445">
        <ele>1985</ele>
        <time>2013-01-01T13:17:57Z</time>
      </trkpt>
      <trkpt lat="42.88403" lon="0.07445">
        <ele>1985</ele>
        <time>2013-01-01T13:18:01Z</time>
      </trkpt>
      <trkpt lat="42.88403" lon="0.07446">
        <ele>1985</ele>
        <time>2013-01-01T13:18:02Z</time>
      </trkpt>
      <trkpt lat="42.88403" lon="0.07449">
        <ele>1985</ele>
        <time>2013-01-01T13:18:04Z</time>
      </trkpt>
      <trkpt lat="42.88404" lon="0.07449">
        <ele>1984</ele>
        <time>2013-01-01T13:18:09Z</time>
      </trkpt>
      <trkpt lat="42.88406" lon="0.07454">
        <ele>1984</ele>
        <time>2013-01-01T13:18:13Z</time>
      </trkpt>
      <trkpt lat="42.88405" lon="0.07457">
        <ele>1983</ele>
        <time>2013-01-01T13:18:14Z</time>
      </trkpt>
      <trkpt lat="42.88404" lon="0.07458">
        <ele>1983</ele>
        <time>2013-01-01T13:18:15Z</time>
      </trkpt>
      <trkpt lat="42.88406" lon="0.07459">
        <ele>1983</ele>
        <time>2013-01-01T13:18:17Z</time>
      </trkpt>
      <trkpt lat="42.88406" lon="0.07463">
        <ele>1983</ele>
        <time>2013-01-01T13:18:19Z</time>
      </trkpt>
      <trkpt lat="42.88406" lon="0.07461">
        <ele>1983</ele>
        <time>2013-01-01T13:18:20Z</time>
      </trkpt>
      <trkpt lat="42.88409" lon="0.07469">
        <ele>1983</ele>
        <time>2013-01-01T13:18:24Z</time>
      </trkpt>
      <trkpt lat="42.88409" lon="0.07466">
        <ele>1982</ele>
        <time>2013-01-01T13:18:34Z</time>
      </trkpt>
      <trkpt lat="42.88408" lon="0.07464">
        <ele>1982</ele>
        <time>2013-01-01T13:18:35Z</time>
      </trkpt>
      <trkpt lat="42.88408" lon="0.07462">
        <ele>1982</ele>
        <time>2013-01-01T13:18:36Z</time>
      </trkpt>
      <trkpt lat="42.88407" lon="0.07459">
        <ele>1982</ele>
        <time>2013-01-01T13:18:37Z</time>
      </trkpt>
      <trkpt lat="42.88407" lon="0.07461">
        <ele>1982</ele>
        <time>2013-01-01T13:18:40Z</time>
      </trkpt>
      <trkpt lat="42.88409" lon="0.07464">
        <ele>1982</ele>
        <time>2013-01-01T13:18:42Z</time>
      </trkpt>
      <trkpt lat="42.88409" lon="0.07465">
        <ele>1982</ele>
        <time>2013-01-01T13:18:43Z</time>
      </trkpt>
      <trkpt lat="42.88409" lon="0.07467">
        <ele>1982</ele>
        <time>2013-01-01T13:18:44Z</time>
      </trkpt>
      <trkpt lat="42.88411" lon="0.07468">
        <ele>1985</ele>
        <time>2013-01-01T13:18:49Z</time>
      </trkpt>
      <trkpt lat="42.88412" lon="0.07469">
        <ele>1990</ele>
        <time>2013-01-01T13:18:53Z</time>
      </trkpt>
      <trkpt lat="42.88411" lon="0.07468">
        <ele>1995</ele>
        <time>2013-01-01T13:19:00Z</time>
      </trkpt>
      <trkpt lat="42.8841" lon="0.07465">
        <ele>1995</ele>
        <time>2013-01-01T13:19:07Z</time>
      </trkpt>
      <trkpt lat="42.88409" lon="0.07462">
        <ele>1995</ele>
        <time>2013-01-01T13:19:08Z</time>
      </trkpt>
      <trkpt lat="42.88409" lon="0.0746">
        <ele>1995</ele>
        <time>2013-01-01T13:19:09Z</time>
      </trkpt>
      <trkpt lat="42.88406" lon="0.07452">
        <ele>1995</ele>
        <time>2013-01-01T13:19:14Z</time>
      </trkpt>
      <trkpt lat="42.88405" lon="0.07454">
        <ele>1995</ele>
        <time>2013-01-01T13:19:17Z</time>
      </trkpt>
      <trkpt lat="42.88405" lon="0.07457">
        <ele>1995</ele>
        <time>2013-01-01T13:19:19Z</time>
      </trkpt>
      <trkpt lat="42.88406" lon="0.07459">
        <ele>1995</ele>
        <time>2013-01-01T13:19:20Z</time>
      </trkpt>
      <trkpt lat="42.88406" lon="0.07457">
        <ele>1995</ele>
        <time>2013-01-01T13:19:23Z</time>
      </trkpt>
      <trkpt lat="42.88406" lon="0.0746">
        <ele>1995</ele>
        <time>2013-01-01T13:19:28Z</time>
      </trkpt>
      <trkpt lat="42.88406" lon="0.07462">
        <ele>1995</ele>
        <time>2013-01-01T13:19:30Z</time>
      </trkpt>
      <trkpt lat="42.88405" lon="0.07462">
        <ele>1996</ele>
        <time>2013-01-01T13:19:36Z</time>
      </trkpt>
      <trkpt lat="42.88404" lon="0.07462">
        <ele>1997</ele>
        <time>2013-01-01T13:19:38Z</time>
      </trkpt>
      <trkpt lat="42.88403" lon="0.0746">
        <ele>1997</ele>
        <time>2013-01-01T13:19:39Z</time>
      </trkpt>
      <trkpt lat="42.88402" lon="0.0746">
        <ele>1998</ele>
        <time>2013-01-01T13:19:41Z</time>
      </trkpt>
      <trkpt lat="42.884" lon="0.07461">
        <ele>1999</ele>
        <time>2013-01-01T13:19:44Z</time>
      </trkpt>
      <trkpt lat="42.88399" lon="0.07461">
        <ele>1999</ele>
        <time>2013-01-01T13:19:46Z</time>
      </trkpt>
      <trkpt lat="42.88398" lon="0.07463">
        <ele>1999</ele>
        <time>2013-01-01T13:19:48Z</time>
      </trkpt>
      <trkpt lat="42.88397" lon="0.07464">
        <ele>1999</ele>
        <time>2013-01-01T13:19:50Z</time>
      </trkpt>
      <trkpt lat="42.88396" lon="0.07463">
        <ele>1997</ele>
        <time>2013-01-01T13:20:05Z</time>
      </trkpt>
      <trkpt lat="42.88395" lon="0.07461">
        <ele>1995</ele>
        <time>2013-01-01T13:20:10Z</time>
      </trkpt>
      <trkpt lat="42.88395" lon="0.0746">
        <ele>1995</ele>
        <time>2013-01-01T13:20:14Z</time>
      </trkpt>
      <trkpt lat="42.88395" lon="0.07458">
        <ele>1995</ele>
        <time>2013-01-01T13:20:19Z</time>
      </trkpt>
      <trkpt lat="42.88395" lon="0.07459">
        <ele>1998</ele>
        <time>2013-01-01T13:20:34Z</time>
      </trkpt>
      <trkpt lat="42.88395" lon="0.07458">
        <ele>1998</ele>
        <time>2013-01-01T13:20:42Z</time>
      </trkpt>
      <trkpt lat="42.88396" lon="0.07459">
        <ele>1998</ele>
        <time>2013-01-01T13:20:45Z</time>
      </trkpt>
      <trkpt lat="42.88397" lon="0.07461">
        <ele>1998</ele>
        <time>2013-01-01T13:20:48Z</time>
      </trkpt>
      <trkpt lat="42.88395" lon="0.07459">
        <ele>1998</ele>
        <time>2013-01-01T13:20:54Z</time>
      </trkpt>
      <trkpt lat="42.88395" lon="0.07457">
        <ele>2000</ele>
        <time>2013-01-01T13:20:56Z</time>
      </trkpt>
      <trkpt lat="42.88394" lon="0.07456">
        <ele>2003</ele>
        <time>2013-01-01T13:20:59Z</time>
      </trkpt>
      <trkpt lat="42.88394" lon="0.07454">
        <ele>2005</ele>
        <time>2013-01-01T13:21:01Z</time>
      </trkpt>
      <trkpt lat="42.88394" lon="0.07456">
        <ele>2007</ele>
        <time>2013-01-01T13:21:04Z</time>
      </trkpt>
      <trkpt lat="42.88394" lon="0.07453">
        <ele>2008</ele>
        <time>2013-01-01T13:21:06Z</time>
      </trkpt>
      <trkpt lat="42.88393" lon="0.07451">
        <ele>2009</ele>
        <time>2013-01-01T13:21:09Z</time>
      </trkpt>
      <trkpt lat="42.88393" lon="0.07449">
        <ele>2009</ele>
        <time>2013-01-01T13:21:25Z</time>
      </trkpt>
      <trkpt lat="42.88394" lon="0.07451">
        <ele>2009</ele>
        <time>2013-01-01T13:21:27Z</time>
      </trkpt>
      <trkpt lat="42.88394" lon="0.07452">
        <ele>2009</ele>
        <time>2013-01-01T13:21:29Z</time>
      </trkpt>
      <trkpt lat="42.88393" lon="0.07454">
        <ele>2008</ele>
        <time>2013-01-01T13:21:33Z</time>
      </trkpt>
      <trkpt lat="42.88393" lon="0.07456">
        <ele>2007</ele>
        <time>2013-01-01T13:21:36Z</time>
      </trkpt>
      <trkpt lat="42.88392" lon="0.07458">
        <ele>2005</ele>
        <time>2013-01-01T13:21:38Z</time>
      </trkpt>
      <trkpt lat="42.88393" lon="0.07459">
        <ele>2004</ele>
        <time>2013-01-01T13:21:40Z</time>
      </trkpt>
      <trkpt lat="42.88393" lon="0.07461">
        <ele>2004</ele>
        <time>2013-01-01T13:21:44Z</time>
      </trkpt>
      <trkpt lat="42.88394" lon="0.07462">
        <ele>2004</ele>
        <time>2013-01-01T13:21:48Z</time>
      </trkpt>
      <trkpt lat="42.88395" lon="0.07463">
        <ele>2004</ele>
        <time>2013-01-01T13:22:02Z</time>
      </trkpt>
      <trkpt lat="42.88396" lon="0.07464">
        <ele>2004</ele>
        <time>2013-01-01T13:22:29Z</time>
      </trkpt>
      <trkpt lat="42.88396" lon="0.07466">
        <ele>2004</ele>
        <time>2013-01-01T13:22:39Z</time>
      </trkpt>
      <trkpt lat="42.88395" lon="0.07467">
        <ele>2004</ele>
        <time>2013-01-01T13:23:15Z</time>
      </trkpt>
      <trkpt lat="42.88395" lon="0.07466">
        <ele>2004</ele>
        <time>2013-01-01T13:23:47Z</time>
      </trkpt>
      <trkpt lat="42.88393" lon="0.07465">
        <ele>2004</ele>
        <time>2013-01-01T13:23:51Z</time>
      </trkpt>
      <trkpt lat="42.88395" lon="0.07466">
        <ele>2001</ele>
        <time>2013-01-01T13:23:59Z</time>
      </trkpt>
      <trkpt lat="42.88396" lon="0.07465">
        <ele>2001</ele>
        <time>2013-01-01T13:24:21Z</time>
      </trkpt>
      <trkpt lat="42.88396" lon="0.07464">
        <ele>2001</ele>
        <time>2013-01-01T13:24:40Z</time>
      </trkpt>
      <trkpt lat="42.88397" lon="0.07465">
        <ele>2001</ele>
        <time>2013-01-01T13:24:58Z</time>
      </trkpt>
      <trkpt lat="42.88397" lon="0.07464">
        <ele>2001</ele>
        <time>2013-01-01T13:26:01Z</time>
      </trkpt>
      <trkpt lat="42.88397" lon="0.07462">
        <ele>2002</ele>
        <time>2013-01-01T13:26:32Z</time>
      </trkpt>
      <trkpt lat="42.88398" lon="0.07464">
        <ele>2002</ele>
        <time>2013-01-01T13:27:00Z</time>
      </trkpt>
      <trkpt lat="42.88398" lon="0.07462">
        <ele>2002</ele>
        <time>2013-01-01T13:27:25Z</time>
      </trkpt>
      <trkpt lat="42.88398" lon="0.07461">
        <ele>2002</ele>
        <time>2013-01-01T13:27:38Z</time>
      </trkpt>
      <trkpt lat="42.88396" lon="0.07458">
        <ele>2002</ele>
        <time>2013-01-01T13:27:41Z</time>
      </trkpt>
      <trkpt lat="42.88395" lon="0.07458">
        <ele>2002</ele>
        <time>2013-01-01T13:27:42Z</time>
      </trkpt>
      <trkpt lat="42.88394" lon="0.07458">
        <ele>2002</ele>
        <time>2013-01-01T13:27:44Z</time>
      </trkpt>
      <trkpt lat="42.88393" lon="0.07457">
        <ele>2002</ele>
        <time>2013-01-01T13:27:46Z</time>
      </trkpt>
      <trkpt lat="42.88391" lon="0.07456">
        <ele>2002</ele>
        <time>2013-01-01T13:27:48Z</time>
      </trkpt>
      <trkpt lat="42.8839" lon="0.07455">
        <ele>2002</ele>
        <time>2013-01-01T13:27:50Z</time>
      </trkpt>
      <trkpt lat="42.88389" lon="0.07453">
        <ele>2002</ele>
        <time>2013-01-01T13:27:52Z</time>
      </trkpt>
      <trkpt lat="42.88388" lon="0.07452">
        <ele>2002</ele>
        <time>2013-01-01T13:27:53Z</time>
      </trkpt>
      <trkpt lat="42.88386" lon="0.07451">
        <ele>2002</ele>
        <time>2013-01-01T13:27:54Z</time>
      </trkpt>
      <trkpt lat="42.88385" lon="0.0745">
        <ele>2002</ele>
        <time>2013-01-01T13:27:55Z</time>
      </trkpt>
      <trkpt lat="42.88383" lon="0.07448">
        <ele>2001</ele>
        <time>2013-01-01T13:27:57Z</time>
      </trkpt>
      <trkpt lat="42.8838" lon="0.07447">
        <ele>2001</ele>
        <time>2013-01-01T13:27:59Z</time>
      </trkpt>
      <trkpt lat="42.88378" lon="0.07446">
        <ele>2000</ele>
        <time>2013-01-01T13:28:00Z</time>
      </trkpt>
      <trkpt lat="42.88375" lon="0.07445">
        <ele>2000</ele>
        <time>2013-01-01T13:28:01Z</time>
      </trkpt>
      <trkpt lat="42.88374" lon="0.07443">
        <ele>2000</ele>
        <time>2013-01-01T13:28:02Z</time>
      </trkpt>
      <trkpt lat="42.88372" lon="0.07441">
        <ele>2000</ele>
        <time>2013-01-01T13:28:03Z</time>
      </trkpt>
      <trkpt lat="42.88372" lon="0.07438">
        <ele>1999</ele>
        <time>2013-01-01T13:28:04Z</time>
      </trkpt>
      <trkpt lat="42.88372" lon="0.07435">
        <ele>1999</ele>
        <time>2013-01-01T13:28:05Z</time>
      </trkpt>
      <trkpt lat="42.8837" lon="0.07433">
        <ele>1998</ele>
        <time>2013-01-01T13:28:06Z</time>
      </trkpt>
      <trkpt lat="42.88369" lon="0.07432">
        <ele>1998</ele>
        <time>2013-01-01T13:28:07Z</time>
      </trkpt>
      <trkpt lat="42.88368" lon="0.07431">
        <ele>1997</ele>
        <time>2013-01-01T13:28:08Z</time>
      </trkpt>
      <trkpt lat="42.88366" lon="0.07431">
        <ele>1997</ele>
        <time>2013-01-01T13:28:09Z</time>
      </trkpt>
      <trkpt lat="42.88365" lon="0.07431">
        <ele>1996</ele>
        <time>2013-01-01T13:28:10Z</time>
      </trkpt>
      <trkpt lat="42.88364" lon="0.0743">
        <ele>1996</ele>
        <time>2013-01-01T13:28:11Z</time>
      </trkpt>
      <trkpt lat="42.88363" lon="0.0743">
        <ele>1995</ele>
        <time>2013-01-01T13:28:18Z</time>
      </trkpt>
      <trkpt lat="42.88362" lon="0.07432">
        <ele>1995</ele>
        <time>2013-01-01T13:28:26Z</time>
      </trkpt>
      <trkpt lat="42.88363" lon="0.0743">
        <ele>1995</ele>
        <time>2013-01-01T13:28:44Z</time>
      </trkpt>
      <trkpt lat="42.88361" lon="0.0743">
        <ele>1996</ele>
        <time>2013-01-01T13:29:01Z</time>
      </trkpt>
      <trkpt lat="42.8836" lon="0.0743">
        <ele>1996</ele>
        <time>2013-01-01T13:29:19Z</time>
      </trkpt>
      <trkpt lat="42.88359" lon="0.07429">
        <ele>1989</ele>
        <time>2013-01-01T13:29:37Z</time>
      </trkpt>
      <trkpt lat="42.88358" lon="0.07428">
        <ele>1989</ele>
        <time>2013-01-01T13:29:44Z</time>
      </trkpt>
      <trkpt lat="42.88359" lon="0.07428">
        <ele>1989</ele>
        <time>2013-01-01T13:29:48Z</time>
      </trkpt>
      <trkpt lat="42.8836" lon="0.07429">
        <ele>1989</ele>
        <time>2013-01-01T13:29:51Z</time>
      </trkpt>
      <trkpt lat="42.88361" lon="0.0743">
        <ele>1988</ele>
        <time>2013-01-01T13:30:01Z</time>
      </trkpt>
      <trkpt lat="42.88361" lon="0.07428">
        <ele>1988</ele>
        <time>2013-01-01T13:30:11Z</time>
      </trkpt>
      <trkpt lat="42.88361" lon="0.07427">
        <ele>1988</ele>
        <time>2013-01-01T13:30:19Z</time>
      </trkpt>
      <trkpt lat="42.88361" lon="0.07425">
        <ele>1989</ele>
        <time>2013-01-01T13:30:36Z</time>
      </trkpt>
      <trkpt lat="42.88359" lon="0.07422">
        <ele>1990</ele>
        <time>2013-01-01T13:30:38Z</time>
      </trkpt>
      <trkpt lat="42.88359" lon="0.0742">
        <ele>1990</ele>
        <time>2013-01-01T13:30:39Z</time>
      </trkpt>
      <trkpt lat="42.88358" lon="0.07418">
        <ele>1990</ele>
        <time>2013-01-01T13:30:40Z</time>
      </trkpt>
      <trkpt lat="42.88356" lon="0.07417">
        <ele>1990</ele>
        <time>2013-01-01T13:30:41Z</time>
      </trkpt>
      <trkpt lat="42.88355" lon="0.07416">
        <ele>1990</ele>
        <time>2013-01-01T13:30:42Z</time>
      </trkpt>
      <trkpt lat="42.88354" lon="0.07414">
        <ele>1990</ele>
        <time>2013-01-01T13:30:43Z</time>
      </trkpt>
      <trkpt lat="42.88352" lon="0.07413">
        <ele>1990</ele>
        <time>2013-01-01T13:30:44Z</time>
      </trkpt>
      <trkpt lat="42.88351" lon="0.07412">
        <ele>1990</ele>
        <time>2013-01-01T13:30:45Z</time>
      </trkpt>
      <trkpt lat="42.88349" lon="0.0741">
        <ele>1990</ele>
        <time>2013-01-01T13:30:46Z</time>
      </trkpt>
      <trkpt lat="42.88348" lon="0.07409">
        <ele>1990</ele>
        <time>2013-01-01T13:30:47Z</time>
      </trkpt>
      <trkpt lat="42.88346" lon="0.07407">
        <ele>1990</ele>
        <time>2013-01-01T13:30:48Z</time>
      </trkpt>
      <trkpt lat="42.88344" lon="0.07406">
        <ele>1990</ele>
        <time>2013-01-01T13:30:49Z</time>
      </trkpt>
      <trkpt lat="42.88343" lon="0.07404">
        <ele>1990</ele>
        <time>2013-01-01T13:30:50Z</time>
      </trkpt>
      <trkpt lat="42.88342" lon="0.07403">
        <ele>1990</ele>
        <time>2013-01-01T13:30:51Z</time>
      </trkpt>
      <trkpt lat="42.8834" lon="0.07401">
        <ele>1990</ele>
        <time>2013-01-01T13:30:52Z</time>
      </trkpt>
      <trkpt lat="42.88339" lon="0.074">
        <ele>1990</ele>
        <time>2013-01-01T13:30:53Z</time>
      </trkpt>
      <trkpt lat="42.88338" lon="0.07399">
        <ele>1990</ele>
        <time>2013-01-01T13:30:54Z</time>
      </trkpt>
      <trkpt lat="42.88336" lon="0.07398">
        <ele>1990</ele>
        <time>2013-01-01T13:30:55Z</time>
      </trkpt>
      <trkpt lat="42.88334" lon="0.07396">
        <ele>1990</ele>
        <time>2013-01-01T13:30:56Z</time>
      </trkpt>
      <trkpt lat="42.88333" lon="0.07393">
        <ele>1990</ele>
        <time>2013-01-01T13:30:57Z</time>
      </trkpt>
      <trkpt lat="42.88331" lon="0.07389">
        <ele>1990</ele>
        <time>2013-01-01T13:30:58Z</time>
      </trkpt>
      <trkpt lat="42.88329" lon="0.07388">
        <ele>1990</ele>
        <time>2013-01-01T13:30:59Z</time>
      </trkpt>
      <trkpt lat="42.88328" lon="0.07387">
        <ele>1990</ele>
        <time>2013-01-01T13:31:00Z</time>
      </trkpt>
      <trkpt lat="42.88326" lon="0.07386">
        <ele>1990</ele>
        <time>2013-01-01T13:31:01Z</time>
      </trkpt>
      <trkpt lat="42.88325" lon="0.07384">
        <ele>1989</ele>
        <time>2013-01-01T13:31:02Z</time>
      </trkpt>
      <trkpt lat="42.88323" lon="0.07383">
        <ele>1989</ele>
        <time>2013-01-01T13:31:03Z</time>
      </trkpt>
      <trkpt lat="42.88321" lon="0.07381">
        <ele>1989</ele>
        <time>2013-01-01T13:31:04Z</time>
      </trkpt>
      <trkpt lat="42.88318" lon="0.07379">
        <ele>1989</ele>
        <time>2013-01-01T13:31:05Z</time>
      </trkpt>
      <trkpt lat="42.88316" lon="0.07378">
        <ele>1988</ele>
        <time>2013-01-01T13:31:06Z</time>
      </trkpt>
      <trkpt lat="42.88314" lon="0.07376">
        <ele>1988</ele>
        <time>2013-01-01T13:31:07Z</time>
      </trkpt>
      <trkpt lat="42.88312" lon="0.07374">
        <ele>1988</ele>
        <time>2013-01-01T13:31:08Z</time>
      </trkpt>
      <trkpt lat="42.8831" lon="0.07373">
        <ele>1987</ele>
        <time>2013-01-01T13:31:09Z</time>
      </trkpt>
      <trkpt lat="42.88308" lon="0.07372">
        <ele>1987</ele>
        <time>2013-01-01T13:31:10Z</time>
      </trkpt>
      <trkpt lat="42.88306" lon="0.0737">
        <ele>1987</ele>
        <time>2013-01-01T13:31:11Z</time>
      </trkpt>
      <trkpt lat="42.88305" lon="0.07368">
        <ele>1986</ele>
        <time>2013-01-01T13:31:12Z</time>
      </trkpt>
      <trkpt lat="42.88306" lon="0.07365">
        <ele>1986</ele>
        <time>2013-01-01T13:31:13Z</time>
      </trkpt>
      <trkpt lat="42.88306" lon="0.07362">
        <ele>1985</ele>
        <time>2013-01-01T13:31:14Z</time>
      </trkpt>
      <trkpt lat="42.88305" lon="0.0736">
        <ele>1984</ele>
        <time>2013-01-01T13:31:15Z</time>
      </trkpt>
      <trkpt lat="42.88303" lon="0.07358">
        <ele>1984</ele>
        <time>2013-01-01T13:31:16Z</time>
      </trkpt>
      <trkpt lat="42.88302" lon="0.07356">
        <ele>1983</ele>
        <time>2013-01-01T13:31:17Z</time>
      </trkpt>
      <trkpt lat="42.883" lon="0.07353">
        <ele>1983</ele>
        <time>2013-01-01T13:31:18Z</time>
      </trkpt>
      <trkpt lat="42.88299" lon="0.0735">
        <ele>1982</ele>
        <time>2013-01-01T13:31:19Z</time>
      </trkpt>
      <trkpt lat="42.88298" lon="0.07348">
        <ele>1982</ele>
        <time>2013-01-01T13:31:20Z</time>
      </trkpt>
      <trkpt lat="42.88297" lon="0.07345">
        <ele>1981</ele>
        <time>2013-01-01T13:31:21Z</time>
      </trkpt>
      <trkpt lat="42.88296" lon="0.07342">
        <ele>1981</ele>
        <time>2013-01-01T13:31:22Z</time>
      </trkpt>
      <trkpt lat="42.88295" lon="0.07339">
        <ele>1981</ele>
        <time>2013-01-01T13:31:23Z</time>
      </trkpt>
      <trkpt lat="42.88293" lon="0.07337">
        <ele>1980</ele>
        <time>2013-01-01T13:31:24Z</time>
      </trkpt>
      <trkpt lat="42.88292" lon="0.07334">
        <ele>1980</ele>
        <time>2013-01-01T13:31:25Z</time>
      </trkpt>
      <trkpt lat="42.88292" lon="0.07331">
        <ele>1979</ele>
        <time>2013-01-01T13:31:26Z</time>
      </trkpt>
      <trkpt lat="42.88292" lon="0.07328">
        <ele>1979</ele>
        <time>2013-01-01T13:31:27Z</time>
      </trkpt>
      <trkpt lat="42.88291" lon="0.07326">
        <ele>1978</ele>
        <time>2013-01-01T13:31:28Z</time>
      </trkpt>
      <trkpt lat="42.88291" lon="0.07324">
        <ele>1978</ele>
        <time>2013-01-01T13:31:29Z</time>
      </trkpt>
      <trkpt lat="42.88291" lon="0.07322">
        <ele>1978</ele>
        <time>2013-01-01T13:31:30Z</time>
      </trkpt>
      <trkpt lat="42.8829" lon="0.07319">
        <ele>1977</ele>
        <time>2013-01-01T13:31:31Z</time>
      </trkpt>
      <trkpt lat="42.88289" lon="0.07316">
        <ele>1977</ele>
        <time>2013-01-01T13:31:32Z</time>
      </trkpt>
      <trkpt lat="42.88289" lon="0.07313">
        <ele>1976</ele>
        <time>2013-01-01T13:31:33Z</time>
      </trkpt>
      <trkpt lat="42.88288" lon="0.0731">
        <ele>1975</ele>
        <time>2013-01-01T13:31:34Z</time>
      </trkpt>
      <trkpt lat="42.88288" lon="0.07307">
        <ele>1975</ele>
        <time>2013-01-01T13:31:35Z</time>
      </trkpt>
      <trkpt lat="42.88288" lon="0.07303">
        <ele>1974</ele>
        <time>2013-01-01T13:31:36Z</time>
      </trkpt>
      <trkpt lat="42.88287" lon="0.07299">
        <ele>1974</ele>
        <time>2013-01-01T13:31:37Z</time>
      </trkpt>
      <trkpt lat="42.88287" lon="0.07296">
        <ele>1973</ele>
        <time>2013-01-01T13:31:38Z</time>
      </trkpt>
      <trkpt lat="42.88288" lon="0.07294">
        <ele>1972</ele>
        <time>2013-01-01T13:31:39Z</time>
      </trkpt>
      <trkpt lat="42.8829" lon="0.07294">
        <ele>1971</ele>
        <time>2013-01-01T13:31:40Z</time>
      </trkpt>
      <trkpt lat="42.88293" lon="0.07295">
        <ele>1971</ele>
        <time>2013-01-01T13:31:41Z</time>
      </trkpt>
      <trkpt lat="42.88295" lon="0.07295">
        <ele>1970</ele>
        <time>2013-01-01T13:31:42Z</time>
      </trkpt>
      <trkpt lat="42.88296" lon="0.07294">
        <ele>1969</ele>
        <time>2013-01-01T13:31:43Z</time>
      </trkpt>
      <trkpt lat="42.88296" lon="0.07292">
        <ele>1968</ele>
        <time>2013-01-01T13:31:44Z</time>
      </trkpt>
      <trkpt lat="42.88296" lon="0.0729">
        <ele>1967</ele>
        <time>2013-01-01T13:31:45Z</time>
      </trkpt>
      <trkpt lat="42.88296" lon="0.07288">
        <ele>1966</ele>
        <time>2013-01-01T13:31:46Z</time>
      </trkpt>
      <trkpt lat="42.88297" lon="0.07287">
        <ele>1965</ele>
        <time>2013-01-01T13:31:47Z</time>
      </trkpt>
      <trkpt lat="42.88299" lon="0.07287">
        <ele>1965</ele>
        <time>2013-01-01T13:31:48Z</time>
      </trkpt>
      <trkpt lat="42.88301" lon="0.0729">
        <ele>1964</ele>
        <time>2013-01-01T13:31:49Z</time>
      </trkpt>
      <trkpt lat="42.88303" lon="0.07293">
        <ele>1963</ele>
        <time>2013-01-01T13:31:50Z</time>
      </trkpt>
      <trkpt lat="42.88306" lon="0.07294">
        <ele>1963</ele>
        <time>2013-01-01T13:31:51Z</time>
      </trkpt>
      <trkpt lat="42.88307" lon="0.07293">
        <ele>1962</ele>
        <time>2013-01-01T13:31:52Z</time>
      </trkpt>
      <trkpt lat="42.88309" lon="0.0729">
        <ele>1961</ele>
        <time>2013-01-01T13:31:53Z</time>
      </trkpt>
      <trkpt lat="42.88311" lon="0.07289">
        <ele>1960</ele>
        <time>2013-01-01T13:31:54Z</time>
      </trkpt>
      <trkpt lat="42.88314" lon="0.07291">
        <ele>1959</ele>
        <time>2013-01-01T13:31:55Z</time>
      </trkpt>
      <trkpt lat="42.88317" lon="0.07293">
        <ele>1958</ele>
        <time>2013-01-01T13:31:56Z</time>
      </trkpt>
      <trkpt lat="42.8832" lon="0.07293">
        <ele>1957</ele>
        <time>2013-01-01T13:31:57Z</time>
      </trkpt>
      <trkpt lat="42.88322" lon="0.07292">
        <ele>1956</ele>
        <time>2013-01-01T13:31:58Z</time>
      </trkpt>
      <trkpt lat="42.88326" lon="0.07292">
        <ele>1955</ele>
        <time>2013-01-01T13:31:59Z</time>
      </trkpt>
      <trkpt lat="42.8833" lon="0.07292">
        <ele>1954</ele>
        <time>2013-01-01T13:32:00Z</time>
      </trkpt>
      <trkpt lat="42.88335" lon="0.07294">
        <ele>1953</ele>
        <time>2013-01-01T13:32:01Z</time>
      </trkpt>
      <trkpt lat="42.8834" lon="0.07295">
        <ele>1952</ele>
        <time>2013-01-01T13:32:02Z</time>
      </trkpt>
      <trkpt lat="42.88345" lon="0.07297">
        <ele>1951</ele>
        <time>2013-01-01T13:32:03Z</time>
      </trkpt>
      <trkpt lat="42.8835" lon="0.07298">
        <ele>1950</ele>
        <time>2013-01-01T13:32:04Z</time>
      </trkpt>
      <trkpt lat="42.88354" lon="0.07299">
        <ele>1949</ele>
        <time>2013-01-01T13:32:05Z</time>
      </trkpt>
      <trkpt lat="42.88359" lon="0.07301">
        <ele>1948</ele>
        <time>2013-01-01T13:32:06Z</time>
      </trkpt>
      <trkpt lat="42.88363" lon="0.07302">
        <ele>1947</ele>
        <time>2013-01-01T13:32:07Z</time>
      </trkpt>
      <trkpt lat="42.88367" lon="0.07303">
        <ele>1946</ele>
        <time>2013-01-01T13:32:08Z</time>
      </trkpt>
      <trkpt lat="42.88371" lon="0.07305">
        <ele>1945</ele>
        <time>2013-01-01T13:32:09Z</time>
      </trkpt>
      <trkpt lat="42.88374" lon="0.07306">
        <ele>1944</ele>
        <time>2013-01-01T13:32:10Z</time>
      </trkpt>
      <trkpt lat="42.88378" lon="0.07307">
        <ele>1944</ele>
        <time>2013-01-01T13:32:11Z</time>
      </trkpt>
      <trkpt lat="42.88382" lon="0.0731">
        <ele>1944</ele>
        <time>2013-01-01T13:32:12Z</time>
      </trkpt>
      <trkpt lat="42.88385" lon="0.07312">
        <ele>1943</ele>
        <time>2013-01-01T13:32:13Z</time>
      </trkpt>
      <trkpt lat="42.88388" lon="0.07314">
        <ele>1943</ele>
        <time>2013-01-01T13:32:14Z</time>
      </trkpt>
      <trkpt lat="42.8839" lon="0.07313">
        <ele>1942</ele>
        <time>2013-01-01T13:32:15Z</time>
      </trkpt>
      <trkpt lat="42.88392" lon="0.07313">
        <ele>1942</ele>
        <time>2013-01-01T13:32:16Z</time>
      </trkpt>
      <trkpt lat="42.88394" lon="0.07314">
        <ele>1941</ele>
        <time>2013-01-01T13:32:17Z</time>
      </trkpt>
      <trkpt lat="42.88395" lon="0.07316">
        <ele>1941</ele>
        <time>2013-01-01T13:32:18Z</time>
      </trkpt>
      <trkpt lat="42.88395" lon="0.07317">
        <ele>1941</ele>
        <time>2013-01-01T13:32:22Z</time>
      </trkpt>
      <trkpt lat="42.88393" lon="0.07317">
        <ele>1941</ele>
        <time>2013-01-01T13:32:31Z</time>
      </trkpt>
      <trkpt lat="42.88392" lon="0.07318">
        <ele>1941</ele>
        <time>2013-01-01T13:32:37Z</time>
      </trkpt>
      <trkpt lat="42.88391" lon="0.07318">
        <ele>1942</ele>
        <time>2013-01-01T13:32:56Z</time>
      </trkpt>
      <trkpt lat="42.88392" lon="0.0732">
        <ele>1947</ele>
        <time>2013-01-01T13:34:09Z</time>
      </trkpt>
      <trkpt lat="42.88393" lon="0.07322">
        <ele>1947</ele>
        <time>2013-01-01T13:34:12Z</time>
      </trkpt>
      <trkpt lat="42.88395" lon="0.07321">
        <ele>1947</ele>
        <time>2013-01-01T13:34:14Z</time>
      </trkpt>
      <trkpt lat="42.88397" lon="0.0732">
        <ele>1947</ele>
        <time>2013-01-01T13:34:15Z</time>
      </trkpt>
      <trkpt lat="42.88399" lon="0.0732">
        <ele>1947</ele>
        <time>2013-01-01T13:34:16Z</time>
      </trkpt>
      <trkpt lat="42.88401" lon="0.07321">
        <ele>1947</ele>
        <time>2013-01-01T13:34:17Z</time>
      </trkpt>
      <trkpt lat="42.88403" lon="0.07324">
        <ele>1947</ele>
        <time>2013-01-01T13:34:18Z</time>
      </trkpt>
      <trkpt lat="42.88406" lon="0.07324">
        <ele>1947</ele>
        <time>2013-01-01T13:34:19Z</time>
      </trkpt>
      <trkpt lat="42.88407" lon="0.07322">
        <ele>1947</ele>
        <time>2013-01-01T13:34:20Z</time>
      </trkpt>
      <trkpt lat="42.88408" lon="0.0732">
        <ele>1947</ele>
        <time>2013-01-01T13:34:21Z</time>
      </trkpt>
      <trkpt lat="42.88409" lon="0.07318">
        <ele>1947</ele>
        <time>2013-01-01T13:34:22Z</time>
      </trkpt>
      <trkpt lat="42.88411" lon="0.07318">
        <ele>1946</ele>
        <time>2013-01-01T13:34:23Z</time>
      </trkpt>
      <trkpt lat="42.88414" lon="0.0732">
        <ele>1946</ele>
        <time>2013-01-01T13:34:24Z</time>
      </trkpt>
      <trkpt lat="42.88417" lon="0.07322">
        <ele>1945</ele>
        <time>2013-01-01T13:34:25Z</time>
      </trkpt>
      <trkpt lat="42.8842" lon="0.07321">
        <ele>1945</ele>
        <time>2013-01-01T13:34:26Z</time>
      </trkpt>
      <trkpt lat="42.88422" lon="0.07319">
        <ele>1944</ele>
        <time>2013-01-01T13:34:27Z</time>
      </trkpt>
      <trkpt lat="42.88423" lon="0.07316">
        <ele>1943</ele>
        <time>2013-01-01T13:34:28Z</time>
      </trkpt>
      <trkpt lat="42.88425" lon="0.07315">
        <ele>1943</ele>
        <time>2013-01-01T13:34:29Z</time>
      </trkpt>
      <trkpt lat="42.88428" lon="0.07316">
        <ele>1942</ele>
        <time>2013-01-01T13:34:30Z</time>
      </trkpt>
      <trkpt lat="42.88431" lon="0.07318">
        <ele>1941</ele>
        <time>2013-01-01T13:34:31Z</time>
      </trkpt>
      <trkpt lat="42.88434" lon="0.0732">
        <ele>1940</ele>
        <time>2013-01-01T13:34:32Z</time>
      </trkpt>
      <trkpt lat="42.88436" lon="0.07319">
        <ele>1939</ele>
        <time>2013-01-01T13:34:33Z</time>
      </trkpt>
      <trkpt lat="42.88439" lon="0.07318">
        <ele>1938</ele>
        <time>2013-01-01T13:34:34Z</time>
      </trkpt>
      <trkpt lat="42.88443" lon="0.07318">
        <ele>1938</ele>
        <time>2013-01-01T13:34:35Z</time>
      </trkpt>
      <trkpt lat="42.88446" lon="0.07317">
        <ele>1937</ele>
        <time>2013-01-01T13:34:36Z</time>
      </trkpt>
      <trkpt lat="42.88448" lon="0.07315">
        <ele>1936</ele>
        <time>2013-01-01T13:34:37Z</time>
      </trkpt>
      <trkpt lat="42.8845" lon="0.07313">
        <ele>1935</ele>
        <time>2013-01-01T13:34:38Z</time>
      </trkpt>
      <trkpt lat="42.88453" lon="0.07313">
        <ele>1934</ele>
        <time>2013-01-01T13:34:39Z</time>
      </trkpt>
      <trkpt lat="42.88456" lon="0.07314">
        <ele>1933</ele>
        <time>2013-01-01T13:34:40Z</time>
      </trkpt>
      <trkpt lat="42.88459" lon="0.07316">
        <ele>1932</ele>
        <time>2013-01-01T13:34:41Z</time>
      </trkpt>
      <trkpt lat="42.88463" lon="0.07317">
        <ele>1931</ele>
        <time>2013-01-01T13:34:42Z</time>
      </trkpt>
      <trkpt lat="42.88466" lon="0.07317">
        <ele>1930</ele>
        <time>2013-01-01T13:34:43Z</time>
      </trkpt>
      <trkpt lat="42.8847" lon="0.07316">
        <ele>1929</ele>
        <time>2013-01-01T13:34:44Z</time>
      </trkpt>
      <trkpt lat="42.88473" lon="0.07317">
        <ele>1928</ele>
        <time>2013-01-01T13:34:45Z</time>
      </trkpt>
      <trkpt lat="42.88476" lon="0.07319">
        <ele>1927</ele>
        <time>2013-01-01T13:34:46Z</time>
      </trkpt>
      <trkpt lat="42.88479" lon="0.0732">
        <ele>1926</ele>
        <time>2013-01-01T13:34:47Z</time>
      </trkpt>
      <trkpt lat="42.88482" lon="0.0732">
        <ele>1925</ele>
        <time>2013-01-01T13:34:48Z</time>
      </trkpt>
      <trkpt lat="42.88485" lon="0.0732">
        <ele>1923</ele>
        <time>2013-01-01T13:34:49Z</time>
      </trkpt>
      <trkpt lat="42.88488" lon="0.07322">
        <ele>1922</ele>
        <time>2013-01-01T13:34:50Z</time>
      </trkpt>
      <trkpt lat="42.88491" lon="0.07324">
        <ele>1921</ele>
        <time>2013-01-01T13:34:51Z</time>
      </trkpt>
      <trkpt lat="42.88494" lon="0.07326">
        <ele>1919</ele>
        <time>2013-01-01T13:34:52Z</time>
      </trkpt>
      <trkpt lat="42.88497" lon="0.07326">
        <ele>1918</ele>
        <time>2013-01-01T13:34:53Z</time>
      </trkpt>
      <trkpt lat="42.88501" lon="0.07327">
        <ele>1917</ele>
        <time>2013-01-01T13:34:54Z</time>
      </trkpt>
      <trkpt lat="42.88504" lon="0.07328">
        <ele>1916</ele>
        <time>2013-01-01T13:34:55Z</time>
      </trkpt>
      <trkpt lat="42.88507" lon="0.0733">
        <ele>1915</ele>
        <time>2013-01-01T13:34:56Z</time>
      </trkpt>
      <trkpt lat="42.88511" lon="0.07332">
        <ele>1914</ele>
        <time>2013-01-01T13:34:57Z</time>
      </trkpt>
      <trkpt lat="42.88514" lon="0.07333">
        <ele>1913</ele>
        <time>2013-01-01T13:34:58Z</time>
      </trkpt>
      <trkpt lat="42.88517" lon="0.07334">
        <ele>1912</ele>
        <time>2013-01-01T13:34:59Z</time>
      </trkpt>
      <trkpt lat="42.8852" lon="0.07336">
        <ele>1911</ele>
        <time>2013-01-01T13:35:00Z</time>
      </trkpt>
      <trkpt lat="42.88523" lon="0.07338">
        <ele>1910</ele>
        <time>2013-01-01T13:35:01Z</time>
      </trkpt>
      <trkpt lat="42.88526" lon="0.07339">
        <ele>1909</ele>
        <time>2013-01-01T13:35:02Z</time>
      </trkpt>
      <trkpt lat="42.88528" lon="0.07342">
        <ele>1908</ele>
        <time>2013-01-01T13:35:03Z</time>
      </trkpt>
      <trkpt lat="42.88531" lon="0.07345">
        <ele>1907</ele>
        <time>2013-01-01T13:35:04Z</time>
      </trkpt>
      <trkpt lat="42.88533" lon="0.07348">
        <ele>1906</ele>
        <time>2013-01-01T13:35:05Z</time>
      </trkpt>
      <trkpt lat="42.88536" lon="0.07351">
        <ele>1905</ele>
        <time>2013-01-01T13:35:06Z</time>
      </trkpt>
      <trkpt lat="42.88539" lon="0.07355">
        <ele>1904</ele>
        <time>2013-01-01T13:35:07Z</time>
      </trkpt>
      <trkpt lat="42.88542" lon="0.07359">
        <ele>1903</ele>
        <time>2013-01-01T13:35:08Z</time>
      </trkpt>
      <trkpt lat="42.88545" lon="0.07362">
        <ele>1902</ele>
        <time>2013-01-01T13:35:09Z</time>
      </trkpt>
      <trkpt lat="42.88547" lon="0.07365">
        <ele>1901</ele>
        <time>2013-01-01T13:35:10Z</time>
      </trkpt>
      <trkpt lat="42.88549" lon="0.07367">
        <ele>1900</ele>
        <time>2013-01-01T13:35:11Z</time>
      </trkpt>
      <trkpt lat="42.88551" lon="0.07368">
        <ele>1899</ele>
        <time>2013-01-01T13:35:12Z</time>
      </trkpt>
      <trkpt lat="42.88554" lon="0.0737">
        <ele>1898</ele>
        <time>2013-01-01T13:35:13Z</time>
      </trkpt>
      <trkpt lat="42.88557" lon="0.07373">
        <ele>1897</ele>
        <time>2013-01-01T13:35:14Z</time>
      </trkpt>
      <trkpt lat="42.8856" lon="0.07376">
        <ele>1896</ele>
        <time>2013-01-01T13:35:15Z</time>
      </trkpt>
      <trkpt lat="42.88563" lon="0.0738">
        <ele>1896</ele>
        <time>2013-01-01T13:35:16Z</time>
      </trkpt>
      <trkpt lat="42.88566" lon="0.07383">
        <ele>1895</ele>
        <time>2013-01-01T13:35:17Z</time>
      </trkpt>
      <trkpt lat="42.88568" lon="0.07385">
        <ele>1894</ele>
        <time>2013-01-01T13:35:18Z</time>
      </trkpt>
      <trkpt lat="42.88571" lon="0.07388">
        <ele>1894</ele>
        <time>2013-01-01T13:35:19Z</time>
      </trkpt>
      <trkpt lat="42.88574" lon="0.07389">
        <ele>1893</ele>
        <time>2013-01-01T13:35:20Z</time>
      </trkpt>
      <trkpt lat="42.88578" lon="0.07392">
        <ele>1893</ele>
        <time>2013-01-01T13:35:21Z</time>
      </trkpt>
      <trkpt lat="42.88584" lon="0.07393">
        <ele>1892</ele>
        <time>2013-01-01T13:35:22Z</time>
      </trkpt>
      <trkpt lat="42.88588" lon="0.07396">
        <ele>1891</ele>
        <time>2013-01-01T13:35:23Z</time>
      </trkpt>
      <trkpt lat="42.88592" lon="0.074">
        <ele>1891</ele>
        <time>2013-01-01T13:35:24Z</time>
      </trkpt>
      <trkpt lat="42.88595" lon="0.07403">
        <ele>1890</ele>
        <time>2013-01-01T13:35:25Z</time>
      </trkpt>
      <trkpt lat="42.88599" lon="0.07405">
        <ele>1889</ele>
        <time>2013-01-01T13:35:26Z</time>
      </trkpt>
      <trkpt lat="42.88602" lon="0.07409">
        <ele>1888</ele>
        <time>2013-01-01T13:35:27Z</time>
      </trkpt>
      <trkpt lat="42.88604" lon="0.07412">
        <ele>1887</ele>
        <time>2013-01-01T13:35:28Z</time>
      </trkpt>
      <trkpt lat="42.88607" lon="0.07415">
        <ele>1886</ele>
        <time>2013-01-01T13:35:29Z</time>
      </trkpt>
      <trkpt lat="42.88611" lon="0.07419">
        <ele>1885</ele>
        <time>2013-01-01T13:35:30Z</time>
      </trkpt>
      <trkpt lat="42.88616" lon="0.07422">
        <ele>1884</ele>
        <time>2013-01-01T13:35:31Z</time>
      </trkpt>
      <trkpt lat="42.88621" lon="0.07426">
        <ele>1883</ele>
        <time>2013-01-01T13:35:32Z</time>
      </trkpt>
      <trkpt lat="42.88625" lon="0.07431">
        <ele>1882</ele>
        <time>2013-01-01T13:35:33Z</time>
      </trkpt>
      <trkpt lat="42.88629" lon="0.07434">
        <ele>1881</ele>
        <time>2013-01-01T13:35:34Z</time>
      </trkpt>
      <trkpt lat="42.88631" lon="0.07437">
        <ele>1880</ele>
        <time>2013-01-01T13:35:35Z</time>
      </trkpt>
      <trkpt lat="42.88633" lon="0.07441">
        <ele>1879</ele>
        <time>2013-01-01T13:35:36Z</time>
      </trkpt>
      <trkpt lat="42.88633" lon="0.07445">
        <ele>1878</ele>
        <time>2013-01-01T13:35:37Z</time>
      </trkpt>
      <trkpt lat="42.88633" lon="0.07449">
        <ele>1877</ele>
        <time>2013-01-01T13:35:38Z</time>
      </trkpt>
      <trkpt lat="42.88635" lon="0.07451">
        <ele>1876</ele>
        <time>2013-01-01T13:35:39Z</time>
      </trkpt>
      <trkpt lat="42.88637" lon="0.07452">
        <ele>1875</ele>
        <time>2013-01-01T13:35:40Z</time>
      </trkpt>
      <trkpt lat="42.88637" lon="0.07455">
        <ele>1874</ele>
        <time>2013-01-01T13:35:41Z</time>
      </trkpt>
      <trkpt lat="42.88637" lon="0.07457">
        <ele>1874</ele>
        <time>2013-01-01T13:35:42Z</time>
      </trkpt>
      <trkpt lat="42.88637" lon="0.07458">
        <ele>1873</ele>
        <time>2013-01-01T13:36:28Z</time>
      </trkpt>
      <trkpt lat="42.88638" lon="0.0746">
        <ele>1873</ele>
        <time>2013-01-01T13:36:29Z</time>
      </trkpt>
      <trkpt lat="42.88639" lon="0.07463">
        <ele>1873</ele>
        <time>2013-01-01T13:36:30Z</time>
      </trkpt>
      <trkpt lat="42.88641" lon="0.07465">
        <ele>1873</ele>
        <time>2013-01-01T13:36:31Z</time>
      </trkpt>
      <trkpt lat="42.88643" lon="0.07468">
        <ele>1873</ele>
        <time>2013-01-01T13:36:32Z</time>
      </trkpt>
      <trkpt lat="42.88644" lon="0.07472">
        <ele>1873</ele>
        <time>2013-01-01T13:36:33Z</time>
      </trkpt>
      <trkpt lat="42.88646" lon="0.07475">
        <ele>1873</ele>
        <time>2013-01-01T13:36:34Z</time>
      </trkpt>
      <trkpt lat="42.88648" lon="0.07479">
        <ele>1873</ele>
        <time>2013-01-01T13:36:35Z</time>
      </trkpt>
      <trkpt lat="42.8865" lon="0.07482">
        <ele>1873</ele>
        <time>2013-01-01T13:36:36Z</time>
      </trkpt>
      <trkpt lat="42.8865" lon="0.07487">
        <ele>1873</ele>
        <time>2013-01-01T13:36:37Z</time>
      </trkpt>
      <trkpt lat="42.88651" lon="0.07491">
        <ele>1873</ele>
        <time>2013-01-01T13:36:38Z</time>
      </trkpt>
      <trkpt lat="42.88653" lon="0.07494">
        <ele>1872</ele>
        <time>2013-01-01T13:36:39Z</time>
      </trkpt>
      <trkpt lat="42.88654" lon="0.07497">
        <ele>1871</ele>
        <time>2013-01-01T13:36:40Z</time>
      </trkpt>
      <trkpt lat="42.88654" lon="0.07501">
        <ele>1871</ele>
        <time>2013-01-01T13:36:41Z</time>
      </trkpt>
      <trkpt lat="42.88653" lon="0.07505">
        <ele>1870</ele>
        <time>2013-01-01T13:36:42Z</time>
      </trkpt>
      <trkpt lat="42.88653" lon="0.07509">
        <ele>1869</ele>
        <time>2013-01-01T13:36:43Z</time>
      </trkpt>
      <trkpt lat="42.88653" lon="0.07513">
        <ele>1869</ele>
        <time>2013-01-01T13:36:44Z</time>
      </trkpt>
      <trkpt lat="42.88653" lon="0.07517">
        <ele>1869</ele>
        <time>2013-01-01T13:36:45Z</time>
      </trkpt>
      <trkpt lat="42.88654" lon="0.07521">
        <ele>1868</ele>
        <time>2013-01-01T13:36:46Z</time>
      </trkpt>
      <trkpt lat="42.88657" lon="0.07523">
        <ele>1868</ele>
        <time>2013-01-01T13:36:47Z</time>
      </trkpt>
      <trkpt lat="42.88659" lon="0.07524">
        <ele>1867</ele>
        <time>2013-01-01T13:36:48Z</time>
      </trkpt>
      <trkpt lat="42.8866" lon="0.07527">
        <ele>1867</ele>
        <time>2013-01-01T13:36:49Z</time>
      </trkpt>
      <trkpt lat="42.88661" lon="0.0753">
        <ele>1866</ele>
        <time>2013-01-01T13:36:50Z</time>
      </trkpt>
      <trkpt lat="42.88661" lon="0.07534">
        <ele>1866</ele>
        <time>2013-01-01T13:36:51Z</time>
      </trkpt>
      <trkpt lat="42.88662" lon="0.07538">
        <ele>1866</ele>
        <time>2013-01-01T13:36:52Z</time>
      </trkpt>
      <trkpt lat="42.88663" lon="0.0754">
        <ele>1865</ele>
        <time>2013-01-01T13:36:53Z</time>
      </trkpt>
      <trkpt lat="42.88665" lon="0.0754">
        <ele>1865</ele>
        <time>2013-01-01T13:36:54Z</time>
      </trkpt>
      <trkpt lat="42.88667" lon="0.07539">
        <ele>1865</ele>
        <time>2013-01-01T13:36:55Z</time>
      </trkpt>
      <trkpt lat="42.88668" lon="0.0754">
        <ele>1864</ele>
        <time>2013-01-01T13:36:56Z</time>
      </trkpt>
      <trkpt lat="42.88669" lon="0.07542">
        <ele>1864</ele>
        <time>2013-01-01T13:36:57Z</time>
      </trkpt>
      <trkpt lat="42.8867" lon="0.07545">
        <ele>1863</ele>
        <time>2013-01-01T13:36:58Z</time>
      </trkpt>
      <trkpt lat="42.8867" lon="0.07548">
        <ele>1863</ele>
        <time>2013-01-01T13:36:59Z</time>
      </trkpt>
      <trkpt lat="42.88672" lon="0.0755">
        <ele>1862</ele>
        <time>2013-01-01T13:37:00Z</time>
      </trkpt>
      <trkpt lat="42.88674" lon="0.07551">
        <ele>1862</ele>
        <time>2013-01-01T13:37:01Z</time>
      </trkpt>
      <trkpt lat="42.88675" lon="0.07554">
        <ele>1861</ele>
        <time>2013-01-01T13:37:02Z</time>
      </trkpt>
      <trkpt lat="42.88675" lon="0.07557">
        <ele>1861</ele>
        <time>2013-01-01T13:37:03Z</time>
      </trkpt>
      <trkpt lat="42.88676" lon="0.07559">
        <ele>1860</ele>
        <time>2013-01-01T13:37:04Z</time>
      </trkpt>
      <trkpt lat="42.88677" lon="0.0756">
        <ele>1860</ele>
        <time>2013-01-01T13:37:05Z</time>
      </trkpt>
      <trkpt lat="42.88679" lon="0.0756">
        <ele>1859</ele>
        <time>2013-01-01T13:37:06Z</time>
      </trkpt>
      <trkpt lat="42.88681" lon="0.07562">
        <ele>1858</ele>
        <time>2013-01-01T13:37:07Z</time>
      </trkpt>
      <trkpt lat="42.88682" lon="0.07565">
        <ele>1858</ele>
        <time>2013-01-01T13:37:08Z</time>
      </trkpt>
      <trkpt lat="42.88682" lon="0.07567">
        <ele>1857</ele>
        <time>2013-01-01T13:37:09Z</time>
      </trkpt>
      <trkpt lat="42.88683" lon="0.0757">
        <ele>1856</ele>
        <time>2013-01-01T13:37:10Z</time>
      </trkpt>
      <trkpt lat="42.88684" lon="0.07572">
        <ele>1856</ele>
        <time>2013-01-01T13:37:11Z</time>
      </trkpt>
      <trkpt lat="42.88684" lon="0.07574">
        <ele>1855</ele>
        <time>2013-01-01T13:37:12Z</time>
      </trkpt>
      <trkpt lat="42.88685" lon="0.07576">
        <ele>1855</ele>
        <time>2013-01-01T13:37:13Z</time>
      </trkpt>
      <trkpt lat="42.88684" lon="0.07579">
        <ele>1855</ele>
        <time>2013-01-01T13:37:14Z</time>
      </trkpt>
      <trkpt lat="42.88684" lon="0.07581">
        <ele>1854</ele>
        <time>2013-01-01T13:37:15Z</time>
      </trkpt>
      <trkpt lat="42.88683" lon="0.07583">
        <ele>1854</ele>
        <time>2013-01-01T13:37:16Z</time>
      </trkpt>
      <trkpt lat="42.88683" lon="0.07586">
        <ele>1854</ele>
        <time>2013-01-01T13:37:17Z</time>
      </trkpt>
      <trkpt lat="42.88683" lon="0.07588">
        <ele>1853</ele>
        <time>2013-01-01T13:37:18Z</time>
      </trkpt>
      <trkpt lat="42.88682" lon="0.0759">
        <ele>1853</ele>
        <time>2013-01-01T13:37:19Z</time>
      </trkpt>
      <trkpt lat="42.88681" lon="0.07593">
        <ele>1853</ele>
        <time>2013-01-01T13:37:20Z</time>
      </trkpt>
      <trkpt lat="42.88681" lon="0.07597">
        <ele>1852</ele>
        <time>2013-01-01T13:37:21Z</time>
      </trkpt>
      <trkpt lat="42.88681" lon="0.07599">
        <ele>1852</ele>
        <time>2013-01-01T13:37:22Z</time>
      </trkpt>
      <trkpt lat="42.88679" lon="0.07602">
        <ele>1852</ele>
        <time>2013-01-01T13:37:23Z</time>
      </trkpt>
      <trkpt lat="42.88678" lon="0.07604">
        <ele>1851</ele>
        <time>2013-01-01T13:37:24Z</time>
      </trkpt>
      <trkpt lat="42.88676" lon="0.07606">
        <ele>1851</ele>
        <time>2013-01-01T13:37:25Z</time>
      </trkpt>
      <trkpt lat="42.88675" lon="0.07609">
        <ele>1851</ele>
        <time>2013-01-01T13:37:26Z</time>
      </trkpt>
      <trkpt lat="42.88675" lon="0.07612">
        <ele>1850</ele>
        <time>2013-01-01T13:37:27Z</time>
      </trkpt>
      <trkpt lat="42.88675" lon="0.07615">
        <ele>1850</ele>
        <time>2013-01-01T13:37:28Z</time>
      </trkpt>
      <trkpt lat="42.88674" lon="0.07618">
        <ele>1849</ele>
        <time>2013-01-01T13:37:29Z</time>
      </trkpt>
      <trkpt lat="42.88671" lon="0.07621">
        <ele>1849</ele>
        <time>2013-01-01T13:37:30Z</time>
      </trkpt>
      <trkpt lat="42.8867" lon="0.07624">
        <ele>1848</ele>
        <time>2013-01-01T13:37:31Z</time>
      </trkpt>
      <trkpt lat="42.88671" lon="0.07628">
        <ele>1848</ele>
        <time>2013-01-01T13:37:32Z</time>
      </trkpt>
      <trkpt lat="42.88671" lon="0.07631">
        <ele>1847</ele>
        <time>2013-01-01T13:37:33Z</time>
      </trkpt>
      <trkpt lat="42.8867" lon="0.07634">
        <ele>1846</ele>
        <time>2013-01-01T13:37:34Z</time>
      </trkpt>
      <trkpt lat="42.88668" lon="0.07637">
        <ele>1846</ele>
        <time>2013-01-01T13:37:35Z</time>
      </trkpt>
      <trkpt lat="42.88667" lon="0.07641">
        <ele>1845</ele>
        <time>2013-01-01T13:37:36Z</time>
      </trkpt>
      <trkpt lat="42.88668" lon="0.07643">
        <ele>1844</ele>
        <time>2013-01-01T13:37:37Z</time>
      </trkpt>
      <trkpt lat="42.88668" lon="0.07646">
        <ele>1844</ele>
        <time>2013-01-01T13:37:38Z</time>
      </trkpt>
      <trkpt lat="42.88666" lon="0.07648">
        <ele>1843</ele>
        <time>2013-01-01T13:37:39Z</time>
      </trkpt>
      <trkpt lat="42.88664" lon="0.0765">
        <ele>1842</ele>
        <time>2013-01-01T13:37:40Z</time>
      </trkpt>
      <trkpt lat="42.88663" lon="0.07653">
        <ele>1842</ele>
        <time>2013-01-01T13:37:41Z</time>
      </trkpt>
      <trkpt lat="42.88664" lon="0.07656">
        <ele>1841</ele>
        <time>2013-01-01T13:37:42Z</time>
      </trkpt>
      <trkpt lat="42.88664" lon="0.07659">
        <ele>1841</ele>
        <time>2013-01-01T13:37:43Z</time>
      </trkpt>
      <trkpt lat="42.88662" lon="0.07661">
        <ele>1840</ele>
        <time>2013-01-01T13:37:44Z</time>
      </trkpt>
      <trkpt lat="42.88661" lon="0.07663">
        <ele>1840</ele>
        <time>2013-01-01T13:37:45Z</time>
      </trkpt>
      <trkpt lat="42.8866" lon="0.07666">
        <ele>1839</ele>
        <time>2013-01-01T13:37:46Z</time>
      </trkpt>
      <trkpt lat="42.88662" lon="0.07668">
        <ele>1839</ele>
        <time>2013-01-01T13:37:47Z</time>
      </trkpt>
      <trkpt lat="42.88663" lon="0.07671">
        <ele>1838</ele>
        <time>2013-01-01T13:37:48Z</time>
      </trkpt>
      <trkpt lat="42.88662" lon="0.07673">
        <ele>1838</ele>
        <time>2013-01-01T13:37:49Z</time>
      </trkpt>
      <trkpt lat="42.88661" lon="0.07676">
        <ele>1837</ele>
        <time>2013-01-01T13:37:50Z</time>
      </trkpt>
      <trkpt lat="42.88659" lon="0.07677">
        <ele>1837</ele>
        <time>2013-01-01T13:37:51Z</time>
      </trkpt>
      <trkpt lat="42.88657" lon="0.07678">
        <ele>1837</ele>
        <time>2013-01-01T13:37:52Z</time>
      </trkpt>
      <trkpt lat="42.88655" lon="0.07681">
        <ele>1836</ele>
        <time>2013-01-01T13:37:53Z</time>
      </trkpt>
      <trkpt lat="42.88656" lon="0.07683">
        <ele>1836</ele>
        <time>2013-01-01T13:37:54Z</time>
      </trkpt>
      <trkpt lat="42.88655" lon="0.07685">
        <ele>1835</ele>
        <time>2013-01-01T13:37:55Z</time>
      </trkpt>
      <trkpt lat="42.88654" lon="0.07687">
        <ele>1834</ele>
        <time>2013-01-01T13:37:56Z</time>
      </trkpt>
      <trkpt lat="42.88652" lon="0.07688">
        <ele>1834</ele>
        <time>2013-01-01T13:37:57Z</time>
      </trkpt>
      <trkpt lat="42.88649" lon="0.07688">
        <ele>1833</ele>
        <time>2013-01-01T13:37:58Z</time>
      </trkpt>
      <trkpt lat="42.88647" lon="0.0769">
        <ele>1833</ele>
        <time>2013-01-01T13:37:59Z</time>
      </trkpt>
      <trkpt lat="42.88646" lon="0.07693">
        <ele>1833</ele>
        <time>2013-01-01T13:38:00Z</time>
      </trkpt>
      <trkpt lat="42.88647" lon="0.07695">
        <ele>1832</ele>
        <time>2013-01-01T13:38:01Z</time>
      </trkpt>
      <trkpt lat="42.88648" lon="0.07698">
        <ele>1832</ele>
        <time>2013-01-01T13:38:02Z</time>
      </trkpt>
      <trkpt lat="42.88649" lon="0.077">
        <ele>1831</ele>
        <time>2013-01-01T13:38:03Z</time>
      </trkpt>
      <trkpt lat="42.88648" lon="0.07703">
        <ele>1830</ele>
        <time>2013-01-01T13:38:04Z</time>
      </trkpt>
      <trkpt lat="42.88646" lon="0.07704">
        <ele>1830</ele>
        <time>2013-01-01T13:38:05Z</time>
      </trkpt>
      <trkpt lat="42.88644" lon="0.07704">
        <ele>1829</ele>
        <time>2013-01-01T13:38:06Z</time>
      </trkpt>
      <trkpt lat="42.88641" lon="0.07705">
        <ele>1828</ele>
        <time>2013-01-01T13:38:07Z</time>
      </trkpt>
      <trkpt lat="42.8864" lon="0.07707">
        <ele>1828</ele>
        <time>2013-01-01T13:38:08Z</time>
      </trkpt>
      <trkpt lat="42.8864" lon="0.07711">
        <ele>1827</ele>
        <time>2013-01-01T13:38:09Z</time>
      </trkpt>
      <trkpt lat="42.8864" lon="0.07714">
        <ele>1826</ele>
        <time>2013-01-01T13:38:10Z</time>
      </trkpt>
      <trkpt lat="42.88638" lon="0.07716">
        <ele>1825</ele>
        <time>2013-01-01T13:38:11Z</time>
      </trkpt>
      <trkpt lat="42.88635" lon="0.07717">
        <ele>1825</ele>
        <time>2013-01-01T13:38:12Z</time>
      </trkpt>
      <trkpt lat="42.88632" lon="0.07718">
        <ele>1824</ele>
        <time>2013-01-01T13:38:13Z</time>
      </trkpt>
      <trkpt lat="42.88631" lon="0.0772">
        <ele>1823</ele>
        <time>2013-01-01T13:38:14Z</time>
      </trkpt>
      <trkpt lat="42.8863" lon="0.07723">
        <ele>1822</ele>
        <time>2013-01-01T13:38:15Z</time>
      </trkpt>
      <trkpt lat="42.88627" lon="0.07725">
        <ele>1821</ele>
        <time>2013-01-01T13:38:16Z</time>
      </trkpt>
      <trkpt lat="42.88624" lon="0.07725">
        <ele>1820</ele>
        <time>2013-01-01T13:38:17Z</time>
      </trkpt>
      <trkpt lat="42.88621" lon="0.07726">
        <ele>1819</ele>
        <time>2013-01-01T13:38:18Z</time>
      </trkpt>
      <trkpt lat="42.88619" lon="0.07729">
        <ele>1818</ele>
        <time>2013-01-01T13:38:19Z</time>
      </trkpt>
      <trkpt lat="42.88618" lon="0.07732">
        <ele>1817</ele>
        <time>2013-01-01T13:38:20Z</time>
      </trkpt>
      <trkpt lat="42.88615" lon="0.07734">
        <ele>1817</ele>
        <time>2013-01-01T13:38:21Z</time>
      </trkpt>
      <trkpt lat="42.88612" lon="0.07735">
        <ele>1816</ele>
        <time>2013-01-01T13:38:22Z</time>
      </trkpt>
      <trkpt lat="42.8861" lon="0.07737">
        <ele>1815</ele>
        <time>2013-01-01T13:38:23Z</time>
      </trkpt>
      <trkpt lat="42.88609" lon="0.07739">
        <ele>1814</ele>
        <time>2013-01-01T13:38:24Z</time>
      </trkpt>
      <trkpt lat="42.88608" lon="0.07742">
        <ele>1814</ele>
        <time>2013-01-01T13:38:25Z</time>
      </trkpt>
      <trkpt lat="42.88606" lon="0.07744">
        <ele>1813</ele>
        <time>2013-01-01T13:38:26Z</time>
      </trkpt>
      <trkpt lat="42.88603" lon="0.07746">
        <ele>1812</ele>
        <time>2013-01-01T13:38:27Z</time>
      </trkpt>
      <trkpt lat="42.88601" lon="0.07748">
        <ele>1811</ele>
        <time>2013-01-01T13:38:28Z</time>
      </trkpt>
      <trkpt lat="42.88601" lon="0.0775">
        <ele>1811</ele>
        <time>2013-01-01T13:38:29Z</time>
      </trkpt>
      <trkpt lat="42.88601" lon="0.07753">
        <ele>1807</ele>
        <time>2013-01-01T13:38:48Z</time>
      </trkpt>
      <trkpt lat="42.88602" lon="0.07754">
        <ele>1807</ele>
        <time>2013-01-01T13:38:58Z</time>
      </trkpt>
      <trkpt lat="42.88602" lon="0.07758">
        <ele>1806</ele>
        <time>2013-01-01T13:39:00Z</time>
      </trkpt>
      <trkpt lat="42.88603" lon="0.0776">
        <ele>1806</ele>
        <time>2013-01-01T13:39:01Z</time>
      </trkpt>
      <trkpt lat="42.88604" lon="0.07761">
        <ele>1805</ele>
        <time>2013-01-01T13:39:02Z</time>
      </trkpt>
      <trkpt lat="42.88605" lon="0.07761">
        <ele>1805</ele>
        <time>2013-01-01T13:39:03Z</time>
      </trkpt>
      <trkpt lat="42.88607" lon="0.07761">
        <ele>1804</ele>
        <time>2013-01-01T13:39:05Z</time>
      </trkpt>
      <trkpt lat="42.88609" lon="0.07761">
        <ele>1803</ele>
        <time>2013-01-01T13:39:07Z</time>
      </trkpt>
      <trkpt lat="42.8861" lon="0.07764">
        <ele>1802</ele>
        <time>2013-01-01T13:39:09Z</time>
      </trkpt>
      <trkpt lat="42.88608" lon="0.07767">
        <ele>1801</ele>
        <time>2013-01-01T13:39:11Z</time>
      </trkpt>
      <trkpt lat="42.88607" lon="0.07768">
        <ele>1801</ele>
        <time>2013-01-01T13:39:12Z</time>
      </trkpt>
      <trkpt lat="42.88607" lon="0.07771">
        <ele>1800</ele>
        <time>2013-01-01T13:39:13Z</time>
      </trkpt>
      <trkpt lat="42.88608" lon="0.07772">
        <ele>1800</ele>
        <time>2013-01-01T13:39:14Z</time>
      </trkpt>
      <trkpt lat="42.88609" lon="0.07773">
        <ele>1799</ele>
        <time>2013-01-01T13:39:15Z</time>
      </trkpt>
      <trkpt lat="42.88611" lon="0.07773">
        <ele>1798</ele>
        <time>2013-01-01T13:39:16Z</time>
      </trkpt>
      <trkpt lat="42.88612" lon="0.07773">
        <ele>1798</ele>
        <time>2013-01-01T13:39:17Z</time>
      </trkpt>
      <trkpt lat="42.88614" lon="0.07774">
        <ele>1797</ele>
        <time>2013-01-01T13:39:18Z</time>
      </trkpt>
      <trkpt lat="42.88616" lon="0.07774">
        <ele>1797</ele>
        <time>2013-01-01T13:39:19Z</time>
      </trkpt>
      <trkpt lat="42.88617" lon="0.07775">
        <ele>1796</ele>
        <time>2013-01-01T13:39:20Z</time>
      </trkpt>
      <trkpt lat="42.8862" lon="0.07778">
        <ele>1795</ele>
        <time>2013-01-01T13:39:21Z</time>
      </trkpt>
      <trkpt lat="42.88622" lon="0.07779">
        <ele>1795</ele>
        <time>2013-01-01T13:39:22Z</time>
      </trkpt>
      <trkpt lat="42.88625" lon="0.07779">
        <ele>1794</ele>
        <time>2013-01-01T13:39:23Z</time>
      </trkpt>
      <trkpt lat="42.88626" lon="0.07782">
        <ele>1793</ele>
        <time>2013-01-01T13:39:24Z</time>
      </trkpt>
      <trkpt lat="42.88627" lon="0.07785">
        <ele>1792</ele>
        <time>2013-01-01T13:39:25Z</time>
      </trkpt>
      <trkpt lat="42.88629" lon="0.07789">
        <ele>1792</ele>
        <time>2013-01-01T13:39:26Z</time>
      </trkpt>
      <trkpt lat="42.88632" lon="0.0779">
        <ele>1791</ele>
        <time>2013-01-01T13:39:27Z</time>
      </trkpt>
      <trkpt lat="42.88635" lon="0.0779">
        <ele>1790</ele>
        <time>2013-01-01T13:39:28Z</time>
      </trkpt>
      <trkpt lat="42.88637" lon="0.07792">
        <ele>1789</ele>
        <time>2013-01-01T13:39:29Z</time>
      </trkpt>
      <trkpt lat="42.88639" lon="0.07795">
        <ele>1788</ele>
        <time>2013-01-01T13:39:30Z</time>
      </trkpt>
      <trkpt lat="42.88641" lon="0.07799">
        <ele>1788</ele>
        <time>2013-01-01T13:39:31Z</time>
      </trkpt>
      <trkpt lat="42.88644" lon="0.07801">
        <ele>1787</ele>
        <time>2013-01-01T13:39:32Z</time>
      </trkpt>
      <trkpt lat="42.88647" lon="0.07802">
        <ele>1786</ele>
        <time>2013-01-01T13:39:33Z</time>
      </trkpt>
      <trkpt lat="42.8865" lon="0.07803">
        <ele>1785</ele>
        <time>2013-01-01T13:39:34Z</time>
      </trkpt>
      <trkpt lat="42.88653" lon="0.07805">
        <ele>1785</ele>
        <time>2013-01-01T13:39:35Z</time>
      </trkpt>
      <trkpt lat="42.88655" lon="0.07809">
        <ele>1784</ele>
        <time>2013-01-01T13:39:36Z</time>
      </trkpt>
      <trkpt lat="42.88658" lon="0.07812">
        <ele>1783</ele>
        <time>2013-01-01T13:39:37Z</time>
      </trkpt>
      <trkpt lat="42.88661" lon="0.07813">
        <ele>1782</ele>
        <time>2013-01-01T13:39:38Z</time>
      </trkpt>
      <trkpt lat="42.88664" lon="0.07815">
        <ele>1781</ele>
        <time>2013-01-01T13:39:39Z</time>
      </trkpt>
      <trkpt lat="42.88666" lon="0.07817">
        <ele>1781</ele>
        <time>2013-01-01T13:39:40Z</time>
      </trkpt>
      <trkpt lat="42.88668" lon="0.07818">
        <ele>1781</ele>
        <time>2013-01-01T13:39:41Z</time>
      </trkpt>
      <trkpt lat="42.8867" lon="0.0782">
        <ele>1780</ele>
        <time>2013-01-01T13:39:42Z</time>
      </trkpt>
      <trkpt lat="42.88672" lon="0.0782">
        <ele>1780</ele>
        <time>2013-01-01T13:39:43Z</time>
      </trkpt>
      <trkpt lat="42.88675" lon="0.07821">
        <ele>1780</ele>
        <time>2013-01-01T13:39:44Z</time>
      </trkpt>
      <trkpt lat="42.88678" lon="0.07821">
        <ele>1780</ele>
        <time>2013-01-01T13:39:45Z</time>
      </trkpt>
      <trkpt lat="42.8868" lon="0.07821">
        <ele>1780</ele>
        <time>2013-01-01T13:39:46Z</time>
      </trkpt>
      <trkpt lat="42.88683" lon="0.0782">
        <ele>1779</ele>
        <time>2013-01-01T13:39:47Z</time>
      </trkpt>
      <trkpt lat="42.88685" lon="0.07819">
        <ele>1779</ele>
        <time>2013-01-01T13:39:48Z</time>
      </trkpt>
      <trkpt lat="42.88687" lon="0.07819">
        <ele>1779</ele>
        <time>2013-01-01T13:39:49Z</time>
      </trkpt>
      <trkpt lat="42.8869" lon="0.07819">
        <ele>1779</ele>
        <time>2013-01-01T13:39:50Z</time>
      </trkpt>
      <trkpt lat="42.88693" lon="0.07818">
        <ele>1778</ele>
        <time>2013-01-01T13:39:51Z</time>
      </trkpt>
      <trkpt lat="42.88696" lon="0.07817">
        <ele>1778</ele>
        <time>2013-01-01T13:39:52Z</time>
      </trkpt>
      <trkpt lat="42.88699" lon="0.07817">
        <ele>1778</ele>
        <time>2013-01-01T13:39:53Z</time>
      </trkpt>
      <trkpt lat="42.88702" lon="0.07818">
        <ele>1777</ele>
        <time>2013-01-01T13:39:54Z</time>
      </trkpt>
      <trkpt lat="42.88705" lon="0.07817">
        <ele>1777</ele>
        <time>2013-01-01T13:39:55Z</time>
      </trkpt>
      <trkpt lat="42.88707" lon="0.07815">
        <ele>1776</ele>
        <time>2013-01-01T13:39:56Z</time>
      </trkpt>
      <trkpt lat="42.8871" lon="0.07813">
        <ele>1775</ele>
        <time>2013-01-01T13:39:57Z</time>
      </trkpt>
      <trkpt lat="42.88712" lon="0.07811">
        <ele>1775</ele>
        <time>2013-01-01T13:39:58Z</time>
      </trkpt>
      <trkpt lat="42.88715" lon="0.0781">
        <ele>1774</ele>
        <time>2013-01-01T13:39:59Z</time>
      </trkpt>
      <trkpt lat="42.88718" lon="0.07811">
        <ele>1773</ele>
        <time>2013-01-01T13:40:00Z</time>
      </trkpt>
      <trkpt lat="42.88722" lon="0.07812">
        <ele>1773</ele>
        <time>2013-01-01T13:40:01Z</time>
      </trkpt>
      <trkpt lat="42.88725" lon="0.07811">
        <ele>1772</ele>
        <time>2013-01-01T13:40:02Z</time>
      </trkpt>
      <trkpt lat="42.88727" lon="0.07809">
        <ele>1772</ele>
        <time>2013-01-01T13:40:03Z</time>
      </trkpt>
      <trkpt lat="42.88729" lon="0.07806">
        <ele>1771</ele>
        <time>2013-01-01T13:40:04Z</time>
      </trkpt>
      <trkpt lat="42.88731" lon="0.07803">
        <ele>1771</ele>
        <time>2013-01-01T13:40:05Z</time>
      </trkpt>
      <trkpt lat="42.88733" lon="0.078">
        <ele>1770</ele>
        <time>2013-01-01T13:40:06Z</time>
      </trkpt>
      <trkpt lat="42.88735" lon="0.078">
        <ele>1770</ele>
        <time>2013-01-01T13:40:07Z</time>
      </trkpt>
      <trkpt lat="42.88738" lon="0.07801">
        <ele>1769</ele>
        <time>2013-01-01T13:40:08Z</time>
      </trkpt>
      <trkpt lat="42.88741" lon="0.07801">
        <ele>1769</ele>
        <time>2013-01-01T13:40:09Z</time>
      </trkpt>
      <trkpt lat="42.88744" lon="0.07799">
        <ele>1768</ele>
        <time>2013-01-01T13:40:10Z</time>
      </trkpt>
      <trkpt lat="42.88747" lon="0.07796">
        <ele>1768</ele>
        <time>2013-01-01T13:40:11Z</time>
      </trkpt>
      <trkpt lat="42.8875" lon="0.07791">
        <ele>1767</ele>
        <time>2013-01-01T13:40:12Z</time>
      </trkpt>
      <trkpt lat="42.88752" lon="0.07788">
        <ele>1766</ele>
        <time>2013-01-01T13:40:13Z</time>
      </trkpt>
      <trkpt lat="42.88755" lon="0.07786">
        <ele>1766</ele>
        <time>2013-01-01T13:40:14Z</time>
      </trkpt>
      <trkpt lat="42.88759" lon="0.07787">
        <ele>1765</ele>
        <time>2013-01-01T13:40:15Z</time>
      </trkpt>
      <trkpt lat="42.88763" lon="0.07786">
        <ele>1764</ele>
        <time>2013-01-01T13:40:16Z</time>
      </trkpt>
      <trkpt lat="42.88768" lon="0.07784">
        <ele>1763</ele>
        <time>2013-01-01T13:40:17Z</time>
      </trkpt>
      <trkpt lat="42.88773" lon="0.07782">
        <ele>1763</ele>
        <time>2013-01-01T13:40:18Z</time>
      </trkpt>
      <trkpt lat="42.88778" lon="0.07779">
        <ele>1762</ele>
        <time>2013-01-01T13:40:19Z</time>
      </trkpt>
      <trkpt lat="42.88783" lon="0.07776">
        <ele>1761</ele>
        <time>2013-01-01T13:40:20Z</time>
      </trkpt>
      <trkpt lat="42.88788" lon="0.07774">
        <ele>1760</ele>
        <time>2013-01-01T13:40:21Z</time>
      </trkpt>
      <trkpt lat="42.88793" lon="0.07772">
        <ele>1760</ele>
        <time>2013-01-01T13:40:22Z</time>
      </trkpt>
      <trkpt lat="42.88797" lon="0.0777">
        <ele>1759</ele>
        <time>2013-01-01T13:40:23Z</time>
      </trkpt>
      <trkpt lat="42.88802" lon="0.07768">
        <ele>1758</ele>
        <time>2013-01-01T13:40:24Z</time>
      </trkpt>
      <trkpt lat="42.88806" lon="0.07767">
        <ele>1758</ele>
        <time>2013-01-01T13:40:25Z</time>
      </trkpt>
      <trkpt lat="42.8881" lon="0.07767">
        <ele>1758</ele>
        <time>2013-01-01T13:40:26Z</time>
      </trkpt>
      <trkpt lat="42.88814" lon="0.07766">
        <ele>1757</ele>
        <time>2013-01-01T13:40:27Z</time>
      </trkpt>
      <trkpt lat="42.88818" lon="0.07765">
        <ele>1757</ele>
        <time>2013-01-01T13:40:28Z</time>
      </trkpt>
      <trkpt lat="42.88821" lon="0.07763">
        <ele>1757</ele>
        <time>2013-01-01T13:40:29Z</time>
      </trkpt>
      <trkpt lat="42.88825" lon="0.07762">
        <ele>1756</ele>
        <time>2013-01-01T13:40:30Z</time>
      </trkpt>
      <trkpt lat="42.88828" lon="0.0776">
        <ele>1756</ele>
        <time>2013-01-01T13:40:31Z</time>
      </trkpt>
      <trkpt lat="42.88831" lon="0.07758">
        <ele>1756</ele>
        <time>2013-01-01T13:40:32Z</time>
      </trkpt>
      <trkpt lat="42.88834" lon="0.07756">
        <ele>1755</ele>
        <time>2013-01-01T13:40:33Z</time>
      </trkpt>
      <trkpt lat="42.88837" lon="0.07753">
        <ele>1755</ele>
        <time>2013-01-01T13:40:34Z</time>
      </trkpt>
      <trkpt lat="42.8884" lon="0.0775">
        <ele>1755</ele>
        <time>2013-01-01T13:40:35Z</time>
      </trkpt>
      <trkpt lat="42.88842" lon="0.07748">
        <ele>1755</ele>
        <time>2013-01-01T13:40:36Z</time>
      </trkpt>
      <trkpt lat="42.88845" lon="0.07746">
        <ele>1754</ele>
        <time>2013-01-01T13:40:37Z</time>
      </trkpt>
      <trkpt lat="42.88848" lon="0.07745">
        <ele>1754</ele>
        <time>2013-01-01T13:40:38Z</time>
      </trkpt>
      <trkpt lat="42.88849" lon="0.07746">
        <ele>1753</ele>
        <time>2013-01-01T13:40:39Z</time>
      </trkpt>
      <trkpt lat="42.8885" lon="0.07749">
        <ele>1753</ele>
        <time>2013-01-01T13:40:40Z</time>
      </trkpt>
      <trkpt lat="42.88851" lon="0.07752">
        <ele>1752</ele>
        <time>2013-01-01T13:40:41Z</time>
      </trkpt>
      <trkpt lat="42.88854" lon="0.07752">
        <ele>1752</ele>
        <time>2013-01-01T13:40:42Z</time>
      </trkpt>
      <trkpt lat="42.88856" lon="0.07751">
        <ele>1751</ele>
        <time>2013-01-01T13:40:43Z</time>
      </trkpt>
      <trkpt lat="42.88858" lon="0.07752">
        <ele>1751</ele>
        <time>2013-01-01T13:40:44Z</time>
      </trkpt>
      <trkpt lat="42.88861" lon="0.07756">
        <ele>1750</ele>
        <time>2013-01-01T13:40:45Z</time>
      </trkpt>
      <trkpt lat="42.88863" lon="0.0776">
        <ele>1750</ele>
        <time>2013-01-01T13:40:46Z</time>
      </trkpt>
      <trkpt lat="42.88866" lon="0.07762">
        <ele>1749</ele>
        <time>2013-01-01T13:40:47Z</time>
      </trkpt>
      <trkpt lat="42.88868" lon="0.07762">
        <ele>1748</ele>
        <time>2013-01-01T13:40:48Z</time>
      </trkpt>
      <trkpt lat="42.88871" lon="0.07763">
        <ele>1747</ele>
        <time>2013-01-01T13:40:49Z</time>
      </trkpt>
      <trkpt lat="42.88873" lon="0.07765">
        <ele>1746</ele>
        <time>2013-01-01T13:40:50Z</time>
      </trkpt>
      <trkpt lat="42.88876" lon="0.07768">
        <ele>1745</ele>
        <time>2013-01-01T13:40:51Z</time>
      </trkpt>
      <trkpt lat="42.88879" lon="0.07768">
        <ele>1744</ele>
        <time>2013-01-01T13:40:52Z</time>
      </trkpt>
      <trkpt lat="42.88883" lon="0.07767">
        <ele>1743</ele>
        <time>2013-01-01T13:40:53Z</time>
      </trkpt>
      <trkpt lat="42.88885" lon="0.07767">
        <ele>1742</ele>
        <time>2013-01-01T13:40:54Z</time>
      </trkpt>
      <trkpt lat="42.88888" lon="0.07769">
        <ele>1741</ele>
        <time>2013-01-01T13:40:55Z</time>
      </trkpt>
      <trkpt lat="42.88891" lon="0.07772">
        <ele>1740</ele>
        <time>2013-01-01T13:40:56Z</time>
      </trkpt>
      <trkpt lat="42.88894" lon="0.07773">
        <ele>1739</ele>
        <time>2013-01-01T13:40:57Z</time>
      </trkpt>
      <trkpt lat="42.88898" lon="0.07772">
        <ele>1738</ele>
        <time>2013-01-01T13:40:58Z</time>
      </trkpt>
      <trkpt lat="42.88901" lon="0.0777">
        <ele>1737</ele>
        <time>2013-01-01T13:40:59Z</time>
      </trkpt>
      <trkpt lat="42.88904" lon="0.07769">
        <ele>1736</ele>
        <time>2013-01-01T13:41:00Z</time>
      </trkpt>
      <trkpt lat="42.88907" lon="0.07771">
        <ele>1735</ele>
        <time>2013-01-01T13:41:01Z</time>
      </trkpt>
      <trkpt lat="42.88908" lon="0.07773">
        <ele>1734</ele>
        <time>2013-01-01T13:41:02Z</time>
      </trkpt>
      <trkpt lat="42.8891" lon="0.07777">
        <ele>1733</ele>
        <time>2013-01-01T13:41:03Z</time>
      </trkpt>
      <trkpt lat="42.88912" lon="0.07778">
        <ele>1732</ele>
        <time>2013-01-01T13:41:04Z</time>
      </trkpt>
      <trkpt lat="42.88915" lon="0.07777">
        <ele>1731</ele>
        <time>2013-01-01T13:41:05Z</time>
      </trkpt>
      <trkpt lat="42.88919" lon="0.07774">
        <ele>1730</ele>
        <time>2013-01-01T13:41:06Z</time>
      </trkpt>
      <trkpt lat="42.88922" lon="0.07771">
        <ele>1729</ele>
        <time>2013-01-01T13:41:07Z</time>
      </trkpt>
      <trkpt lat="42.88925" lon="0.07771">
        <ele>1728</ele>
        <time>2013-01-01T13:41:08Z</time>
      </trkpt>
      <trkpt lat="42.88928" lon="0.07774">
        <ele>1728</ele>
        <time>2013-01-01T13:41:09Z</time>
      </trkpt>
      <trkpt lat="42.88929" lon="0.07778">
        <ele>1727</ele>
        <time>2013-01-01T13:41:10Z</time>
      </trkpt>
      <trkpt lat="42.88931" lon="0.07782">
        <ele>1726</ele>
        <time>2013-01-01T13:41:11Z</time>
      </trkpt>
      <trkpt lat="42.88934" lon="0.07784">
        <ele>1725</ele>
        <time>2013-01-01T13:41:12Z</time>
      </trkpt>
      <trkpt lat="42.88937" lon="0.07782">
        <ele>1724</ele>
        <time>2013-01-01T13:41:13Z</time>
      </trkpt>
      <trkpt lat="42.8894" lon="0.0778">
        <ele>1724</ele>
        <time>2013-01-01T13:41:14Z</time>
      </trkpt>
      <trkpt lat="42.88942" lon="0.07778">
        <ele>1723</ele>
        <time>2013-01-01T13:41:15Z</time>
      </trkpt>
      <trkpt lat="42.88945" lon="0.07778">
        <ele>1723</ele>
        <time>2013-01-01T13:41:16Z</time>
      </trkpt>
      <trkpt lat="42.88947" lon="0.0778">
        <ele>1722</ele>
        <time>2013-01-01T13:41:17Z</time>
      </trkpt>
      <trkpt lat="42.88948" lon="0.07784">
        <ele>1721</ele>
        <time>2013-01-01T13:41:18Z</time>
      </trkpt>
      <trkpt lat="42.8895" lon="0.07788">
        <ele>1721</ele>
        <time>2013-01-01T13:41:19Z</time>
      </trkpt>
      <trkpt lat="42.88953" lon="0.0779">
        <ele>1720</ele>
        <time>2013-01-01T13:41:20Z</time>
      </trkpt>
      <trkpt lat="42.88956" lon="0.07791">
        <ele>1720</ele>
        <time>2013-01-01T13:41:21Z</time>
      </trkpt>
      <trkpt lat="42.8896" lon="0.0779">
        <ele>1719</ele>
        <time>2013-01-01T13:41:22Z</time>
      </trkpt>
      <trkpt lat="42.88963" lon="0.07792">
        <ele>1719</ele>
        <time>2013-01-01T13:41:23Z</time>
      </trkpt>
      <trkpt lat="42.88966" lon="0.07795">
        <ele>1718</ele>
        <time>2013-01-01T13:41:24Z</time>
      </trkpt>
      <trkpt lat="42.88967" lon="0.078">
        <ele>1717</ele>
        <time>2013-01-01T13:41:25Z</time>
      </trkpt>
      <trkpt lat="42.88969" lon="0.07804">
        <ele>1717</ele>
        <time>2013-01-01T13:41:26Z</time>
      </trkpt>
      <trkpt lat="42.88971" lon="0.07806">
        <ele>1716</ele>
        <time>2013-01-01T13:41:27Z</time>
      </trkpt>
      <trkpt lat="42.88974" lon="0.07804">
        <ele>1715</ele>
        <time>2013-01-01T13:41:28Z</time>
      </trkpt>
      <trkpt lat="42.88977" lon="0.07804">
        <ele>1715</ele>
        <time>2013-01-01T13:41:29Z</time>
      </trkpt>
      <trkpt lat="42.88979" lon="0.07805">
        <ele>1714</ele>
        <time>2013-01-01T13:41:30Z</time>
      </trkpt>
      <trkpt lat="42.8898" lon="0.07809">
        <ele>1714</ele>
        <time>2013-01-01T13:41:31Z</time>
      </trkpt>
      <trkpt lat="42.8898" lon="0.07813">
        <ele>1713</ele>
        <time>2013-01-01T13:41:32Z</time>
      </trkpt>
      <trkpt lat="42.88982" lon="0.07817">
        <ele>1712</ele>
        <time>2013-01-01T13:41:33Z</time>
      </trkpt>
      <trkpt lat="42.88985" lon="0.0782">
        <ele>1711</ele>
        <time>2013-01-01T13:41:34Z</time>
      </trkpt>
      <trkpt lat="42.88987" lon="0.07823">
        <ele>1711</ele>
        <time>2013-01-01T13:41:35Z</time>
      </trkpt>
      <trkpt lat="42.88988" lon="0.07827">
        <ele>1710</ele>
        <time>2013-01-01T13:41:36Z</time>
      </trkpt>
      <trkpt lat="42.88987" lon="0.07832">
        <ele>1709</ele>
        <time>2013-01-01T13:41:37Z</time>
      </trkpt>
      <trkpt lat="42.88987" lon="0.07836">
        <ele>1708</ele>
        <time>2013-01-01T13:41:38Z</time>
      </trkpt>
      <trkpt lat="42.88989" lon="0.0784">
        <ele>1707</ele>
        <time>2013-01-01T13:41:39Z</time>
      </trkpt>
      <trkpt lat="42.88991" lon="0.07843">
        <ele>1706</ele>
        <time>2013-01-01T13:41:40Z</time>
      </trkpt>
      <trkpt lat="42.88994" lon="0.07847">
        <ele>1706</ele>
        <time>2013-01-01T13:41:41Z</time>
      </trkpt>
      <trkpt lat="42.88994" lon="0.07852">
        <ele>1705</ele>
        <time>2013-01-01T13:41:42Z</time>
      </trkpt>
      <trkpt lat="42.88993" lon="0.07855">
        <ele>1704</ele>
        <time>2013-01-01T13:41:43Z</time>
      </trkpt>
      <trkpt lat="42.88992" lon="0.07858">
        <ele>1703</ele>
        <time>2013-01-01T13:41:44Z</time>
      </trkpt>
      <trkpt lat="42.88991" lon="0.07862">
        <ele>1702</ele>
        <time>2013-01-01T13:41:45Z</time>
      </trkpt>
      <trkpt lat="42.88992" lon="0.07864">
        <ele>1702</ele>
        <time>2013-01-01T13:41:46Z</time>
      </trkpt>
      <trkpt lat="42.88992" lon="0.07863">
        <ele>1699</ele>
        <time>2013-01-01T13:41:54Z</time>
      </trkpt>
      <trkpt lat="42.88994" lon="0.07862">
        <ele>1699</ele>
        <time>2013-01-01T13:42:21Z</time>
      </trkpt>
      <trkpt lat="42.88995" lon="0.07862">
        <ele>1699</ele>
        <time>2013-01-01T13:42:28Z</time>
      </trkpt>
      <trkpt lat="42.88996" lon="0.07862">
        <ele>1699</ele>
        <time>2013-01-01T13:42:34Z</time>
      </trkpt>
      <trkpt lat="42.88995" lon="0.07861">
        <ele>1699</ele>
        <time>2013-01-01T13:42:50Z</time>
      </trkpt>
      <trkpt lat="42.88996" lon="0.0786">
        <ele>1699</ele>
        <time>2013-01-01T13:43:06Z</time>
      </trkpt>
      <trkpt lat="42.88998" lon="0.0786">
        <ele>1699</ele>
        <time>2013-01-01T13:43:07Z</time>
      </trkpt>
      <trkpt lat="42.89" lon="0.0786">
        <ele>1699</ele>
        <time>2013-01-01T13:43:08Z</time>
      </trkpt>
      <trkpt lat="42.89001" lon="0.07861">
        <ele>1699</ele>
        <time>2013-01-01T13:43:09Z</time>
      </trkpt>
      <trkpt lat="42.89" lon="0.07864">
        <ele>1699</ele>
        <time>2013-01-01T13:43:10Z</time>
      </trkpt>
      <trkpt lat="42.88999" lon="0.07866">
        <ele>1699</ele>
        <time>2013-01-01T13:43:11Z</time>
      </trkpt>
      <trkpt lat="42.88998" lon="0.07867">
        <ele>1699</ele>
        <time>2013-01-01T13:43:12Z</time>
      </trkpt>
      <trkpt lat="42.88997" lon="0.07869">
        <ele>1699</ele>
        <time>2013-01-01T13:43:13Z</time>
      </trkpt>
      <trkpt lat="42.88995" lon="0.07871">
        <ele>1698</ele>
        <time>2013-01-01T13:43:14Z</time>
      </trkpt>
      <trkpt lat="42.88994" lon="0.07874">
        <ele>1698</ele>
        <time>2013-01-01T13:43:15Z</time>
      </trkpt>
      <trkpt lat="42.88992" lon="0.07878">
        <ele>1697</ele>
        <time>2013-01-01T13:43:16Z</time>
      </trkpt>
      <trkpt lat="42.88991" lon="0.07882">
        <ele>1697</ele>
        <time>2013-01-01T13:43:17Z</time>
      </trkpt>
      <trkpt lat="42.88992" lon="0.07885">
        <ele>1696</ele>
        <time>2013-01-01T13:43:18Z</time>
      </trkpt>
      <trkpt lat="42.88992" lon="0.07889">
        <ele>1695</ele>
        <time>2013-01-01T13:43:19Z</time>
      </trkpt>
      <trkpt lat="42.88992" lon="0.07892">
        <ele>1694</ele>
        <time>2013-01-01T13:43:20Z</time>
      </trkpt>
      <trkpt lat="42.8899" lon="0.07896">
        <ele>1694</ele>
        <time>2013-01-01T13:43:21Z</time>
      </trkpt>
      <trkpt lat="42.8899" lon="0.079">
        <ele>1693</ele>
        <time>2013-01-01T13:43:22Z</time>
      </trkpt>
      <trkpt lat="42.88991" lon="0.07902">
        <ele>1692</ele>
        <time>2013-01-01T13:43:23Z</time>
      </trkpt>
      <trkpt lat="42.88993" lon="0.07903">
        <ele>1692</ele>
        <time>2013-01-01T13:43:24Z</time>
      </trkpt>
      <trkpt lat="42.88995" lon="0.07904">
        <ele>1691</ele>
        <time>2013-01-01T13:43:25Z</time>
      </trkpt>
      <trkpt lat="42.88997" lon="0.07906">
        <ele>1691</ele>
        <time>2013-01-01T13:43:26Z</time>
      </trkpt>
      <trkpt lat="42.88996" lon="0.07908">
        <ele>1690</ele>
        <time>2013-01-01T13:43:27Z</time>
      </trkpt>
      <trkpt lat="42.88994" lon="0.07911">
        <ele>1689</ele>
        <time>2013-01-01T13:43:28Z</time>
      </trkpt>
      <trkpt lat="42.88992" lon="0.07914">
        <ele>1689</ele>
        <time>2013-01-01T13:43:29Z</time>
      </trkpt>
      <trkpt lat="42.8899" lon="0.07916">
        <ele>1688</ele>
        <time>2013-01-01T13:43:30Z</time>
      </trkpt>
      <trkpt lat="42.88987" lon="0.07918">
        <ele>1687</ele>
        <time>2013-01-01T13:43:31Z</time>
      </trkpt>
      <trkpt lat="42.88986" lon="0.0792">
        <ele>1687</ele>
        <time>2013-01-01T13:43:32Z</time>
      </trkpt>
      <trkpt lat="42.88984" lon="0.07922">
        <ele>1686</ele>
        <time>2013-01-01T13:43:33Z</time>
      </trkpt>
      <trkpt lat="42.88982" lon="0.07925">
        <ele>1686</ele>
        <time>2013-01-01T13:43:34Z</time>
      </trkpt>
      <trkpt lat="42.8898" lon="0.07927">
        <ele>1686</ele>
        <time>2013-01-01T13:43:35Z</time>
      </trkpt>
      <trkpt lat="42.88978" lon="0.0793">
        <ele>1685</ele>
        <time>2013-01-01T13:43:36Z</time>
      </trkpt>
      <trkpt lat="42.88975" lon="0.07934">
        <ele>1685</ele>
        <time>2013-01-01T13:43:37Z</time>
      </trkpt>
      <trkpt lat="42.88975" lon="0.07937">
        <ele>1685</ele>
        <time>2013-01-01T13:43:38Z</time>
      </trkpt>
      <trkpt lat="42.88976" lon="0.07941">
        <ele>1684</ele>
        <time>2013-01-01T13:43:39Z</time>
      </trkpt>
      <trkpt lat="42.88977" lon="0.07944">
        <ele>1684</ele>
        <time>2013-01-01T13:43:40Z</time>
      </trkpt>
      <trkpt lat="42.88976" lon="0.07948">
        <ele>1683</ele>
        <time>2013-01-01T13:43:41Z</time>
      </trkpt>
      <trkpt lat="42.88974" lon="0.07951">
        <ele>1682</ele>
        <time>2013-01-01T13:43:42Z</time>
      </trkpt>
      <trkpt lat="42.88971" lon="0.07954">
        <ele>1682</ele>
        <time>2013-01-01T13:43:43Z</time>
      </trkpt>
      <trkpt lat="42.88968" lon="0.07956">
        <ele>1681</ele>
        <time>2013-01-01T13:43:44Z</time>
      </trkpt>
      <trkpt lat="42.88967" lon="0.07959">
        <ele>1680</ele>
        <time>2013-01-01T13:43:45Z</time>
      </trkpt>
      <trkpt lat="42.88966" lon="0.07963">
        <ele>1680</ele>
        <time>2013-01-01T13:43:46Z</time>
      </trkpt>
      <trkpt lat="42.88968" lon="0.07965">
        <ele>1679</ele>
        <time>2013-01-01T13:43:47Z</time>
      </trkpt>
      <trkpt lat="42.88969" lon="0.07966">
        <ele>1679</ele>
        <time>2013-01-01T13:43:48Z</time>
      </trkpt>
      <trkpt lat="42.88971" lon="0.07968">
        <ele>1678</ele>
        <time>2013-01-01T13:43:49Z</time>
      </trkpt>
      <trkpt lat="42.88969" lon="0.07972">
        <ele>1677</ele>
        <time>2013-01-01T13:43:50Z</time>
      </trkpt>
      <trkpt lat="42.88967" lon="0.07975">
        <ele>1677</ele>
        <time>2013-01-01T13:43:51Z</time>
      </trkpt>
      <trkpt lat="42.88965" lon="0.07977">
        <ele>1676</ele>
        <time>2013-01-01T13:43:52Z</time>
      </trkpt>
      <trkpt lat="42.88964" lon="0.07981">
        <ele>1675</ele>
        <time>2013-01-01T13:43:53Z</time>
      </trkpt>
      <trkpt lat="42.88965" lon="0.07984">
        <ele>1675</ele>
        <time>2013-01-01T13:43:54Z</time>
      </trkpt>
      <trkpt lat="42.88967" lon="0.07985">
        <ele>1674</ele>
        <time>2013-01-01T13:43:55Z</time>
      </trkpt>
      <trkpt lat="42.88969" lon="0.07985">
        <ele>1673</ele>
        <time>2013-01-01T13:43:56Z</time>
      </trkpt>
      <trkpt lat="42.88972" lon="0.07987">
        <ele>1672</ele>
        <time>2013-01-01T13:43:57Z</time>
      </trkpt>
      <trkpt lat="42.88973" lon="0.07989">
        <ele>1672</ele>
        <time>2013-01-01T13:43:58Z</time>
      </trkpt>
      <trkpt lat="42.88973" lon="0.07993">
        <ele>1671</ele>
        <time>2013-01-01T13:43:59Z</time>
      </trkpt>
      <trkpt lat="42.88975" lon="0.07997">
        <ele>1670</ele>
        <time>2013-01-01T13:44:00Z</time>
      </trkpt>
      <trkpt lat="42.88977" lon="0.07998">
        <ele>1669</ele>
        <time>2013-01-01T13:44:01Z</time>
      </trkpt>
      <trkpt lat="42.8898" lon="0.07998">
        <ele>1668</ele>
        <time>2013-01-01T13:44:02Z</time>
      </trkpt>
      <trkpt lat="42.88982" lon="0.07997">
        <ele>1667</ele>
        <time>2013-01-01T13:44:03Z</time>
      </trkpt>
      <trkpt lat="42.88984" lon="0.07996">
        <ele>1666</ele>
        <time>2013-01-01T13:44:04Z</time>
      </trkpt>
      <trkpt lat="42.88986" lon="0.07997">
        <ele>1665</ele>
        <time>2013-01-01T13:44:05Z</time>
      </trkpt>
      <trkpt lat="42.88988" lon="0.07998">
        <ele>1664</ele>
        <time>2013-01-01T13:44:06Z</time>
      </trkpt>
      <trkpt lat="42.88992" lon="0.07997">
        <ele>1663</ele>
        <time>2013-01-01T13:44:07Z</time>
      </trkpt>
      <trkpt lat="42.88994" lon="0.07997">
        <ele>1662</ele>
        <time>2013-01-01T13:44:08Z</time>
      </trkpt>
      <trkpt lat="42.88996" lon="0.07999">
        <ele>1661</ele>
        <time>2013-01-01T13:44:09Z</time>
      </trkpt>
      <trkpt lat="42.88998" lon="0.08003">
        <ele>1660</ele>
        <time>2013-01-01T13:44:10Z</time>
      </trkpt>
      <trkpt lat="42.88999" lon="0.08008">
        <ele>1659</ele>
        <time>2013-01-01T13:44:11Z</time>
      </trkpt>
      <trkpt lat="42.89" lon="0.0801">
        <ele>1658</ele>
        <time>2013-01-01T13:44:12Z</time>
      </trkpt>
      <trkpt lat="42.89003" lon="0.08009">
        <ele>1657</ele>
        <time>2013-01-01T13:44:13Z</time>
      </trkpt>
      <trkpt lat="42.89007" lon="0.08006">
        <ele>1656</ele>
        <time>2013-01-01T13:44:14Z</time>
      </trkpt>
      <trkpt lat="42.8901" lon="0.08005">
        <ele>1655</ele>
        <time>2013-01-01T13:44:15Z</time>
      </trkpt>
      <trkpt lat="42.89014" lon="0.08004">
        <ele>1654</ele>
        <time>2013-01-01T13:44:16Z</time>
      </trkpt>
      <trkpt lat="42.89018" lon="0.08004">
        <ele>1653</ele>
        <time>2013-01-01T13:44:17Z</time>
      </trkpt>
      <trkpt lat="42.89022" lon="0.08005">
        <ele>1653</ele>
        <time>2013-01-01T13:44:18Z</time>
      </trkpt>
      <trkpt lat="42.89026" lon="0.08004">
        <ele>1652</ele>
        <time>2013-01-01T13:44:19Z</time>
      </trkpt>
      <trkpt lat="42.89029" lon="0.08001">
        <ele>1651</ele>
        <time>2013-01-01T13:44:20Z</time>
      </trkpt>
      <trkpt lat="42.89033" lon="0.07999">
        <ele>1651</ele>
        <time>2013-01-01T13:44:21Z</time>
      </trkpt>
      <trkpt lat="42.89036" lon="0.07997">
        <ele>1650</ele>
        <time>2013-01-01T13:44:22Z</time>
      </trkpt>
      <trkpt lat="42.89038" lon="0.07995">
        <ele>1649</ele>
        <time>2013-01-01T13:44:23Z</time>
      </trkpt>
      <trkpt lat="42.89041" lon="0.07994">
        <ele>1649</ele>
        <time>2013-01-01T13:44:24Z</time>
      </trkpt>
      <trkpt lat="42.89044" lon="0.07993">
        <ele>1648</ele>
        <time>2013-01-01T13:44:25Z</time>
      </trkpt>
      <trkpt lat="42.89046" lon="0.07991">
        <ele>1648</ele>
        <time>2013-01-01T13:44:26Z</time>
      </trkpt>
      <trkpt lat="42.89048" lon="0.0799">
        <ele>1648</ele>
        <time>2013-01-01T13:44:27Z</time>
      </trkpt>
      <trkpt lat="42.8905" lon="0.0799">
        <ele>1647</ele>
        <time>2013-01-01T13:44:28Z</time>
      </trkpt>
      <trkpt lat="42.89053" lon="0.07989">
        <ele>1647</ele>
        <time>2013-01-01T13:44:29Z</time>
      </trkpt>
      <trkpt lat="42.89056" lon="0.07987">
        <ele>1647</ele>
        <time>2013-01-01T13:44:30Z</time>
      </trkpt>
      <trkpt lat="42.89059" lon="0.07986">
        <ele>1647</ele>
        <time>2013-01-01T13:44:31Z</time>
      </trkpt>
      <trkpt lat="42.89063" lon="0.07985">
        <ele>1646</ele>
        <time>2013-01-01T13:44:32Z</time>
      </trkpt>
      <trkpt lat="42.89065" lon="0.07983">
        <ele>1646</ele>
        <time>2013-01-01T13:44:33Z</time>
      </trkpt>
      <trkpt lat="42.89067" lon="0.07981">
        <ele>1646</ele>
        <time>2013-01-01T13:44:34Z</time>
      </trkpt>
      <trkpt lat="42.89069" lon="0.07979">
        <ele>1646</ele>
        <time>2013-01-01T13:44:35Z</time>
      </trkpt>
      <trkpt lat="42.89072" lon="0.07978">
        <ele>1645</ele>
        <time>2013-01-01T13:44:36Z</time>
      </trkpt>
      <trkpt lat="42.89075" lon="0.07977">
        <ele>1645</ele>
        <time>2013-01-01T13:44:37Z</time>
      </trkpt>
      <trkpt lat="42.89078" lon="0.07979">
        <ele>1645</ele>
        <time>2013-01-01T13:44:38Z</time>
      </trkpt>
      <trkpt lat="42.8908" lon="0.07981">
        <ele>1644</ele>
        <time>2013-01-01T13:44:39Z</time>
      </trkpt>
      <trkpt lat="42.89082" lon="0.07982">
        <ele>1643</ele>
        <time>2013-01-01T13:44:40Z</time>
      </trkpt>
      <trkpt lat="42.89084" lon="0.07981">
        <ele>1642</ele>
        <time>2013-01-01T13:44:41Z</time>
      </trkpt>
      <trkpt lat="42.89086" lon="0.07977">
        <ele>1642</ele>
        <time>2013-01-01T13:44:42Z</time>
      </trkpt>
      <trkpt lat="42.89088" lon="0.07975">
        <ele>1641</ele>
        <time>2013-01-01T13:44:43Z</time>
      </trkpt>
      <trkpt lat="42.8909" lon="0.07974">
        <ele>1640</ele>
        <time>2013-01-01T13:44:44Z</time>
      </trkpt>
      <trkpt lat="42.89094" lon="0.07974">
        <ele>1639</ele>
        <time>2013-01-01T13:44:45Z</time>
      </trkpt>
      <trkpt lat="42.89097" lon="0.07976">
        <ele>1639</ele>
        <time>2013-01-01T13:44:46Z</time>
      </trkpt>
      <trkpt lat="42.89099" lon="0.07974">
        <ele>1638</ele>
        <time>2013-01-01T13:44:47Z</time>
      </trkpt>
      <trkpt lat="42.89101" lon="0.07972">
        <ele>1637</ele>
        <time>2013-01-01T13:44:48Z</time>
      </trkpt>
      <trkpt lat="42.89103" lon="0.07972">
        <ele>1636</ele>
        <time>2013-01-01T13:44:49Z</time>
      </trkpt>
      <trkpt lat="42.89105" lon="0.07974">
        <ele>1635</ele>
        <time>2013-01-01T13:44:50Z</time>
      </trkpt>
      <trkpt lat="42.89108" lon="0.07975">
        <ele>1634</ele>
        <time>2013-01-01T13:44:51Z</time>
      </trkpt>
      <trkpt lat="42.89111" lon="0.07973">
        <ele>1633</ele>
        <time>2013-01-01T13:44:52Z</time>
      </trkpt>
      <trkpt lat="42.89112" lon="0.0797">
        <ele>1632</ele>
        <time>2013-01-01T13:44:53Z</time>
      </trkpt>
      <trkpt lat="42.89115" lon="0.0797">
        <ele>1631</ele>
        <time>2013-01-01T13:44:54Z</time>
      </trkpt>
      <trkpt lat="42.89117" lon="0.07972">
        <ele>1630</ele>
        <time>2013-01-01T13:44:55Z</time>
      </trkpt>
      <trkpt lat="42.8912" lon="0.07972">
        <ele>1629</ele>
        <time>2013-01-01T13:44:56Z</time>
      </trkpt>
      <trkpt lat="42.89124" lon="0.0797">
        <ele>1628</ele>
        <time>2013-01-01T13:44:57Z</time>
      </trkpt>
      <trkpt lat="42.89127" lon="0.07966">
        <ele>1627</ele>
        <time>2013-01-01T13:44:58Z</time>
      </trkpt>
      <trkpt lat="42.89128" lon="0.07963">
        <ele>1626</ele>
        <time>2013-01-01T13:44:59Z</time>
      </trkpt>
      <trkpt lat="42.89131" lon="0.07959">
        <ele>1625</ele>
        <time>2013-01-01T13:45:00Z</time>
      </trkpt>
      <trkpt lat="42.89135" lon="0.07959">
        <ele>1624</ele>
        <time>2013-01-01T13:45:01Z</time>
      </trkpt>
      <trkpt lat="42.89136" lon="0.07961">
        <ele>1623</ele>
        <time>2013-01-01T13:45:02Z</time>
      </trkpt>
      <trkpt lat="42.89137" lon="0.07966">
        <ele>1622</ele>
        <time>2013-01-01T13:45:03Z</time>
      </trkpt>
      <trkpt lat="42.89139" lon="0.07968">
        <ele>1621</ele>
        <time>2013-01-01T13:45:04Z</time>
      </trkpt>
      <trkpt lat="42.89142" lon="0.07966">
        <ele>1620</ele>
        <time>2013-01-01T13:45:05Z</time>
      </trkpt>
      <trkpt lat="42.89143" lon="0.07963">
        <ele>1619</ele>
        <time>2013-01-01T13:45:06Z</time>
      </trkpt>
      <trkpt lat="42.89145" lon="0.07959">
        <ele>1618</ele>
        <time>2013-01-01T13:45:07Z</time>
      </trkpt>
      <trkpt lat="42.89147" lon="0.07955">
        <ele>1617</ele>
        <time>2013-01-01T13:45:08Z</time>
      </trkpt>
      <trkpt lat="42.8915" lon="0.07951">
        <ele>1616</ele>
        <time>2013-01-01T13:45:09Z</time>
      </trkpt>
      <trkpt lat="42.89152" lon="0.07948">
        <ele>1615</ele>
        <time>2013-01-01T13:45:10Z</time>
      </trkpt>
      <trkpt lat="42.89155" lon="0.07947">
        <ele>1614</ele>
        <time>2013-01-01T13:45:11Z</time>
      </trkpt>
      <trkpt lat="42.89156" lon="0.0795">
        <ele>1613</ele>
        <time>2013-01-01T13:45:12Z</time>
      </trkpt>
      <trkpt lat="42.89157" lon="0.07955">
        <ele>1612</ele>
        <time>2013-01-01T13:45:13Z</time>
      </trkpt>
      <trkpt lat="42.89159" lon="0.07957">
        <ele>1611</ele>
        <time>2013-01-01T13:45:14Z</time>
      </trkpt>
      <trkpt lat="42.89162" lon="0.07957">
        <ele>1610</ele>
        <time>2013-01-01T13:45:15Z</time>
      </trkpt>
      <trkpt lat="42.89166" lon="0.07957">
        <ele>1609</ele>
        <time>2013-01-01T13:45:16Z</time>
      </trkpt>
      <trkpt lat="42.89168" lon="0.0796">
        <ele>1608</ele>
        <time>2013-01-01T13:45:17Z</time>
      </trkpt>
      <trkpt lat="42.89168" lon="0.07965">
        <ele>1607</ele>
        <time>2013-01-01T13:45:18Z</time>
      </trkpt>
      <trkpt lat="42.89169" lon="0.0797">
        <ele>1606</ele>
        <time>2013-01-01T13:45:19Z</time>
      </trkpt>
      <trkpt lat="42.89172" lon="0.07972">
        <ele>1605</ele>
        <time>2013-01-01T13:45:20Z</time>
      </trkpt>
      <trkpt lat="42.89175" lon="0.07971">
        <ele>1604</ele>
        <time>2013-01-01T13:45:21Z</time>
      </trkpt>
      <trkpt lat="42.89178" lon="0.07968">
        <ele>1603</ele>
        <time>2013-01-01T13:45:22Z</time>
      </trkpt>
      <trkpt lat="42.8918" lon="0.07965">
        <ele>1602</ele>
        <time>2013-01-01T13:45:23Z</time>
      </trkpt>
      <trkpt lat="42.89183" lon="0.07961">
        <ele>1601</ele>
        <time>2013-01-01T13:45:24Z</time>
      </trkpt>
      <trkpt lat="42.89185" lon="0.0796">
        <ele>1600</ele>
        <time>2013-01-01T13:45:25Z</time>
      </trkpt>
      <trkpt lat="42.89187" lon="0.0796">
        <ele>1599</ele>
        <time>2013-01-01T13:45:26Z</time>
      </trkpt>
      <trkpt lat="42.89189" lon="0.07963">
        <ele>1598</ele>
        <time>2013-01-01T13:45:27Z</time>
      </trkpt>
      <trkpt lat="42.89189" lon="0.07968">
        <ele>1597</ele>
        <time>2013-01-01T13:45:28Z</time>
      </trkpt>
      <trkpt lat="42.89191" lon="0.07971">
        <ele>1596</ele>
        <time>2013-01-01T13:45:29Z</time>
      </trkpt>
      <trkpt lat="42.89193" lon="0.07972">
        <ele>1595</ele>
        <time>2013-01-01T13:45:30Z</time>
      </trkpt>
      <trkpt lat="42.89193" lon="0.07974">
        <ele>1592</ele>
        <time>2013-01-01T13:45:37Z</time>
      </trkpt>
      <trkpt lat="42.89194" lon="0.07974">
        <ele>1591</ele>
        <time>2013-01-01T13:45:50Z</time>
      </trkpt>
      <trkpt lat="42.89196" lon="0.07973">
        <ele>1591</ele>
        <time>2013-01-01T13:45:51Z</time>
      </trkpt>
      <trkpt lat="42.89198" lon="0.07974">
        <ele>1591</ele>
        <time>2013-01-01T13:45:52Z</time>
      </trkpt>
      <trkpt lat="42.89199" lon="0.07977">
        <ele>1590</ele>
        <time>2013-01-01T13:45:53Z</time>
      </trkpt>
      <trkpt lat="42.89199" lon="0.0798">
        <ele>1590</ele>
        <time>2013-01-01T13:45:54Z</time>
      </trkpt>
      <trkpt lat="42.89198" lon="0.07984">
        <ele>1589</ele>
        <time>2013-01-01T13:45:55Z</time>
      </trkpt>
      <trkpt lat="42.89199" lon="0.07987">
        <ele>1588</ele>
        <time>2013-01-01T13:45:56Z</time>
      </trkpt>
      <trkpt lat="42.892" lon="0.0799">
        <ele>1588</ele>
        <time>2013-01-01T13:45:57Z</time>
      </trkpt>
      <trkpt lat="42.89201" lon="0.0799">
        <ele>1587</ele>
        <time>2013-01-01T13:45:58Z</time>
      </trkpt>
      <trkpt lat="42.89204" lon="0.07987">
        <ele>1587</ele>
        <time>2013-01-01T13:45:59Z</time>
      </trkpt>
      <trkpt lat="42.89206" lon="0.07986">
        <ele>1586</ele>
        <time>2013-01-01T13:46:00Z</time>
      </trkpt>
      <trkpt lat="42.89207" lon="0.07984">
        <ele>1586</ele>
        <time>2013-01-01T13:46:01Z</time>
      </trkpt>
      <trkpt lat="42.89209" lon="0.07985">
        <ele>1585</ele>
        <time>2013-01-01T13:46:02Z</time>
      </trkpt>
      <trkpt lat="42.89209" lon="0.07988">
        <ele>1584</ele>
        <time>2013-01-01T13:46:03Z</time>
      </trkpt>
      <trkpt lat="42.89209" lon="0.07992">
        <ele>1584</ele>
        <time>2013-01-01T13:46:04Z</time>
      </trkpt>
      <trkpt lat="42.89209" lon="0.07996">
        <ele>1583</ele>
        <time>2013-01-01T13:46:05Z</time>
      </trkpt>
      <trkpt lat="42.89209" lon="0.07999">
        <ele>1583</ele>
        <time>2013-01-01T13:46:06Z</time>
      </trkpt>
      <trkpt lat="42.89211" lon="0.07999">
        <ele>1582</ele>
        <time>2013-01-01T13:46:07Z</time>
      </trkpt>
      <trkpt lat="42.89213" lon="0.07997">
        <ele>1582</ele>
        <time>2013-01-01T13:46:08Z</time>
      </trkpt>
      <trkpt lat="42.89215" lon="0.07995">
        <ele>1581</ele>
        <time>2013-01-01T13:46:09Z</time>
      </trkpt>
      <trkpt lat="42.89217" lon="0.07995">
        <ele>1580</ele>
        <time>2013-01-01T13:46:10Z</time>
      </trkpt>
      <trkpt lat="42.89218" lon="0.07996">
        <ele>1579</ele>
        <time>2013-01-01T13:46:11Z</time>
      </trkpt>
      <trkpt lat="42.89218" lon="0.07999">
        <ele>1579</ele>
        <time>2013-01-01T13:46:12Z</time>
      </trkpt>
      <trkpt lat="42.89218" lon="0.08002">
        <ele>1578</ele>
        <time>2013-01-01T13:46:13Z</time>
      </trkpt>
      <trkpt lat="42.89218" lon="0.08005">
        <ele>1577</ele>
        <time>2013-01-01T13:46:14Z</time>
      </trkpt>
      <trkpt lat="42.89219" lon="0.08008">
        <ele>1576</ele>
        <time>2013-01-01T13:46:15Z</time>
      </trkpt>
      <trkpt lat="42.8922" lon="0.08009">
        <ele>1575</ele>
        <time>2013-01-01T13:46:16Z</time>
      </trkpt>
      <trkpt lat="42.89222" lon="0.08007">
        <ele>1575</ele>
        <time>2013-01-01T13:46:17Z</time>
      </trkpt>
      <trkpt lat="42.89224" lon="0.08005">
        <ele>1574</ele>
        <time>2013-01-01T13:46:18Z</time>
      </trkpt>
      <trkpt lat="42.89226" lon="0.08002">
        <ele>1573</ele>
        <time>2013-01-01T13:46:19Z</time>
      </trkpt>
      <trkpt lat="42.89228" lon="0.07999">
        <ele>1573</ele>
        <time>2013-01-01T13:46:20Z</time>
      </trkpt>
      <trkpt lat="42.8923" lon="0.07997">
        <ele>1573</ele>
        <time>2013-01-01T13:46:21Z</time>
      </trkpt>
      <trkpt lat="42.89231" lon="0.07995">
        <ele>1572</ele>
        <time>2013-01-01T13:46:22Z</time>
      </trkpt>
      <trkpt lat="42.89233" lon="0.07995">
        <ele>1572</ele>
        <time>2013-01-01T13:46:23Z</time>
      </trkpt>
      <trkpt lat="42.89235" lon="0.07996">
        <ele>1571</ele>
        <time>2013-01-01T13:46:24Z</time>
      </trkpt>
      <trkpt lat="42.89236" lon="0.08">
        <ele>1571</ele>
        <time>2013-01-01T13:46:25Z</time>
      </trkpt>
      <trkpt lat="42.89235" lon="0.08003">
        <ele>1570</ele>
        <time>2013-01-01T13:46:26Z</time>
      </trkpt>
      <trkpt lat="42.89235" lon="0.08007">
        <ele>1570</ele>
        <time>2013-01-01T13:46:27Z</time>
      </trkpt>
      <trkpt lat="42.89233" lon="0.08014">
        <ele>1569</ele>
        <time>2013-01-01T13:46:28Z</time>
      </trkpt>
      <trkpt lat="42.89233" lon="0.08019">
        <ele>1569</ele>
        <time>2013-01-01T13:46:29Z</time>
      </trkpt>
      <trkpt lat="42.89236" lon="0.08019">
        <ele>1569</ele>
        <time>2013-01-01T13:46:30Z</time>
      </trkpt>
      <trkpt lat="42.89237" lon="0.08017">
        <ele>1568</ele>
        <time>2013-01-01T13:46:31Z</time>
      </trkpt>
      <trkpt lat="42.89239" lon="0.08017">
        <ele>1568</ele>
        <time>2013-01-01T13:46:32Z</time>
      </trkpt>
      <trkpt lat="42.89241" lon="0.08019">
        <ele>1567</ele>
        <time>2013-01-01T13:46:33Z</time>
      </trkpt>
      <trkpt lat="42.89242" lon="0.08022">
        <ele>1567</ele>
        <time>2013-01-01T13:46:34Z</time>
      </trkpt>
      <trkpt lat="42.89242" lon="0.08025">
        <ele>1566</ele>
        <time>2013-01-01T13:46:35Z</time>
      </trkpt>
      <trkpt lat="42.89242" lon="0.08029">
        <ele>1565</ele>
        <time>2013-01-01T13:46:36Z</time>
      </trkpt>
      <trkpt lat="42.89243" lon="0.08032">
        <ele>1564</ele>
        <time>2013-01-01T13:46:37Z</time>
      </trkpt>
      <trkpt lat="42.89246" lon="0.08034">
        <ele>1564</ele>
        <time>2013-01-01T13:46:38Z</time>
      </trkpt>
      <trkpt lat="42.89248" lon="0.08032">
        <ele>1563</ele>
        <time>2013-01-01T13:46:39Z</time>
      </trkpt>
      <trkpt lat="42.89251" lon="0.08028">
        <ele>1562</ele>
        <time>2013-01-01T13:46:40Z</time>
      </trkpt>
      <trkpt lat="42.89253" lon="0.08027">
        <ele>1561</ele>
        <time>2013-01-01T13:46:41Z</time>
      </trkpt>
      <trkpt lat="42.89255" lon="0.08029">
        <ele>1560</ele>
        <time>2013-01-01T13:46:42Z</time>
      </trkpt>
      <trkpt lat="42.89256" lon="0.08033">
        <ele>1559</ele>
        <time>2013-01-01T13:46:43Z</time>
      </trkpt>
      <trkpt lat="42.89257" lon="0.08037">
        <ele>1559</ele>
        <time>2013-01-01T13:46:44Z</time>
      </trkpt>
      <trkpt lat="42.89258" lon="0.08041">
        <ele>1558</ele>
        <time>2013-01-01T13:46:45Z</time>
      </trkpt>
      <trkpt lat="42.89261" lon="0.0804">
        <ele>1557</ele>
        <time>2013-01-01T13:46:46Z</time>
      </trkpt>
      <trkpt lat="42.89263" lon="0.08037">
        <ele>1556</ele>
        <time>2013-01-01T13:46:47Z</time>
      </trkpt>
      <trkpt lat="42.89265" lon="0.08033">
        <ele>1556</ele>
        <time>2013-01-01T13:46:48Z</time>
      </trkpt>
      <trkpt lat="42.89266" lon="0.08029">
        <ele>1555</ele>
        <time>2013-01-01T13:46:49Z</time>
      </trkpt>
      <trkpt lat="42.89268" lon="0.08026">
        <ele>1554</ele>
        <time>2013-01-01T13:46:50Z</time>
      </trkpt>
      <trkpt lat="42.8927" lon="0.08025">
        <ele>1553</ele>
        <time>2013-01-01T13:46:51Z</time>
      </trkpt>
      <trkpt lat="42.89273" lon="0.08026">
        <ele>1553</ele>
        <time>2013-01-01T13:46:52Z</time>
      </trkpt>
      <trkpt lat="42.89275" lon="0.08029">
        <ele>1552</ele>
        <time>2013-01-01T13:46:53Z</time>
      </trkpt>
      <trkpt lat="42.89278" lon="0.08032">
        <ele>1552</ele>
        <time>2013-01-01T13:46:54Z</time>
      </trkpt>
      <trkpt lat="42.89281" lon="0.08031">
        <ele>1551</ele>
        <time>2013-01-01T13:46:55Z</time>
      </trkpt>
      <trkpt lat="42.89284" lon="0.08028">
        <ele>1550</ele>
        <time>2013-01-01T13:46:56Z</time>
      </trkpt>
      <trkpt lat="42.89285" lon="0.08024">
        <ele>1550</ele>
        <time>2013-01-01T13:46:57Z</time>
      </trkpt>
      <trkpt lat="42.89287" lon="0.08021">
        <ele>1549</ele>
        <time>2013-01-01T13:46:58Z</time>
      </trkpt>
      <trkpt lat="42.89289" lon="0.0802">
        <ele>1548</ele>
        <time>2013-01-01T13:46:59Z</time>
      </trkpt>
      <trkpt lat="42.89293" lon="0.08023">
        <ele>1547</ele>
        <time>2013-01-01T13:47:00Z</time>
      </trkpt>
      <trkpt lat="42.89296" lon="0.08024">
        <ele>1546</ele>
        <time>2013-01-01T13:47:01Z</time>
      </trkpt>
      <trkpt lat="42.89299" lon="0.08023">
        <ele>1545</ele>
        <time>2013-01-01T13:47:02Z</time>
      </trkpt>
      <trkpt lat="42.89302" lon="0.08019">
        <ele>1544</ele>
        <time>2013-01-01T13:47:03Z</time>
      </trkpt>
      <trkpt lat="42.89303" lon="0.08014">
        <ele>1543</ele>
        <time>2013-01-01T13:47:04Z</time>
      </trkpt>
      <trkpt lat="42.89305" lon="0.0801">
        <ele>1542</ele>
        <time>2013-01-01T13:47:05Z</time>
      </trkpt>
      <trkpt lat="42.89308" lon="0.08009">
        <ele>1541</ele>
        <time>2013-01-01T13:47:06Z</time>
      </trkpt>
      <trkpt lat="42.89312" lon="0.0801">
        <ele>1540</ele>
        <time>2013-01-01T13:47:07Z</time>
      </trkpt>
      <trkpt lat="42.89315" lon="0.08013">
        <ele>1539</ele>
        <time>2013-01-01T13:47:08Z</time>
      </trkpt>
      <trkpt lat="42.89319" lon="0.08014">
        <ele>1538</ele>
        <time>2013-01-01T13:47:09Z</time>
      </trkpt>
      <trkpt lat="42.89322" lon="0.08012">
        <ele>1537</ele>
        <time>2013-01-01T13:47:10Z</time>
      </trkpt>
      <trkpt lat="42.89325" lon="0.08008">
        <ele>1536</ele>
        <time>2013-01-01T13:47:11Z</time>
      </trkpt>
      <trkpt lat="42.89326" lon="0.08004">
        <ele>1535</ele>
        <time>2013-01-01T13:47:12Z</time>
      </trkpt>
      <trkpt lat="42.89329" lon="0.08001">
        <ele>1534</ele>
        <time>2013-01-01T13:47:13Z</time>
      </trkpt>
      <trkpt lat="42.89333" lon="0.08001">
        <ele>1533</ele>
        <time>2013-01-01T13:47:14Z</time>
      </trkpt>
      <trkpt lat="42.89337" lon="0.08">
        <ele>1532</ele>
        <time>2013-01-01T13:47:15Z</time>
      </trkpt>
      <trkpt lat="42.8934" lon="0.07997">
        <ele>1531</ele>
        <time>2013-01-01T13:47:16Z</time>
      </trkpt>
      <trkpt lat="42.89342" lon="0.07993">
        <ele>1530</ele>
        <time>2013-01-01T13:47:17Z</time>
      </trkpt>
      <trkpt lat="42.89346" lon="0.07991">
        <ele>1529</ele>
        <time>2013-01-01T13:47:18Z</time>
      </trkpt>
      <trkpt lat="42.89349" lon="0.07991">
        <ele>1528</ele>
        <time>2013-01-01T13:47:19Z</time>
      </trkpt>
      <trkpt lat="42.89352" lon="0.07993">
        <ele>1527</ele>
        <time>2013-01-01T13:47:20Z</time>
      </trkpt>
      <trkpt lat="42.89356" lon="0.07994">
        <ele>1526</ele>
        <time>2013-01-01T13:47:21Z</time>
      </trkpt>
      <trkpt lat="42.89359" lon="0.07993">
        <ele>1525</ele>
        <time>2013-01-01T13:47:22Z</time>
      </trkpt>
      <trkpt lat="42.89361" lon="0.07992">
        <ele>1524</ele>
        <time>2013-01-01T13:47:23Z</time>
      </trkpt>
      <trkpt lat="42.89363" lon="0.07988">
        <ele>1523</ele>
        <time>2013-01-01T13:47:24Z</time>
      </trkpt>
      <trkpt lat="42.89364" lon="0.07985">
        <ele>1523</ele>
        <time>2013-01-01T13:47:25Z</time>
      </trkpt>
      <trkpt lat="42.89366" lon="0.07982">
        <ele>1522</ele>
        <time>2013-01-01T13:47:26Z</time>
      </trkpt>
      <trkpt lat="42.89368" lon="0.07978">
        <ele>1522</ele>
        <time>2013-01-01T13:47:27Z</time>
      </trkpt>
      <trkpt lat="42.89369" lon="0.07975">
        <ele>1522</ele>
        <time>2013-01-01T13:47:28Z</time>
      </trkpt>
      <trkpt lat="42.89372" lon="0.07974">
        <ele>1521</ele>
        <time>2013-01-01T13:47:29Z</time>
      </trkpt>
      <trkpt lat="42.89376" lon="0.07973">
        <ele>1520</ele>
        <time>2013-01-01T13:47:30Z</time>
      </trkpt>
      <trkpt lat="42.89379" lon="0.07971">
        <ele>1519</ele>
        <time>2013-01-01T13:47:31Z</time>
      </trkpt>
      <trkpt lat="42.89382" lon="0.07967">
        <ele>1518</ele>
        <time>2013-01-01T13:47:32Z</time>
      </trkpt>
      <trkpt lat="42.89386" lon="0.07964">
        <ele>1517</ele>
        <time>2013-01-01T13:47:33Z</time>
      </trkpt>
      <trkpt lat="42.89389" lon="0.0796">
        <ele>1516</ele>
        <time>2013-01-01T13:47:34Z</time>
      </trkpt>
      <trkpt lat="42.89392" lon="0.07956">
        <ele>1515</ele>
        <time>2013-01-01T13:47:35Z</time>
      </trkpt>
      <trkpt lat="42.89396" lon="0.07952">
        <ele>1514</ele>
        <time>2013-01-01T13:47:36Z</time>
      </trkpt>
      <trkpt lat="42.894" lon="0.07948">
        <ele>1513</ele>
        <time>2013-01-01T13:47:37Z</time>
      </trkpt>
      <trkpt lat="42.89403" lon="0.07942">
        <ele>1512</ele>
        <time>2013-01-01T13:47:38Z</time>
      </trkpt>
      <trkpt lat="42.89406" lon="0.07936">
        <ele>1511</ele>
        <time>2013-01-01T13:47:39Z</time>
      </trkpt>
      <trkpt lat="42.8941" lon="0.07929">
        <ele>1510</ele>
        <time>2013-01-01T13:47:40Z</time>
      </trkpt>
      <trkpt lat="42.89414" lon="0.07923">
        <ele>1509</ele>
        <time>2013-01-01T13:47:41Z</time>
      </trkpt>
      <trkpt lat="42.89418" lon="0.07919">
        <ele>1508</ele>
        <time>2013-01-01T13:47:42Z</time>
      </trkpt>
      <trkpt lat="42.89424" lon="0.07916">
        <ele>1507</ele>
        <time>2013-01-01T13:47:43Z</time>
      </trkpt>
      <trkpt lat="42.89429" lon="0.07914">
        <ele>1506</ele>
        <time>2013-01-01T13:47:44Z</time>
      </trkpt>
      <trkpt lat="42.89435" lon="0.07912">
        <ele>1505</ele>
        <time>2013-01-01T13:47:45Z</time>
      </trkpt>
      <trkpt lat="42.8944" lon="0.0791">
        <ele>1504</ele>
        <time>2013-01-01T13:47:46Z</time>
      </trkpt>
      <trkpt lat="42.89445" lon="0.07908">
        <ele>1503</ele>
        <time>2013-01-01T13:47:47Z</time>
      </trkpt>
      <trkpt lat="42.89449" lon="0.07906">
        <ele>1503</ele>
        <time>2013-01-01T13:47:48Z</time>
      </trkpt>
      <trkpt lat="42.89453" lon="0.07904">
        <ele>1503</ele>
        <time>2013-01-01T13:47:49Z</time>
      </trkpt>
      <trkpt lat="42.89457" lon="0.07902">
        <ele>1502</ele>
        <time>2013-01-01T13:47:50Z</time>
      </trkpt>
      <trkpt lat="42.89461" lon="0.07899">
        <ele>1502</ele>
        <time>2013-01-01T13:47:51Z</time>
      </trkpt>
      <trkpt lat="42.89464" lon="0.07897">
        <ele>1502</ele>
        <time>2013-01-01T13:47:52Z</time>
      </trkpt>
      <trkpt lat="42.89467" lon="0.07895">
        <ele>1502</ele>
        <time>2013-01-01T13:47:53Z</time>
      </trkpt>
      <trkpt lat="42.8947" lon="0.07893">
        <ele>1502</ele>
        <time>2013-01-01T13:47:54Z</time>
      </trkpt>
      <trkpt lat="42.89472" lon="0.07891">
        <ele>1502</ele>
        <time>2013-01-01T13:47:55Z</time>
      </trkpt>
      <trkpt lat="42.89474" lon="0.0789">
        <ele>1502</ele>
        <time>2013-01-01T13:47:56Z</time>
      </trkpt>
      <trkpt lat="42.89473" lon="0.07888">
        <ele>1501</ele>
        <time>2013-01-01T13:48:01Z</time>
      </trkpt>
      <trkpt lat="42.89473" lon="0.07886">
        <ele>1501</ele>
        <time>2013-01-01T13:48:12Z</time>
      </trkpt>
      <trkpt lat="42.89474" lon="0.07885">
        <ele>1501</ele>
        <time>2013-01-01T13:48:42Z</time>
      </trkpt>
      <trkpt lat="42.89473" lon="0.07883">
        <ele>1501</ele>
        <time>2013-01-01T13:48:47Z</time>
      </trkpt>
      <trkpt lat="42.89472" lon="0.07881">
        <ele>1501</ele>
        <time>2013-01-01T13:48:50Z</time>
      </trkpt>
      <trkpt lat="42.89473" lon="0.0788">
        <ele>1501</ele>
        <time>2013-01-01T13:48:53Z</time>
      </trkpt>
      <trkpt lat="42.89473" lon="0.07878">
        <ele>1501</ele>
        <time>2013-01-01T13:48:55Z</time>
      </trkpt>
      <trkpt lat="42.89474" lon="0.07876">
        <ele>1501</ele>
        <time>2013-01-01T13:48:57Z</time>
      </trkpt>
      <trkpt lat="42.89475" lon="0.07875">
        <ele>1501</ele>
        <time>2013-01-01T13:49:01Z</time>
      </trkpt>
      <trkpt lat="42.89476" lon="0.07875">
        <ele>1501</ele>
        <time>2013-01-01T13:49:04Z</time>
      </trkpt>
      <trkpt lat="42.89478" lon="0.07875">
        <ele>1501</ele>
        <time>2013-01-01T13:49:13Z</time>
      </trkpt>
      <trkpt lat="42.89478" lon="0.07874">
        <ele>1501</ele>
        <time>2013-01-01T13:49:16Z</time>
      </trkpt>
      <trkpt lat="42.89478" lon="0.07876">
        <ele>1496</ele>
        <time>2013-01-01T13:49:22Z</time>
      </trkpt>
      <trkpt lat="42.8948" lon="0.07875">
        <ele>1496</ele>
        <time>2013-01-01T13:49:24Z</time>
      </trkpt>
      <trkpt lat="42.89486" lon="0.07872">
        <ele>1496</ele>
        <time>2013-01-01T13:49:29Z</time>
      </trkpt>
      <trkpt lat="42.89488" lon="0.07872">
        <ele>1496</ele>
        <time>2013-01-01T13:49:30Z</time>
      </trkpt>
      <trkpt lat="42.89488" lon="0.07876">
        <ele>1496</ele>
        <time>2013-01-01T13:49:33Z</time>
      </trkpt>
      <trkpt lat="42.8948" lon="0.07879">
        <ele>1496</ele>
        <time>2013-01-01T13:49:42Z</time>
      </trkpt>
      <trkpt lat="42.89481" lon="0.07871">
        <ele>1497</ele>
        <time>2013-01-01T13:49:51Z</time>
      </trkpt>
      <trkpt lat="42.89483" lon="0.07868">
        <ele>1498</ele>
        <time>2013-01-01T13:49:52Z</time>
      </trkpt>
      <trkpt lat="42.89472" lon="0.07868">
        <ele>1478</ele>
        <time>2013-01-01T13:54:20Z</time>
      </trkpt>
      <trkpt lat="42.89473" lon="0.07856">
        <ele>1478</ele>
        <time>2013-01-01T13:54:23Z</time>
      </trkpt>
      <trkpt lat="42.8948" lon="0.07833">
        <ele>1471</ele>
        <time>2013-01-01T13:54:50Z</time>
      </trkpt>
      <trkpt lat="42.89484" lon="0.07855">
        <ele>1499</ele>
        <time>2013-01-01T14:06:55Z</time>
      </trkpt>
      <trkpt lat="42.89467" lon="0.07865">
        <ele>1499</ele>
        <time>2013-01-01T14:12:07Z</time>
      </trkpt>
      <trkpt lat="42.89467" lon="0.07867">
        <ele>1499</ele>
        <time>2013-01-01T14:12:08Z</time>
      </trkpt>
      <trkpt lat="42.89467" lon="0.07869">
        <ele>1499</ele>
        <time>2013-01-01T14:12:09Z</time>
      </trkpt>
      <trkpt lat="42.89467" lon="0.07871">
        <ele>1498</ele>
        <time>2013-01-01T14:12:10Z</time>
      </trkpt>
      <trkpt lat="42.89468" lon="0.07873">
        <ele>1498</ele>
        <time>2013-01-01T14:12:11Z</time>
      </trkpt>
      <trkpt lat="42.89468" lon="0.07875">
        <ele>1498</ele>
        <time>2013-01-01T14:12:12Z</time>
      </trkpt>
      <trkpt lat="42.89469" lon="0.07876">
        <ele>1498</ele>
        <time>2013-01-01T14:12:13Z</time>
      </trkpt>
      <trkpt lat="42.89469" lon="0.07879">
        <ele>1498</ele>
        <time>2013-01-01T14:12:17Z</time>
      </trkpt>
      <trkpt lat="42.89469" lon="0.0788">
        <ele>1498</ele>
        <time>2013-01-01T14:12:19Z</time>
      </trkpt>
      <trkpt lat="42.8947" lon="0.07882">
        <ele>1498</ele>
        <time>2013-01-01T14:12:20Z</time>
      </trkpt>
      <trkpt lat="42.8947" lon="0.07885">
        <ele>1498</ele>
        <time>2013-01-01T14:12:24Z</time>
      </trkpt>
      <trkpt lat="42.89469" lon="0.07886">
        <ele>1498</ele>
        <time>2013-01-01T14:12:25Z</time>
      </trkpt>
      <trkpt lat="42.89468" lon="0.07887">
        <ele>1500</ele>
        <time>2013-01-01T14:12:28Z</time>
      </trkpt>
      <trkpt lat="42.89467" lon="0.07887">
        <ele>1501</ele>
        <time>2013-01-01T14:12:30Z</time>
      </trkpt>
      <trkpt lat="42.89465" lon="0.07888">
        <ele>1501</ele>
        <time>2013-01-01T14:12:34Z</time>
      </trkpt>
      <trkpt lat="42.89465" lon="0.0789">
        <ele>1501</ele>
        <time>2013-01-01T14:12:37Z</time>
      </trkpt>
      <trkpt lat="42.89467" lon="0.07892">
        <ele>1501</ele>
        <time>2013-01-01T14:12:40Z</time>
      </trkpt>
      <trkpt lat="42.89468" lon="0.07893">
        <ele>1501</ele>
        <time>2013-01-01T14:12:42Z</time>
      </trkpt>
      <trkpt lat="42.89469" lon="0.07892">
        <ele>1501</ele>
        <time>2013-01-01T14:12:44Z</time>
      </trkpt>
      <trkpt lat="42.8947" lon="0.0789">
        <ele>1501</ele>
        <time>2013-01-01T14:12:49Z</time>
      </trkpt>
      <trkpt lat="42.8947" lon="0.07888">
        <ele>1501</ele>
        <time>2013-01-01T14:12:58Z</time>
      </trkpt>
      <trkpt lat="42.89468" lon="0.07889">
        <ele>1501</ele>
        <time>2013-01-01T14:14:08Z</time>
      </trkpt>
      <trkpt lat="42.89467" lon="0.07891">
        <ele>1501</ele>
        <time>2013-01-01T14:14:10Z</time>
      </trkpt>
      <trkpt lat="42.89466" lon="0.07892">
        <ele>1501</ele>
        <time>2013-01-01T14:14:12Z</time>
      </trkpt>
      <trkpt lat="42.89465" lon="0.07893">
        <ele>1501</ele>
        <time>2013-01-01T14:14:14Z</time>
      </trkpt>
      <trkpt lat="42.89463" lon="0.07895">
        <ele>1501</ele>
        <time>2013-01-01T14:14:16Z</time>
      </trkpt>
      <trkpt lat="42.89462" lon="0.07896">
        <ele>1501</ele>
        <time>2013-01-01T14:14:18Z</time>
      </trkpt>
      <trkpt lat="42.8946" lon="0.07897">
        <ele>1501</ele>
        <time>2013-01-01T14:14:20Z</time>
      </trkpt>
      <trkpt lat="42.89459" lon="0.07898">
        <ele>1501</ele>
        <time>2013-01-01T14:14:22Z</time>
      </trkpt>
      <trkpt lat="42.89457" lon="0.07901">
        <ele>1501</ele>
        <time>2013-01-01T14:14:25Z</time>
      </trkpt>
      <trkpt lat="42.89456" lon="0.07902">
        <ele>1501</ele>
        <time>2013-01-01T14:14:27Z</time>
      </trkpt>
      <trkpt lat="42.89455" lon="0.07904">
        <ele>1501</ele>
        <time>2013-01-01T14:14:29Z</time>
      </trkpt>
      <trkpt lat="42.89454" lon="0.07906">
        <ele>1501</ele>
        <time>2013-01-01T14:14:31Z</time>
      </trkpt>
      <trkpt lat="42.89452" lon="0.07907">
        <ele>1501</ele>
        <time>2013-01-01T14:14:33Z</time>
      </trkpt>
      <trkpt lat="42.89451" lon="0.07909">
        <ele>1501</ele>
        <time>2013-01-01T14:14:35Z</time>
      </trkpt>
      <trkpt lat="42.8945" lon="0.07911">
        <ele>1501</ele>
        <time>2013-01-01T14:14:37Z</time>
      </trkpt>
      <trkpt lat="42.89449" lon="0.07913">
        <ele>1501</ele>
        <time>2013-01-01T14:14:39Z</time>
      </trkpt>
      <trkpt lat="42.89449" lon="0.07914">
        <ele>1501</ele>
        <time>2013-01-01T14:14:41Z</time>
      </trkpt>
      <trkpt lat="42.89448" lon="0.07917">
        <ele>1501</ele>
        <time>2013-01-01T14:14:43Z</time>
      </trkpt>
      <trkpt lat="42.89447" lon="0.07918">
        <ele>1501</ele>
        <time>2013-01-01T14:14:44Z</time>
      </trkpt>
      <trkpt lat="42.89447" lon="0.0792">
        <ele>1501</ele>
        <time>2013-01-01T14:14:45Z</time>
      </trkpt>
      <trkpt lat="42.89447" lon="0.07922">
        <ele>1501</ele>
        <time>2013-01-01T14:14:47Z</time>
      </trkpt>
      <trkpt lat="42.89446" lon="0.07924">
        <ele>1501</ele>
        <time>2013-01-01T14:14:48Z</time>
      </trkpt>
      <trkpt lat="42.89446" lon="0.07925">
        <ele>1501</ele>
        <time>2013-01-01T14:14:49Z</time>
      </trkpt>
      <trkpt lat="42.89446" lon="0.07927">
        <ele>1501</ele>
        <time>2013-01-01T14:14:50Z</time>
      </trkpt>
      <trkpt lat="42.89446" lon="0.0793">
        <ele>1501</ele>
        <time>2013-01-01T14:14:52Z</time>
      </trkpt>
      <trkpt lat="42.89446" lon="0.07932">
        <ele>1501</ele>
        <time>2013-01-01T14:14:54Z</time>
      </trkpt>
      <trkpt lat="42.89445" lon="0.07934">
        <ele>1501</ele>
        <time>2013-01-01T14:14:59Z</time>
      </trkpt>
      <trkpt lat="42.89444" lon="0.07935">
        <ele>1501</ele>
        <time>2013-01-01T14:15:03Z</time>
      </trkpt>
      <trkpt lat="42.89444" lon="0.07938">
        <ele>1501</ele>
        <time>2013-01-01T14:15:05Z</time>
      </trkpt>
      <trkpt lat="42.89444" lon="0.07941">
        <ele>1501</ele>
        <time>2013-01-01T14:15:07Z</time>
      </trkpt>
      <trkpt lat="42.89444" lon="0.07943">
        <ele>1501</ele>
        <time>2013-01-01T14:15:08Z</time>
      </trkpt>
      <trkpt lat="42.89444" lon="0.07945">
        <ele>1501</ele>
        <time>2013-01-01T14:15:09Z</time>
      </trkpt>
      <trkpt lat="42.89444" lon="0.07947">
        <ele>1501</ele>
        <time>2013-01-01T14:15:10Z</time>
      </trkpt>
      <trkpt lat="42.89444" lon="0.0795">
        <ele>1501</ele>
        <time>2013-01-01T14:15:11Z</time>
      </trkpt>
      <trkpt lat="42.89444" lon="0.07953">
        <ele>1501</ele>
        <time>2013-01-01T14:15:12Z</time>
      </trkpt>
      <trkpt lat="42.89444" lon="0.07955">
        <ele>1501</ele>
        <time>2013-01-01T14:15:13Z</time>
      </trkpt>
      <trkpt lat="42.89444" lon="0.07958">
        <ele>1501</ele>
        <time>2013-01-01T14:15:14Z</time>
      </trkpt>
      <trkpt lat="42.89444" lon="0.0796">
        <ele>1501</ele>
        <time>2013-01-01T14:15:15Z</time>
      </trkpt>
      <trkpt lat="42.89444" lon="0.07962">
        <ele>1501</ele>
        <time>2013-01-01T14:15:16Z</time>
      </trkpt>
      <trkpt lat="42.89444" lon="0.07965">
        <ele>1501</ele>
        <time>2013-01-01T14:15:17Z</time>
      </trkpt>
      <trkpt lat="42.89444" lon="0.07967">
        <ele>1501</ele>
        <time>2013-01-01T14:15:18Z</time>
      </trkpt>
      <trkpt lat="42.89444" lon="0.07969">
        <ele>1501</ele>
        <time>2013-01-01T14:15:19Z</time>
      </trkpt>
      <trkpt lat="42.89444" lon="0.0797">
        <ele>1501</ele>
        <time>2013-01-01T14:15:20Z</time>
      </trkpt>
      <trkpt lat="42.89444" lon="0.07972">
        <ele>1501</ele>
        <time>2013-01-01T14:15:21Z</time>
      </trkpt>
      <trkpt lat="42.89444" lon="0.07974">
        <ele>1501</ele>
        <time>2013-01-01T14:15:22Z</time>
      </trkpt>
      <trkpt lat="42.89444" lon="0.07975">
        <ele>1501</ele>
        <time>2013-01-01T14:15:23Z</time>
      </trkpt>
      <trkpt lat="42.89444" lon="0.07977">
        <ele>1501</ele>
        <time>2013-01-01T14:15:24Z</time>
      </trkpt>
      <trkpt lat="42.89443" lon="0.07978">
        <ele>1501</ele>
        <time>2013-01-01T14:15:25Z</time>
      </trkpt>
      <trkpt lat="42.89443" lon="0.0798">
        <ele>1501</ele>
        <time>2013-01-01T14:15:26Z</time>
      </trkpt>
      <trkpt lat="42.89443" lon="0.07982">
        <ele>1501</ele>
        <time>2013-01-01T14:15:27Z</time>
      </trkpt>
      <trkpt lat="42.89443" lon="0.07983">
        <ele>1501</ele>
        <time>2013-01-01T14:15:28Z</time>
      </trkpt>
      <trkpt lat="42.89443" lon="0.07985">
        <ele>1501</ele>
        <time>2013-01-01T14:15:29Z</time>
      </trkpt>
      <trkpt lat="42.89443" lon="0.07986">
        <ele>1501</ele>
        <time>2013-01-01T14:15:30Z</time>
      </trkpt>
      <trkpt lat="42.89443" lon="0.07989">
        <ele>1501</ele>
        <time>2013-01-01T14:15:32Z</time>
      </trkpt>
      <trkpt lat="42.89443" lon="0.07991">
        <ele>1501</ele>
        <time>2013-01-01T14:15:33Z</time>
      </trkpt>
      <trkpt lat="42.89443" lon="0.07993">
        <ele>1501</ele>
        <time>2013-01-01T14:15:35Z</time>
      </trkpt>
      <trkpt lat="42.89443" lon="0.07994">
        <ele>1502</ele>
        <time>2013-01-01T14:15:36Z</time>
      </trkpt>
      <trkpt lat="42.89443" lon="0.07997">
        <ele>1502</ele>
        <time>2013-01-01T14:15:38Z</time>
      </trkpt>
      <trkpt lat="42.89443" lon="0.07998">
        <ele>1502</ele>
        <time>2013-01-01T14:15:39Z</time>
      </trkpt>
      <trkpt lat="42.89443" lon="0.08">
        <ele>1502</ele>
        <time>2013-01-01T14:15:41Z</time>
      </trkpt>
      <trkpt lat="42.89443" lon="0.08002">
        <ele>1502</ele>
        <time>2013-01-01T14:15:42Z</time>
      </trkpt>
      <trkpt lat="42.89443" lon="0.08003">
        <ele>1502</ele>
        <time>2013-01-01T14:15:43Z</time>
      </trkpt>
      <trkpt lat="42.89443" lon="0.08006">
        <ele>1503</ele>
        <time>2013-01-01T14:15:45Z</time>
      </trkpt>
      <trkpt lat="42.89443" lon="0.08009">
        <ele>1503</ele>
        <time>2013-01-01T14:15:47Z</time>
      </trkpt>
      <trkpt lat="42.89443" lon="0.08011">
        <ele>1503</ele>
        <time>2013-01-01T14:15:49Z</time>
      </trkpt>
      <trkpt lat="42.89443" lon="0.08013">
        <ele>1503</ele>
        <time>2013-01-01T14:15:50Z</time>
      </trkpt>
      <trkpt lat="42.89442" lon="0.08016">
        <ele>1503</ele>
        <time>2013-01-01T14:15:52Z</time>
      </trkpt>
      <trkpt lat="42.89442" lon="0.08017">
        <ele>1504</ele>
        <time>2013-01-01T14:15:53Z</time>
      </trkpt>
      <trkpt lat="42.89442" lon="0.08019">
        <ele>1504</ele>
        <time>2013-01-01T14:15:54Z</time>
      </trkpt>
      <trkpt lat="42.89441" lon="0.08021">
        <ele>1504</ele>
        <time>2013-01-01T14:15:55Z</time>
      </trkpt>
      <trkpt lat="42.89441" lon="0.08023">
        <ele>1504</ele>
        <time>2013-01-01T14:15:56Z</time>
      </trkpt>
      <trkpt lat="42.89441" lon="0.08025">
        <ele>1504</ele>
        <time>2013-01-01T14:15:57Z</time>
      </trkpt>
      <trkpt lat="42.89441" lon="0.08027">
        <ele>1504</ele>
        <time>2013-01-01T14:15:58Z</time>
      </trkpt>
      <trkpt lat="42.89441" lon="0.08028">
        <ele>1504</ele>
        <time>2013-01-01T14:15:59Z</time>
      </trkpt>
      <trkpt lat="42.89441" lon="0.0803">
        <ele>1504</ele>
        <time>2013-01-01T14:16:00Z</time>
      </trkpt>
      <trkpt lat="42.89441" lon="0.08032">
        <ele>1504</ele>
        <time>2013-01-01T14:16:01Z</time>
      </trkpt>
      <trkpt lat="42.89441" lon="0.08034">
        <ele>1504</ele>
        <time>2013-01-01T14:16:03Z</time>
      </trkpt>
      <trkpt lat="42.89441" lon="0.08036">
        <ele>1504</ele>
        <time>2013-01-01T14:16:04Z</time>
      </trkpt>
      <trkpt lat="42.89441" lon="0.08037">
        <ele>1504</ele>
        <time>2013-01-01T14:16:05Z</time>
      </trkpt>
      <trkpt lat="42.89442" lon="0.08039">
        <ele>1504</ele>
        <time>2013-01-01T14:16:06Z</time>
      </trkpt>
      <trkpt lat="42.89442" lon="0.08041">
        <ele>1504</ele>
        <time>2013-01-01T14:16:07Z</time>
      </trkpt>
      <trkpt lat="42.89441" lon="0.08044">
        <ele>1504</ele>
        <time>2013-01-01T14:16:08Z</time>
      </trkpt>
      <trkpt lat="42.89442" lon="0.08045">
        <ele>1504</ele>
        <time>2013-01-01T14:16:09Z</time>
      </trkpt>
      <trkpt lat="42.89442" lon="0.08048">
        <ele>1504</ele>
        <time>2013-01-01T14:16:10Z</time>
      </trkpt>
      <trkpt lat="42.89441" lon="0.08049">
        <ele>1505</ele>
        <time>2013-01-01T14:16:11Z</time>
      </trkpt>
      <trkpt lat="42.89441" lon="0.08051">
        <ele>1505</ele>
        <time>2013-01-01T14:16:12Z</time>
      </trkpt>
      <trkpt lat="42.89441" lon="0.08053">
        <ele>1505</ele>
        <time>2013-01-01T14:16:13Z</time>
      </trkpt>
      <trkpt lat="42.89441" lon="0.08055">
        <ele>1505</ele>
        <time>2013-01-01T14:16:14Z</time>
      </trkpt>
      <trkpt lat="42.89441" lon="0.08057">
        <ele>1505</ele>
        <time>2013-01-01T14:16:15Z</time>
      </trkpt>
      <trkpt lat="42.89441" lon="0.08059">
        <ele>1505</ele>
        <time>2013-01-01T14:16:16Z</time>
      </trkpt>
      <trkpt lat="42.89441" lon="0.08061">
        <ele>1505</ele>
        <time>2013-01-01T14:16:18Z</time>
      </trkpt>
      <trkpt lat="42.89441" lon="0.08063">
        <ele>1505</ele>
        <time>2013-01-01T14:16:19Z</time>
      </trkpt>
      <trkpt lat="42.89441" lon="0.08065">
        <ele>1505</ele>
        <time>2013-01-01T14:16:20Z</time>
      </trkpt>
      <trkpt lat="42.89441" lon="0.08067">
        <ele>1505</ele>
        <time>2013-01-01T14:16:21Z</time>
      </trkpt>
      <trkpt lat="42.8944" lon="0.08069">
        <ele>1505</ele>
        <time>2013-01-01T14:16:22Z</time>
      </trkpt>
      <trkpt lat="42.8944" lon="0.08071">
        <ele>1505</ele>
        <time>2013-01-01T14:16:23Z</time>
      </trkpt>
      <trkpt lat="42.8944" lon="0.08073">
        <ele>1505</ele>
        <time>2013-01-01T14:16:24Z</time>
      </trkpt>
      <trkpt lat="42.8944" lon="0.08074">
        <ele>1505</ele>
        <time>2013-01-01T14:16:25Z</time>
      </trkpt>
      <trkpt lat="42.89439" lon="0.08076">
        <ele>1505</ele>
        <time>2013-01-01T14:16:26Z</time>
      </trkpt>
      <trkpt lat="42.89439" lon="0.08078">
        <ele>1505</ele>
        <time>2013-01-01T14:16:27Z</time>
      </trkpt>
      <trkpt lat="42.89439" lon="0.0808">
        <ele>1505</ele>
        <time>2013-01-01T14:16:28Z</time>
      </trkpt>
      <trkpt lat="42.89439" lon="0.08082">
        <ele>1505</ele>
        <time>2013-01-01T14:16:29Z</time>
      </trkpt>
      <trkpt lat="42.89439" lon="0.08084">
        <ele>1505</ele>
        <time>2013-01-01T14:16:30Z</time>
      </trkpt>
      <trkpt lat="42.89438" lon="0.08085">
        <ele>1505</ele>
        <time>2013-01-01T14:16:31Z</time>
      </trkpt>
      <trkpt lat="42.89438" lon="0.08087">
        <ele>1505</ele>
        <time>2013-01-01T14:16:32Z</time>
      </trkpt>
      <trkpt lat="42.89438" lon="0.0809">
        <ele>1505</ele>
        <time>2013-01-01T14:16:34Z</time>
      </trkpt>
      <trkpt lat="42.89437" lon="0.08091">
        <ele>1505</ele>
        <time>2013-01-01T14:16:35Z</time>
      </trkpt>
      <trkpt lat="42.89437" lon="0.08093">
        <ele>1505</ele>
        <time>2013-01-01T14:16:36Z</time>
      </trkpt>
      <trkpt lat="42.89436" lon="0.08095">
        <ele>1505</ele>
        <time>2013-01-01T14:16:37Z</time>
      </trkpt>
      <trkpt lat="42.89436" lon="0.08097">
        <ele>1505</ele>
        <time>2013-01-01T14:16:39Z</time>
      </trkpt>
      <trkpt lat="42.89435" lon="0.08099">
        <ele>1505</ele>
        <time>2013-01-01T14:16:40Z</time>
      </trkpt>
      <trkpt lat="42.89435" lon="0.08101">
        <ele>1505</ele>
        <time>2013-01-01T14:16:41Z</time>
      </trkpt>
      <trkpt lat="42.89435" lon="0.08103">
        <ele>1505</ele>
        <time>2013-01-01T14:16:43Z</time>
      </trkpt>
      <trkpt lat="42.89435" lon="0.08105">
        <ele>1505</ele>
        <time>2013-01-01T14:16:44Z</time>
      </trkpt>
      <trkpt lat="42.89434" lon="0.08107">
        <ele>1505</ele>
        <time>2013-01-01T14:16:46Z</time>
      </trkpt>
      <trkpt lat="42.89434" lon="0.0811">
        <ele>1505</ele>
        <time>2013-01-01T14:16:48Z</time>
      </trkpt>
      <trkpt lat="42.89434" lon="0.08112">
        <ele>1505</ele>
        <time>2013-01-01T14:16:50Z</time>
      </trkpt>
      <trkpt lat="42.89433" lon="0.08115">
        <ele>1505</ele>
        <time>2013-01-01T14:16:52Z</time>
      </trkpt>
      <trkpt lat="42.89434" lon="0.08117">
        <ele>1505</ele>
        <time>2013-01-01T14:16:54Z</time>
      </trkpt>
      <trkpt lat="42.89433" lon="0.08119">
        <ele>1505</ele>
        <time>2013-01-01T14:16:55Z</time>
      </trkpt>
      <trkpt lat="42.89433" lon="0.08121">
        <ele>1505</ele>
        <time>2013-01-01T14:16:57Z</time>
      </trkpt>
      <trkpt lat="42.89433" lon="0.08124">
        <ele>1505</ele>
        <time>2013-01-01T14:16:59Z</time>
      </trkpt>
      <trkpt lat="42.89433" lon="0.08126">
        <ele>1505</ele>
        <time>2013-01-01T14:17:01Z</time>
      </trkpt>
      <trkpt lat="42.89432" lon="0.08128">
        <ele>1505</ele>
        <time>2013-01-01T14:17:03Z</time>
      </trkpt>
      <trkpt lat="42.89432" lon="0.0813">
        <ele>1505</ele>
        <time>2013-01-01T14:17:05Z</time>
      </trkpt>
      <trkpt lat="42.89431" lon="0.08132">
        <ele>1505</ele>
        <time>2013-01-01T14:17:06Z</time>
      </trkpt>
      <trkpt lat="42.89431" lon="0.08134">
        <ele>1505</ele>
        <time>2013-01-01T14:17:08Z</time>
      </trkpt>
      <trkpt lat="42.8943" lon="0.08137">
        <ele>1505</ele>
        <time>2013-01-01T14:17:10Z</time>
      </trkpt>
      <trkpt lat="42.89429" lon="0.08139">
        <ele>1505</ele>
        <time>2013-01-01T14:17:12Z</time>
      </trkpt>
      <trkpt lat="42.89429" lon="0.08141">
        <ele>1505</ele>
        <time>2013-01-01T14:17:14Z</time>
      </trkpt>
      <trkpt lat="42.89428" lon="0.08144">
        <ele>1505</ele>
        <time>2013-01-01T14:17:16Z</time>
      </trkpt>
      <trkpt lat="42.89428" lon="0.08146">
        <ele>1505</ele>
        <time>2013-01-01T14:17:18Z</time>
      </trkpt>
      <trkpt lat="42.89428" lon="0.08149">
        <ele>1505</ele>
        <time>2013-01-01T14:17:20Z</time>
      </trkpt>
      <trkpt lat="42.89427" lon="0.08151">
        <ele>1505</ele>
        <time>2013-01-01T14:17:22Z</time>
      </trkpt>
      <trkpt lat="42.89426" lon="0.08153">
        <ele>1505</ele>
        <time>2013-01-01T14:17:24Z</time>
      </trkpt>
      <trkpt lat="42.89425" lon="0.08156">
        <ele>1505</ele>
        <time>2013-01-01T14:17:26Z</time>
      </trkpt>
      <trkpt lat="42.89424" lon="0.08158">
        <ele>1505</ele>
        <time>2013-01-01T14:17:28Z</time>
      </trkpt>
      <trkpt lat="42.89424" lon="0.0816">
        <ele>1505</ele>
        <time>2013-01-01T14:17:29Z</time>
      </trkpt>
      <trkpt lat="42.89423" lon="0.08162">
        <ele>1505</ele>
        <time>2013-01-01T14:17:31Z</time>
      </trkpt>
      <trkpt lat="42.89422" lon="0.08164">
        <ele>1505</ele>
        <time>2013-01-01T14:17:32Z</time>
      </trkpt>
      <trkpt lat="42.89421" lon="0.08166">
        <ele>1506</ele>
        <time>2013-01-01T14:17:34Z</time>
      </trkpt>
      <trkpt lat="42.8942" lon="0.08169">
        <ele>1506</ele>
        <time>2013-01-01T14:17:36Z</time>
      </trkpt>
      <trkpt lat="42.8942" lon="0.08171">
        <ele>1506</ele>
        <time>2013-01-01T14:17:38Z</time>
      </trkpt>
      <trkpt lat="42.89419" lon="0.08173">
        <ele>1506</ele>
        <time>2013-01-01T14:17:39Z</time>
      </trkpt>
      <trkpt lat="42.89418" lon="0.08175">
        <ele>1506</ele>
        <time>2013-01-01T14:17:41Z</time>
      </trkpt>
      <trkpt lat="42.89418" lon="0.08177">
        <ele>1506</ele>
        <time>2013-01-01T14:17:42Z</time>
      </trkpt>
      <trkpt lat="42.89417" lon="0.08178">
        <ele>1506</ele>
        <time>2013-01-01T14:17:43Z</time>
      </trkpt>
      <trkpt lat="42.89417" lon="0.0818">
        <ele>1506</ele>
        <time>2013-01-01T14:17:44Z</time>
      </trkpt>
      <trkpt lat="42.89416" lon="0.08183">
        <ele>1506</ele>
        <time>2013-01-01T14:17:46Z</time>
      </trkpt>
      <trkpt lat="42.89415" lon="0.08185">
        <ele>1506</ele>
        <time>2013-01-01T14:17:48Z</time>
      </trkpt>
      <trkpt lat="42.89414" lon="0.08186">
        <ele>1507</ele>
        <time>2013-01-01T14:17:49Z</time>
      </trkpt>
      <trkpt lat="42.89413" lon="0.08188">
        <ele>1507</ele>
        <time>2013-01-01T14:17:50Z</time>
      </trkpt>
      <trkpt lat="42.89413" lon="0.0819">
        <ele>1507</ele>
        <time>2013-01-01T14:17:51Z</time>
      </trkpt>
      <trkpt lat="42.89413" lon="0.08191">
        <ele>1507</ele>
        <time>2013-01-01T14:17:52Z</time>
      </trkpt>
      <trkpt lat="42.89412" lon="0.08192">
        <ele>1507</ele>
        <time>2013-01-01T14:17:53Z</time>
      </trkpt>
      <trkpt lat="42.89411" lon="0.08194">
        <ele>1507</ele>
        <time>2013-01-01T14:17:54Z</time>
      </trkpt>
      <trkpt lat="42.89411" lon="0.08196">
        <ele>1507</ele>
        <time>2013-01-01T14:17:55Z</time>
      </trkpt>
      <trkpt lat="42.8941" lon="0.08197">
        <ele>1507</ele>
        <time>2013-01-01T14:17:56Z</time>
      </trkpt>
      <trkpt lat="42.89409" lon="0.08199">
        <ele>1507</ele>
        <time>2013-01-01T14:17:58Z</time>
      </trkpt>
      <trkpt lat="42.89408" lon="0.08202">
        <ele>1507</ele>
        <time>2013-01-01T14:18:00Z</time>
      </trkpt>
      <trkpt lat="42.89407" lon="0.08204">
        <ele>1507</ele>
        <time>2013-01-01T14:18:02Z</time>
      </trkpt>
      <trkpt lat="42.89405" lon="0.08206">
        <ele>1507</ele>
        <time>2013-01-01T14:18:04Z</time>
      </trkpt>
      <trkpt lat="42.89404" lon="0.08208">
        <ele>1507</ele>
        <time>2013-01-01T14:18:06Z</time>
      </trkpt>
      <trkpt lat="42.89402" lon="0.08211">
        <ele>1507</ele>
        <time>2013-01-01T14:18:08Z</time>
      </trkpt>
      <trkpt lat="42.89401" lon="0.08213">
        <ele>1507</ele>
        <time>2013-01-01T14:18:10Z</time>
      </trkpt>
      <trkpt lat="42.89399" lon="0.08216">
        <ele>1507</ele>
        <time>2013-01-01T14:18:12Z</time>
      </trkpt>
      <trkpt lat="42.89398" lon="0.08218">
        <ele>1507</ele>
        <time>2013-01-01T14:18:14Z</time>
      </trkpt>
      <trkpt lat="42.89396" lon="0.08221">
        <ele>1507</ele>
        <time>2013-01-01T14:18:16Z</time>
      </trkpt>
      <trkpt lat="42.89395" lon="0.08223">
        <ele>1507</ele>
        <time>2013-01-01T14:18:18Z</time>
      </trkpt>
      <trkpt lat="42.89393" lon="0.08226">
        <ele>1507</ele>
        <time>2013-01-01T14:18:20Z</time>
      </trkpt>
      <trkpt lat="42.89393" lon="0.08227">
        <ele>1507</ele>
        <time>2013-01-01T14:18:21Z</time>
      </trkpt>
      <trkpt lat="42.89391" lon="0.0823">
        <ele>1507</ele>
        <time>2013-01-01T14:18:23Z</time>
      </trkpt>
      <trkpt lat="42.89391" lon="0.08232">
        <ele>1508</ele>
        <time>2013-01-01T14:18:24Z</time>
      </trkpt>
      <trkpt lat="42.8939" lon="0.08234">
        <ele>1508</ele>
        <time>2013-01-01T14:18:25Z</time>
      </trkpt>
      <trkpt lat="42.89389" lon="0.08236">
        <ele>1508</ele>
        <time>2013-01-01T14:18:27Z</time>
      </trkpt>
      <trkpt lat="42.89389" lon="0.08239">
        <ele>1509</ele>
        <time>2013-01-01T14:18:30Z</time>
      </trkpt>
      <trkpt lat="42.89388" lon="0.0824">
        <ele>1509</ele>
        <time>2013-01-01T14:18:31Z</time>
      </trkpt>
      <trkpt lat="42.89388" lon="0.08242">
        <ele>1509</ele>
        <time>2013-01-01T14:18:32Z</time>
      </trkpt>
      <trkpt lat="42.89388" lon="0.08243">
        <ele>1509</ele>
        <time>2013-01-01T14:18:33Z</time>
      </trkpt>
      <trkpt lat="42.89387" lon="0.08245">
        <ele>1509</ele>
        <time>2013-01-01T14:18:34Z</time>
      </trkpt>
      <trkpt lat="42.89387" lon="0.08248">
        <ele>1509</ele>
        <time>2013-01-01T14:18:36Z</time>
      </trkpt>
      <trkpt lat="42.89387" lon="0.0825">
        <ele>1509</ele>
        <time>2013-01-01T14:18:37Z</time>
      </trkpt>
      <trkpt lat="42.89387" lon="0.08251">
        <ele>1509</ele>
        <time>2013-01-01T14:18:38Z</time>
      </trkpt>
      <trkpt lat="42.89387" lon="0.08253">
        <ele>1509</ele>
        <time>2013-01-01T14:18:39Z</time>
      </trkpt>
      <trkpt lat="42.89387" lon="0.08255">
        <ele>1509</ele>
        <time>2013-01-01T14:18:41Z</time>
      </trkpt>
      <trkpt lat="42.89388" lon="0.08255">
        <ele>1510</ele>
        <time>2013-01-01T14:18:48Z</time>
      </trkpt>
      <trkpt lat="42.89387" lon="0.08257">
        <ele>1511</ele>
        <time>2013-01-01T14:18:58Z</time>
      </trkpt>
      <trkpt lat="42.89386" lon="0.08257">
        <ele>1511</ele>
        <time>2013-01-01T14:18:59Z</time>
      </trkpt>
      <trkpt lat="42.89385" lon="0.08258">
        <ele>1511</ele>
        <time>2013-01-01T14:19:00Z</time>
      </trkpt>
      <trkpt lat="42.89383" lon="0.0826">
        <ele>1511</ele>
        <time>2013-01-01T14:19:02Z</time>
      </trkpt>
      <trkpt lat="42.89381" lon="0.08261">
        <ele>1511</ele>
        <time>2013-01-01T14:19:05Z</time>
      </trkpt>
      <trkpt lat="42.8938" lon="0.08262">
        <ele>1511</ele>
        <time>2013-01-01T14:19:06Z</time>
      </trkpt>
      <trkpt lat="42.89378" lon="0.08263">
        <ele>1511</ele>
        <time>2013-01-01T14:19:08Z</time>
      </trkpt>
      <trkpt lat="42.89377" lon="0.08264">
        <ele>1511</ele>
        <time>2013-01-01T14:19:10Z</time>
      </trkpt>
      <trkpt lat="42.89378" lon="0.08263">
        <ele>1511</ele>
        <time>2013-01-01T14:19:12Z</time>
      </trkpt>
      <trkpt lat="42.89379" lon="0.08263">
        <ele>1511</ele>
        <time>2013-01-01T14:19:13Z</time>
      </trkpt>
      <trkpt lat="42.89381" lon="0.08263">
        <ele>1511</ele>
        <time>2013-01-01T14:19:14Z</time>
      </trkpt>
      <trkpt lat="42.89383" lon="0.08262">
        <ele>1511</ele>
        <time>2013-01-01T14:19:16Z</time>
      </trkpt>
      <trkpt lat="42.89384" lon="0.08262">
        <ele>1511</ele>
        <time>2013-01-01T14:19:19Z</time>
      </trkpt>
      <trkpt lat="42.89386" lon="0.08263">
        <ele>1512</ele>
        <time>2013-01-01T14:19:28Z</time>
      </trkpt>
      <trkpt lat="42.89388" lon="0.08261">
        <ele>1512</ele>
        <time>2013-01-01T14:19:30Z</time>
      </trkpt>
      <trkpt lat="42.8939" lon="0.08261">
        <ele>1512</ele>
        <time>2013-01-01T14:19:31Z</time>
      </trkpt>
      <trkpt lat="42.89392" lon="0.0826">
        <ele>1512</ele>
        <time>2013-01-01T14:19:32Z</time>
      </trkpt>
      <trkpt lat="42.89394" lon="0.08259">
        <ele>1512</ele>
        <time>2013-01-01T14:19:33Z</time>
      </trkpt>
      <trkpt lat="42.89392" lon="0.0826">
        <ele>1514</ele>
        <time>2013-01-01T14:19:36Z</time>
      </trkpt>
      <trkpt lat="42.8939" lon="0.08261">
        <ele>1515</ele>
        <time>2013-01-01T14:19:38Z</time>
      </trkpt>
      <trkpt lat="42.89389" lon="0.08262">
        <ele>1516</ele>
        <time>2013-01-01T14:19:39Z</time>
      </trkpt>
      <trkpt lat="42.89388" lon="0.08263">
        <ele>1516</ele>
        <time>2013-01-01T14:19:40Z</time>
      </trkpt>
      <trkpt lat="42.89386" lon="0.08264">
        <ele>1517</ele>
        <time>2013-01-01T14:19:41Z</time>
      </trkpt>
      <trkpt lat="42.89385" lon="0.08264">
        <ele>1517</ele>
        <time>2013-01-01T14:19:43Z</time>
      </trkpt>
      <trkpt lat="42.89383" lon="0.08264">
        <ele>1517</ele>
        <time>2013-01-01T14:19:47Z</time>
      </trkpt>
      <trkpt lat="42.89381" lon="0.08265">
        <ele>1517</ele>
        <time>2013-01-01T14:19:48Z</time>
      </trkpt>
      <trkpt lat="42.89383" lon="0.08264">
        <ele>1517</ele>
        <time>2013-01-01T14:19:52Z</time>
      </trkpt>
      <trkpt lat="42.89384" lon="0.08263">
        <ele>1517</ele>
        <time>2013-01-01T14:19:54Z</time>
      </trkpt>
      <trkpt lat="42.89386" lon="0.08264">
        <ele>1516</ele>
        <time>2013-01-01T14:19:59Z</time>
      </trkpt>
      <trkpt lat="42.89388" lon="0.08264">
        <ele>1515</ele>
        <time>2013-01-01T14:20:00Z</time>
      </trkpt>
      <trkpt lat="42.8939" lon="0.08265">
        <ele>1515</ele>
        <time>2013-01-01T14:20:02Z</time>
      </trkpt>
      <trkpt lat="42.89391" lon="0.08267">
        <ele>1515</ele>
        <time>2013-01-01T14:20:04Z</time>
      </trkpt>
      <trkpt lat="42.89392" lon="0.08269">
        <ele>1515</ele>
        <time>2013-01-01T14:20:06Z</time>
      </trkpt>
      <trkpt lat="42.89393" lon="0.08269">
        <ele>1514</ele>
        <time>2013-01-01T14:20:07Z</time>
      </trkpt>
      <trkpt lat="42.89395" lon="0.08269">
        <ele>1514</ele>
        <time>2013-01-01T14:20:08Z</time>
      </trkpt>
      <trkpt lat="42.89397" lon="0.0827">
        <ele>1514</ele>
        <time>2013-01-01T14:20:10Z</time>
      </trkpt>
      <trkpt lat="42.89399" lon="0.08271">
        <ele>1514</ele>
        <time>2013-01-01T14:20:11Z</time>
      </trkpt>
      <trkpt lat="42.894" lon="0.08271">
        <ele>1514</ele>
        <time>2013-01-01T14:20:12Z</time>
      </trkpt>
      <trkpt lat="42.89401" lon="0.08271">
        <ele>1514</ele>
        <time>2013-01-01T14:20:13Z</time>
      </trkpt>
      <trkpt lat="42.89403" lon="0.08272">
        <ele>1514</ele>
        <time>2013-01-01T14:20:14Z</time>
      </trkpt>
      <trkpt lat="42.89405" lon="0.08272">
        <ele>1514</ele>
        <time>2013-01-01T14:20:15Z</time>
      </trkpt>
      <trkpt lat="42.89406" lon="0.08273">
        <ele>1514</ele>
        <time>2013-01-01T14:20:16Z</time>
      </trkpt>
      <trkpt lat="42.89407" lon="0.08273">
        <ele>1514</ele>
        <time>2013-01-01T14:20:17Z</time>
      </trkpt>
      <trkpt lat="42.89409" lon="0.08273">
        <ele>1514</ele>
        <time>2013-01-01T14:20:18Z</time>
      </trkpt>
      <trkpt lat="42.8941" lon="0.08273">
        <ele>1515</ele>
        <time>2013-01-01T14:20:20Z</time>
      </trkpt>
      <trkpt lat="42.89413" lon="0.08274">
        <ele>1516</ele>
        <time>2013-01-01T14:20:22Z</time>
      </trkpt>
      <trkpt lat="42.89414" lon="0.08274">
        <ele>1516</ele>
        <time>2013-01-01T14:20:24Z</time>
      </trkpt>
      <trkpt lat="42.89416" lon="0.08275">
        <ele>1517</ele>
        <time>2013-01-01T14:20:26Z</time>
      </trkpt>
      <trkpt lat="42.89417" lon="0.08275">
        <ele>1517</ele>
        <time>2013-01-01T14:20:27Z</time>
      </trkpt>
      <trkpt lat="42.8942" lon="0.08275">
        <ele>1519</ele>
        <time>2013-01-01T14:20:29Z</time>
      </trkpt>
      <trkpt lat="42.89422" lon="0.08275">
        <ele>1519</ele>
        <time>2013-01-01T14:20:31Z</time>
      </trkpt>
      <trkpt lat="42.89423" lon="0.08275">
        <ele>1519</ele>
        <time>2013-01-01T14:20:32Z</time>
      </trkpt>
      <trkpt lat="42.89425" lon="0.08276">
        <ele>1520</ele>
        <time>2013-01-01T14:20:34Z</time>
      </trkpt>
      <trkpt lat="42.89426" lon="0.08277">
        <ele>1521</ele>
        <time>2013-01-01T14:20:36Z</time>
      </trkpt>
      <trkpt lat="42.89428" lon="0.08277">
        <ele>1522</ele>
        <time>2013-01-01T14:20:38Z</time>
      </trkpt>
      <trkpt lat="42.89429" lon="0.08277">
        <ele>1522</ele>
        <time>2013-01-01T14:20:39Z</time>
      </trkpt>
      <trkpt lat="42.8943" lon="0.08277">
        <ele>1522</ele>
        <time>2013-01-01T14:20:41Z</time>
      </trkpt>
      <trkpt lat="42.89431" lon="0.08277">
        <ele>1522</ele>
        <time>2013-01-01T14:20:42Z</time>
      </trkpt>
      <trkpt lat="42.89433" lon="0.08278">
        <ele>1522</ele>
        <time>2013-01-01T14:20:43Z</time>
      </trkpt>
      <trkpt lat="42.89435" lon="0.08278">
        <ele>1522</ele>
        <time>2013-01-01T14:20:44Z</time>
      </trkpt>
      <trkpt lat="42.89436" lon="0.08278">
        <ele>1522</ele>
        <time>2013-01-01T14:20:46Z</time>
      </trkpt>
      <trkpt lat="42.89438" lon="0.08279">
        <ele>1522</ele>
        <time>2013-01-01T14:20:47Z</time>
      </trkpt>
      <trkpt lat="42.8944" lon="0.0828">
        <ele>1523</ele>
        <time>2013-01-01T14:20:49Z</time>
      </trkpt>
      <trkpt lat="42.89442" lon="0.0828">
        <ele>1523</ele>
        <time>2013-01-01T14:20:51Z</time>
      </trkpt>
      <trkpt lat="42.89444" lon="0.0828">
        <ele>1524</ele>
        <time>2013-01-01T14:20:52Z</time>
      </trkpt>
      <trkpt lat="42.89445" lon="0.08281">
        <ele>1524</ele>
        <time>2013-01-01T14:20:53Z</time>
      </trkpt>
      <trkpt lat="42.89447" lon="0.08281">
        <ele>1525</ele>
        <time>2013-01-01T14:20:54Z</time>
      </trkpt>
      <trkpt lat="42.89448" lon="0.08281">
        <ele>1525</ele>
        <time>2013-01-01T14:20:55Z</time>
      </trkpt>
      <trkpt lat="42.89449" lon="0.08283">
        <ele>1527</ele>
        <time>2013-01-01T14:20:57Z</time>
      </trkpt>
      <trkpt lat="42.8945" lon="0.08285">
        <ele>1528</ele>
        <time>2013-01-01T14:21:00Z</time>
      </trkpt>
      <trkpt lat="42.89451" lon="0.08286">
        <ele>1528</ele>
        <time>2013-01-01T14:21:02Z</time>
      </trkpt>
      <trkpt lat="42.89453" lon="0.08287">
        <ele>1528</ele>
        <time>2013-01-01T14:21:03Z</time>
      </trkpt>
      <trkpt lat="42.89455" lon="0.08288">
        <ele>1528</ele>
        <time>2013-01-01T14:21:05Z</time>
      </trkpt>
      <trkpt lat="42.89456" lon="0.08291">
        <ele>1529</ele>
        <time>2013-01-01T14:21:07Z</time>
      </trkpt>
      <trkpt lat="42.89457" lon="0.08292">
        <ele>1530</ele>
        <time>2013-01-01T14:21:09Z</time>
      </trkpt>
      <trkpt lat="42.89458" lon="0.08294">
        <ele>1530</ele>
        <time>2013-01-01T14:21:11Z</time>
      </trkpt>
      <trkpt lat="42.8946" lon="0.08296">
        <ele>1530</ele>
        <time>2013-01-01T14:21:13Z</time>
      </trkpt>
      <trkpt lat="42.8946" lon="0.08298">
        <ele>1530</ele>
        <time>2013-01-01T14:21:15Z</time>
      </trkpt>
      <trkpt lat="42.8946" lon="0.083">
        <ele>1530</ele>
        <time>2013-01-01T14:21:17Z</time>
      </trkpt>
      <trkpt lat="42.89459" lon="0.08303">
        <ele>1530</ele>
        <time>2013-01-01T14:21:19Z</time>
      </trkpt>
      <trkpt lat="42.89461" lon="0.08304">
        <ele>1528</ele>
        <time>2013-01-01T14:21:21Z</time>
      </trkpt>
      <trkpt lat="42.89461" lon="0.08307">
        <ele>1527</ele>
        <time>2013-01-01T14:21:23Z</time>
      </trkpt>
      <trkpt lat="42.89463" lon="0.08309">
        <ele>1526</ele>
        <time>2013-01-01T14:21:25Z</time>
      </trkpt>
      <trkpt lat="42.89461" lon="0.08311">
        <ele>1525</ele>
        <time>2013-01-01T14:21:26Z</time>
      </trkpt>
      <trkpt lat="42.8946" lon="0.08313">
        <ele>1524</ele>
        <time>2013-01-01T14:21:27Z</time>
      </trkpt>
      <trkpt lat="42.8946" lon="0.08315">
        <ele>1523</ele>
        <time>2013-01-01T14:21:28Z</time>
      </trkpt>
      <trkpt lat="42.8946" lon="0.08317">
        <ele>1522</ele>
        <time>2013-01-01T14:21:30Z</time>
      </trkpt>
      <trkpt lat="42.8946" lon="0.08319">
        <ele>1521</ele>
        <time>2013-01-01T14:21:31Z</time>
      </trkpt>
      <trkpt lat="42.8946" lon="0.0832">
        <ele>1521</ele>
        <time>2013-01-01T14:21:32Z</time>
      </trkpt>
      <trkpt lat="42.89459" lon="0.08322">
        <ele>1520</ele>
        <time>2013-01-01T14:21:33Z</time>
      </trkpt>
      <trkpt lat="42.89459" lon="0.08324">
        <ele>1520</ele>
        <time>2013-01-01T14:21:34Z</time>
      </trkpt>
      <trkpt lat="42.89459" lon="0.08325">
        <ele>1520</ele>
        <time>2013-01-01T14:21:35Z</time>
      </trkpt>
      <trkpt lat="42.8946" lon="0.08328">
        <ele>1519</ele>
        <time>2013-01-01T14:21:37Z</time>
      </trkpt>
      <trkpt lat="42.89462" lon="0.0833">
        <ele>1518</ele>
        <time>2013-01-01T14:21:39Z</time>
      </trkpt>
      <trkpt lat="42.89462" lon="0.08333">
        <ele>1517</ele>
        <time>2013-01-01T14:21:41Z</time>
      </trkpt>
      <trkpt lat="42.89464" lon="0.08335">
        <ele>1517</ele>
        <time>2013-01-01T14:21:43Z</time>
      </trkpt>
      <trkpt lat="42.89464" lon="0.08337">
        <ele>1517</ele>
        <time>2013-01-01T14:21:44Z</time>
      </trkpt>
      <trkpt lat="42.89465" lon="0.0834">
        <ele>1517</ele>
        <time>2013-01-01T14:21:46Z</time>
      </trkpt>
      <trkpt lat="42.89465" lon="0.08342">
        <ele>1517</ele>
        <time>2013-01-01T14:21:48Z</time>
      </trkpt>
      <trkpt lat="42.89467" lon="0.08342">
        <ele>1517</ele>
        <time>2013-01-01T14:21:49Z</time>
      </trkpt>
      <trkpt lat="42.89469" lon="0.08342">
        <ele>1517</ele>
        <time>2013-01-01T14:21:50Z</time>
      </trkpt>
      <trkpt lat="42.89471" lon="0.08341">
        <ele>1517</ele>
        <time>2013-01-01T14:21:51Z</time>
      </trkpt>
      <trkpt lat="42.89473" lon="0.08341">
        <ele>1517</ele>
        <time>2013-01-01T14:21:52Z</time>
      </trkpt>
      <trkpt lat="42.89475" lon="0.08339">
        <ele>1518</ele>
        <time>2013-01-01T14:21:53Z</time>
      </trkpt>
      <trkpt lat="42.89479" lon="0.08337">
        <ele>1520</ele>
        <time>2013-01-01T14:21:55Z</time>
      </trkpt>
      <trkpt lat="42.89481" lon="0.08335">
        <ele>1521</ele>
        <time>2013-01-01T14:21:56Z</time>
      </trkpt>
      <trkpt lat="42.89483" lon="0.08334">
        <ele>1523</ele>
        <time>2013-01-01T14:21:57Z</time>
      </trkpt>
      <trkpt lat="42.89484" lon="0.08332">
        <ele>1525</ele>
        <time>2013-01-01T14:21:58Z</time>
      </trkpt>
      <trkpt lat="42.89486" lon="0.08331">
        <ele>1527</ele>
        <time>2013-01-01T14:21:59Z</time>
      </trkpt>
      <trkpt lat="42.89489" lon="0.08331">
        <ele>1529</ele>
        <time>2013-01-01T14:22:00Z</time>
      </trkpt>
      <trkpt lat="42.89492" lon="0.08331">
        <ele>1531</ele>
        <time>2013-01-01T14:22:01Z</time>
      </trkpt>
      <trkpt lat="42.89494" lon="0.08331">
        <ele>1533</ele>
        <time>2013-01-01T14:22:02Z</time>
      </trkpt>
      <trkpt lat="42.89495" lon="0.08331">
        <ele>1534</ele>
        <time>2013-01-01T14:22:03Z</time>
      </trkpt>
      <trkpt lat="42.89497" lon="0.08331">
        <ele>1535</ele>
        <time>2013-01-01T14:22:04Z</time>
      </trkpt>
      <trkpt lat="42.89499" lon="0.0833">
        <ele>1537</ele>
        <time>2013-01-01T14:22:06Z</time>
      </trkpt>
      <trkpt lat="42.895" lon="0.0833">
        <ele>1537</ele>
        <time>2013-01-01T14:22:07Z</time>
      </trkpt>
      <trkpt lat="42.89502" lon="0.08331">
        <ele>1537</ele>
        <time>2013-01-01T14:22:08Z</time>
      </trkpt>
      <trkpt lat="42.89504" lon="0.0833">
        <ele>1537</ele>
        <time>2013-01-01T14:22:09Z</time>
      </trkpt>
      <trkpt lat="42.89506" lon="0.08329">
        <ele>1537</ele>
        <time>2013-01-01T14:22:10Z</time>
      </trkpt>
      <trkpt lat="42.89508" lon="0.08329">
        <ele>1537</ele>
        <time>2013-01-01T14:22:11Z</time>
      </trkpt>
      <trkpt lat="42.89509" lon="0.08328">
        <ele>1537</ele>
        <time>2013-01-01T14:22:12Z</time>
      </trkpt>
      <trkpt lat="42.8951" lon="0.08328">
        <ele>1537</ele>
        <time>2013-01-01T14:22:13Z</time>
      </trkpt>
      <trkpt lat="42.89512" lon="0.08328">
        <ele>1537</ele>
        <time>2013-01-01T14:22:14Z</time>
      </trkpt>
      <trkpt lat="42.89513" lon="0.08327">
        <ele>1537</ele>
        <time>2013-01-01T14:22:16Z</time>
      </trkpt>
      <trkpt lat="42.89514" lon="0.08325">
        <ele>1537</ele>
        <time>2013-01-01T14:22:18Z</time>
      </trkpt>
      <trkpt lat="42.89516" lon="0.08324">
        <ele>1537</ele>
        <time>2013-01-01T14:22:19Z</time>
      </trkpt>
      <trkpt lat="42.89517" lon="0.08323">
        <ele>1537</ele>
        <time>2013-01-01T14:22:20Z</time>
      </trkpt>
      <trkpt lat="42.89518" lon="0.08323">
        <ele>1537</ele>
        <time>2013-01-01T14:22:21Z</time>
      </trkpt>
      <trkpt lat="42.8952" lon="0.08321">
        <ele>1537</ele>
        <time>2013-01-01T14:22:22Z</time>
      </trkpt>
      <trkpt lat="42.89522" lon="0.08321">
        <ele>1537</ele>
        <time>2013-01-01T14:22:23Z</time>
      </trkpt>
      <trkpt lat="42.89524" lon="0.0832">
        <ele>1537</ele>
        <time>2013-01-01T14:22:24Z</time>
      </trkpt>
      <trkpt lat="42.89525" lon="0.0832">
        <ele>1537</ele>
        <time>2013-01-01T14:22:25Z</time>
      </trkpt>
      <trkpt lat="42.89527" lon="0.08318">
        <ele>1537</ele>
        <time>2013-01-01T14:22:27Z</time>
      </trkpt>
      <trkpt lat="42.89529" lon="0.08317">
        <ele>1537</ele>
        <time>2013-01-01T14:22:29Z</time>
      </trkpt>
      <trkpt lat="42.8953" lon="0.08316">
        <ele>1536</ele>
        <time>2013-01-01T14:22:30Z</time>
      </trkpt>
      <trkpt lat="42.89532" lon="0.08315">
        <ele>1534</ele>
        <time>2013-01-01T14:22:32Z</time>
      </trkpt>
      <trkpt lat="42.89534" lon="0.08314">
        <ele>1532</ele>
        <time>2013-01-01T14:22:34Z</time>
      </trkpt>
      <trkpt lat="42.89536" lon="0.08313">
        <ele>1531</ele>
        <time>2013-01-01T14:22:35Z</time>
      </trkpt>
      <trkpt lat="42.89537" lon="0.08312">
        <ele>1531</ele>
        <time>2013-01-01T14:22:37Z</time>
      </trkpt>
      <trkpt lat="42.89539" lon="0.08312">
        <ele>1531</ele>
        <time>2013-01-01T14:22:38Z</time>
      </trkpt>
      <trkpt lat="42.8954" lon="0.08311">
        <ele>1531</ele>
        <time>2013-01-01T14:22:39Z</time>
      </trkpt>
      <trkpt lat="42.89541" lon="0.08311">
        <ele>1531</ele>
        <time>2013-01-01T14:22:40Z</time>
      </trkpt>
      <trkpt lat="42.89542" lon="0.0831">
        <ele>1531</ele>
        <time>2013-01-01T14:22:41Z</time>
      </trkpt>
      <trkpt lat="42.89544" lon="0.0831">
        <ele>1531</ele>
        <time>2013-01-01T14:22:42Z</time>
      </trkpt>
      <trkpt lat="42.89545" lon="0.0831">
        <ele>1531</ele>
        <time>2013-01-01T14:22:43Z</time>
      </trkpt>
      <trkpt lat="42.89546" lon="0.08308">
        <ele>1531</ele>
        <time>2013-01-01T14:22:45Z</time>
      </trkpt>
      <trkpt lat="42.89548" lon="0.08307">
        <ele>1531</ele>
        <time>2013-01-01T14:22:47Z</time>
      </trkpt>
      <trkpt lat="42.89549" lon="0.08305">
        <ele>1531</ele>
        <time>2013-01-01T14:22:49Z</time>
      </trkpt>
      <trkpt lat="42.8955" lon="0.08305">
        <ele>1531</ele>
        <time>2013-01-01T14:22:50Z</time>
      </trkpt>
      <trkpt lat="42.89552" lon="0.08303">
        <ele>1531</ele>
        <time>2013-01-01T14:22:52Z</time>
      </trkpt>
      <trkpt lat="42.89554" lon="0.08302">
        <ele>1531</ele>
        <time>2013-01-01T14:22:53Z</time>
      </trkpt>
      <trkpt lat="42.89555" lon="0.08299">
        <ele>1531</ele>
        <time>2013-01-01T14:22:55Z</time>
      </trkpt>
      <trkpt lat="42.89557" lon="0.08298">
        <ele>1531</ele>
        <time>2013-01-01T14:22:56Z</time>
      </trkpt>
      <trkpt lat="42.89559" lon="0.08298">
        <ele>1532</ele>
        <time>2013-01-01T14:22:57Z</time>
      </trkpt>
      <trkpt lat="42.89561" lon="0.08297">
        <ele>1533</ele>
        <time>2013-01-01T14:22:58Z</time>
      </trkpt>
      <trkpt lat="42.89562" lon="0.08296">
        <ele>1535</ele>
        <time>2013-01-01T14:23:00Z</time>
      </trkpt>
      <trkpt lat="42.89563" lon="0.08295">
        <ele>1536</ele>
        <time>2013-01-01T14:23:01Z</time>
      </trkpt>
      <trkpt lat="42.89564" lon="0.08294">
        <ele>1537</ele>
        <time>2013-01-01T14:23:02Z</time>
      </trkpt>
      <trkpt lat="42.89565" lon="0.08293">
        <ele>1539</ele>
        <time>2013-01-01T14:23:04Z</time>
      </trkpt>
      <trkpt lat="42.89566" lon="0.08291">
        <ele>1542</ele>
        <time>2013-01-01T14:23:07Z</time>
      </trkpt>
      <trkpt lat="42.89566" lon="0.08289">
        <ele>1542</ele>
        <time>2013-01-01T14:23:08Z</time>
      </trkpt>
      <trkpt lat="42.89566" lon="0.08288">
        <ele>1543</ele>
        <time>2013-01-01T14:23:09Z</time>
      </trkpt>
      <trkpt lat="42.89567" lon="0.08286">
        <ele>1545</ele>
        <time>2013-01-01T14:23:11Z</time>
      </trkpt>
      <trkpt lat="42.89568" lon="0.08286">
        <ele>1546</ele>
        <time>2013-01-01T14:23:12Z</time>
      </trkpt>
      <trkpt lat="42.8957" lon="0.08285">
        <ele>1547</ele>
        <time>2013-01-01T14:23:13Z</time>
      </trkpt>
      <trkpt lat="42.89571" lon="0.08284">
        <ele>1548</ele>
        <time>2013-01-01T14:23:14Z</time>
      </trkpt>
      <trkpt lat="42.89574" lon="0.08283">
        <ele>1550</ele>
        <time>2013-01-01T14:23:16Z</time>
      </trkpt>
      <trkpt lat="42.89576" lon="0.08282">
        <ele>1551</ele>
        <time>2013-01-01T14:23:17Z</time>
      </trkpt>
      <trkpt lat="42.89579" lon="0.08282">
        <ele>1552</ele>
        <time>2013-01-01T14:23:18Z</time>
      </trkpt>
      <trkpt lat="42.89581" lon="0.08281">
        <ele>1553</ele>
        <time>2013-01-01T14:23:19Z</time>
      </trkpt>
      <trkpt lat="42.89582" lon="0.0828">
        <ele>1554</ele>
        <time>2013-01-01T14:23:20Z</time>
      </trkpt>
      <trkpt lat="42.89584" lon="0.08278">
        <ele>1556</ele>
        <time>2013-01-01T14:23:22Z</time>
      </trkpt>
      <trkpt lat="42.89585" lon="0.08276">
        <ele>1557</ele>
        <time>2013-01-01T14:23:24Z</time>
      </trkpt>
      <trkpt lat="42.89585" lon="0.08274">
        <ele>1557</ele>
        <time>2013-01-01T14:23:25Z</time>
      </trkpt>
      <trkpt lat="42.89585" lon="0.08273">
        <ele>1557</ele>
        <time>2013-01-01T14:23:27Z</time>
      </trkpt>
      <trkpt lat="42.89587" lon="0.08271">
        <ele>1557</ele>
        <time>2013-01-01T14:23:29Z</time>
      </trkpt>
      <trkpt lat="42.89588" lon="0.0827">
        <ele>1557</ele>
        <time>2013-01-01T14:23:31Z</time>
      </trkpt>
      <trkpt lat="42.8959" lon="0.08268">
        <ele>1557</ele>
        <time>2013-01-01T14:23:33Z</time>
      </trkpt>
      <trkpt lat="42.89591" lon="0.08266">
        <ele>1556</ele>
        <time>2013-01-01T14:23:35Z</time>
      </trkpt>
      <trkpt lat="42.89592" lon="0.08264">
        <ele>1554</ele>
        <time>2013-01-01T14:23:37Z</time>
      </trkpt>
      <trkpt lat="42.89594" lon="0.08264">
        <ele>1553</ele>
        <time>2013-01-01T14:23:38Z</time>
      </trkpt>
      <trkpt lat="42.89595" lon="0.08262">
        <ele>1550</ele>
        <time>2013-01-01T14:23:41Z</time>
      </trkpt>
      <trkpt lat="42.89597" lon="0.08262">
        <ele>1548</ele>
        <time>2013-01-01T14:23:43Z</time>
      </trkpt>
      <trkpt lat="42.89598" lon="0.08262">
        <ele>1547</ele>
        <time>2013-01-01T14:23:45Z</time>
      </trkpt>
      <trkpt lat="42.89599" lon="0.08263">
        <ele>1545</ele>
        <time>2013-01-01T14:23:48Z</time>
      </trkpt>
      <trkpt lat="42.89601" lon="0.08263">
        <ele>1545</ele>
        <time>2013-01-01T14:23:49Z</time>
      </trkpt>
      <trkpt lat="42.89602" lon="0.08263">
        <ele>1544</ele>
        <time>2013-01-01T14:23:50Z</time>
      </trkpt>
      <trkpt lat="42.89603" lon="0.08263">
        <ele>1544</ele>
        <time>2013-01-01T14:23:51Z</time>
      </trkpt>
      <trkpt lat="42.89605" lon="0.08262">
        <ele>1543</ele>
        <time>2013-01-01T14:23:53Z</time>
      </trkpt>
      <trkpt lat="42.89607" lon="0.08263">
        <ele>1543</ele>
        <time>2013-01-01T14:23:55Z</time>
      </trkpt>
      <trkpt lat="42.89606" lon="0.08261">
        <ele>1541</ele>
        <time>2013-01-01T14:23:58Z</time>
      </trkpt>
      <trkpt lat="42.89608" lon="0.08259">
        <ele>1540</ele>
        <time>2013-01-01T14:24:01Z</time>
      </trkpt>
      <trkpt lat="42.8961" lon="0.08257">
        <ele>1539</ele>
        <time>2013-01-01T14:24:03Z</time>
      </trkpt>
      <trkpt lat="42.89611" lon="0.08257">
        <ele>1539</ele>
        <time>2013-01-01T14:24:04Z</time>
      </trkpt>
      <trkpt lat="42.89612" lon="0.08256">
        <ele>1539</ele>
        <time>2013-01-01T14:24:05Z</time>
      </trkpt>
      <trkpt lat="42.89613" lon="0.08255">
        <ele>1538</ele>
        <time>2013-01-01T14:24:06Z</time>
      </trkpt>
      <trkpt lat="42.89615" lon="0.08253">
        <ele>1537</ele>
        <time>2013-01-01T14:24:08Z</time>
      </trkpt>
      <trkpt lat="42.89617" lon="0.08252">
        <ele>1536</ele>
        <time>2013-01-01T14:24:10Z</time>
      </trkpt>
      <trkpt lat="42.89618" lon="0.08252">
        <ele>1536</ele>
        <time>2013-01-01T14:24:12Z</time>
      </trkpt>
      <trkpt lat="42.89617" lon="0.08253">
        <ele>1535</ele>
        <time>2013-01-01T14:24:23Z</time>
      </trkpt>
      <trkpt lat="42.89618" lon="0.08254">
        <ele>1534</ele>
        <time>2013-01-01T14:24:27Z</time>
      </trkpt>
      <trkpt lat="42.89616" lon="0.08255">
        <ele>1534</ele>
        <time>2013-01-01T14:24:30Z</time>
      </trkpt>
      <trkpt lat="42.89618" lon="0.08255">
        <ele>1529</ele>
        <time>2013-01-01T14:24:36Z</time>
      </trkpt>
      <trkpt lat="42.89617" lon="0.08254">
        <ele>1525</ele>
        <time>2013-01-01T14:24:41Z</time>
      </trkpt>
      <trkpt lat="42.89615" lon="0.08253">
        <ele>1525</ele>
        <time>2013-01-01T14:24:43Z</time>
      </trkpt>
      <trkpt lat="42.89614" lon="0.08251">
        <ele>1525</ele>
        <time>2013-01-01T14:24:49Z</time>
      </trkpt>
      <trkpt lat="42.89614" lon="0.08253">
        <ele>1525</ele>
        <time>2013-01-01T14:25:30Z</time>
      </trkpt>
      <trkpt lat="42.89615" lon="0.08252">
        <ele>1525</ele>
        <time>2013-01-01T14:25:34Z</time>
      </trkpt>
      <trkpt lat="42.89616" lon="0.08252">
        <ele>1525</ele>
        <time>2013-01-01T14:25:37Z</time>
      </trkpt>
      <trkpt lat="42.89617" lon="0.08253">
        <ele>1525</ele>
        <time>2013-01-01T14:25:47Z</time>
      </trkpt>
    </trkseg>
  </trk>
</gpx>